<?xml version="1.0" encoding="UTF-8" standalone="no" ?>
<gpx xmlns="http://www.topografix.com/GPX/1/1" xmlns:xsi="http://www.w3.org/2001/XMLSchema-instance" xsi:schemaLocation="http://www.topografix.com/GPX/1/1 http://www.topografix.com/GPX/1/1/gpx.xsd" version="1.1" creator="VisuGPX - https://www.visugpx.com">
  <metadata>
    <name>Tour d'Europe: étape 036</name>
    <desc><![CDATA[Étape 036]]></desc>
  </metadata>
  <trk>
    <name><![CDATA[Tour d'Europe: étape 036]]></name>
    <trkseg>
      <trkpt lat="62.90408" lon="6.93018">
        <ele>67.913083</ele>
        <time>2020-08-03T08:08:41.155Z</time>
      </trkpt>
      <trkpt lat="62.90407" lon="6.92995">
        <ele>67.913083</ele>
        <time>2020-08-03T08:18:06.122Z</time>
      </trkpt>
      <trkpt lat="62.90406" lon="6.92972">
        <ele>67.913083</ele>
        <time>2020-08-03T08:18:11.080Z</time>
      </trkpt>
      <trkpt lat="62.90404" lon="6.92952">
        <ele>67.913083</ele>
        <time>2020-08-03T08:18:15.074Z</time>
      </trkpt>
      <trkpt lat="62.90402" lon="6.92931">
        <ele>67.913083</ele>
        <time>2020-08-03T08:18:19.068Z</time>
      </trkpt>
      <trkpt lat="62.90401" lon="6.92907">
        <ele>67.913083</ele>
        <time>2020-08-03T08:18:24.091Z</time>
      </trkpt>
      <trkpt lat="62.90398" lon="6.92883">
        <ele>67.913083</ele>
        <time>2020-08-03T08:18:29.069Z</time>
      </trkpt>
      <trkpt lat="62.90391" lon="6.92872">
        <ele>67.913083</ele>
        <time>2020-08-03T08:18:33.088Z</time>
      </trkpt>
      <trkpt lat="62.90388" lon="6.92892">
        <ele>67.913083</ele>
        <time>2020-08-03T08:18:38.067Z</time>
      </trkpt>
      <trkpt lat="62.90405" lon="6.92897">
        <ele>67.470687</ele>
        <time>2020-08-03T08:23:45.074Z</time>
      </trkpt>
      <trkpt lat="62.90415" lon="6.92901">
        <ele>66.880026</ele>
        <time>2020-08-03T08:23:49.115Z</time>
      </trkpt>
      <trkpt lat="62.90425" lon="6.92905">
        <ele>66.351244</ele>
        <time>2020-08-03T08:23:53.115Z</time>
      </trkpt>
      <trkpt lat="62.90435" lon="6.92908">
        <ele>65.806141</ele>
        <time>2020-08-03T08:23:57.079Z</time>
      </trkpt>
      <trkpt lat="62.90445" lon="6.92912">
        <ele>65.284849</ele>
        <time>2020-08-03T08:24:01.069Z</time>
      </trkpt>
      <trkpt lat="62.90456" lon="6.92913">
        <ele>64.707043</ele>
        <time>2020-08-03T08:24:06.077Z</time>
      </trkpt>
      <trkpt lat="62.90466" lon="6.9291">
        <ele>64.158388</ele>
        <time>2020-08-03T08:24:12.065Z</time>
      </trkpt>
      <trkpt lat="62.90476" lon="6.92904">
        <ele>63.583277</ele>
        <time>2020-08-03T08:24:17.087Z</time>
      </trkpt>
      <trkpt lat="62.90483" lon="6.92891">
        <ele>63.086571</ele>
        <time>2020-08-03T08:24:20.077Z</time>
      </trkpt>
      <trkpt lat="62.90486" lon="6.9287">
        <ele>62.568597</ele>
        <time>2020-08-03T08:24:23.065Z</time>
      </trkpt>
      <trkpt lat="62.90488" lon="6.92848">
        <ele>62.025801</ele>
        <time>2020-08-03T08:24:26.082Z</time>
      </trkpt>
      <trkpt lat="62.9049" lon="6.92829">
        <ele>61.529975</ele>
        <time>2020-08-03T08:24:29.071Z</time>
      </trkpt>
      <trkpt lat="62.90493" lon="6.92809">
        <ele>61.041184</ele>
        <time>2020-08-03T08:24:32.066Z</time>
      </trkpt>
      <trkpt lat="62.90495" lon="6.92788">
        <ele>60.499577</ele>
        <time>2020-08-03T08:24:35.095Z</time>
      </trkpt>
      <trkpt lat="62.90498" lon="6.92764">
        <ele>59.900998</ele>
        <time>2020-08-03T08:24:38.090Z</time>
      </trkpt>
      <trkpt lat="62.90502" lon="6.92736">
        <ele>59.184069</ele>
        <time>2020-08-03T08:24:41.093Z</time>
      </trkpt>
      <trkpt lat="62.90505" lon="6.92715">
        <ele>58.654907</ele>
        <time>2020-08-03T08:24:43.078Z</time>
      </trkpt>
      <trkpt lat="62.90507" lon="6.92695">
        <ele>58.275596</ele>
        <time>2020-08-03T08:24:45.070Z</time>
      </trkpt>
      <trkpt lat="62.90509" lon="6.92673">
        <ele>58.212587</ele>
        <time>2020-08-03T08:24:47.097Z</time>
      </trkpt>
      <trkpt lat="62.90511" lon="6.9265">
        <ele>58.147414</ele>
        <time>2020-08-03T08:24:49.109Z</time>
      </trkpt>
      <trkpt lat="62.90514" lon="6.92628">
        <ele>58.082102</ele>
        <time>2020-08-03T08:24:51.130Z</time>
      </trkpt>
      <trkpt lat="62.90516" lon="6.92607">
        <ele>58.020362</ele>
        <time>2020-08-03T08:24:53.074Z</time>
      </trkpt>
      <trkpt lat="62.90518" lon="6.92586">
        <ele>57.959185</ele>
        <time>2020-08-03T08:24:55.091Z</time>
      </trkpt>
      <trkpt lat="62.9052" lon="6.92566">
        <ele>57.901177</ele>
        <time>2020-08-03T08:24:57.088Z</time>
      </trkpt>
      <trkpt lat="62.90522" lon="6.92545">
        <ele>57.842605</ele>
        <time>2020-08-03T08:24:59.087Z</time>
      </trkpt>
      <trkpt lat="62.90525" lon="6.92517">
        <ele>57.761131</ele>
        <time>2020-08-03T08:25:02.095Z</time>
      </trkpt>
      <trkpt lat="62.90527" lon="6.92498">
        <ele>57.70486</ele>
        <time>2020-08-03T08:25:04.087Z</time>
      </trkpt>
      <trkpt lat="62.90529" lon="6.92478">
        <ele>57.646576</ele>
        <time>2020-08-03T08:25:06.111Z</time>
      </trkpt>
      <trkpt lat="62.90531" lon="6.92458">
        <ele>57.590126</ele>
        <time>2020-08-03T08:25:08.082Z</time>
      </trkpt>
      <trkpt lat="62.90532" lon="6.92439">
        <ele>57.534569</ele>
        <time>2020-08-03T08:25:10.080Z</time>
      </trkpt>
      <trkpt lat="62.90535" lon="6.92411">
        <ele>57.454435</ele>
        <time>2020-08-03T08:25:13.070Z</time>
      </trkpt>
      <trkpt lat="62.90537" lon="6.92383">
        <ele>57.375854</ele>
        <time>2020-08-03T08:25:16.079Z</time>
      </trkpt>
      <trkpt lat="62.90539" lon="6.92357">
        <ele>57.300594</ele>
        <time>2020-08-03T08:25:19.088Z</time>
      </trkpt>
      <trkpt lat="62.9054" lon="6.92329">
        <ele>57.221165</ele>
        <time>2020-08-03T08:25:22.079Z</time>
      </trkpt>
      <trkpt lat="62.90541" lon="6.92308">
        <ele>57.175245</ele>
        <time>2020-08-03T08:25:24.098Z</time>
      </trkpt>
      <trkpt lat="62.90543" lon="6.92285">
        <ele>57.167726</ele>
        <time>2020-08-03T08:25:26.118Z</time>
      </trkpt>
      <trkpt lat="62.90547" lon="6.92262">
        <ele>57.15964</ele>
        <time>2020-08-03T08:25:28.109Z</time>
      </trkpt>
      <trkpt lat="62.9055" lon="6.92238">
        <ele>57.151389</ele>
        <time>2020-08-03T08:25:30.086Z</time>
      </trkpt>
      <trkpt lat="62.90553" lon="6.92213">
        <ele>57.142723</ele>
        <time>2020-08-03T08:25:32.086Z</time>
      </trkpt>
      <trkpt lat="62.90556" lon="6.92187">
        <ele>57.133997</ele>
        <time>2020-08-03T08:25:34.078Z</time>
      </trkpt>
      <trkpt lat="62.90559" lon="6.92162">
        <ele>57.125509</ele>
        <time>2020-08-03T08:25:36.107Z</time>
      </trkpt>
      <trkpt lat="62.90562" lon="6.92139">
        <ele>57.117468</ele>
        <time>2020-08-03T08:25:38.073Z</time>
      </trkpt>
      <trkpt lat="62.90566" lon="6.92117">
        <ele>57.109733</ele>
        <time>2020-08-03T08:25:40.079Z</time>
      </trkpt>
      <trkpt lat="62.90569" lon="6.92095">
        <ele>57.102115</ele>
        <time>2020-08-03T08:25:42.105Z</time>
      </trkpt>
      <trkpt lat="62.90573" lon="6.92074">
        <ele>57.094786</ele>
        <time>2020-08-03T08:25:44.092Z</time>
      </trkpt>
      <trkpt lat="62.90576" lon="6.92054">
        <ele>57.087726</ele>
        <time>2020-08-03T08:25:46.107Z</time>
      </trkpt>
      <trkpt lat="62.9058" lon="6.92034">
        <ele>57.080498</ele>
        <time>2020-08-03T08:25:48.075Z</time>
      </trkpt>
      <trkpt lat="62.90584" lon="6.92014">
        <ele>57.073314</ele>
        <time>2020-08-03T08:25:50.076Z</time>
      </trkpt>
      <trkpt lat="62.90587" lon="6.91993">
        <ele>57.06628</ele>
        <time>2020-08-03T08:25:52.123Z</time>
      </trkpt>
      <trkpt lat="62.9059" lon="6.91974">
        <ele>57.059404</ele>
        <time>2020-08-03T08:25:54.077Z</time>
      </trkpt>
      <trkpt lat="62.90593" lon="6.91953">
        <ele>57.052009</ele>
        <time>2020-08-03T08:25:56.074Z</time>
      </trkpt>
      <trkpt lat="62.90598" lon="6.91932">
        <ele>57.059746</ele>
        <time>2020-08-03T08:25:58.108Z</time>
      </trkpt>
      <trkpt lat="62.90602" lon="6.91913">
        <ele>57.098997</ele>
        <time>2020-08-03T08:26:00.074Z</time>
      </trkpt>
      <trkpt lat="62.90606" lon="6.91894">
        <ele>57.134829</ele>
        <time>2020-08-03T08:26:02.093Z</time>
      </trkpt>
      <trkpt lat="62.9061" lon="6.91875">
        <ele>57.17114</ele>
        <time>2020-08-03T08:26:04.081Z</time>
      </trkpt>
      <trkpt lat="62.90613" lon="6.91857">
        <ele>57.20633</ele>
        <time>2020-08-03T08:26:06.109Z</time>
      </trkpt>
      <trkpt lat="62.90617" lon="6.91838">
        <ele>57.24296</ele>
        <time>2020-08-03T08:26:08.066Z</time>
      </trkpt>
      <trkpt lat="62.90623" lon="6.91813">
        <ele>57.293312</ele>
        <time>2020-08-03T08:26:11.065Z</time>
      </trkpt>
      <trkpt lat="62.90629" lon="6.91787">
        <ele>57.344673</ele>
        <time>2020-08-03T08:26:14.106Z</time>
      </trkpt>
      <trkpt lat="62.90635" lon="6.91761">
        <ele>57.396334</ele>
        <time>2020-08-03T08:26:17.068Z</time>
      </trkpt>
      <trkpt lat="62.9064" lon="6.91735">
        <ele>57.447654</ele>
        <time>2020-08-03T08:26:20.098Z</time>
      </trkpt>
      <trkpt lat="62.90646" lon="6.91711">
        <ele>57.496505</ele>
        <time>2020-08-03T08:26:23.093Z</time>
      </trkpt>
      <trkpt lat="62.90652" lon="6.91686">
        <ele>57.544652</ele>
        <time>2020-08-03T08:26:26.098Z</time>
      </trkpt>
      <trkpt lat="62.90656" lon="6.91668">
        <ele>57.581279</ele>
        <time>2020-08-03T08:26:28.085Z</time>
      </trkpt>
      <trkpt lat="62.9066" lon="6.91647">
        <ele>57.622753</ele>
        <time>2020-08-03T08:26:30.074Z</time>
      </trkpt>
      <trkpt lat="62.90666" lon="6.91623">
        <ele>57.670387</ele>
        <time>2020-08-03T08:26:32.130Z</time>
      </trkpt>
      <trkpt lat="62.90672" lon="6.91596">
        <ele>57.722834</ele>
        <time>2020-08-03T08:26:34.089Z</time>
      </trkpt>
      <trkpt lat="62.90678" lon="6.91569">
        <ele>57.869923</ele>
        <time>2020-08-03T08:26:36.104Z</time>
      </trkpt>
      <trkpt lat="62.90683" lon="6.91544">
        <ele>58.08951</ele>
        <time>2020-08-03T08:26:38.072Z</time>
      </trkpt>
      <trkpt lat="62.90689" lon="6.91519">
        <ele>58.307778</ele>
        <time>2020-08-03T08:26:40.090Z</time>
      </trkpt>
      <trkpt lat="62.90695" lon="6.91493">
        <ele>58.526582</ele>
        <time>2020-08-03T08:26:42.081Z</time>
      </trkpt>
      <trkpt lat="62.907" lon="6.9147">
        <ele>58.727859</ele>
        <time>2020-08-03T08:26:44.088Z</time>
      </trkpt>
      <trkpt lat="62.90705" lon="6.9145">
        <ele>58.905777</ele>
        <time>2020-08-03T08:26:46.076Z</time>
      </trkpt>
      <trkpt lat="62.90714" lon="6.91432">
        <ele>59.11499</ele>
        <time>2020-08-03T08:26:49.087Z</time>
      </trkpt>
      <trkpt lat="62.90726" lon="6.9144">
        <ele>59.323462</ele>
        <time>2020-08-03T08:26:52.072Z</time>
      </trkpt>
      <trkpt lat="62.9073" lon="6.91459">
        <ele>59.483663</ele>
        <time>2020-08-03T08:26:55.081Z</time>
      </trkpt>
      <trkpt lat="62.90732" lon="6.91483">
        <ele>59.673534</ele>
        <time>2020-08-03T08:27:00.086Z</time>
      </trkpt>
      <trkpt lat="62.90736" lon="6.91504">
        <ele>59.845491</ele>
        <time>2020-08-03T08:27:04.080Z</time>
      </trkpt>
      <trkpt lat="62.90739" lon="6.91523">
        <ele>60.004786</ele>
        <time>2020-08-03T08:27:07.076Z</time>
      </trkpt>
      <trkpt lat="62.90742" lon="6.91544">
        <ele>60.177056</ele>
        <time>2020-08-03T08:27:10.096Z</time>
      </trkpt>
      <trkpt lat="62.90745" lon="6.91565">
        <ele>60.34989</ele>
        <time>2020-08-03T08:27:13.063Z</time>
      </trkpt>
      <trkpt lat="62.90749" lon="6.91586">
        <ele>60.521118</ele>
        <time>2020-08-03T08:27:16.092Z</time>
      </trkpt>
      <trkpt lat="62.90753" lon="6.91606">
        <ele>60.689239</ele>
        <time>2020-08-03T08:27:19.089Z</time>
      </trkpt>
      <trkpt lat="62.90757" lon="6.91626">
        <ele>60.796254</ele>
        <time>2020-08-03T08:27:22.091Z</time>
      </trkpt>
      <trkpt lat="62.90763" lon="6.91645">
        <ele>60.751619</ele>
        <time>2020-08-03T08:27:25.089Z</time>
      </trkpt>
      <trkpt lat="62.90769" lon="6.91664">
        <ele>60.707101</ele>
        <time>2020-08-03T08:27:28.080Z</time>
      </trkpt>
      <trkpt lat="62.90775" lon="6.91683">
        <ele>60.660982</ele>
        <time>2020-08-03T08:27:31.102Z</time>
      </trkpt>
      <trkpt lat="62.90781" lon="6.91701">
        <ele>60.616205</ele>
        <time>2020-08-03T08:27:34.083Z</time>
      </trkpt>
      <trkpt lat="62.90788" lon="6.9172">
        <ele>60.570346</ele>
        <time>2020-08-03T08:27:37.073Z</time>
      </trkpt>
      <trkpt lat="62.90794" lon="6.91737">
        <ele>60.526102</ele>
        <time>2020-08-03T08:27:40.094Z</time>
      </trkpt>
      <trkpt lat="62.908" lon="6.91755">
        <ele>60.482116</ele>
        <time>2020-08-03T08:27:43.088Z</time>
      </trkpt>
      <trkpt lat="62.90806" lon="6.91773">
        <ele>60.438803</ele>
        <time>2020-08-03T08:27:46.074Z</time>
      </trkpt>
      <trkpt lat="62.90813" lon="6.9179">
        <ele>60.395799</ele>
        <time>2020-08-03T08:27:49.115Z</time>
      </trkpt>
      <trkpt lat="62.90819" lon="6.91808">
        <ele>60.351103</ele>
        <time>2020-08-03T08:27:52.071Z</time>
      </trkpt>
      <trkpt lat="62.90826" lon="6.91826">
        <ele>60.303674</ele>
        <time>2020-08-03T08:27:55.095Z</time>
      </trkpt>
      <trkpt lat="62.90834" lon="6.91844">
        <ele>60.254098</ele>
        <time>2020-08-03T08:27:58.097Z</time>
      </trkpt>
      <trkpt lat="62.90843" lon="6.91863">
        <ele>60.202818</ele>
        <time>2020-08-03T08:28:01.074Z</time>
      </trkpt>
      <trkpt lat="62.90851" lon="6.91881">
        <ele>60.153088</ele>
        <time>2020-08-03T08:28:04.115Z</time>
      </trkpt>
      <trkpt lat="62.90859" lon="6.91898">
        <ele>60.104642</ele>
        <time>2020-08-03T08:28:07.094Z</time>
      </trkpt>
      <trkpt lat="62.90867" lon="6.91916">
        <ele>60.054526</ele>
        <time>2020-08-03T08:28:10.101Z</time>
      </trkpt>
      <trkpt lat="62.90876" lon="6.91934">
        <ele>59.960605</ele>
        <time>2020-08-03T08:28:13.086Z</time>
      </trkpt>
      <trkpt lat="62.90884" lon="6.91951">
        <ele>59.844067</ele>
        <time>2020-08-03T08:28:16.092Z</time>
      </trkpt>
      <trkpt lat="62.90893" lon="6.91968">
        <ele>59.72213</ele>
        <time>2020-08-03T08:28:19.075Z</time>
      </trkpt>
      <trkpt lat="62.90904" lon="6.91984">
        <ele>59.594243</ele>
        <time>2020-08-03T08:28:22.107Z</time>
      </trkpt>
      <trkpt lat="62.90913" lon="6.92001">
        <ele>59.470763</ele>
        <time>2020-08-03T08:28:25.076Z</time>
      </trkpt>
      <trkpt lat="62.90923" lon="6.92019">
        <ele>59.345499</ele>
        <time>2020-08-03T08:28:28.079Z</time>
      </trkpt>
      <trkpt lat="62.90932" lon="6.92037">
        <ele>59.225548</ele>
        <time>2020-08-03T08:28:31.071Z</time>
      </trkpt>
      <trkpt lat="62.9094" lon="6.92055">
        <ele>59.107823</ele>
        <time>2020-08-03T08:28:34.081Z</time>
      </trkpt>
      <trkpt lat="62.90946" lon="6.92078">
        <ele>58.984706</ele>
        <time>2020-08-03T08:28:37.107Z</time>
      </trkpt>
      <trkpt lat="62.90956" lon="6.92096">
        <ele>58.85292</ele>
        <time>2020-08-03T08:28:40.092Z</time>
      </trkpt>
      <trkpt lat="62.90963" lon="6.92109">
        <ele>58.761656</ele>
        <time>2020-08-03T08:28:42.069Z</time>
      </trkpt>
      <trkpt lat="62.9097" lon="6.92121">
        <ele>58.670391</ele>
        <time>2020-08-03T08:28:44.107Z</time>
      </trkpt>
      <trkpt lat="62.90977" lon="6.92134">
        <ele>58.576322</ele>
        <time>2020-08-03T08:28:46.098Z</time>
      </trkpt>
      <trkpt lat="62.90985" lon="6.92147">
        <ele>58.481472</ele>
        <time>2020-08-03T08:28:48.107Z</time>
      </trkpt>
      <trkpt lat="62.90995" lon="6.92165">
        <ele>58.350105</ele>
        <time>2020-08-03T08:28:51.085Z</time>
      </trkpt>
      <trkpt lat="62.91003" lon="6.92183">
        <ele>58.22985</ele>
        <time>2020-08-03T08:28:54.073Z</time>
      </trkpt>
      <trkpt lat="62.91012" lon="6.922">
        <ele>58.589759</ele>
        <time>2020-08-03T08:28:57.078Z</time>
      </trkpt>
      <trkpt lat="62.91022" lon="6.92218">
        <ele>59.001449</ele>
        <time>2020-08-03T08:29:00.100Z</time>
      </trkpt>
      <trkpt lat="62.91031" lon="6.92235">
        <ele>59.405782</ele>
        <time>2020-08-03T08:29:03.120Z</time>
      </trkpt>
      <trkpt lat="62.91038" lon="6.92247">
        <ele>59.71287</ele>
        <time>2020-08-03T08:29:05.078Z</time>
      </trkpt>
      <trkpt lat="62.91049" lon="6.92265">
        <ele>60.166539</ele>
        <time>2020-08-03T08:29:08.069Z</time>
      </trkpt>
      <trkpt lat="62.91056" lon="6.92278">
        <ele>60.468252</ele>
        <time>2020-08-03T08:29:10.108Z</time>
      </trkpt>
      <trkpt lat="62.91063" lon="6.92292">
        <ele>60.793229</ele>
        <time>2020-08-03T08:29:12.086Z</time>
      </trkpt>
      <trkpt lat="62.91073" lon="6.9231">
        <ele>61.240345</ele>
        <time>2020-08-03T08:29:15.092Z</time>
      </trkpt>
      <trkpt lat="62.91083" lon="6.92329">
        <ele>61.683906</ele>
        <time>2020-08-03T08:29:18.113Z</time>
      </trkpt>
      <trkpt lat="62.91092" lon="6.92347">
        <ele>62.098203</ele>
        <time>2020-08-03T08:29:21.095Z</time>
      </trkpt>
      <trkpt lat="62.91101" lon="6.92365">
        <ele>62.493303</ele>
        <time>2020-08-03T08:29:24.088Z</time>
      </trkpt>
      <trkpt lat="62.9111" lon="6.92382">
        <ele>62.87977</ele>
        <time>2020-08-03T08:29:27.087Z</time>
      </trkpt>
      <trkpt lat="62.91118" lon="6.92397">
        <ele>63.255268</ele>
        <time>2020-08-03T08:29:30.083Z</time>
      </trkpt>
      <trkpt lat="62.91128" lon="6.92414">
        <ele>63.659956</ele>
        <time>2020-08-03T08:29:33.072Z</time>
      </trkpt>
      <trkpt lat="62.91136" lon="6.92432">
        <ele>64.054311</ele>
        <time>2020-08-03T08:29:36.075Z</time>
      </trkpt>
      <trkpt lat="62.91144" lon="6.92451">
        <ele>64.279177</ele>
        <time>2020-08-03T08:29:39.073Z</time>
      </trkpt>
      <trkpt lat="62.91153" lon="6.92468">
        <ele>64.32099</ele>
        <time>2020-08-03T08:29:42.077Z</time>
      </trkpt>
      <trkpt lat="62.91163" lon="6.92485">
        <ele>64.364411</ele>
        <time>2020-08-03T08:29:45.071Z</time>
      </trkpt>
      <trkpt lat="62.91174" lon="6.92502">
        <ele>64.411392</ele>
        <time>2020-08-03T08:29:48.106Z</time>
      </trkpt>
      <trkpt lat="62.91183" lon="6.92513">
        <ele>64.44655</ele>
        <time>2020-08-03T08:29:50.088Z</time>
      </trkpt>
      <trkpt lat="62.91192" lon="6.92525">
        <ele>64.482045</ele>
        <time>2020-08-03T08:29:52.110Z</time>
      </trkpt>
      <trkpt lat="62.912" lon="6.92539">
        <ele>64.518076</ele>
        <time>2020-08-03T08:29:54.078Z</time>
      </trkpt>
      <trkpt lat="62.91208" lon="6.92554">
        <ele>64.553931</ele>
        <time>2020-08-03T08:29:56.088Z</time>
      </trkpt>
      <trkpt lat="62.91215" lon="6.92568">
        <ele>64.5885</ele>
        <time>2020-08-03T08:29:58.093Z</time>
      </trkpt>
      <trkpt lat="62.91223" lon="6.92582">
        <ele>64.622268</ele>
        <time>2020-08-03T08:30:00.089Z</time>
      </trkpt>
      <trkpt lat="62.9123" lon="6.92595">
        <ele>64.654053</ele>
        <time>2020-08-03T08:30:02.107Z</time>
      </trkpt>
      <trkpt lat="62.91237" lon="6.92608">
        <ele>64.686779</ele>
        <time>2020-08-03T08:30:04.132Z</time>
      </trkpt>
      <trkpt lat="62.91247" lon="6.92627">
        <ele>64.73272</ele>
        <time>2020-08-03T08:30:07.064Z</time>
      </trkpt>
      <trkpt lat="62.91256" lon="6.92646">
        <ele>64.776943</ele>
        <time>2020-08-03T08:30:10.111Z</time>
      </trkpt>
      <trkpt lat="62.91265" lon="6.92664">
        <ele>64.819713</ele>
        <time>2020-08-03T08:30:13.079Z</time>
      </trkpt>
      <trkpt lat="62.91274" lon="6.92682">
        <ele>64.862936</ele>
        <time>2020-08-03T08:30:16.088Z</time>
      </trkpt>
      <trkpt lat="62.91284" lon="6.92701">
        <ele>64.639039</ele>
        <time>2020-08-03T08:30:19.088Z</time>
      </trkpt>
      <trkpt lat="62.91292" lon="6.92715">
        <ele>64.272057</ele>
        <time>2020-08-03T08:30:21.083Z</time>
      </trkpt>
      <trkpt lat="62.91299" lon="6.92729">
        <ele>63.906162</ele>
        <time>2020-08-03T08:30:23.069Z</time>
      </trkpt>
      <trkpt lat="62.91307" lon="6.92743">
        <ele>63.53165</ele>
        <time>2020-08-03T08:30:25.085Z</time>
      </trkpt>
      <trkpt lat="62.91315" lon="6.92757">
        <ele>63.149538</ele>
        <time>2020-08-03T08:30:27.107Z</time>
      </trkpt>
      <trkpt lat="62.91323" lon="6.92773">
        <ele>62.750093</ele>
        <time>2020-08-03T08:30:29.118Z</time>
      </trkpt>
      <trkpt lat="62.91331" lon="6.92788">
        <ele>62.35724</ele>
        <time>2020-08-03T08:30:31.093Z</time>
      </trkpt>
      <trkpt lat="62.91339" lon="6.92803">
        <ele>61.956682</ele>
        <time>2020-08-03T08:30:33.102Z</time>
      </trkpt>
      <trkpt lat="62.91348" lon="6.92819">
        <ele>61.545434</ele>
        <time>2020-08-03T08:30:35.077Z</time>
      </trkpt>
      <trkpt lat="62.91356" lon="6.92835">
        <ele>61.119066</ele>
        <time>2020-08-03T08:30:37.074Z</time>
      </trkpt>
      <trkpt lat="62.91365" lon="6.92852">
        <ele>60.690875</ele>
        <time>2020-08-03T08:30:39.077Z</time>
      </trkpt>
      <trkpt lat="62.91373" lon="6.9287">
        <ele>60.265756</ele>
        <time>2020-08-03T08:30:41.092Z</time>
      </trkpt>
      <trkpt lat="62.91381" lon="6.92886">
        <ele>59.855002</ele>
        <time>2020-08-03T08:30:43.075Z</time>
      </trkpt>
      <trkpt lat="62.91389" lon="6.92903">
        <ele>59.422926</ele>
        <time>2020-08-03T08:30:45.078Z</time>
      </trkpt>
      <trkpt lat="62.91398" lon="6.92921">
        <ele>58.978024</ele>
        <time>2020-08-03T08:30:47.066Z</time>
      </trkpt>
      <trkpt lat="62.91407" lon="6.92939">
        <ele>58.523129</ele>
        <time>2020-08-03T08:30:49.116Z</time>
      </trkpt>
      <trkpt lat="62.91415" lon="6.92957">
        <ele>58.176453</ele>
        <time>2020-08-03T08:30:51.075Z</time>
      </trkpt>
      <trkpt lat="62.91421" lon="6.92977">
        <ele>58.16054</ele>
        <time>2020-08-03T08:30:53.075Z</time>
      </trkpt>
      <trkpt lat="62.91427" lon="6.92991">
        <ele>58.146953</ele>
        <time>2020-08-03T08:30:55.090Z</time>
      </trkpt>
      <trkpt lat="62.91437" lon="6.9299">
        <ele>58.133404</ele>
        <time>2020-08-03T08:30:57.074Z</time>
      </trkpt>
      <trkpt lat="62.91446" lon="6.92978">
        <ele>58.11765</ele>
        <time>2020-08-03T08:30:59.068Z</time>
      </trkpt>
      <trkpt lat="62.91455" lon="6.92966">
        <ele>58.102689</ele>
        <time>2020-08-03T08:31:01.127Z</time>
      </trkpt>
      <trkpt lat="62.91468" lon="6.92973">
        <ele>58.082955</ele>
        <time>2020-08-03T08:31:04.091Z</time>
      </trkpt>
      <trkpt lat="62.91475" lon="6.92985">
        <ele>58.069223</ele>
        <time>2020-08-03T08:31:06.074Z</time>
      </trkpt>
      <trkpt lat="62.91484" lon="6.92994">
        <ele>58.055471</ele>
        <time>2020-08-03T08:31:09.071Z</time>
      </trkpt>
      <trkpt lat="62.91494" lon="6.93005">
        <ele>58.039407</ele>
        <time>2020-08-03T08:31:13.070Z</time>
      </trkpt>
      <trkpt lat="62.91503" lon="6.93014">
        <ele>58.024012</ele>
        <time>2020-08-03T08:31:17.089Z</time>
      </trkpt>
      <trkpt lat="62.91512" lon="6.93025">
        <ele>58.009127</ele>
        <time>2020-08-03T08:31:21.101Z</time>
      </trkpt>
      <trkpt lat="62.91521" lon="6.93035">
        <ele>57.994866</ele>
        <time>2020-08-03T08:31:25.087Z</time>
      </trkpt>
      <trkpt lat="62.91529" lon="6.93044">
        <ele>57.981564</ele>
        <time>2020-08-03T08:31:29.083Z</time>
      </trkpt>
      <trkpt lat="62.91539" lon="6.93054">
        <ele>57.965717</ele>
        <time>2020-08-03T08:31:34.079Z</time>
      </trkpt>
      <trkpt lat="62.91547" lon="6.93065">
        <ele>57.952443</ele>
        <time>2020-08-03T08:31:38.094Z</time>
      </trkpt>
      <trkpt lat="62.91555" lon="6.93077">
        <ele>57.937712</ele>
        <time>2020-08-03T08:31:42.086Z</time>
      </trkpt>
      <trkpt lat="62.91564" lon="6.93091">
        <ele>57.921787</ele>
        <time>2020-08-03T08:31:46.079Z</time>
      </trkpt>
      <trkpt lat="62.91573" lon="6.93108">
        <ele>58.0216</ele>
        <time>2020-08-03T08:31:50.092Z</time>
      </trkpt>
      <trkpt lat="62.9158" lon="6.93123">
        <ele>58.13934</ele>
        <time>2020-08-03T08:31:53.091Z</time>
      </trkpt>
      <trkpt lat="62.91587" lon="6.93142">
        <ele>58.271467</ele>
        <time>2020-08-03T08:31:56.113Z</time>
      </trkpt>
      <trkpt lat="62.91594" lon="6.93162">
        <ele>58.409594</ele>
        <time>2020-08-03T08:31:59.097Z</time>
      </trkpt>
      <trkpt lat="62.91601" lon="6.93185">
        <ele>58.560943</ele>
        <time>2020-08-03T08:32:02.088Z</time>
      </trkpt>
      <trkpt lat="62.91609" lon="6.93208">
        <ele>58.720025</ele>
        <time>2020-08-03T08:32:05.103Z</time>
      </trkpt>
      <trkpt lat="62.91615" lon="6.93225">
        <ele>58.831664</ele>
        <time>2020-08-03T08:32:07.087Z</time>
      </trkpt>
      <trkpt lat="62.9162" lon="6.93242">
        <ele>58.946572</ele>
        <time>2020-08-03T08:32:09.075Z</time>
      </trkpt>
      <trkpt lat="62.91626" lon="6.93259">
        <ele>59.06445</ele>
        <time>2020-08-03T08:32:11.101Z</time>
      </trkpt>
      <trkpt lat="62.91632" lon="6.93278">
        <ele>59.182956</ele>
        <time>2020-08-03T08:32:13.128Z</time>
      </trkpt>
      <trkpt lat="62.91637" lon="6.93295">
        <ele>59.301542</ele>
        <time>2020-08-03T08:32:15.078Z</time>
      </trkpt>
      <trkpt lat="62.91644" lon="6.93313">
        <ele>59.423304</ele>
        <time>2020-08-03T08:32:17.154Z</time>
      </trkpt>
      <trkpt lat="62.9165" lon="6.93331">
        <ele>59.545502</ele>
        <time>2020-08-03T08:32:19.071Z</time>
      </trkpt>
      <trkpt lat="62.91655" lon="6.93349">
        <ele>59.667376</ele>
        <time>2020-08-03T08:32:21.096Z</time>
      </trkpt>
      <trkpt lat="62.91661" lon="6.93368">
        <ele>59.788357</ele>
        <time>2020-08-03T08:32:23.092Z</time>
      </trkpt>
      <trkpt lat="62.91667" lon="6.93386">
        <ele>59.908891</ele>
        <time>2020-08-03T08:32:25.073Z</time>
      </trkpt>
      <trkpt lat="62.91672" lon="6.93404">
        <ele>60.026492</ele>
        <time>2020-08-03T08:32:27.089Z</time>
      </trkpt>
      <trkpt lat="62.91678" lon="6.93422">
        <ele>60.037777</ele>
        <time>2020-08-03T08:32:29.105Z</time>
      </trkpt>
      <trkpt lat="62.91683" lon="6.93439">
        <ele>59.989492</ele>
        <time>2020-08-03T08:32:31.079Z</time>
      </trkpt>
      <trkpt lat="62.91689" lon="6.93457">
        <ele>59.938212</ele>
        <time>2020-08-03T08:32:33.122Z</time>
      </trkpt>
      <trkpt lat="62.91695" lon="6.93475">
        <ele>59.885428</ele>
        <time>2020-08-03T08:32:35.079Z</time>
      </trkpt>
      <trkpt lat="62.91701" lon="6.93493">
        <ele>59.833036</ele>
        <time>2020-08-03T08:32:37.109Z</time>
      </trkpt>
      <trkpt lat="62.91708" lon="6.93511">
        <ele>59.78001</ele>
        <time>2020-08-03T08:32:39.108Z</time>
      </trkpt>
      <trkpt lat="62.91714" lon="6.93529">
        <ele>59.72594</ele>
        <time>2020-08-03T08:32:41.089Z</time>
      </trkpt>
      <trkpt lat="62.9172" lon="6.93548">
        <ele>59.673157</ele>
        <time>2020-08-03T08:32:43.129Z</time>
      </trkpt>
      <trkpt lat="62.91726" lon="6.93566">
        <ele>59.621532</ele>
        <time>2020-08-03T08:32:45.100Z</time>
      </trkpt>
      <trkpt lat="62.91732" lon="6.93584">
        <ele>59.568144</ele>
        <time>2020-08-03T08:32:47.089Z</time>
      </trkpt>
      <trkpt lat="62.9174" lon="6.93601">
        <ele>59.514535</ele>
        <time>2020-08-03T08:32:49.089Z</time>
      </trkpt>
      <trkpt lat="62.91746" lon="6.93618">
        <ele>59.461599</ele>
        <time>2020-08-03T08:32:51.113Z</time>
      </trkpt>
      <trkpt lat="62.91752" lon="6.93635">
        <ele>59.411247</ele>
        <time>2020-08-03T08:32:53.093Z</time>
      </trkpt>
      <trkpt lat="62.91758" lon="6.93653">
        <ele>59.36212</ele>
        <time>2020-08-03T08:32:55.124Z</time>
      </trkpt>
      <trkpt lat="62.91763" lon="6.93672">
        <ele>59.310538</ele>
        <time>2020-08-03T08:32:57.092Z</time>
      </trkpt>
      <trkpt lat="62.91769" lon="6.93691">
        <ele>59.256297</ele>
        <time>2020-08-03T08:32:59.089Z</time>
      </trkpt>
      <trkpt lat="62.91775" lon="6.93711">
        <ele>59.19946</ele>
        <time>2020-08-03T08:33:01.098Z</time>
      </trkpt>
      <trkpt lat="62.91782" lon="6.9373">
        <ele>59.132623</ele>
        <time>2020-08-03T08:33:03.082Z</time>
      </trkpt>
      <trkpt lat="62.91788" lon="6.9375">
        <ele>59.005138</ele>
        <time>2020-08-03T08:33:05.085Z</time>
      </trkpt>
      <trkpt lat="62.91794" lon="6.93769">
        <ele>58.879887</ele>
        <time>2020-08-03T08:33:07.083Z</time>
      </trkpt>
      <trkpt lat="62.918" lon="6.93788">
        <ele>58.75326</ele>
        <time>2020-08-03T08:33:09.077Z</time>
      </trkpt>
      <trkpt lat="62.91806" lon="6.93807">
        <ele>58.62777</ele>
        <time>2020-08-03T08:33:11.095Z</time>
      </trkpt>
      <trkpt lat="62.91812" lon="6.93825">
        <ele>58.503924</ele>
        <time>2020-08-03T08:33:13.105Z</time>
      </trkpt>
      <trkpt lat="62.91818" lon="6.93844">
        <ele>58.378009</ele>
        <time>2020-08-03T08:33:15.094Z</time>
      </trkpt>
      <trkpt lat="62.91824" lon="6.93864">
        <ele>58.25067</ele>
        <time>2020-08-03T08:33:17.089Z</time>
      </trkpt>
      <trkpt lat="62.9183" lon="6.93884">
        <ele>58.119595</ele>
        <time>2020-08-03T08:33:19.099Z</time>
      </trkpt>
      <trkpt lat="62.91837" lon="6.93904">
        <ele>57.980843</ele>
        <time>2020-08-03T08:33:21.074Z</time>
      </trkpt>
      <trkpt lat="62.91844" lon="6.93925">
        <ele>57.841116</ele>
        <time>2020-08-03T08:33:23.087Z</time>
      </trkpt>
      <trkpt lat="62.91851" lon="6.93946">
        <ele>57.69744</ele>
        <time>2020-08-03T08:33:25.115Z</time>
      </trkpt>
      <trkpt lat="62.91858" lon="6.93968">
        <ele>57.553763</ele>
        <time>2020-08-03T08:33:27.069Z</time>
      </trkpt>
      <trkpt lat="62.91865" lon="6.93989">
        <ele>57.409123</ele>
        <time>2020-08-03T08:33:29.076Z</time>
      </trkpt>
      <trkpt lat="62.91872" lon="6.94011">
        <ele>57.26254</ele>
        <time>2020-08-03T08:33:31.091Z</time>
      </trkpt>
      <trkpt lat="62.91879" lon="6.94034">
        <ele>57.112389</ele>
        <time>2020-08-03T08:33:33.108Z</time>
      </trkpt>
      <trkpt lat="62.91887" lon="6.94057">
        <ele>56.946385</ele>
        <time>2020-08-03T08:33:35.092Z</time>
      </trkpt>
      <trkpt lat="62.91895" lon="6.94079">
        <ele>56.751407</ele>
        <time>2020-08-03T08:33:37.091Z</time>
      </trkpt>
      <trkpt lat="62.91903" lon="6.94102">
        <ele>56.55643</ele>
        <time>2020-08-03T08:33:39.100Z</time>
      </trkpt>
      <trkpt lat="62.91911" lon="6.94125">
        <ele>56.358692</ele>
        <time>2020-08-03T08:33:41.085Z</time>
      </trkpt>
      <trkpt lat="62.91918" lon="6.94148">
        <ele>56.164158</ele>
        <time>2020-08-03T08:33:43.110Z</time>
      </trkpt>
      <trkpt lat="62.91925" lon="6.94171">
        <ele>55.974973</ele>
        <time>2020-08-03T08:33:45.124Z</time>
      </trkpt>
      <trkpt lat="62.91932" lon="6.94193">
        <ele>55.785597</ele>
        <time>2020-08-03T08:33:47.088Z</time>
      </trkpt>
      <trkpt lat="62.91939" lon="6.94218">
        <ele>55.588368</ele>
        <time>2020-08-03T08:33:49.070Z</time>
      </trkpt>
      <trkpt lat="62.91945" lon="6.94242">
        <ele>55.395656</ele>
        <time>2020-08-03T08:33:51.082Z</time>
      </trkpt>
      <trkpt lat="62.91951" lon="6.94266">
        <ele>55.206045</ele>
        <time>2020-08-03T08:33:53.085Z</time>
      </trkpt>
      <trkpt lat="62.91955" lon="6.9429">
        <ele>55.029826</ele>
        <time>2020-08-03T08:33:55.088Z</time>
      </trkpt>
      <trkpt lat="62.9196" lon="6.94312">
        <ele>54.860075</ele>
        <time>2020-08-03T08:33:57.084Z</time>
      </trkpt>
      <trkpt lat="62.91967" lon="6.94332">
        <ele>54.682162</ele>
        <time>2020-08-03T08:33:59.116Z</time>
      </trkpt>
      <trkpt lat="62.91975" lon="6.94352">
        <ele>54.500261</ele>
        <time>2020-08-03T08:34:01.085Z</time>
      </trkpt>
      <trkpt lat="62.91984" lon="6.9437">
        <ele>54.317353</ele>
        <time>2020-08-03T08:34:03.079Z</time>
      </trkpt>
      <trkpt lat="62.91993" lon="6.94386">
        <ele>54.380818</ele>
        <time>2020-08-03T08:34:05.075Z</time>
      </trkpt>
      <trkpt lat="62.92004" lon="6.94401">
        <ele>54.521029</ele>
        <time>2020-08-03T08:34:07.090Z</time>
      </trkpt>
      <trkpt lat="62.92014" lon="6.94414">
        <ele>54.656447</ele>
        <time>2020-08-03T08:34:09.087Z</time>
      </trkpt>
      <trkpt lat="62.92024" lon="6.94427">
        <ele>54.78553</ele>
        <time>2020-08-03T08:34:11.130Z</time>
      </trkpt>
      <trkpt lat="62.92034" lon="6.94438">
        <ele>54.913116</ele>
        <time>2020-08-03T08:34:13.092Z</time>
      </trkpt>
      <trkpt lat="62.92044" lon="6.9445">
        <ele>55.039207</ele>
        <time>2020-08-03T08:34:15.078Z</time>
      </trkpt>
      <trkpt lat="62.92054" lon="6.94461">
        <ele>55.165903</ele>
        <time>2020-08-03T08:34:17.119Z</time>
      </trkpt>
      <trkpt lat="62.92063" lon="6.94472">
        <ele>55.286598</ele>
        <time>2020-08-03T08:34:19.089Z</time>
      </trkpt>
      <trkpt lat="62.92072" lon="6.94482">
        <ele>55.403985</ele>
        <time>2020-08-03T08:34:21.085Z</time>
      </trkpt>
      <trkpt lat="62.92081" lon="6.94494">
        <ele>55.52091</ele>
        <time>2020-08-03T08:34:23.093Z</time>
      </trkpt>
      <trkpt lat="62.9209" lon="6.94506">
        <ele>55.636262</ele>
        <time>2020-08-03T08:34:25.082Z</time>
      </trkpt>
      <trkpt lat="62.92098" lon="6.94517">
        <ele>55.745439</ele>
        <time>2020-08-03T08:34:27.083Z</time>
      </trkpt>
      <trkpt lat="62.92106" lon="6.94528">
        <ele>55.853663</ele>
        <time>2020-08-03T08:34:29.095Z</time>
      </trkpt>
      <trkpt lat="62.92113" lon="6.94541">
        <ele>55.961724</ele>
        <time>2020-08-03T08:34:31.066Z</time>
      </trkpt>
      <trkpt lat="62.92121" lon="6.94554">
        <ele>56.07194</ele>
        <time>2020-08-03T08:34:33.112Z</time>
      </trkpt>
      <trkpt lat="62.92129" lon="6.94568">
        <ele>56.1877</ele>
        <time>2020-08-03T08:34:35.070Z</time>
      </trkpt>
      <trkpt lat="62.92137" lon="6.94582">
        <ele>56.302671</ele>
        <time>2020-08-03T08:34:37.087Z</time>
      </trkpt>
      <trkpt lat="62.92145" lon="6.94597">
        <ele>56.393832</ele>
        <time>2020-08-03T08:34:39.127Z</time>
      </trkpt>
      <trkpt lat="62.92152" lon="6.94611">
        <ele>56.481799</ele>
        <time>2020-08-03T08:34:41.071Z</time>
      </trkpt>
      <trkpt lat="62.9216" lon="6.94626">
        <ele>56.569647</ele>
        <time>2020-08-03T08:34:43.082Z</time>
      </trkpt>
      <trkpt lat="62.92167" lon="6.94642">
        <ele>56.656202</ele>
        <time>2020-08-03T08:34:45.124Z</time>
      </trkpt>
      <trkpt lat="62.92173" lon="6.94659">
        <ele>56.742652</ele>
        <time>2020-08-03T08:34:47.114Z</time>
      </trkpt>
      <trkpt lat="62.92179" lon="6.94677">
        <ele>56.833384</ele>
        <time>2020-08-03T08:34:49.072Z</time>
      </trkpt>
      <trkpt lat="62.92185" lon="6.94696">
        <ele>56.924682</ele>
        <time>2020-08-03T08:34:51.084Z</time>
      </trkpt>
      <trkpt lat="62.92191" lon="6.94716">
        <ele>57.016863</ele>
        <time>2020-08-03T08:34:53.084Z</time>
      </trkpt>
      <trkpt lat="62.92196" lon="6.94736">
        <ele>57.108976</ele>
        <time>2020-08-03T08:34:55.084Z</time>
      </trkpt>
      <trkpt lat="62.92201" lon="6.94757">
        <ele>57.201012</ele>
        <time>2020-08-03T08:34:57.084Z</time>
      </trkpt>
      <trkpt lat="62.92205" lon="6.94777">
        <ele>57.287398</ele>
        <time>2020-08-03T08:34:59.083Z</time>
      </trkpt>
      <trkpt lat="62.92209" lon="6.94798">
        <ele>57.376875</ele>
        <time>2020-08-03T08:35:01.084Z</time>
      </trkpt>
      <trkpt lat="62.92212" lon="6.9482">
        <ele>57.46783</ele>
        <time>2020-08-03T08:35:03.078Z</time>
      </trkpt>
      <trkpt lat="62.92215" lon="6.94841">
        <ele>57.556804</ele>
        <time>2020-08-03T08:35:05.139Z</time>
      </trkpt>
      <trkpt lat="62.92219" lon="6.94862">
        <ele>57.646725</ele>
        <time>2020-08-03T08:35:07.071Z</time>
      </trkpt>
      <trkpt lat="62.92222" lon="6.94885">
        <ele>57.73893</ele>
        <time>2020-08-03T08:35:09.096Z</time>
      </trkpt>
      <trkpt lat="62.92225" lon="6.94908">
        <ele>57.833805</ele>
        <time>2020-08-03T08:35:11.074Z</time>
      </trkpt>
      <trkpt lat="62.92229" lon="6.94929">
        <ele>57.994539</ele>
        <time>2020-08-03T08:35:13.099Z</time>
      </trkpt>
      <trkpt lat="62.92233" lon="6.9495">
        <ele>58.218662</ele>
        <time>2020-08-03T08:35:15.072Z</time>
      </trkpt>
      <trkpt lat="62.92237" lon="6.9497">
        <ele>58.442856</ele>
        <time>2020-08-03T08:35:17.092Z</time>
      </trkpt>
      <trkpt lat="62.9224" lon="6.94991">
        <ele>58.663677</ele>
        <time>2020-08-03T08:35:19.106Z</time>
      </trkpt>
      <trkpt lat="62.92244" lon="6.95011">
        <ele>58.876388</ele>
        <time>2020-08-03T08:35:21.112Z</time>
      </trkpt>
      <trkpt lat="62.92247" lon="6.9503">
        <ele>59.082704</ele>
        <time>2020-08-03T08:35:23.123Z</time>
      </trkpt>
      <trkpt lat="62.9225" lon="6.95049">
        <ele>59.284344</ele>
        <time>2020-08-03T08:35:25.088Z</time>
      </trkpt>
      <trkpt lat="62.92255" lon="6.95075">
        <ele>59.560057</ele>
        <time>2020-08-03T08:35:28.089Z</time>
      </trkpt>
      <trkpt lat="62.92258" lon="6.95098">
        <ele>59.804737</ele>
        <time>2020-08-03T08:35:31.072Z</time>
      </trkpt>
      <trkpt lat="62.92262" lon="6.95119">
        <ele>60.032885</ele>
        <time>2020-08-03T08:35:34.117Z</time>
      </trkpt>
      <trkpt lat="62.92266" lon="6.95138">
        <ele>60.23976</ele>
        <time>2020-08-03T08:35:37.090Z</time>
      </trkpt>
      <trkpt lat="62.92269" lon="6.95157">
        <ele>60.442333</ele>
        <time>2020-08-03T08:35:40.101Z</time>
      </trkpt>
      <trkpt lat="62.92272" lon="6.95176">
        <ele>60.644102</ele>
        <time>2020-08-03T08:35:43.083Z</time>
      </trkpt>
      <trkpt lat="62.92274" lon="6.95196">
        <ele>60.847767</ele>
        <time>2020-08-03T08:35:46.087Z</time>
      </trkpt>
      <trkpt lat="62.92278" lon="6.9522">
        <ele>61.104411</ele>
        <time>2020-08-03T08:35:50.097Z</time>
      </trkpt>
      <trkpt lat="62.92282" lon="6.95243">
        <ele>61.345919</ele>
        <time>2020-08-03T08:35:54.108Z</time>
      </trkpt>
      <trkpt lat="62.92286" lon="6.95265">
        <ele>61.590203</ele>
        <time>2020-08-03T08:35:58.090Z</time>
      </trkpt>
      <trkpt lat="62.92289" lon="6.9529">
        <ele>61.845572</ele>
        <time>2020-08-03T08:36:02.087Z</time>
      </trkpt>
      <trkpt lat="62.92294" lon="6.95313">
        <ele>62.122079</ele>
        <time>2020-08-03T08:36:06.085Z</time>
      </trkpt>
      <trkpt lat="62.92298" lon="6.95335">
        <ele>62.371995</ele>
        <time>2020-08-03T08:36:10.078Z</time>
      </trkpt>
      <trkpt lat="62.92302" lon="6.95357">
        <ele>62.631711</ele>
        <time>2020-08-03T08:36:14.076Z</time>
      </trkpt>
      <trkpt lat="62.92305" lon="6.9538">
        <ele>62.894291</ele>
        <time>2020-08-03T08:36:18.103Z</time>
      </trkpt>
      <trkpt lat="62.92309" lon="6.95402">
        <ele>63.151524</ele>
        <time>2020-08-03T08:36:22.088Z</time>
      </trkpt>
      <trkpt lat="62.92313" lon="6.95421">
        <ele>63.370062</ele>
        <time>2020-08-03T08:36:25.099Z</time>
      </trkpt>
      <trkpt lat="62.92316" lon="6.95439">
        <ele>63.585393</ele>
        <time>2020-08-03T08:36:28.087Z</time>
      </trkpt>
      <trkpt lat="62.9232" lon="6.95459">
        <ele>63.809967</ele>
        <time>2020-08-03T08:36:31.088Z</time>
      </trkpt>
      <trkpt lat="62.92323" lon="6.95478">
        <ele>64.034121</ele>
        <time>2020-08-03T08:36:34.075Z</time>
      </trkpt>
      <trkpt lat="62.92326" lon="6.95499">
        <ele>64.266985</ele>
        <time>2020-08-03T08:36:37.085Z</time>
      </trkpt>
      <trkpt lat="62.9233" lon="6.95518">
        <ele>64.491418</ele>
        <time>2020-08-03T08:36:40.076Z</time>
      </trkpt>
      <trkpt lat="62.92333" lon="6.95538">
        <ele>64.718864</ele>
        <time>2020-08-03T08:36:43.092Z</time>
      </trkpt>
      <trkpt lat="62.92337" lon="6.9556">
        <ele>64.974073</ele>
        <time>2020-08-03T08:36:46.085Z</time>
      </trkpt>
      <trkpt lat="62.9234" lon="6.95584">
        <ele>65.24941</ele>
        <time>2020-08-03T08:36:49.106Z</time>
      </trkpt>
      <trkpt lat="62.92344" lon="6.95608">
        <ele>65.524703</ele>
        <time>2020-08-03T08:36:52.083Z</time>
      </trkpt>
      <trkpt lat="62.92348" lon="6.95633">
        <ele>65.807259</ele>
        <time>2020-08-03T08:36:55.111Z</time>
      </trkpt>
      <trkpt lat="62.92352" lon="6.95659">
        <ele>66.099762</ele>
        <time>2020-08-03T08:36:58.080Z</time>
      </trkpt>
      <trkpt lat="62.92356" lon="6.95686">
        <ele>65.945612</ele>
        <time>2020-08-03T08:37:01.079Z</time>
      </trkpt>
      <trkpt lat="62.92361" lon="6.95713">
        <ele>65.793123</ele>
        <time>2020-08-03T08:37:04.087Z</time>
      </trkpt>
      <trkpt lat="62.92365" lon="6.95731">
        <ele>65.68543</ele>
        <time>2020-08-03T08:37:06.089Z</time>
      </trkpt>
      <trkpt lat="62.92368" lon="6.95749">
        <ele>65.578581</ele>
        <time>2020-08-03T08:37:08.116Z</time>
      </trkpt>
      <trkpt lat="62.92373" lon="6.95776">
        <ele>65.425926</ele>
        <time>2020-08-03T08:37:11.088Z</time>
      </trkpt>
      <trkpt lat="62.92378" lon="6.95802">
        <ele>65.273271</ele>
        <time>2020-08-03T08:37:14.153Z</time>
      </trkpt>
      <trkpt lat="62.92382" lon="6.95828">
        <ele>65.126614</ele>
        <time>2020-08-03T08:37:17.080Z</time>
      </trkpt>
      <trkpt lat="62.92387" lon="6.95853">
        <ele>64.984361</ele>
        <time>2020-08-03T08:37:20.084Z</time>
      </trkpt>
      <trkpt lat="62.92392" lon="6.95877">
        <ele>64.842095</ele>
        <time>2020-08-03T08:37:23.073Z</time>
      </trkpt>
      <trkpt lat="62.92397" lon="6.959">
        <ele>64.703716</ele>
        <time>2020-08-03T08:37:26.082Z</time>
      </trkpt>
      <trkpt lat="62.92402" lon="6.95922">
        <ele>64.57118</ele>
        <time>2020-08-03T08:37:29.116Z</time>
      </trkpt>
      <trkpt lat="62.92407" lon="6.95943">
        <ele>64.448267</ele>
        <time>2020-08-03T08:37:32.092Z</time>
      </trkpt>
      <trkpt lat="62.92412" lon="6.95963">
        <ele>64.324336</ele>
        <time>2020-08-03T08:37:35.075Z</time>
      </trkpt>
      <trkpt lat="62.92417" lon="6.95987">
        <ele>64.180939</ele>
        <time>2020-08-03T08:37:38.084Z</time>
      </trkpt>
      <trkpt lat="62.92423" lon="6.96011">
        <ele>64.036997</ele>
        <time>2020-08-03T08:37:41.100Z</time>
      </trkpt>
      <trkpt lat="62.92428" lon="6.96033">
        <ele>64.107569</ele>
        <time>2020-08-03T08:37:44.116Z</time>
      </trkpt>
      <trkpt lat="62.92435" lon="6.96056">
        <ele>64.314301</ele>
        <time>2020-08-03T08:37:47.126Z</time>
      </trkpt>
      <trkpt lat="62.92442" lon="6.96078">
        <ele>64.523257</ele>
        <time>2020-08-03T08:37:50.084Z</time>
      </trkpt>
      <trkpt lat="62.92449" lon="6.961">
        <ele>64.725227</ele>
        <time>2020-08-03T08:37:53.077Z</time>
      </trkpt>
      <trkpt lat="62.92456" lon="6.96121">
        <ele>64.932621</ele>
        <time>2020-08-03T08:37:56.073Z</time>
      </trkpt>
      <trkpt lat="62.92464" lon="6.96141">
        <ele>65.132467</ele>
        <time>2020-08-03T08:37:59.089Z</time>
      </trkpt>
      <trkpt lat="62.9247" lon="6.96161">
        <ele>65.318378</ele>
        <time>2020-08-03T08:38:02.077Z</time>
      </trkpt>
      <trkpt lat="62.92476" lon="6.96178">
        <ele>65.487804</ele>
        <time>2020-08-03T08:38:05.083Z</time>
      </trkpt>
      <trkpt lat="62.92483" lon="6.96195">
        <ele>65.657113</ele>
        <time>2020-08-03T08:38:08.106Z</time>
      </trkpt>
      <trkpt lat="62.92489" lon="6.9621">
        <ele>65.810575</ele>
        <time>2020-08-03T08:38:11.119Z</time>
      </trkpt>
      <trkpt lat="62.92494" lon="6.96227">
        <ele>65.966731</ele>
        <time>2020-08-03T08:38:14.102Z</time>
      </trkpt>
      <trkpt lat="62.925" lon="6.96243">
        <ele>66.125644</ele>
        <time>2020-08-03T08:38:17.083Z</time>
      </trkpt>
      <trkpt lat="62.92506" lon="6.96262">
        <ele>66.305211</ele>
        <time>2020-08-03T08:38:20.090Z</time>
      </trkpt>
      <trkpt lat="62.92514" lon="6.96284">
        <ele>66.523728</ele>
        <time>2020-08-03T08:38:23.108Z</time>
      </trkpt>
      <trkpt lat="62.92522" lon="6.96305">
        <ele>66.738188</ele>
        <time>2020-08-03T08:38:26.140Z</time>
      </trkpt>
      <trkpt lat="62.9253" lon="6.96327">
        <ele>66.955507</ele>
        <time>2020-08-03T08:38:29.084Z</time>
      </trkpt>
      <trkpt lat="62.92538" lon="6.9635">
        <ele>66.990807</ele>
        <time>2020-08-03T08:38:32.109Z</time>
      </trkpt>
      <trkpt lat="62.92547" lon="6.96371">
        <ele>66.934666</ele>
        <time>2020-08-03T08:38:35.117Z</time>
      </trkpt>
      <trkpt lat="62.92555" lon="6.96394">
        <ele>66.877744</ele>
        <time>2020-08-03T08:38:38.074Z</time>
      </trkpt>
      <trkpt lat="62.92561" lon="6.96409">
        <ele>66.838429</ele>
        <time>2020-08-03T08:38:40.120Z</time>
      </trkpt>
      <trkpt lat="62.92567" lon="6.96425">
        <ele>66.797284</ele>
        <time>2020-08-03T08:38:42.089Z</time>
      </trkpt>
      <trkpt lat="62.92573" lon="6.96441">
        <ele>66.754899</ele>
        <time>2020-08-03T08:38:44.112Z</time>
      </trkpt>
      <trkpt lat="62.92579" lon="6.96458">
        <ele>66.71337</ele>
        <time>2020-08-03T08:38:46.108Z</time>
      </trkpt>
      <trkpt lat="62.92585" lon="6.96475">
        <ele>66.67016</ele>
        <time>2020-08-03T08:38:48.082Z</time>
      </trkpt>
      <trkpt lat="62.92591" lon="6.96492">
        <ele>66.627037</ele>
        <time>2020-08-03T08:38:50.076Z</time>
      </trkpt>
      <trkpt lat="62.92597" lon="6.9651">
        <ele>66.581874</ele>
        <time>2020-08-03T08:38:52.072Z</time>
      </trkpt>
      <trkpt lat="62.92604" lon="6.96529">
        <ele>66.535973</ele>
        <time>2020-08-03T08:38:54.104Z</time>
      </trkpt>
      <trkpt lat="62.9261" lon="6.96547">
        <ele>66.490547</ele>
        <time>2020-08-03T08:38:56.091Z</time>
      </trkpt>
      <trkpt lat="62.92616" lon="6.96565">
        <ele>66.444383</ele>
        <time>2020-08-03T08:38:58.119Z</time>
      </trkpt>
      <trkpt lat="62.92623" lon="6.96584">
        <ele>66.398323</ele>
        <time>2020-08-03T08:39:00.090Z</time>
      </trkpt>
      <trkpt lat="62.92629" lon="6.96602">
        <ele>66.352831</ele>
        <time>2020-08-03T08:39:02.138Z</time>
      </trkpt>
      <trkpt lat="62.92636" lon="6.96619">
        <ele>66.30765</ele>
        <time>2020-08-03T08:39:04.095Z</time>
      </trkpt>
      <trkpt lat="62.92642" lon="6.96638">
        <ele>66.260717</ele>
        <time>2020-08-03T08:39:06.089Z</time>
      </trkpt>
      <trkpt lat="62.92649" lon="6.96656">
        <ele>66.119075</ele>
        <time>2020-08-03T08:39:08.098Z</time>
      </trkpt>
      <trkpt lat="62.92655" lon="6.96674">
        <ele>65.92777</ele>
        <time>2020-08-03T08:39:10.074Z</time>
      </trkpt>
      <trkpt lat="62.92661" lon="6.96691">
        <ele>65.73576</ele>
        <time>2020-08-03T08:39:12.086Z</time>
      </trkpt>
      <trkpt lat="62.92667" lon="6.96709">
        <ele>65.544704</ele>
        <time>2020-08-03T08:39:14.086Z</time>
      </trkpt>
      <trkpt lat="62.92673" lon="6.96727">
        <ele>65.354783</ele>
        <time>2020-08-03T08:39:16.094Z</time>
      </trkpt>
      <trkpt lat="62.92679" lon="6.96744">
        <ele>65.170338</ele>
        <time>2020-08-03T08:39:18.107Z</time>
      </trkpt>
      <trkpt lat="62.92685" lon="6.96761">
        <ele>64.984533</ele>
        <time>2020-08-03T08:39:20.104Z</time>
      </trkpt>
      <trkpt lat="62.92691" lon="6.96778">
        <ele>64.796848</ele>
        <time>2020-08-03T08:39:22.100Z</time>
      </trkpt>
      <trkpt lat="62.92696" lon="6.96795">
        <ele>64.61626</ele>
        <time>2020-08-03T08:39:24.079Z</time>
      </trkpt>
      <trkpt lat="62.92702" lon="6.96813">
        <ele>64.42703</ele>
        <time>2020-08-03T08:39:26.079Z</time>
      </trkpt>
      <trkpt lat="62.92709" lon="6.96831">
        <ele>64.231401</ele>
        <time>2020-08-03T08:39:28.088Z</time>
      </trkpt>
      <trkpt lat="62.92715" lon="6.9685">
        <ele>64.028445</ele>
        <time>2020-08-03T08:39:30.077Z</time>
      </trkpt>
      <trkpt lat="62.92722" lon="6.96869">
        <ele>63.817506</ele>
        <time>2020-08-03T08:39:32.114Z</time>
      </trkpt>
      <trkpt lat="62.92729" lon="6.96889">
        <ele>63.598558</ele>
        <time>2020-08-03T08:39:34.083Z</time>
      </trkpt>
      <trkpt lat="62.92737" lon="6.96911">
        <ele>63.363971</ele>
        <time>2020-08-03T08:39:36.087Z</time>
      </trkpt>
      <trkpt lat="62.92745" lon="6.96934">
        <ele>63.118272</ele>
        <time>2020-08-03T08:39:38.120Z</time>
      </trkpt>
      <trkpt lat="62.92752" lon="6.96956">
        <ele>62.874885</ele>
        <time>2020-08-03T08:39:40.113Z</time>
      </trkpt>
      <trkpt lat="62.92761" lon="6.96978">
        <ele>62.90127</ele>
        <time>2020-08-03T08:39:42.100Z</time>
      </trkpt>
      <trkpt lat="62.92768" lon="6.97">
        <ele>62.964301</ele>
        <time>2020-08-03T08:39:44.080Z</time>
      </trkpt>
      <trkpt lat="62.92776" lon="6.9702">
        <ele>63.02495</ele>
        <time>2020-08-03T08:39:46.104Z</time>
      </trkpt>
      <trkpt lat="62.92783" lon="6.9704">
        <ele>63.083144</ele>
        <time>2020-08-03T08:39:48.090Z</time>
      </trkpt>
      <trkpt lat="62.9279" lon="6.97058">
        <ele>63.138489</ele>
        <time>2020-08-03T08:39:50.106Z</time>
      </trkpt>
      <trkpt lat="62.92796" lon="6.97076">
        <ele>63.190083</ele>
        <time>2020-08-03T08:39:52.116Z</time>
      </trkpt>
      <trkpt lat="62.92802" lon="6.97094">
        <ele>63.239557</ele>
        <time>2020-08-03T08:39:54.096Z</time>
      </trkpt>
      <trkpt lat="62.92808" lon="6.9711">
        <ele>63.287305</ele>
        <time>2020-08-03T08:39:56.075Z</time>
      </trkpt>
      <trkpt lat="62.92814" lon="6.97127">
        <ele>63.336534</ele>
        <time>2020-08-03T08:39:58.075Z</time>
      </trkpt>
      <trkpt lat="62.92821" lon="6.97145">
        <ele>63.390314</ele>
        <time>2020-08-03T08:40:00.085Z</time>
      </trkpt>
      <trkpt lat="62.92828" lon="6.97164">
        <ele>63.447188</ele>
        <time>2020-08-03T08:40:02.087Z</time>
      </trkpt>
      <trkpt lat="62.92835" lon="6.97184">
        <ele>63.505058</ele>
        <time>2020-08-03T08:40:04.085Z</time>
      </trkpt>
      <trkpt lat="62.92843" lon="6.97203">
        <ele>63.563428</ele>
        <time>2020-08-03T08:40:06.110Z</time>
      </trkpt>
      <trkpt lat="62.9285" lon="6.97223">
        <ele>63.622122</ele>
        <time>2020-08-03T08:40:08.080Z</time>
      </trkpt>
      <trkpt lat="62.92857" lon="6.97243">
        <ele>63.681652</ele>
        <time>2020-08-03T08:40:10.079Z</time>
      </trkpt>
      <trkpt lat="62.92864" lon="6.97264">
        <ele>63.740134</ele>
        <time>2020-08-03T08:40:12.110Z</time>
      </trkpt>
      <trkpt lat="62.92871" lon="6.97285">
        <ele>63.830856</ele>
        <time>2020-08-03T08:40:14.106Z</time>
      </trkpt>
      <trkpt lat="62.92878" lon="6.97305">
        <ele>63.927429</ele>
        <time>2020-08-03T08:40:16.088Z</time>
      </trkpt>
      <trkpt lat="62.92885" lon="6.97325">
        <ele>64.027179</ele>
        <time>2020-08-03T08:40:18.099Z</time>
      </trkpt>
      <trkpt lat="62.92893" lon="6.97346">
        <ele>64.126787</ele>
        <time>2020-08-03T08:40:20.087Z</time>
      </trkpt>
      <trkpt lat="62.929" lon="6.97367">
        <ele>64.22691</ele>
        <time>2020-08-03T08:40:22.085Z</time>
      </trkpt>
      <trkpt lat="62.92907" lon="6.97387">
        <ele>64.325706</ele>
        <time>2020-08-03T08:40:24.066Z</time>
      </trkpt>
      <trkpt lat="62.92914" lon="6.97408">
        <ele>64.424533</ele>
        <time>2020-08-03T08:40:26.105Z</time>
      </trkpt>
      <trkpt lat="62.92922" lon="6.97429">
        <ele>64.524743</ele>
        <time>2020-08-03T08:40:28.075Z</time>
      </trkpt>
      <trkpt lat="62.92929" lon="6.97451">
        <ele>64.627689</ele>
        <time>2020-08-03T08:40:30.124Z</time>
      </trkpt>
      <trkpt lat="62.92936" lon="6.97473">
        <ele>64.732443</ele>
        <time>2020-08-03T08:40:32.072Z</time>
      </trkpt>
      <trkpt lat="62.92944" lon="6.97496">
        <ele>64.839633</ele>
        <time>2020-08-03T08:40:34.086Z</time>
      </trkpt>
      <trkpt lat="62.92951" lon="6.97519">
        <ele>64.947238</ele>
        <time>2020-08-03T08:40:36.114Z</time>
      </trkpt>
      <trkpt lat="62.92958" lon="6.97545">
        <ele>65.063437</ele>
        <time>2020-08-03T08:40:38.101Z</time>
      </trkpt>
      <trkpt lat="62.92966" lon="6.97573">
        <ele>65.187221</ele>
        <time>2020-08-03T08:40:40.091Z</time>
      </trkpt>
      <trkpt lat="62.92974" lon="6.97602">
        <ele>64.973755</ele>
        <time>2020-08-03T08:40:42.086Z</time>
      </trkpt>
      <trkpt lat="62.92981" lon="6.97631">
        <ele>64.353611</ele>
        <time>2020-08-03T08:40:44.103Z</time>
      </trkpt>
      <trkpt lat="62.92988" lon="6.9766">
        <ele>63.755052</ele>
        <time>2020-08-03T08:40:46.114Z</time>
      </trkpt>
      <trkpt lat="62.92995" lon="6.97692">
        <ele>63.097078</ele>
        <time>2020-08-03T08:40:48.084Z</time>
      </trkpt>
      <trkpt lat="62.93002" lon="6.97722">
        <ele>62.461879</ele>
        <time>2020-08-03T08:40:50.077Z</time>
      </trkpt>
      <trkpt lat="62.93009" lon="6.97753">
        <ele>61.806427</ele>
        <time>2020-08-03T08:40:52.106Z</time>
      </trkpt>
      <trkpt lat="62.93016" lon="6.97785">
        <ele>61.139584</ele>
        <time>2020-08-03T08:40:54.083Z</time>
      </trkpt>
      <trkpt lat="62.93024" lon="6.97817">
        <ele>60.470209</ele>
        <time>2020-08-03T08:40:56.083Z</time>
      </trkpt>
      <trkpt lat="62.93032" lon="6.97851">
        <ele>59.772593</ele>
        <time>2020-08-03T08:40:58.090Z</time>
      </trkpt>
      <trkpt lat="62.9304" lon="6.97884">
        <ele>59.078283</ele>
        <time>2020-08-03T08:41:00.074Z</time>
      </trkpt>
      <trkpt lat="62.93048" lon="6.97917">
        <ele>58.370774</ele>
        <time>2020-08-03T08:41:02.107Z</time>
      </trkpt>
      <trkpt lat="62.93057" lon="6.97951">
        <ele>57.711022</ele>
        <time>2020-08-03T08:41:04.091Z</time>
      </trkpt>
      <trkpt lat="62.93061" lon="6.97969">
        <ele>57.433962</ele>
        <time>2020-08-03T08:41:05.079Z</time>
      </trkpt>
      <trkpt lat="62.93065" lon="6.97987">
        <ele>57.15703</ele>
        <time>2020-08-03T08:41:06.085Z</time>
      </trkpt>
      <trkpt lat="62.93069" lon="6.98005">
        <ele>56.880098</ele>
        <time>2020-08-03T08:41:07.080Z</time>
      </trkpt>
      <trkpt lat="62.93073" lon="6.98023">
        <ele>56.598055</ele>
        <time>2020-08-03T08:41:08.115Z</time>
      </trkpt>
      <trkpt lat="62.93077" lon="6.98041">
        <ele>56.315875</ele>
        <time>2020-08-03T08:41:09.115Z</time>
      </trkpt>
      <trkpt lat="62.93085" lon="6.98075">
        <ele>55.778214</ele>
        <time>2020-08-03T08:41:11.109Z</time>
      </trkpt>
      <trkpt lat="62.93093" lon="6.98107">
        <ele>55.273447</ele>
        <time>2020-08-03T08:41:13.075Z</time>
      </trkpt>
      <trkpt lat="62.931" lon="6.98135">
        <ele>54.821047</ele>
        <time>2020-08-03T08:41:15.075Z</time>
      </trkpt>
      <trkpt lat="62.93108" lon="6.98159">
        <ele>54.414915</ele>
        <time>2020-08-03T08:41:17.095Z</time>
      </trkpt>
      <trkpt lat="62.93115" lon="6.98179">
        <ele>54.059225</ele>
        <time>2020-08-03T08:41:19.108Z</time>
      </trkpt>
      <trkpt lat="62.93121" lon="6.98198">
        <ele>53.738373</ele>
        <time>2020-08-03T08:41:21.103Z</time>
      </trkpt>
      <trkpt lat="62.93128" lon="6.98215">
        <ele>53.413398</ele>
        <time>2020-08-03T08:41:23.094Z</time>
      </trkpt>
      <trkpt lat="62.93136" lon="6.9823">
        <ele>53.100017</ele>
        <time>2020-08-03T08:41:25.088Z</time>
      </trkpt>
      <trkpt lat="62.93143" lon="6.98245">
        <ele>52.804383</ele>
        <time>2020-08-03T08:41:27.072Z</time>
      </trkpt>
      <trkpt lat="62.93152" lon="6.98262">
        <ele>52.420243</ele>
        <time>2020-08-03T08:41:30.093Z</time>
      </trkpt>
      <trkpt lat="62.93162" lon="6.98278">
        <ele>52.793353</ele>
        <time>2020-08-03T08:41:33.111Z</time>
      </trkpt>
      <trkpt lat="62.93172" lon="6.98292">
        <ele>53.230008</ele>
        <time>2020-08-03T08:41:36.073Z</time>
      </trkpt>
      <trkpt lat="62.93182" lon="6.98305">
        <ele>53.641119</ele>
        <time>2020-08-03T08:41:39.068Z</time>
      </trkpt>
      <trkpt lat="62.93192" lon="6.98318">
        <ele>54.048719</ele>
        <time>2020-08-03T08:41:42.130Z</time>
      </trkpt>
      <trkpt lat="62.93201" lon="6.9833">
        <ele>54.448646</ele>
        <time>2020-08-03T08:41:45.133Z</time>
      </trkpt>
      <trkpt lat="62.93211" lon="6.98342">
        <ele>54.831908</ele>
        <time>2020-08-03T08:41:48.086Z</time>
      </trkpt>
      <trkpt lat="62.9322" lon="6.98352">
        <ele>55.190017</ele>
        <time>2020-08-03T08:41:51.091Z</time>
      </trkpt>
      <trkpt lat="62.93229" lon="6.98363">
        <ele>55.559111</ele>
        <time>2020-08-03T08:41:54.073Z</time>
      </trkpt>
      <trkpt lat="62.93238" lon="6.98375">
        <ele>55.942371</ele>
        <time>2020-08-03T08:41:57.105Z</time>
      </trkpt>
      <trkpt lat="62.93247" lon="6.98386">
        <ele>56.317788</ele>
        <time>2020-08-03T08:42:00.088Z</time>
      </trkpt>
      <trkpt lat="62.93256" lon="6.98398">
        <ele>56.708093</ele>
        <time>2020-08-03T08:42:03.078Z</time>
      </trkpt>
      <trkpt lat="62.93266" lon="6.98409">
        <ele>57.100052</ele>
        <time>2020-08-03T08:42:06.076Z</time>
      </trkpt>
      <trkpt lat="62.93276" lon="6.98419">
        <ele>57.500499</ele>
        <time>2020-08-03T08:42:09.072Z</time>
      </trkpt>
      <trkpt lat="62.93287" lon="6.9843">
        <ele>57.905402</ele>
        <time>2020-08-03T08:42:12.080Z</time>
      </trkpt>
      <trkpt lat="62.93297" lon="6.98442">
        <ele>58.314539</ele>
        <time>2020-08-03T08:42:15.079Z</time>
      </trkpt>
      <trkpt lat="62.93306" lon="6.98454">
        <ele>58.715297</ele>
        <time>2020-08-03T08:42:18.075Z</time>
      </trkpt>
      <trkpt lat="62.93317" lon="6.98468">
        <ele>58.803806</ele>
        <time>2020-08-03T08:42:21.085Z</time>
      </trkpt>
      <trkpt lat="62.93327" lon="6.98481">
        <ele>58.748067</ele>
        <time>2020-08-03T08:42:24.093Z</time>
      </trkpt>
      <trkpt lat="62.93337" lon="6.98497">
        <ele>58.694561</ele>
        <time>2020-08-03T08:42:27.103Z</time>
      </trkpt>
      <trkpt lat="62.93346" lon="6.98514">
        <ele>58.638973</ele>
        <time>2020-08-03T08:42:30.103Z</time>
      </trkpt>
      <trkpt lat="62.93356" lon="6.98534">
        <ele>58.575359</ele>
        <time>2020-08-03T08:42:33.127Z</time>
      </trkpt>
      <trkpt lat="62.93364" lon="6.98551">
        <ele>58.526974</ele>
        <time>2020-08-03T08:42:35.077Z</time>
      </trkpt>
      <trkpt lat="62.93372" lon="6.9857">
        <ele>58.473107</ele>
        <time>2020-08-03T08:42:37.103Z</time>
      </trkpt>
      <trkpt lat="62.93381" lon="6.98592">
        <ele>58.411389</ele>
        <time>2020-08-03T08:42:39.089Z</time>
      </trkpt>
      <trkpt lat="62.9339" lon="6.98617">
        <ele>58.344789</ele>
        <time>2020-08-03T08:42:41.132Z</time>
      </trkpt>
      <trkpt lat="62.93398" lon="6.98645">
        <ele>58.277065</ele>
        <time>2020-08-03T08:42:43.080Z</time>
      </trkpt>
      <trkpt lat="62.93406" lon="6.98673">
        <ele>58.207351</ele>
        <time>2020-08-03T08:42:45.083Z</time>
      </trkpt>
      <trkpt lat="62.93414" lon="6.98701">
        <ele>58.136762</ele>
        <time>2020-08-03T08:42:47.078Z</time>
      </trkpt>
      <trkpt lat="62.93423" lon="6.9873">
        <ele>58.066242</ele>
        <time>2020-08-03T08:42:49.072Z</time>
      </trkpt>
      <trkpt lat="62.93431" lon="6.98759">
        <ele>57.845445</ele>
        <time>2020-08-03T08:42:51.095Z</time>
      </trkpt>
      <trkpt lat="62.93439" lon="6.98788">
        <ele>57.347317</ele>
        <time>2020-08-03T08:42:53.093Z</time>
      </trkpt>
      <trkpt lat="62.93447" lon="6.98818">
        <ele>56.847549</ele>
        <time>2020-08-03T08:42:55.097Z</time>
      </trkpt>
      <trkpt lat="62.93455" lon="6.98847">
        <ele>56.353472</ele>
        <time>2020-08-03T08:42:57.075Z</time>
      </trkpt>
      <trkpt lat="62.93463" lon="6.98875">
        <ele>55.876666</ele>
        <time>2020-08-03T08:42:59.071Z</time>
      </trkpt>
      <trkpt lat="62.93471" lon="6.98902">
        <ele>55.412657</ele>
        <time>2020-08-03T08:43:01.089Z</time>
      </trkpt>
      <trkpt lat="62.93479" lon="6.98929">
        <ele>54.950676</ele>
        <time>2020-08-03T08:43:03.091Z</time>
      </trkpt>
      <trkpt lat="62.93486" lon="6.98957">
        <ele>54.488695</ele>
        <time>2020-08-03T08:43:05.072Z</time>
      </trkpt>
      <trkpt lat="62.93494" lon="6.98984">
        <ele>54.035375</ele>
        <time>2020-08-03T08:43:07.100Z</time>
      </trkpt>
      <trkpt lat="62.93502" lon="6.9901">
        <ele>53.578284</ele>
        <time>2020-08-03T08:43:09.093Z</time>
      </trkpt>
      <trkpt lat="62.93509" lon="6.99037">
        <ele>53.121193</ele>
        <time>2020-08-03T08:43:11.088Z</time>
      </trkpt>
      <trkpt lat="62.93517" lon="6.99063">
        <ele>52.673816</ele>
        <time>2020-08-03T08:43:13.075Z</time>
      </trkpt>
      <trkpt lat="62.93524" lon="6.99088">
        <ele>52.292266</ele>
        <time>2020-08-03T08:43:15.084Z</time>
      </trkpt>
      <trkpt lat="62.93531" lon="6.99112">
        <ele>52.149215</ele>
        <time>2020-08-03T08:43:17.086Z</time>
      </trkpt>
      <trkpt lat="62.93538" lon="6.99135">
        <ele>52.011962</ele>
        <time>2020-08-03T08:43:19.093Z</time>
      </trkpt>
      <trkpt lat="62.93544" lon="6.99157">
        <ele>51.879018</ele>
        <time>2020-08-03T08:43:21.119Z</time>
      </trkpt>
      <trkpt lat="62.93551" lon="6.99179">
        <ele>51.744669</ele>
        <time>2020-08-03T08:43:23.084Z</time>
      </trkpt>
      <trkpt lat="62.93557" lon="6.99202">
        <ele>51.608126</ele>
        <time>2020-08-03T08:43:25.083Z</time>
      </trkpt>
      <trkpt lat="62.93563" lon="6.99224">
        <ele>51.476367</ele>
        <time>2020-08-03T08:43:27.095Z</time>
      </trkpt>
      <trkpt lat="62.9357" lon="6.99245">
        <ele>51.349929</ele>
        <time>2020-08-03T08:43:29.095Z</time>
      </trkpt>
      <trkpt lat="62.93576" lon="6.99266">
        <ele>51.224772</ele>
        <time>2020-08-03T08:43:31.093Z</time>
      </trkpt>
      <trkpt lat="62.93582" lon="6.99287">
        <ele>51.097731</ele>
        <time>2020-08-03T08:43:33.086Z</time>
      </trkpt>
      <trkpt lat="62.93588" lon="6.99307">
        <ele>50.973231</ele>
        <time>2020-08-03T08:43:35.092Z</time>
      </trkpt>
      <trkpt lat="62.93594" lon="6.99327">
        <ele>50.854327</ele>
        <time>2020-08-03T08:43:37.075Z</time>
      </trkpt>
      <trkpt lat="62.936" lon="6.99347">
        <ele>50.734823</ele>
        <time>2020-08-03T08:43:39.108Z</time>
      </trkpt>
      <trkpt lat="62.93606" lon="6.99367">
        <ele>50.612211</ele>
        <time>2020-08-03T08:43:41.113Z</time>
      </trkpt>
      <trkpt lat="62.93612" lon="6.99389">
        <ele>50.480977</ele>
        <time>2020-08-03T08:43:43.086Z</time>
      </trkpt>
      <trkpt lat="62.93618" lon="6.99412">
        <ele>50.344303</ele>
        <time>2020-08-03T08:43:45.094Z</time>
      </trkpt>
      <trkpt lat="62.93624" lon="6.99435">
        <ele>50.316281</ele>
        <time>2020-08-03T08:43:47.077Z</time>
      </trkpt>
      <trkpt lat="62.93631" lon="6.99458">
        <ele>50.318964</ele>
        <time>2020-08-03T08:43:49.103Z</time>
      </trkpt>
      <trkpt lat="62.93636" lon="6.99479">
        <ele>50.321543</ele>
        <time>2020-08-03T08:43:51.076Z</time>
      </trkpt>
      <trkpt lat="62.93642" lon="6.99499">
        <ele>50.324066</ele>
        <time>2020-08-03T08:43:53.107Z</time>
      </trkpt>
      <trkpt lat="62.93648" lon="6.99519">
        <ele>50.32656</ele>
        <time>2020-08-03T08:43:55.105Z</time>
      </trkpt>
      <trkpt lat="62.93655" lon="6.99538">
        <ele>50.329022</ele>
        <time>2020-08-03T08:43:57.118Z</time>
      </trkpt>
      <trkpt lat="62.93662" lon="6.99556">
        <ele>50.331464</ele>
        <time>2020-08-03T08:43:59.103Z</time>
      </trkpt>
      <trkpt lat="62.9367" lon="6.99572">
        <ele>50.333921</ele>
        <time>2020-08-03T08:44:01.087Z</time>
      </trkpt>
      <trkpt lat="62.93678" lon="6.99586">
        <ele>50.336337</ele>
        <time>2020-08-03T08:44:03.091Z</time>
      </trkpt>
      <trkpt lat="62.93687" lon="6.99598">
        <ele>50.338714</ele>
        <time>2020-08-03T08:44:05.073Z</time>
      </trkpt>
      <trkpt lat="62.93696" lon="6.99607">
        <ele>50.340884</ele>
        <time>2020-08-03T08:44:07.067Z</time>
      </trkpt>
      <trkpt lat="62.93708" lon="6.99618">
        <ele>50.343829</ele>
        <time>2020-08-03T08:44:10.094Z</time>
      </trkpt>
      <trkpt lat="62.9372" lon="6.99624">
        <ele>50.346665</ele>
        <time>2020-08-03T08:44:13.081Z</time>
      </trkpt>
      <trkpt lat="62.93733" lon="6.99628">
        <ele>50.349592</ele>
        <time>2020-08-03T08:44:16.098Z</time>
      </trkpt>
      <trkpt lat="62.93744" lon="6.99631">
        <ele>50.352252</ele>
        <time>2020-08-03T08:44:19.116Z</time>
      </trkpt>
      <trkpt lat="62.93756" lon="6.9963">
        <ele>50.354853</ele>
        <time>2020-08-03T08:44:22.087Z</time>
      </trkpt>
      <trkpt lat="62.93767" lon="6.99628">
        <ele>50.560143</ele>
        <time>2020-08-03T08:44:25.110Z</time>
      </trkpt>
      <trkpt lat="62.93778" lon="6.99628">
        <ele>50.780957</ele>
        <time>2020-08-03T08:44:28.090Z</time>
      </trkpt>
      <trkpt lat="62.93789" lon="6.99629">
        <ele>50.99183</ele>
        <time>2020-08-03T08:44:31.117Z</time>
      </trkpt>
      <trkpt lat="62.93799" lon="6.99629">
        <ele>51.194771</ele>
        <time>2020-08-03T08:44:34.084Z</time>
      </trkpt>
      <trkpt lat="62.93809" lon="6.99629">
        <ele>51.397698</ele>
        <time>2020-08-03T08:44:37.078Z</time>
      </trkpt>
      <trkpt lat="62.93819" lon="6.99629">
        <ele>51.59464</ele>
        <time>2020-08-03T08:44:40.078Z</time>
      </trkpt>
      <trkpt lat="62.93828" lon="6.99628">
        <ele>51.779665</ele>
        <time>2020-08-03T08:44:43.103Z</time>
      </trkpt>
      <trkpt lat="62.93838" lon="6.99629">
        <ele>51.980592</ele>
        <time>2020-08-03T08:44:46.093Z</time>
      </trkpt>
      <trkpt lat="62.93848" lon="6.99629">
        <ele>52.169629</ele>
        <time>2020-08-03T08:44:49.096Z</time>
      </trkpt>
      <trkpt lat="62.93857" lon="6.99631">
        <ele>52.35345</ele>
        <time>2020-08-03T08:44:52.073Z</time>
      </trkpt>
      <trkpt lat="62.93867" lon="6.99634">
        <ele>52.55278</ele>
        <time>2020-08-03T08:44:55.099Z</time>
      </trkpt>
      <trkpt lat="62.93878" lon="6.99639">
        <ele>52.777825</ele>
        <time>2020-08-03T08:44:58.101Z</time>
      </trkpt>
      <trkpt lat="62.93891" lon="6.99646">
        <ele>53.033989</ele>
        <time>2020-08-03T08:45:01.105Z</time>
      </trkpt>
      <trkpt lat="62.93899" lon="6.99654">
        <ele>53.222744</ele>
        <time>2020-08-03T08:45:03.101Z</time>
      </trkpt>
      <trkpt lat="62.93909" lon="6.99664">
        <ele>53.433689</ele>
        <time>2020-08-03T08:45:05.083Z</time>
      </trkpt>
      <trkpt lat="62.93919" lon="6.99676">
        <ele>53.664746</ele>
        <time>2020-08-03T08:45:07.091Z</time>
      </trkpt>
      <trkpt lat="62.9393" lon="6.99688">
        <ele>53.905772</ele>
        <time>2020-08-03T08:45:09.109Z</time>
      </trkpt>
      <trkpt lat="62.9394" lon="6.99702">
        <ele>53.957696</ele>
        <time>2020-08-03T08:45:11.089Z</time>
      </trkpt>
      <trkpt lat="62.9395" lon="6.99717">
        <ele>53.985126</ele>
        <time>2020-08-03T08:45:13.090Z</time>
      </trkpt>
      <trkpt lat="62.93959" lon="6.99733">
        <ele>54.012254</ele>
        <time>2020-08-03T08:45:15.090Z</time>
      </trkpt>
      <trkpt lat="62.93967" lon="6.9975">
        <ele>54.037108</ele>
        <time>2020-08-03T08:45:17.083Z</time>
      </trkpt>
      <trkpt lat="62.93974" lon="6.99766">
        <ele>54.061142</ele>
        <time>2020-08-03T08:45:19.099Z</time>
      </trkpt>
      <trkpt lat="62.93982" lon="6.99782">
        <ele>54.085102</ele>
        <time>2020-08-03T08:45:21.069Z</time>
      </trkpt>
      <trkpt lat="62.93989" lon="6.99799">
        <ele>54.109127</ele>
        <time>2020-08-03T08:45:23.071Z</time>
      </trkpt>
      <trkpt lat="62.93995" lon="6.99815">
        <ele>54.131602</ele>
        <time>2020-08-03T08:45:25.089Z</time>
      </trkpt>
      <trkpt lat="62.94001" lon="6.99831">
        <ele>54.153301</ele>
        <time>2020-08-03T08:45:27.088Z</time>
      </trkpt>
      <trkpt lat="62.94008" lon="6.99846">
        <ele>54.17485</ele>
        <time>2020-08-03T08:45:29.117Z</time>
      </trkpt>
      <trkpt lat="62.94015" lon="6.99861">
        <ele>54.197343</ele>
        <time>2020-08-03T08:45:31.094Z</time>
      </trkpt>
      <trkpt lat="62.94022" lon="6.99876">
        <ele>54.220295</ele>
        <time>2020-08-03T08:45:33.087Z</time>
      </trkpt>
      <trkpt lat="62.94028" lon="6.99891">
        <ele>54.24193</ele>
        <time>2020-08-03T08:45:35.080Z</time>
      </trkpt>
      <trkpt lat="62.94035" lon="6.99906">
        <ele>54.2641</ele>
        <time>2020-08-03T08:45:37.084Z</time>
      </trkpt>
      <trkpt lat="62.94042" lon="6.99923">
        <ele>54.287731</ele>
        <time>2020-08-03T08:45:39.102Z</time>
      </trkpt>
      <trkpt lat="62.94049" lon="6.9994">
        <ele>54.311749</ele>
        <time>2020-08-03T08:45:41.085Z</time>
      </trkpt>
      <trkpt lat="62.94056" lon="6.99957">
        <ele>54.336706</ele>
        <time>2020-08-03T08:45:43.076Z</time>
      </trkpt>
      <trkpt lat="62.94064" lon="6.99976">
        <ele>54.375284</ele>
        <time>2020-08-03T08:45:45.090Z</time>
      </trkpt>
      <trkpt lat="62.94071" lon="6.99995">
        <ele>54.421285</ele>
        <time>2020-08-03T08:45:47.090Z</time>
      </trkpt>
      <trkpt lat="62.94078" lon="7.00014">
        <ele>54.466424</ele>
        <time>2020-08-03T08:45:49.093Z</time>
      </trkpt>
      <trkpt lat="62.94085" lon="7.00034">
        <ele>54.512745</ele>
        <time>2020-08-03T08:45:51.074Z</time>
      </trkpt>
      <trkpt lat="62.94091" lon="7.00054">
        <ele>54.559018</ele>
        <time>2020-08-03T08:45:53.083Z</time>
      </trkpt>
      <trkpt lat="62.94097" lon="7.00074">
        <ele>54.603631</ele>
        <time>2020-08-03T08:45:55.107Z</time>
      </trkpt>
      <trkpt lat="62.94103" lon="7.00094">
        <ele>54.64718</ele>
        <time>2020-08-03T08:45:57.076Z</time>
      </trkpt>
      <trkpt lat="62.94108" lon="7.00113">
        <ele>54.687336</ele>
        <time>2020-08-03T08:45:59.089Z</time>
      </trkpt>
      <trkpt lat="62.94113" lon="7.00132">
        <ele>54.728796</ele>
        <time>2020-08-03T08:46:01.117Z</time>
      </trkpt>
      <trkpt lat="62.94118" lon="7.00151">
        <ele>54.769406</ele>
        <time>2020-08-03T08:46:03.090Z</time>
      </trkpt>
      <trkpt lat="62.94123" lon="7.0017">
        <ele>54.809691</ele>
        <time>2020-08-03T08:46:05.071Z</time>
      </trkpt>
      <trkpt lat="62.94127" lon="7.00189">
        <ele>54.849853</ele>
        <time>2020-08-03T08:46:07.095Z</time>
      </trkpt>
      <trkpt lat="62.94132" lon="7.00207">
        <ele>54.890016</ele>
        <time>2020-08-03T08:46:09.081Z</time>
      </trkpt>
      <trkpt lat="62.94137" lon="7.00226">
        <ele>54.929814</ele>
        <time>2020-08-03T08:46:11.092Z</time>
      </trkpt>
      <trkpt lat="62.94142" lon="7.00244">
        <ele>54.968966</ele>
        <time>2020-08-03T08:46:13.110Z</time>
      </trkpt>
      <trkpt lat="62.94147" lon="7.00262">
        <ele>55.008376</ele>
        <time>2020-08-03T08:46:15.088Z</time>
      </trkpt>
      <trkpt lat="62.94152" lon="7.00281">
        <ele>55.047734</ele>
        <time>2020-08-03T08:46:17.116Z</time>
      </trkpt>
      <trkpt lat="62.94157" lon="7.00298">
        <ele>55.134926</ele>
        <time>2020-08-03T08:46:19.078Z</time>
      </trkpt>
      <trkpt lat="62.94162" lon="7.00316">
        <ele>55.662107</ele>
        <time>2020-08-03T08:46:21.088Z</time>
      </trkpt>
      <trkpt lat="62.94168" lon="7.0034">
        <ele>56.39119</ele>
        <time>2020-08-03T08:46:24.086Z</time>
      </trkpt>
      <trkpt lat="62.94174" lon="7.00363">
        <ele>57.075897</ele>
        <time>2020-08-03T08:46:27.083Z</time>
      </trkpt>
      <trkpt lat="62.9418" lon="7.00382">
        <ele>57.660061</ele>
        <time>2020-08-03T08:46:30.086Z</time>
      </trkpt>
      <trkpt lat="62.94185" lon="7.004">
        <ele>58.206942</ele>
        <time>2020-08-03T08:46:33.114Z</time>
      </trkpt>
      <trkpt lat="62.94192" lon="7.00422">
        <ele>58.871437</ele>
        <time>2020-08-03T08:46:37.093Z</time>
      </trkpt>
      <trkpt lat="62.94197" lon="7.00442">
        <ele>59.499919</ele>
        <time>2020-08-03T08:46:41.071Z</time>
      </trkpt>
      <trkpt lat="62.94202" lon="7.0046">
        <ele>60.013906</ele>
        <time>2020-08-03T08:46:45.103Z</time>
      </trkpt>
      <trkpt lat="62.94208" lon="7.00478">
        <ele>60.5927</ele>
        <time>2020-08-03T08:46:50.119Z</time>
      </trkpt>
      <trkpt lat="62.94213" lon="7.00497">
        <ele>61.17591</ele>
        <time>2020-08-03T08:46:56.109Z</time>
      </trkpt>
      <trkpt lat="62.94218" lon="7.00517">
        <ele>61.734337</ele>
        <time>2020-08-03T08:47:02.100Z</time>
      </trkpt>
      <trkpt lat="62.94222" lon="7.00534">
        <ele>62.261183</ele>
        <time>2020-08-03T08:47:08.077Z</time>
      </trkpt>
      <trkpt lat="62.94227" lon="7.00553">
        <ele>62.792543</ele>
        <time>2020-08-03T08:47:14.076Z</time>
      </trkpt>
      <trkpt lat="62.94233" lon="7.00569">
        <ele>63.335947</ele>
        <time>2020-08-03T08:47:20.092Z</time>
      </trkpt>
      <trkpt lat="62.94239" lon="7.00585">
        <ele>63.887255</ele>
        <time>2020-08-03T08:47:26.089Z</time>
      </trkpt>
      <trkpt lat="62.94246" lon="7.00601">
        <ele>64.447478</ele>
        <time>2020-08-03T08:47:32.083Z</time>
      </trkpt>
      <trkpt lat="62.94251" lon="7.00618">
        <ele>64.967771</ele>
        <time>2020-08-03T08:47:37.096Z</time>
      </trkpt>
      <trkpt lat="62.94257" lon="7.00634">
        <ele>65.363198</ele>
        <time>2020-08-03T08:47:42.096Z</time>
      </trkpt>
      <trkpt lat="62.94264" lon="7.0065">
        <ele>65.580636</ele>
        <time>2020-08-03T08:47:48.080Z</time>
      </trkpt>
      <trkpt lat="62.94271" lon="7.00665">
        <ele>65.775756</ele>
        <time>2020-08-03T08:47:53.094Z</time>
      </trkpt>
      <trkpt lat="62.94278" lon="7.00683">
        <ele>66.013355</ele>
        <time>2020-08-03T08:47:58.097Z</time>
      </trkpt>
      <trkpt lat="62.94285" lon="7.007">
        <ele>66.227911</ele>
        <time>2020-08-03T08:48:03.091Z</time>
      </trkpt>
      <trkpt lat="62.94292" lon="7.00717">
        <ele>66.458343</ele>
        <time>2020-08-03T08:48:08.082Z</time>
      </trkpt>
      <trkpt lat="62.94299" lon="7.00731">
        <ele>66.656491</ele>
        <time>2020-08-03T08:48:12.091Z</time>
      </trkpt>
      <trkpt lat="62.94305" lon="7.00748">
        <ele>66.871045</ele>
        <time>2020-08-03T08:48:16.116Z</time>
      </trkpt>
      <trkpt lat="62.94314" lon="7.00763">
        <ele>67.107595</ele>
        <time>2020-08-03T08:48:20.088Z</time>
      </trkpt>
      <trkpt lat="62.94322" lon="7.00778">
        <ele>67.337502</ele>
        <time>2020-08-03T08:48:24.094Z</time>
      </trkpt>
      <trkpt lat="62.94328" lon="7.00793">
        <ele>67.534771</ele>
        <time>2020-08-03T08:48:27.091Z</time>
      </trkpt>
      <trkpt lat="62.94334" lon="7.0081">
        <ele>67.736235</ele>
        <time>2020-08-03T08:48:30.092Z</time>
      </trkpt>
      <trkpt lat="62.94339" lon="7.00827">
        <ele>67.928793</ele>
        <time>2020-08-03T08:48:33.091Z</time>
      </trkpt>
      <trkpt lat="62.94344" lon="7.00844">
        <ele>68.129807</ele>
        <time>2020-08-03T08:48:36.129Z</time>
      </trkpt>
      <trkpt lat="62.94349" lon="7.00867">
        <ele>68.380864</ele>
        <time>2020-08-03T08:48:40.110Z</time>
      </trkpt>
      <trkpt lat="62.94354" lon="7.00885">
        <ele>68.581341</ele>
        <time>2020-08-03T08:48:43.097Z</time>
      </trkpt>
      <trkpt lat="62.94359" lon="7.00905">
        <ele>68.811586</ele>
        <time>2020-08-03T08:48:46.110Z</time>
      </trkpt>
      <trkpt lat="62.94364" lon="7.00931">
        <ele>69.081991</ele>
        <time>2020-08-03T08:48:49.091Z</time>
      </trkpt>
      <trkpt lat="62.9437" lon="7.00957">
        <ele>69.032621</ele>
        <time>2020-08-03T08:48:52.110Z</time>
      </trkpt>
      <trkpt lat="62.94373" lon="7.00976">
        <ele>68.966033</ele>
        <time>2020-08-03T08:48:54.104Z</time>
      </trkpt>
      <trkpt lat="62.94375" lon="7.00996">
        <ele>68.898409</ele>
        <time>2020-08-03T08:48:56.079Z</time>
      </trkpt>
      <trkpt lat="62.94378" lon="7.01016">
        <ele>68.829296</ele>
        <time>2020-08-03T08:48:58.086Z</time>
      </trkpt>
      <trkpt lat="62.94381" lon="7.01035">
        <ele>68.761044</ele>
        <time>2020-08-03T08:49:00.102Z</time>
      </trkpt>
      <trkpt lat="62.94385" lon="7.01054">
        <ele>68.693551</ele>
        <time>2020-08-03T08:49:02.086Z</time>
      </trkpt>
      <trkpt lat="62.94389" lon="7.01079">
        <ele>68.602674</ele>
        <time>2020-08-03T08:49:05.083Z</time>
      </trkpt>
      <trkpt lat="62.94393" lon="7.011">
        <ele>68.52811</ele>
        <time>2020-08-03T08:49:08.092Z</time>
      </trkpt>
      <trkpt lat="62.94399" lon="7.01136">
        <ele>68.402956</ele>
        <time>2020-08-03T08:51:05.105Z</time>
      </trkpt>
      <trkpt lat="62.94403" lon="7.01159">
        <ele>68.320211</ele>
        <time>2020-08-03T08:51:10.085Z</time>
      </trkpt>
      <trkpt lat="62.94407" lon="7.01178">
        <ele>68.24878</ele>
        <time>2020-08-03T08:51:13.093Z</time>
      </trkpt>
      <trkpt lat="62.94412" lon="7.01203">
        <ele>68.161023</ele>
        <time>2020-08-03T08:51:16.134Z</time>
      </trkpt>
      <trkpt lat="62.94416" lon="7.01227">
        <ele>68.074817</ele>
        <time>2020-08-03T08:51:19.108Z</time>
      </trkpt>
      <trkpt lat="62.94421" lon="7.01252">
        <ele>67.98456</ele>
        <time>2020-08-03T08:51:22.108Z</time>
      </trkpt>
      <trkpt lat="62.94426" lon="7.01277">
        <ele>67.89291</ele>
        <time>2020-08-03T08:51:25.087Z</time>
      </trkpt>
      <trkpt lat="62.94431" lon="7.01304">
        <ele>67.764247</ele>
        <time>2020-08-03T08:51:28.096Z</time>
      </trkpt>
      <trkpt lat="62.94434" lon="7.01323">
        <ele>67.453835</ele>
        <time>2020-08-03T08:51:30.096Z</time>
      </trkpt>
      <trkpt lat="62.94438" lon="7.01343">
        <ele>67.123525</ele>
        <time>2020-08-03T08:51:32.157Z</time>
      </trkpt>
      <trkpt lat="62.94442" lon="7.01365">
        <ele>66.772662</ele>
        <time>2020-08-03T08:51:34.099Z</time>
      </trkpt>
      <trkpt lat="62.94446" lon="7.01386">
        <ele>66.413599</ele>
        <time>2020-08-03T08:51:36.103Z</time>
      </trkpt>
      <trkpt lat="62.9445" lon="7.01408">
        <ele>66.060904</ele>
        <time>2020-08-03T08:51:38.104Z</time>
      </trkpt>
      <trkpt lat="62.94454" lon="7.01429">
        <ele>65.706071</ele>
        <time>2020-08-03T08:51:40.095Z</time>
      </trkpt>
      <trkpt lat="62.94457" lon="7.01452">
        <ele>65.33472</ele>
        <time>2020-08-03T08:51:42.089Z</time>
      </trkpt>
      <trkpt lat="62.94462" lon="7.01475">
        <ele>64.957665</ele>
        <time>2020-08-03T08:51:44.116Z</time>
      </trkpt>
      <trkpt lat="62.94466" lon="7.01498">
        <ele>64.574485</ele>
        <time>2020-08-03T08:51:46.094Z</time>
      </trkpt>
      <trkpt lat="62.94471" lon="7.01522">
        <ele>64.182144</ele>
        <time>2020-08-03T08:51:48.088Z</time>
      </trkpt>
      <trkpt lat="62.94476" lon="7.01546">
        <ele>63.773201</ele>
        <time>2020-08-03T08:51:50.076Z</time>
      </trkpt>
      <trkpt lat="62.94482" lon="7.01572">
        <ele>63.324616</ele>
        <time>2020-08-03T08:51:52.114Z</time>
      </trkpt>
      <trkpt lat="62.9449" lon="7.016">
        <ele>62.807675</ele>
        <time>2020-08-03T08:51:54.116Z</time>
      </trkpt>
      <trkpt lat="62.94502" lon="7.0163">
        <ele>62.221673</ele>
        <time>2020-08-03T08:51:56.095Z</time>
      </trkpt>
      <trkpt lat="62.94508" lon="7.01644">
        <ele>61.907135</ele>
        <time>2020-08-03T08:51:57.092Z</time>
      </trkpt>
      <trkpt lat="62.94515" lon="7.01659">
        <ele>61.52077</ele>
        <time>2020-08-03T08:51:58.099Z</time>
      </trkpt>
      <trkpt lat="62.94523" lon="7.01674">
        <ele>61.07656</ele>
        <time>2020-08-03T08:51:59.091Z</time>
      </trkpt>
      <trkpt lat="62.94531" lon="7.01688">
        <ele>60.619286</ele>
        <time>2020-08-03T08:52:00.097Z</time>
      </trkpt>
      <trkpt lat="62.9454" lon="7.01701">
        <ele>60.14314</ele>
        <time>2020-08-03T08:52:01.086Z</time>
      </trkpt>
      <trkpt lat="62.94549" lon="7.01716">
        <ele>59.645722</ele>
        <time>2020-08-03T08:52:02.077Z</time>
      </trkpt>
      <trkpt lat="62.94558" lon="7.0173">
        <ele>59.170698</ele>
        <time>2020-08-03T08:52:03.101Z</time>
      </trkpt>
      <trkpt lat="62.94566" lon="7.01745">
        <ele>58.697941</ele>
        <time>2020-08-03T08:52:04.110Z</time>
      </trkpt>
      <trkpt lat="62.94575" lon="7.0176">
        <ele>58.218033</ele>
        <time>2020-08-03T08:52:05.087Z</time>
      </trkpt>
      <trkpt lat="62.94583" lon="7.01775">
        <ele>57.747174</ele>
        <time>2020-08-03T08:52:06.107Z</time>
      </trkpt>
      <trkpt lat="62.94591" lon="7.01789">
        <ele>57.297032</ele>
        <time>2020-08-03T08:52:07.084Z</time>
      </trkpt>
      <trkpt lat="62.94599" lon="7.01804">
        <ele>56.854858</ele>
        <time>2020-08-03T08:52:08.086Z</time>
      </trkpt>
      <trkpt lat="62.94606" lon="7.01819">
        <ele>56.426722</ele>
        <time>2020-08-03T08:52:09.114Z</time>
      </trkpt>
      <trkpt lat="62.94612" lon="7.01834">
        <ele>56.009602</ele>
        <time>2020-08-03T08:52:10.089Z</time>
      </trkpt>
      <trkpt lat="62.94618" lon="7.01849">
        <ele>55.597056</ele>
        <time>2020-08-03T08:52:11.104Z</time>
      </trkpt>
      <trkpt lat="62.94624" lon="7.01864">
        <ele>55.197442</ele>
        <time>2020-08-03T08:52:12.093Z</time>
      </trkpt>
      <trkpt lat="62.94634" lon="7.01895">
        <ele>54.452802</ele>
        <time>2020-08-03T08:52:14.084Z</time>
      </trkpt>
      <trkpt lat="62.94642" lon="7.01926">
        <ele>53.806074</ele>
        <time>2020-08-03T08:52:16.088Z</time>
      </trkpt>
      <trkpt lat="62.94648" lon="7.01957">
        <ele>53.515708</ele>
        <time>2020-08-03T08:52:18.118Z</time>
      </trkpt>
      <trkpt lat="62.94653" lon="7.01986">
        <ele>53.243754</ele>
        <time>2020-08-03T08:52:20.110Z</time>
      </trkpt>
      <trkpt lat="62.94658" lon="7.02014">
        <ele>52.985782</ele>
        <time>2020-08-03T08:52:22.108Z</time>
      </trkpt>
      <trkpt lat="62.94662" lon="7.02042">
        <ele>52.737999</ele>
        <time>2020-08-03T08:52:24.082Z</time>
      </trkpt>
      <trkpt lat="62.94665" lon="7.02068">
        <ele>52.504606</ele>
        <time>2020-08-03T08:52:26.075Z</time>
      </trkpt>
      <trkpt lat="62.94668" lon="7.02094">
        <ele>52.275026</ele>
        <time>2020-08-03T08:52:28.079Z</time>
      </trkpt>
      <trkpt lat="62.94671" lon="7.0212">
        <ele>52.049294</ele>
        <time>2020-08-03T08:52:30.087Z</time>
      </trkpt>
      <trkpt lat="62.94673" lon="7.02146">
        <ele>51.819602</ele>
        <time>2020-08-03T08:52:32.077Z</time>
      </trkpt>
      <trkpt lat="62.94675" lon="7.02171">
        <ele>51.594996</ele>
        <time>2020-08-03T08:52:34.093Z</time>
      </trkpt>
      <trkpt lat="62.94678" lon="7.02197">
        <ele>51.370541</ele>
        <time>2020-08-03T08:52:36.088Z</time>
      </trkpt>
      <trkpt lat="62.9468" lon="7.02222">
        <ele>51.150264</ele>
        <time>2020-08-03T08:52:38.091Z</time>
      </trkpt>
      <trkpt lat="62.94682" lon="7.02246">
        <ele>50.932955</ele>
        <time>2020-08-03T08:52:40.126Z</time>
      </trkpt>
      <trkpt lat="62.94685" lon="7.02271">
        <ele>50.715536</ele>
        <time>2020-08-03T08:52:42.115Z</time>
      </trkpt>
      <trkpt lat="62.94688" lon="7.02295">
        <ele>50.498117</ele>
        <time>2020-08-03T08:52:44.102Z</time>
      </trkpt>
      <trkpt lat="62.94691" lon="7.02319">
        <ele>50.437346</ele>
        <time>2020-08-03T08:52:46.075Z</time>
      </trkpt>
      <trkpt lat="62.94694" lon="7.02342">
        <ele>50.42309</ele>
        <time>2020-08-03T08:52:48.091Z</time>
      </trkpt>
      <trkpt lat="62.94696" lon="7.02365">
        <ele>50.409441</ele>
        <time>2020-08-03T08:52:50.109Z</time>
      </trkpt>
      <trkpt lat="62.94698" lon="7.02387">
        <ele>50.396134</ele>
        <time>2020-08-03T08:52:52.090Z</time>
      </trkpt>
      <trkpt lat="62.94701" lon="7.0241">
        <ele>50.382766</ele>
        <time>2020-08-03T08:52:54.096Z</time>
      </trkpt>
      <trkpt lat="62.94704" lon="7.02432">
        <ele>50.369422</ele>
        <time>2020-08-03T08:52:56.095Z</time>
      </trkpt>
      <trkpt lat="62.94707" lon="7.02453">
        <ele>50.356196</ele>
        <time>2020-08-03T08:52:58.136Z</time>
      </trkpt>
      <trkpt lat="62.9471" lon="7.02475">
        <ele>50.343211</ele>
        <time>2020-08-03T08:53:00.076Z</time>
      </trkpt>
      <trkpt lat="62.94712" lon="7.02497">
        <ele>50.330131</ele>
        <time>2020-08-03T08:53:02.112Z</time>
      </trkpt>
      <trkpt lat="62.94715" lon="7.02518">
        <ele>50.317012</ele>
        <time>2020-08-03T08:53:04.088Z</time>
      </trkpt>
      <trkpt lat="62.94717" lon="7.02539">
        <ele>50.304433</ele>
        <time>2020-08-03T08:53:06.086Z</time>
      </trkpt>
      <trkpt lat="62.9472" lon="7.0256">
        <ele>50.291853</ele>
        <time>2020-08-03T08:53:08.091Z</time>
      </trkpt>
      <trkpt lat="62.94723" lon="7.02581">
        <ele>50.279296</ele>
        <time>2020-08-03T08:53:10.108Z</time>
      </trkpt>
      <trkpt lat="62.94725" lon="7.02602">
        <ele>50.266626</ele>
        <time>2020-08-03T08:53:12.097Z</time>
      </trkpt>
      <trkpt lat="62.94728" lon="7.02622">
        <ele>50.254012</ele>
        <time>2020-08-03T08:53:14.087Z</time>
      </trkpt>
      <trkpt lat="62.94731" lon="7.02643">
        <ele>50.241193</ele>
        <time>2020-08-03T08:53:16.100Z</time>
      </trkpt>
      <trkpt lat="62.94735" lon="7.02664">
        <ele>50.228182</ele>
        <time>2020-08-03T08:53:18.086Z</time>
      </trkpt>
      <trkpt lat="62.94738" lon="7.02685">
        <ele>50.233901</ele>
        <time>2020-08-03T08:53:20.083Z</time>
      </trkpt>
      <trkpt lat="62.94742" lon="7.02706">
        <ele>50.330216</ele>
        <time>2020-08-03T08:53:22.093Z</time>
      </trkpt>
      <trkpt lat="62.94745" lon="7.02728">
        <ele>50.428588</ele>
        <time>2020-08-03T08:53:24.076Z</time>
      </trkpt>
      <trkpt lat="62.94749" lon="7.02749">
        <ele>50.526092</ele>
        <time>2020-08-03T08:53:26.123Z</time>
      </trkpt>
      <trkpt lat="62.94752" lon="7.02771">
        <ele>50.620265</ele>
        <time>2020-08-03T08:53:28.083Z</time>
      </trkpt>
      <trkpt lat="62.94755" lon="7.02791">
        <ele>50.7134</ele>
        <time>2020-08-03T08:53:30.079Z</time>
      </trkpt>
      <trkpt lat="62.94758" lon="7.02812">
        <ele>50.804227</ele>
        <time>2020-08-03T08:53:32.094Z</time>
      </trkpt>
      <trkpt lat="62.94762" lon="7.02832">
        <ele>50.895266</ele>
        <time>2020-08-03T08:53:34.095Z</time>
      </trkpt>
      <trkpt lat="62.94764" lon="7.02852">
        <ele>50.98281</ele>
        <time>2020-08-03T08:53:36.100Z</time>
      </trkpt>
      <trkpt lat="62.94768" lon="7.02872">
        <ele>51.074339</ele>
        <time>2020-08-03T08:53:38.101Z</time>
      </trkpt>
      <trkpt lat="62.94771" lon="7.02893">
        <ele>51.167547</ele>
        <time>2020-08-03T08:53:40.093Z</time>
      </trkpt>
      <trkpt lat="62.94775" lon="7.02913">
        <ele>51.261695</ele>
        <time>2020-08-03T08:53:42.091Z</time>
      </trkpt>
      <trkpt lat="62.94778" lon="7.02935">
        <ele>51.356736</ele>
        <time>2020-08-03T08:53:44.112Z</time>
      </trkpt>
      <trkpt lat="62.94781" lon="7.02955">
        <ele>51.448973</ele>
        <time>2020-08-03T08:53:46.075Z</time>
      </trkpt>
      <trkpt lat="62.94785" lon="7.02975">
        <ele>51.537552</ele>
        <time>2020-08-03T08:53:48.111Z</time>
      </trkpt>
      <trkpt lat="62.94788" lon="7.02994">
        <ele>51.625802</ele>
        <time>2020-08-03T08:53:50.088Z</time>
      </trkpt>
      <trkpt lat="62.94791" lon="7.03013">
        <ele>51.710919</ele>
        <time>2020-08-03T08:53:52.089Z</time>
      </trkpt>
      <trkpt lat="62.94794" lon="7.03031">
        <ele>51.795099</ele>
        <time>2020-08-03T08:53:54.143Z</time>
      </trkpt>
      <trkpt lat="62.94798" lon="7.0305">
        <ele>51.882357</ele>
        <time>2020-08-03T08:53:56.096Z</time>
      </trkpt>
      <trkpt lat="62.94802" lon="7.0307">
        <ele>51.821074</ele>
        <time>2020-08-03T08:53:58.086Z</time>
      </trkpt>
      <trkpt lat="62.94806" lon="7.0309">
        <ele>51.738596</ele>
        <time>2020-08-03T08:54:00.099Z</time>
      </trkpt>
      <trkpt lat="62.9481" lon="7.0311">
        <ele>51.659264</ele>
        <time>2020-08-03T08:54:02.129Z</time>
      </trkpt>
      <trkpt lat="62.94813" lon="7.0313">
        <ele>51.576562</ele>
        <time>2020-08-03T08:54:04.084Z</time>
      </trkpt>
      <trkpt lat="62.94817" lon="7.0315">
        <ele>51.494424</ele>
        <time>2020-08-03T08:54:06.107Z</time>
      </trkpt>
      <trkpt lat="62.94821" lon="7.03169">
        <ele>51.414001</ele>
        <time>2020-08-03T08:54:08.075Z</time>
      </trkpt>
      <trkpt lat="62.94824" lon="7.03189">
        <ele>51.331719</ele>
        <time>2020-08-03T08:54:10.103Z</time>
      </trkpt>
      <trkpt lat="62.94828" lon="7.03208">
        <ele>51.252678</ele>
        <time>2020-08-03T08:54:12.105Z</time>
      </trkpt>
      <trkpt lat="62.94833" lon="7.03236">
        <ele>51.138868</ele>
        <time>2020-08-03T08:54:15.108Z</time>
      </trkpt>
      <trkpt lat="62.94837" lon="7.03254">
        <ele>51.062655</ele>
        <time>2020-08-03T08:54:17.131Z</time>
      </trkpt>
      <trkpt lat="62.94841" lon="7.03272">
        <ele>50.98594</ele>
        <time>2020-08-03T08:54:19.074Z</time>
      </trkpt>
      <trkpt lat="62.94846" lon="7.03289">
        <ele>50.906724</ele>
        <time>2020-08-03T08:54:21.123Z</time>
      </trkpt>
      <trkpt lat="62.94851" lon="7.03307">
        <ele>50.827392</ele>
        <time>2020-08-03T08:54:23.104Z</time>
      </trkpt>
      <trkpt lat="62.94856" lon="7.03324">
        <ele>50.748435</ele>
        <time>2020-08-03T08:54:25.101Z</time>
      </trkpt>
      <trkpt lat="62.94862" lon="7.03341">
        <ele>50.670228</ele>
        <time>2020-08-03T08:54:27.076Z</time>
      </trkpt>
      <trkpt lat="62.94867" lon="7.03357">
        <ele>50.590202</ele>
        <time>2020-08-03T08:54:29.119Z</time>
      </trkpt>
      <trkpt lat="62.94874" lon="7.03374">
        <ele>50.508379</ele>
        <time>2020-08-03T08:54:31.093Z</time>
      </trkpt>
      <trkpt lat="62.9488" lon="7.0339">
        <ele>50.42494</ele>
        <time>2020-08-03T08:54:33.094Z</time>
      </trkpt>
      <trkpt lat="62.94887" lon="7.03405">
        <ele>50.385663</ele>
        <time>2020-08-03T08:54:35.106Z</time>
      </trkpt>
      <trkpt lat="62.94894" lon="7.0342">
        <ele>50.390949</ele>
        <time>2020-08-03T08:54:37.089Z</time>
      </trkpt>
      <trkpt lat="62.94901" lon="7.03432">
        <ele>50.396035</ele>
        <time>2020-08-03T08:54:39.082Z</time>
      </trkpt>
      <trkpt lat="62.94908" lon="7.03445">
        <ele>50.401197</ele>
        <time>2020-08-03T08:54:41.112Z</time>
      </trkpt>
      <trkpt lat="62.94916" lon="7.03458">
        <ele>50.406443</ele>
        <time>2020-08-03T08:54:43.095Z</time>
      </trkpt>
      <trkpt lat="62.94921" lon="7.03476">
        <ele>50.411735</ele>
        <time>2020-08-03T08:54:45.079Z</time>
      </trkpt>
      <trkpt lat="62.94922" lon="7.03498">
        <ele>50.417375</ele>
        <time>2020-08-03T08:54:47.146Z</time>
      </trkpt>
      <trkpt lat="62.94926" lon="7.03517">
        <ele>50.422698</ele>
        <time>2020-08-03T08:54:49.129Z</time>
      </trkpt>
      <trkpt lat="62.94932" lon="7.03536">
        <ele>50.428393</ele>
        <time>2020-08-03T08:54:51.088Z</time>
      </trkpt>
      <trkpt lat="62.94938" lon="7.03553">
        <ele>50.433943</ele>
        <time>2020-08-03T08:54:53.088Z</time>
      </trkpt>
      <trkpt lat="62.94944" lon="7.0357">
        <ele>50.439173</ele>
        <time>2020-08-03T08:54:55.077Z</time>
      </trkpt>
      <trkpt lat="62.94949" lon="7.03586">
        <ele>50.4443</ele>
        <time>2020-08-03T08:54:57.088Z</time>
      </trkpt>
      <trkpt lat="62.94955" lon="7.03602">
        <ele>50.449481</ele>
        <time>2020-08-03T08:54:59.077Z</time>
      </trkpt>
      <trkpt lat="62.94961" lon="7.03619">
        <ele>50.45485</ele>
        <time>2020-08-03T08:55:01.111Z</time>
      </trkpt>
      <trkpt lat="62.94967" lon="7.03634">
        <ele>50.460002</ele>
        <time>2020-08-03T08:55:03.090Z</time>
      </trkpt>
      <trkpt lat="62.94973" lon="7.0365">
        <ele>50.465043</ele>
        <time>2020-08-03T08:55:05.112Z</time>
      </trkpt>
      <trkpt lat="62.94978" lon="7.03666">
        <ele>50.470179</ele>
        <time>2020-08-03T08:55:07.130Z</time>
      </trkpt>
      <trkpt lat="62.94986" lon="7.03689">
        <ele>50.477485</ele>
        <time>2020-08-03T08:55:10.076Z</time>
      </trkpt>
      <trkpt lat="62.94993" lon="7.03711">
        <ele>50.565333</ele>
        <time>2020-08-03T08:55:13.133Z</time>
      </trkpt>
      <trkpt lat="62.95" lon="7.03732">
        <ele>50.988593</ele>
        <time>2020-08-03T08:55:16.098Z</time>
      </trkpt>
      <trkpt lat="62.95007" lon="7.03751">
        <ele>51.390733</ele>
        <time>2020-08-03T08:55:19.076Z</time>
      </trkpt>
      <trkpt lat="62.95012" lon="7.03768">
        <ele>51.725103</ele>
        <time>2020-08-03T08:55:22.085Z</time>
      </trkpt>
      <trkpt lat="62.95017" lon="7.03785">
        <ele>52.059295</ele>
        <time>2020-08-03T08:55:25.086Z</time>
      </trkpt>
      <trkpt lat="62.95022" lon="7.03801">
        <ele>52.390251</ele>
        <time>2020-08-03T08:55:28.087Z</time>
      </trkpt>
      <trkpt lat="62.95029" lon="7.03822">
        <ele>52.80369</ele>
        <time>2020-08-03T08:55:32.077Z</time>
      </trkpt>
      <trkpt lat="62.95034" lon="7.03843">
        <ele>53.217246</ele>
        <time>2020-08-03T08:55:36.089Z</time>
      </trkpt>
      <trkpt lat="62.95039" lon="7.0386">
        <ele>53.544965</ele>
        <time>2020-08-03T08:55:39.088Z</time>
      </trkpt>
      <trkpt lat="62.95044" lon="7.03878">
        <ele>53.880128</ele>
        <time>2020-08-03T08:55:42.118Z</time>
      </trkpt>
      <trkpt lat="62.95048" lon="7.03895">
        <ele>54.20748</ele>
        <time>2020-08-03T08:55:45.112Z</time>
      </trkpt>
      <trkpt lat="62.95052" lon="7.03918">
        <ele>54.614081</ele>
        <time>2020-08-03T08:55:49.117Z</time>
      </trkpt>
      <trkpt lat="62.95057" lon="7.0394">
        <ele>55.017691</ele>
        <time>2020-08-03T08:55:53.094Z</time>
      </trkpt>
      <trkpt lat="62.95062" lon="7.03963">
        <ele>55.446966</ele>
        <time>2020-08-03T08:55:57.107Z</time>
      </trkpt>
      <trkpt lat="62.95067" lon="7.03986">
        <ele>55.861253</ele>
        <time>2020-08-03T08:56:01.106Z</time>
      </trkpt>
      <trkpt lat="62.95071" lon="7.04005">
        <ele>56.19885</ele>
        <time>2020-08-03T08:56:05.098Z</time>
      </trkpt>
      <trkpt lat="62.95074" lon="7.04025">
        <ele>56.561098</ele>
        <time>2020-08-03T08:56:11.090Z</time>
      </trkpt>
      <trkpt lat="62.95077" lon="7.04045">
        <ele>56.903287</ele>
        <time>2020-08-03T08:56:19.096Z</time>
      </trkpt>
      <trkpt lat="62.95079" lon="7.04067">
        <ele>56.982561</ele>
        <time>2020-08-03T08:56:25.100Z</time>
      </trkpt>
      <trkpt lat="62.95083" lon="7.04087">
        <ele>56.921574</ele>
        <time>2020-08-03T08:56:31.091Z</time>
      </trkpt>
      <trkpt lat="62.95086" lon="7.04106">
        <ele>56.863466</ele>
        <time>2020-08-03T08:56:36.109Z</time>
      </trkpt>
      <trkpt lat="62.95089" lon="7.04126">
        <ele>56.804935</ele>
        <time>2020-08-03T08:56:41.106Z</time>
      </trkpt>
      <trkpt lat="62.95092" lon="7.04147">
        <ele>56.743036</ele>
        <time>2020-08-03T08:56:46.112Z</time>
      </trkpt>
      <trkpt lat="62.95095" lon="7.04169">
        <ele>56.676766</ele>
        <time>2020-08-03T08:56:51.109Z</time>
      </trkpt>
      <trkpt lat="62.95098" lon="7.04189">
        <ele>56.615784</ele>
        <time>2020-08-03T08:56:55.085Z</time>
      </trkpt>
      <trkpt lat="62.951" lon="7.04214">
        <ele>56.542025</ele>
        <time>2020-08-03T08:56:59.078Z</time>
      </trkpt>
      <trkpt lat="62.95103" lon="7.04243">
        <ele>56.459668</ele>
        <time>2020-08-03T08:57:02.085Z</time>
      </trkpt>
      <trkpt lat="62.95105" lon="7.04268">
        <ele>56.387682</ele>
        <time>2020-08-03T08:57:04.104Z</time>
      </trkpt>
      <trkpt lat="62.95107" lon="7.04296">
        <ele>56.305986</ele>
        <time>2020-08-03T08:57:06.090Z</time>
      </trkpt>
      <trkpt lat="62.9511" lon="7.04325">
        <ele>56.220535</ele>
        <time>2020-08-03T08:57:08.112Z</time>
      </trkpt>
      <trkpt lat="62.95113" lon="7.04355">
        <ele>56.132468</ele>
        <time>2020-08-03T08:57:10.091Z</time>
      </trkpt>
      <trkpt lat="62.95116" lon="7.04387">
        <ele>56.041615</ele>
        <time>2020-08-03T08:57:12.129Z</time>
      </trkpt>
      <trkpt lat="62.95119" lon="7.04419">
        <ele>55.948549</ele>
        <time>2020-08-03T08:57:14.081Z</time>
      </trkpt>
      <trkpt lat="62.95123" lon="7.0445">
        <ele>55.925076</ele>
        <time>2020-08-03T08:57:16.088Z</time>
      </trkpt>
      <trkpt lat="62.95127" lon="7.04481">
        <ele>55.979486</ele>
        <time>2020-08-03T08:57:18.106Z</time>
      </trkpt>
      <trkpt lat="62.95131" lon="7.04509">
        <ele>56.029591</ele>
        <time>2020-08-03T08:57:20.111Z</time>
      </trkpt>
      <trkpt lat="62.95135" lon="7.04534">
        <ele>56.074434</ele>
        <time>2020-08-03T08:57:22.093Z</time>
      </trkpt>
      <trkpt lat="62.95139" lon="7.04556">
        <ele>56.11417</ele>
        <time>2020-08-03T08:57:24.107Z</time>
      </trkpt>
      <trkpt lat="62.95143" lon="7.04575">
        <ele>56.148941</ele>
        <time>2020-08-03T08:57:26.076Z</time>
      </trkpt>
      <trkpt lat="62.95147" lon="7.04599">
        <ele>56.192811</ele>
        <time>2020-08-03T08:57:29.116Z</time>
      </trkpt>
      <trkpt lat="62.95151" lon="7.04619">
        <ele>56.228949</ele>
        <time>2020-08-03T08:57:32.085Z</time>
      </trkpt>
      <trkpt lat="62.95157" lon="7.0464">
        <ele>56.269537</ele>
        <time>2020-08-03T08:57:36.097Z</time>
      </trkpt>
      <trkpt lat="62.95162" lon="7.04657">
        <ele>56.30506</ele>
        <time>2020-08-03T08:57:40.089Z</time>
      </trkpt>
      <trkpt lat="62.95167" lon="7.04676">
        <ele>56.340963</ele>
        <time>2020-08-03T08:57:44.078Z</time>
      </trkpt>
      <trkpt lat="62.95172" lon="7.04696">
        <ele>56.380746</ele>
        <time>2020-08-03T08:57:48.096Z</time>
      </trkpt>
      <trkpt lat="62.95177" lon="7.04716">
        <ele>56.42026</ele>
        <time>2020-08-03T08:57:52.089Z</time>
      </trkpt>
      <trkpt lat="62.95183" lon="7.04735">
        <ele>56.45804</ele>
        <time>2020-08-03T08:57:56.085Z</time>
      </trkpt>
      <trkpt lat="62.95188" lon="7.04754">
        <ele>56.495918</ele>
        <time>2020-08-03T08:58:00.148Z</time>
      </trkpt>
      <trkpt lat="62.95193" lon="7.04773">
        <ele>56.531076</ele>
        <time>2020-08-03T08:58:04.093Z</time>
      </trkpt>
      <trkpt lat="62.95198" lon="7.04791">
        <ele>56.561763</ele>
        <time>2020-08-03T08:58:08.095Z</time>
      </trkpt>
      <trkpt lat="62.95203" lon="7.04813">
        <ele>56.386103</ele>
        <time>2020-08-03T08:58:12.094Z</time>
      </trkpt>
      <trkpt lat="62.95208" lon="7.04832">
        <ele>56.238265</ele>
        <time>2020-08-03T08:58:15.132Z</time>
      </trkpt>
      <trkpt lat="62.95213" lon="7.04851">
        <ele>56.080315</ele>
        <time>2020-08-03T08:58:18.098Z</time>
      </trkpt>
      <trkpt lat="62.95217" lon="7.0487">
        <ele>55.930333</ele>
        <time>2020-08-03T08:58:21.087Z</time>
      </trkpt>
      <trkpt lat="62.95222" lon="7.04887">
        <ele>55.789686</ele>
        <time>2020-08-03T08:58:24.116Z</time>
      </trkpt>
      <trkpt lat="62.95228" lon="7.04908">
        <ele>55.615049</ele>
        <time>2020-08-03T08:58:28.127Z</time>
      </trkpt>
      <trkpt lat="62.95234" lon="7.0493">
        <ele>55.440413</ele>
        <time>2020-08-03T08:58:32.095Z</time>
      </trkpt>
      <trkpt lat="62.95239" lon="7.0495">
        <ele>55.276522</ele>
        <time>2020-08-03T08:58:35.096Z</time>
      </trkpt>
      <trkpt lat="62.95246" lon="7.04975">
        <ele>55.072816</ele>
        <time>2020-08-03T08:58:38.092Z</time>
      </trkpt>
      <trkpt lat="62.95253" lon="7.05">
        <ele>54.868907</ele>
        <time>2020-08-03T08:58:41.092Z</time>
      </trkpt>
      <trkpt lat="62.9526" lon="7.05023">
        <ele>54.671549</ele>
        <time>2020-08-03T08:58:44.084Z</time>
      </trkpt>
      <trkpt lat="62.95266" lon="7.05045">
        <ele>54.48498</ele>
        <time>2020-08-03T08:58:47.102Z</time>
      </trkpt>
      <trkpt lat="62.95273" lon="7.05066">
        <ele>54.307148</ele>
        <time>2020-08-03T08:58:50.090Z</time>
      </trkpt>
      <trkpt lat="62.95279" lon="7.05087">
        <ele>54.132207</ele>
        <time>2020-08-03T08:58:53.080Z</time>
      </trkpt>
      <trkpt lat="62.95285" lon="7.05107">
        <ele>53.957875</ele>
        <time>2020-08-03T08:58:56.091Z</time>
      </trkpt>
      <trkpt lat="62.95292" lon="7.05127">
        <ele>53.788231</ele>
        <time>2020-08-03T08:58:59.091Z</time>
      </trkpt>
      <trkpt lat="62.95298" lon="7.05147">
        <ele>53.954906</ele>
        <time>2020-08-03T08:59:02.089Z</time>
      </trkpt>
      <trkpt lat="62.95305" lon="7.05165">
        <ele>54.118143</ele>
        <time>2020-08-03T08:59:05.075Z</time>
      </trkpt>
      <trkpt lat="62.95311" lon="7.05184">
        <ele>54.283094</ele>
        <time>2020-08-03T08:59:08.122Z</time>
      </trkpt>
      <trkpt lat="62.95318" lon="7.05204">
        <ele>54.457648</ele>
        <time>2020-08-03T08:59:11.106Z</time>
      </trkpt>
      <trkpt lat="62.95326" lon="7.05224">
        <ele>54.642488</ele>
        <time>2020-08-03T08:59:14.090Z</time>
      </trkpt>
      <trkpt lat="62.95334" lon="7.05246">
        <ele>54.841322</ele>
        <time>2020-08-03T08:59:17.096Z</time>
      </trkpt>
      <trkpt lat="62.95342" lon="7.05268">
        <ele>55.040012</ele>
        <time>2020-08-03T08:59:20.108Z</time>
      </trkpt>
      <trkpt lat="62.95349" lon="7.05288">
        <ele>55.226146</ele>
        <time>2020-08-03T08:59:23.096Z</time>
      </trkpt>
      <trkpt lat="62.95356" lon="7.05309">
        <ele>55.409967</ele>
        <time>2020-08-03T08:59:26.081Z</time>
      </trkpt>
      <trkpt lat="62.95363" lon="7.0533">
        <ele>55.593412</ele>
        <time>2020-08-03T08:59:29.075Z</time>
      </trkpt>
      <trkpt lat="62.9537" lon="7.0535">
        <ele>55.767862</ele>
        <time>2020-08-03T08:59:32.098Z</time>
      </trkpt>
      <trkpt lat="62.95377" lon="7.05371">
        <ele>55.949381</ele>
        <time>2020-08-03T08:59:35.088Z</time>
      </trkpt>
      <trkpt lat="62.95384" lon="7.0539">
        <ele>56.120086</ele>
        <time>2020-08-03T08:59:38.095Z</time>
      </trkpt>
      <trkpt lat="62.95389" lon="7.05407">
        <ele>56.268973</ele>
        <time>2020-08-03T08:59:41.075Z</time>
      </trkpt>
      <trkpt lat="62.95395" lon="7.05429">
        <ele>56.445904</ele>
        <time>2020-08-03T08:59:45.095Z</time>
      </trkpt>
      <trkpt lat="62.954" lon="7.05449">
        <ele>56.621478</ele>
        <time>2020-08-03T08:59:49.078Z</time>
      </trkpt>
      <trkpt lat="62.95406" lon="7.05469">
        <ele>56.828553</ele>
        <time>2020-08-03T08:59:53.150Z</time>
      </trkpt>
      <trkpt lat="62.95413" lon="7.05487">
        <ele>57.025027</ele>
        <time>2020-08-03T08:59:57.087Z</time>
      </trkpt>
      <trkpt lat="62.95418" lon="7.05506">
        <ele>57.224284</ele>
        <time>2020-08-03T09:00:01.085Z</time>
      </trkpt>
      <trkpt lat="62.95423" lon="7.05524">
        <ele>57.404954</ele>
        <time>2020-08-03T09:00:05.087Z</time>
      </trkpt>
      <trkpt lat="62.95428" lon="7.05541">
        <ele>57.583065</ele>
        <time>2020-08-03T09:00:10.117Z</time>
      </trkpt>
      <trkpt lat="62.95434" lon="7.05558">
        <ele>57.763167</ele>
        <time>2020-08-03T09:00:16.092Z</time>
      </trkpt>
      <trkpt lat="62.95438" lon="7.05577">
        <ele>57.942122</ele>
        <time>2020-08-03T09:00:22.075Z</time>
      </trkpt>
      <trkpt lat="62.95442" lon="7.05594">
        <ele>58.117134</ele>
        <time>2020-08-03T09:00:27.076Z</time>
      </trkpt>
      <trkpt lat="62.95447" lon="7.05616">
        <ele>58.325287</ele>
        <time>2020-08-03T09:00:33.117Z</time>
      </trkpt>
      <trkpt lat="62.95452" lon="7.05635">
        <ele>58.517427</ele>
        <time>2020-08-03T09:00:38.085Z</time>
      </trkpt>
      <trkpt lat="62.95458" lon="7.05653">
        <ele>58.708436</ele>
        <time>2020-08-03T09:00:43.073Z</time>
      </trkpt>
      <trkpt lat="62.95463" lon="7.05673">
        <ele>58.905459</ele>
        <time>2020-08-03T09:00:48.091Z</time>
      </trkpt>
      <trkpt lat="62.95468" lon="7.05695">
        <ele>59.11772</ele>
        <time>2020-08-03T09:00:53.100Z</time>
      </trkpt>
      <trkpt lat="62.95473" lon="7.05714">
        <ele>59.303641</ele>
        <time>2020-08-03T09:00:57.084Z</time>
      </trkpt>
      <trkpt lat="62.95477" lon="7.05731">
        <ele>59.474771</ele>
        <time>2020-08-03T09:01:00.084Z</time>
      </trkpt>
      <trkpt lat="62.95481" lon="7.05753">
        <ele>59.676625</ele>
        <time>2020-08-03T09:01:03.104Z</time>
      </trkpt>
      <trkpt lat="62.95486" lon="7.05777">
        <ele>59.902073</ele>
        <time>2020-08-03T09:01:06.107Z</time>
      </trkpt>
      <trkpt lat="62.9549" lon="7.05801">
        <ele>59.952913</ele>
        <time>2020-08-03T09:01:09.105Z</time>
      </trkpt>
      <trkpt lat="62.95495" lon="7.05825">
        <ele>59.873053</ele>
        <time>2020-08-03T09:01:12.074Z</time>
      </trkpt>
      <trkpt lat="62.95499" lon="7.05848">
        <ele>59.795376</ele>
        <time>2020-08-03T09:01:15.111Z</time>
      </trkpt>
      <trkpt lat="62.95503" lon="7.05872">
        <ele>59.715711</ele>
        <time>2020-08-03T09:01:18.125Z</time>
      </trkpt>
      <trkpt lat="62.95507" lon="7.05896">
        <ele>59.635716</ele>
        <time>2020-08-03T09:01:21.078Z</time>
      </trkpt>
      <trkpt lat="62.95511" lon="7.0592">
        <ele>59.555832</ele>
        <time>2020-08-03T09:01:24.086Z</time>
      </trkpt>
      <trkpt lat="62.95514" lon="7.05944">
        <ele>59.478824</ele>
        <time>2020-08-03T09:01:27.087Z</time>
      </trkpt>
      <trkpt lat="62.95517" lon="7.05967">
        <ele>59.403795</ele>
        <time>2020-08-03T09:01:30.088Z</time>
      </trkpt>
      <trkpt lat="62.95521" lon="7.05991">
        <ele>59.327287</ele>
        <time>2020-08-03T09:01:33.086Z</time>
      </trkpt>
      <trkpt lat="62.95523" lon="7.06014">
        <ele>59.254186</ele>
        <time>2020-08-03T09:01:36.092Z</time>
      </trkpt>
      <trkpt lat="62.95526" lon="7.06037">
        <ele>59.18002</ele>
        <time>2020-08-03T09:01:39.126Z</time>
      </trkpt>
      <trkpt lat="62.95528" lon="7.06059">
        <ele>59.108877</ele>
        <time>2020-08-03T09:01:42.117Z</time>
      </trkpt>
      <trkpt lat="62.9553" lon="7.06084">
        <ele>59.031362</ele>
        <time>2020-08-03T09:01:45.105Z</time>
      </trkpt>
      <trkpt lat="62.95532" lon="7.06107">
        <ele>58.956424</ele>
        <time>2020-08-03T09:01:48.107Z</time>
      </trkpt>
      <trkpt lat="62.95535" lon="7.0613">
        <ele>58.88446</ele>
        <time>2020-08-03T09:01:51.107Z</time>
      </trkpt>
      <trkpt lat="62.95537" lon="7.0615">
        <ele>58.819081</ele>
        <time>2020-08-03T09:01:54.117Z</time>
      </trkpt>
      <trkpt lat="62.95539" lon="7.0617">
        <ele>58.90576</ele>
        <time>2020-08-03T09:01:57.122Z</time>
      </trkpt>
      <trkpt lat="62.95542" lon="7.0619">
        <ele>59.454951</ele>
        <time>2020-08-03T09:02:00.088Z</time>
      </trkpt>
      <trkpt lat="62.95545" lon="7.06208">
        <ele>59.995653</ele>
        <time>2020-08-03T09:02:03.089Z</time>
      </trkpt>
      <trkpt lat="62.95548" lon="7.06234">
        <ele>60.707283</ele>
        <time>2020-08-03T09:02:07.088Z</time>
      </trkpt>
      <trkpt lat="62.95552" lon="7.06257">
        <ele>61.396953</ele>
        <time>2020-08-03T09:02:11.106Z</time>
      </trkpt>
      <trkpt lat="62.95557" lon="7.06281">
        <ele>62.106167</ele>
        <time>2020-08-03T09:02:15.092Z</time>
      </trkpt>
      <trkpt lat="62.95562" lon="7.06305">
        <ele>62.822703</ele>
        <time>2020-08-03T09:02:19.087Z</time>
      </trkpt>
      <trkpt lat="62.95566" lon="7.06323">
        <ele>63.378907</ele>
        <time>2020-08-03T09:02:22.120Z</time>
      </trkpt>
      <trkpt lat="62.95571" lon="7.06345">
        <ele>64.050812</ele>
        <time>2020-08-03T09:02:26.082Z</time>
      </trkpt>
      <trkpt lat="62.95576" lon="7.06364">
        <ele>64.624648</ele>
        <time>2020-08-03T09:02:30.082Z</time>
      </trkpt>
      <trkpt lat="62.95581" lon="7.06381">
        <ele>65.194029</ele>
        <time>2020-08-03T09:02:34.079Z</time>
      </trkpt>
      <trkpt lat="62.95585" lon="7.06401">
        <ele>65.794258</ele>
        <time>2020-08-03T09:02:38.078Z</time>
      </trkpt>
      <trkpt lat="62.95589" lon="7.06422">
        <ele>66.399235</ele>
        <time>2020-08-03T09:02:42.081Z</time>
      </trkpt>
      <trkpt lat="62.95594" lon="7.06442">
        <ele>67.034525</ele>
        <time>2020-08-03T09:02:46.096Z</time>
      </trkpt>
      <trkpt lat="62.95599" lon="7.0646">
        <ele>67.609851</ele>
        <time>2020-08-03T09:02:50.087Z</time>
      </trkpt>
      <trkpt lat="62.95605" lon="7.06475">
        <ele>68.158057</ele>
        <time>2020-08-03T09:02:54.112Z</time>
      </trkpt>
      <trkpt lat="62.95612" lon="7.06491">
        <ele>68.760567</ele>
        <time>2020-08-03T09:02:58.103Z</time>
      </trkpt>
      <trkpt lat="62.9562" lon="7.06511">
        <ele>69.47995</ele>
        <time>2020-08-03T09:03:02.079Z</time>
      </trkpt>
      <trkpt lat="62.95628" lon="7.06525">
        <ele>69.329887</ele>
        <time>2020-08-03T09:03:05.112Z</time>
      </trkpt>
      <trkpt lat="62.95637" lon="7.06541">
        <ele>69.079339</ele>
        <time>2020-08-03T09:03:08.094Z</time>
      </trkpt>
      <trkpt lat="62.95646" lon="7.06556">
        <ele>68.824217</ele>
        <time>2020-08-03T09:03:11.077Z</time>
      </trkpt>
      <trkpt lat="62.95656" lon="7.0657">
        <ele>68.567872</ele>
        <time>2020-08-03T09:03:14.117Z</time>
      </trkpt>
      <trkpt lat="62.95665" lon="7.06585">
        <ele>68.310941</ele>
        <time>2020-08-03T09:03:17.097Z</time>
      </trkpt>
      <trkpt lat="62.95673" lon="7.066">
        <ele>68.069606</ele>
        <time>2020-08-03T09:03:20.085Z</time>
      </trkpt>
      <trkpt lat="62.95682" lon="7.06612">
        <ele>67.843346</ele>
        <time>2020-08-03T09:03:23.088Z</time>
      </trkpt>
      <trkpt lat="62.9569" lon="7.06625">
        <ele>67.622602</ele>
        <time>2020-08-03T09:03:26.116Z</time>
      </trkpt>
      <trkpt lat="62.95698" lon="7.06638">
        <ele>67.383054</ele>
        <time>2020-08-03T09:03:29.074Z</time>
      </trkpt>
      <trkpt lat="62.95709" lon="7.06653">
        <ele>67.104071</ele>
        <time>2020-08-03T09:03:32.088Z</time>
      </trkpt>
      <trkpt lat="62.9572" lon="7.06668">
        <ele>66.804208</ele>
        <time>2020-08-03T09:03:35.102Z</time>
      </trkpt>
      <trkpt lat="62.95728" lon="7.06679">
        <ele>66.591846</ele>
        <time>2020-08-03T09:03:37.099Z</time>
      </trkpt>
      <trkpt lat="62.95737" lon="7.0669">
        <ele>66.369669</ele>
        <time>2020-08-03T09:03:39.089Z</time>
      </trkpt>
      <trkpt lat="62.95746" lon="7.067">
        <ele>66.148496</ele>
        <time>2020-08-03T09:03:41.116Z</time>
      </trkpt>
      <trkpt lat="62.95754" lon="7.0671">
        <ele>65.93519</ele>
        <time>2020-08-03T09:03:43.094Z</time>
      </trkpt>
      <trkpt lat="62.95766" lon="7.06724">
        <ele>65.640757</ele>
        <time>2020-08-03T09:03:46.089Z</time>
      </trkpt>
      <trkpt lat="62.95777" lon="7.06738">
        <ele>65.456011</ele>
        <time>2020-08-03T09:03:49.092Z</time>
      </trkpt>
      <trkpt lat="62.95788" lon="7.06752">
        <ele>65.364634</ele>
        <time>2020-08-03T09:03:52.102Z</time>
      </trkpt>
      <trkpt lat="62.95799" lon="7.06766">
        <ele>65.27417</ele>
        <time>2020-08-03T09:03:55.100Z</time>
      </trkpt>
      <trkpt lat="62.9581" lon="7.06781">
        <ele>65.180457</ele>
        <time>2020-08-03T09:03:58.095Z</time>
      </trkpt>
      <trkpt lat="62.95822" lon="7.06797">
        <ele>65.085256</ele>
        <time>2020-08-03T09:04:01.118Z</time>
      </trkpt>
      <trkpt lat="62.95832" lon="7.06813">
        <ele>64.991771</ele>
        <time>2020-08-03T09:04:04.098Z</time>
      </trkpt>
      <trkpt lat="62.95842" lon="7.06833">
        <ele>64.896657</ele>
        <time>2020-08-03T09:04:07.087Z</time>
      </trkpt>
      <trkpt lat="62.95848" lon="7.06847">
        <ele>64.831392</ele>
        <time>2020-08-03T09:04:09.095Z</time>
      </trkpt>
      <trkpt lat="62.95857" lon="7.0687">
        <ele>64.7369</ele>
        <time>2020-08-03T09:04:12.107Z</time>
      </trkpt>
      <trkpt lat="62.95863" lon="7.06893">
        <ele>64.647613</ele>
        <time>2020-08-03T09:04:15.083Z</time>
      </trkpt>
      <trkpt lat="62.95868" lon="7.06914">
        <ele>64.572091</ele>
        <time>2020-08-03T09:04:18.080Z</time>
      </trkpt>
      <trkpt lat="62.95871" lon="7.06935">
        <ele>64.499282</ele>
        <time>2020-08-03T09:04:21.115Z</time>
      </trkpt>
      <trkpt lat="62.95874" lon="7.06957">
        <ele>64.426855</ele>
        <time>2020-08-03T09:04:24.099Z</time>
      </trkpt>
      <trkpt lat="62.95877" lon="7.06978">
        <ele>64.354851</ele>
        <time>2020-08-03T09:04:27.086Z</time>
      </trkpt>
      <trkpt lat="62.9588" lon="7.06999">
        <ele>64.281181</ele>
        <time>2020-08-03T09:04:30.118Z</time>
      </trkpt>
      <trkpt lat="62.95883" lon="7.07021">
        <ele>64.206343</ele>
        <time>2020-08-03T09:04:33.087Z</time>
      </trkpt>
      <trkpt lat="62.95887" lon="7.07041">
        <ele>64.124625</ele>
        <time>2020-08-03T09:04:36.099Z</time>
      </trkpt>
      <trkpt lat="62.95892" lon="7.07059">
        <ele>64.047506</ele>
        <time>2020-08-03T09:04:39.111Z</time>
      </trkpt>
      <trkpt lat="62.95898" lon="7.07076">
        <ele>63.971108</ele>
        <time>2020-08-03T09:04:42.091Z</time>
      </trkpt>
      <trkpt lat="62.95902" lon="7.07095">
        <ele>63.892684</ele>
        <time>2020-08-03T09:04:45.090Z</time>
      </trkpt>
      <trkpt lat="62.95907" lon="7.07114">
        <ele>63.811794</ele>
        <time>2020-08-03T09:04:48.103Z</time>
      </trkpt>
      <trkpt lat="62.95913" lon="7.07134">
        <ele>63.724327</ele>
        <time>2020-08-03T09:04:51.087Z</time>
      </trkpt>
      <trkpt lat="62.95919" lon="7.07154">
        <ele>63.634575</ele>
        <time>2020-08-03T09:04:54.070Z</time>
      </trkpt>
      <trkpt lat="62.95925" lon="7.07175">
        <ele>63.544449</ele>
        <time>2020-08-03T09:04:57.077Z</time>
      </trkpt>
      <trkpt lat="62.95931" lon="7.07196">
        <ele>63.454643</ele>
        <time>2020-08-03T09:05:00.077Z</time>
      </trkpt>
      <trkpt lat="62.95937" lon="7.07216">
        <ele>63.368236</ele>
        <time>2020-08-03T09:05:03.119Z</time>
      </trkpt>
      <trkpt lat="62.95943" lon="7.07235">
        <ele>63.28333</ele>
        <time>2020-08-03T09:05:06.082Z</time>
      </trkpt>
      <trkpt lat="62.95948" lon="7.07254">
        <ele>63.19845</ele>
        <time>2020-08-03T09:05:09.086Z</time>
      </trkpt>
      <trkpt lat="62.95955" lon="7.07274">
        <ele>63.107122</ele>
        <time>2020-08-03T09:05:12.088Z</time>
      </trkpt>
      <trkpt lat="62.95964" lon="7.07294">
        <ele>63.007009</ele>
        <time>2020-08-03T09:05:15.112Z</time>
      </trkpt>
      <trkpt lat="62.9597" lon="7.07309">
        <ele>62.931066</ele>
        <time>2020-08-03T09:05:17.097Z</time>
      </trkpt>
      <trkpt lat="62.95977" lon="7.07325">
        <ele>62.850236</ele>
        <time>2020-08-03T09:05:19.084Z</time>
      </trkpt>
      <trkpt lat="62.95984" lon="7.0734">
        <ele>62.772678</ele>
        <time>2020-08-03T09:05:21.087Z</time>
      </trkpt>
      <trkpt lat="62.9599" lon="7.07354">
        <ele>62.721146</ele>
        <time>2020-08-03T09:05:23.111Z</time>
      </trkpt>
      <trkpt lat="62.95997" lon="7.07368">
        <ele>62.672561</ele>
        <time>2020-08-03T09:05:25.118Z</time>
      </trkpt>
      <trkpt lat="62.96006" lon="7.07386">
        <ele>62.60725</ele>
        <time>2020-08-03T09:05:28.089Z</time>
      </trkpt>
      <trkpt lat="62.96014" lon="7.07404">
        <ele>62.543854</ele>
        <time>2020-08-03T09:05:31.089Z</time>
      </trkpt>
      <trkpt lat="62.96022" lon="7.07421">
        <ele>62.481577</ele>
        <time>2020-08-03T09:05:34.097Z</time>
      </trkpt>
      <trkpt lat="62.96032" lon="7.0744">
        <ele>62.414573</ele>
        <time>2020-08-03T09:05:37.108Z</time>
      </trkpt>
      <trkpt lat="62.9604" lon="7.07458">
        <ele>62.349285</ele>
        <time>2020-08-03T09:05:40.105Z</time>
      </trkpt>
      <trkpt lat="62.96048" lon="7.07477">
        <ele>62.287142</ele>
        <time>2020-08-03T09:05:43.127Z</time>
      </trkpt>
      <trkpt lat="62.96055" lon="7.07496">
        <ele>62.227637</ele>
        <time>2020-08-03T09:05:46.084Z</time>
      </trkpt>
      <trkpt lat="62.96062" lon="7.07516">
        <ele>62.164691</ele>
        <time>2020-08-03T09:05:49.091Z</time>
      </trkpt>
      <trkpt lat="62.96069" lon="7.07537">
        <ele>62.100548</ele>
        <time>2020-08-03T09:05:52.088Z</time>
      </trkpt>
      <trkpt lat="62.96077" lon="7.07557">
        <ele>62.03688</ele>
        <time>2020-08-03T09:05:55.088Z</time>
      </trkpt>
      <trkpt lat="62.96083" lon="7.07577">
        <ele>61.974878</ele>
        <time>2020-08-03T09:05:58.079Z</time>
      </trkpt>
      <trkpt lat="62.9609" lon="7.07599">
        <ele>61.911373</ele>
        <time>2020-08-03T09:06:01.123Z</time>
      </trkpt>
      <trkpt lat="62.96097" lon="7.0762">
        <ele>61.847028</ele>
        <time>2020-08-03T09:06:04.129Z</time>
      </trkpt>
      <trkpt lat="62.96105" lon="7.07641">
        <ele>61.750251</ele>
        <time>2020-08-03T09:06:07.103Z</time>
      </trkpt>
      <trkpt lat="62.96113" lon="7.07662">
        <ele>61.534021</ele>
        <time>2020-08-03T09:06:10.091Z</time>
      </trkpt>
      <trkpt lat="62.96119" lon="7.07678">
        <ele>61.370414</ele>
        <time>2020-08-03T09:06:12.092Z</time>
      </trkpt>
      <trkpt lat="62.96126" lon="7.07698">
        <ele>61.175259</ele>
        <time>2020-08-03T09:06:14.086Z</time>
      </trkpt>
      <trkpt lat="62.96133" lon="7.07719">
        <ele>60.965709</ele>
        <time>2020-08-03T09:06:16.084Z</time>
      </trkpt>
      <trkpt lat="62.96141" lon="7.07741">
        <ele>60.744658</ele>
        <time>2020-08-03T09:06:18.092Z</time>
      </trkpt>
      <trkpt lat="62.96149" lon="7.07761">
        <ele>60.539535</ele>
        <time>2020-08-03T09:06:20.104Z</time>
      </trkpt>
      <trkpt lat="62.96156" lon="7.07782">
        <ele>60.338377</ele>
        <time>2020-08-03T09:06:22.108Z</time>
      </trkpt>
      <trkpt lat="62.96164" lon="7.07803">
        <ele>60.121319</ele>
        <time>2020-08-03T09:06:24.083Z</time>
      </trkpt>
      <trkpt lat="62.96172" lon="7.07828">
        <ele>59.887416</ele>
        <time>2020-08-03T09:06:26.094Z</time>
      </trkpt>
      <trkpt lat="62.96179" lon="7.07854">
        <ele>59.646056</ele>
        <time>2020-08-03T09:06:28.103Z</time>
      </trkpt>
      <trkpt lat="62.96185" lon="7.07879">
        <ele>59.425514</ele>
        <time>2020-08-03T09:06:30.109Z</time>
      </trkpt>
      <trkpt lat="62.96189" lon="7.07901">
        <ele>59.236616</ele>
        <time>2020-08-03T09:06:32.106Z</time>
      </trkpt>
      <trkpt lat="62.96193" lon="7.07921">
        <ele>59.066949</ele>
        <time>2020-08-03T09:06:34.086Z</time>
      </trkpt>
      <trkpt lat="62.96197" lon="7.07942">
        <ele>58.890358</ele>
        <time>2020-08-03T09:06:36.101Z</time>
      </trkpt>
      <trkpt lat="62.962" lon="7.07968">
        <ele>58.655397</ele>
        <time>2020-08-03T09:06:38.093Z</time>
      </trkpt>
      <trkpt lat="62.96203" lon="7.07997">
        <ele>58.095269</ele>
        <time>2020-08-03T09:06:40.083Z</time>
      </trkpt>
      <trkpt lat="62.96206" lon="7.08026">
        <ele>57.529595</ele>
        <time>2020-08-03T09:06:42.087Z</time>
      </trkpt>
      <trkpt lat="62.96206" lon="7.08057">
        <ele>56.945241</ele>
        <time>2020-08-03T09:06:44.091Z</time>
      </trkpt>
      <trkpt lat="62.96204" lon="7.08088">
        <ele>56.360424</ele>
        <time>2020-08-03T09:06:46.116Z</time>
      </trkpt>
      <trkpt lat="62.96202" lon="7.08119">
        <ele>55.77211</ele>
        <time>2020-08-03T09:06:48.116Z</time>
      </trkpt>
      <trkpt lat="62.96198" lon="7.08152">
        <ele>55.142735</ele>
        <time>2020-08-03T09:06:50.136Z</time>
      </trkpt>
      <trkpt lat="62.96193" lon="7.08186">
        <ele>54.478616</ele>
        <time>2020-08-03T09:06:52.101Z</time>
      </trkpt>
      <trkpt lat="62.96189" lon="7.0822">
        <ele>53.81146</ele>
        <time>2020-08-03T09:06:54.128Z</time>
      </trkpt>
      <trkpt lat="62.96186" lon="7.08256">
        <ele>53.117751</ele>
        <time>2020-08-03T09:06:56.093Z</time>
      </trkpt>
      <trkpt lat="62.96185" lon="7.08292">
        <ele>52.438871</ele>
        <time>2020-08-03T09:06:58.099Z</time>
      </trkpt>
      <trkpt lat="62.96186" lon="7.08326">
        <ele>51.792451</ele>
        <time>2020-08-03T09:07:00.095Z</time>
      </trkpt>
      <trkpt lat="62.96189" lon="7.08357">
        <ele>51.255775</ele>
        <time>2020-08-03T09:07:02.091Z</time>
      </trkpt>
      <trkpt lat="62.96192" lon="7.08383">
        <ele>51.17659</ele>
        <time>2020-08-03T09:07:04.095Z</time>
      </trkpt>
      <trkpt lat="62.96193" lon="7.0841">
        <ele>51.100081</ele>
        <time>2020-08-03T09:07:06.077Z</time>
      </trkpt>
      <trkpt lat="62.96187" lon="7.08432">
        <ele>51.02727</ele>
        <time>2020-08-03T09:07:08.110Z</time>
      </trkpt>
      <trkpt lat="62.96179" lon="7.08445">
        <ele>50.962177</ele>
        <time>2020-08-03T09:07:10.118Z</time>
      </trkpt>
      <trkpt lat="62.9617" lon="7.08451">
        <ele>50.900681</ele>
        <time>2020-08-03T09:07:12.106Z</time>
      </trkpt>
      <trkpt lat="62.9616" lon="7.08459">
        <ele>50.837798</ele>
        <time>2020-08-03T09:07:14.096Z</time>
      </trkpt>
      <trkpt lat="62.96152" lon="7.08467">
        <ele>50.778546</ele>
        <time>2020-08-03T09:07:16.089Z</time>
      </trkpt>
      <trkpt lat="62.9614" lon="7.0848">
        <ele>50.693021</ele>
        <time>2020-08-03T09:07:19.139Z</time>
      </trkpt>
      <trkpt lat="62.96128" lon="7.08492">
        <ele>50.611677</ele>
        <time>2020-08-03T09:07:22.088Z</time>
      </trkpt>
      <trkpt lat="62.96116" lon="7.08504">
        <ele>50.527333</ele>
        <time>2020-08-03T09:07:25.094Z</time>
      </trkpt>
      <trkpt lat="62.96108" lon="7.08513">
        <ele>50.470444</ele>
        <time>2020-08-03T09:07:27.081Z</time>
      </trkpt>
      <trkpt lat="62.96097" lon="7.08526">
        <ele>50.390182</ele>
        <time>2020-08-03T09:07:30.129Z</time>
      </trkpt>
      <trkpt lat="62.96086" lon="7.08537">
        <ele>50.315808</ele>
        <time>2020-08-03T09:07:33.110Z</time>
      </trkpt>
      <trkpt lat="62.96075" lon="7.08547">
        <ele>50.240406</ele>
        <time>2020-08-03T09:07:36.085Z</time>
      </trkpt>
      <trkpt lat="62.96065" lon="7.08558">
        <ele>50.166871</ele>
        <time>2020-08-03T09:07:39.137Z</time>
      </trkpt>
      <trkpt lat="62.96055" lon="7.08568">
        <ele>50.313208</ele>
        <time>2020-08-03T09:07:42.089Z</time>
      </trkpt>
      <trkpt lat="62.96047" lon="7.08577">
        <ele>50.857041</ele>
        <time>2020-08-03T09:07:45.081Z</time>
      </trkpt>
      <trkpt lat="62.96038" lon="7.08586">
        <ele>51.377441</ele>
        <time>2020-08-03T09:07:48.105Z</time>
      </trkpt>
      <trkpt lat="62.96028" lon="7.08596">
        <ele>52.015616</ele>
        <time>2020-08-03T09:07:52.128Z</time>
      </trkpt>
      <trkpt lat="62.9602" lon="7.08606">
        <ele>52.56926</ele>
        <time>2020-08-03T09:07:56.091Z</time>
      </trkpt>
      <trkpt lat="62.96011" lon="7.08616">
        <ele>53.117653</ele>
        <time>2020-08-03T09:08:00.080Z</time>
      </trkpt>
      <trkpt lat="62.96002" lon="7.08627">
        <ele>53.730671</ele>
        <time>2020-08-03T09:08:05.116Z</time>
      </trkpt>
      <trkpt lat="62.95993" lon="7.08637">
        <ele>54.305561</ele>
        <time>2020-08-03T09:08:10.084Z</time>
      </trkpt>
      <trkpt lat="62.95984" lon="7.08649">
        <ele>54.924533</ele>
        <time>2020-08-03T09:08:15.077Z</time>
      </trkpt>
      <trkpt lat="62.95974" lon="7.08659">
        <ele>55.520437</ele>
        <time>2020-08-03T09:08:20.109Z</time>
      </trkpt>
      <trkpt lat="62.95965" lon="7.08668">
        <ele>56.093076</ele>
        <time>2020-08-03T09:08:25.112Z</time>
      </trkpt>
      <trkpt lat="62.95955" lon="7.08677">
        <ele>56.722337</ele>
        <time>2020-08-03T09:08:30.128Z</time>
      </trkpt>
      <trkpt lat="62.95946" lon="7.08685">
        <ele>57.28568</ele>
        <time>2020-08-03T09:08:35.089Z</time>
      </trkpt>
      <trkpt lat="62.95937" lon="7.08694">
        <ele>57.861601</ele>
        <time>2020-08-03T09:08:40.140Z</time>
      </trkpt>
      <trkpt lat="62.95927" lon="7.08704">
        <ele>58.469487</ele>
        <time>2020-08-03T09:08:45.083Z</time>
      </trkpt>
      <trkpt lat="62.95918" lon="7.08714">
        <ele>59.0471</ele>
        <time>2020-08-03T09:08:50.171Z</time>
      </trkpt>
      <trkpt lat="62.95908" lon="7.08723">
        <ele>59.645241</ele>
        <time>2020-08-03T09:08:55.129Z</time>
      </trkpt>
      <trkpt lat="62.959" lon="7.08732">
        <ele>60.169055</ele>
        <time>2020-08-03T09:08:59.089Z</time>
      </trkpt>
      <trkpt lat="62.95892" lon="7.0874">
        <ele>60.341435</ele>
        <time>2020-08-03T09:09:03.116Z</time>
      </trkpt>
      <trkpt lat="62.95883" lon="7.0875">
        <ele>60.163144</ele>
        <time>2020-08-03T09:09:07.107Z</time>
      </trkpt>
      <trkpt lat="62.95874" lon="7.0876">
        <ele>59.980597</ele>
        <time>2020-08-03T09:09:11.114Z</time>
      </trkpt>
      <trkpt lat="62.95864" lon="7.08772">
        <ele>59.785345</ele>
        <time>2020-08-03T09:09:15.098Z</time>
      </trkpt>
      <trkpt lat="62.95854" lon="7.08782">
        <ele>59.583183</ele>
        <time>2020-08-03T09:09:19.096Z</time>
      </trkpt>
      <trkpt lat="62.95845" lon="7.0879">
        <ele>59.418723</ele>
        <time>2020-08-03T09:09:22.085Z</time>
      </trkpt>
      <trkpt lat="62.95836" lon="7.088">
        <ele>59.234385</ele>
        <time>2020-08-03T09:09:25.089Z</time>
      </trkpt>
      <trkpt lat="62.95825" lon="7.08811">
        <ele>59.022142</ele>
        <time>2020-08-03T09:09:28.102Z</time>
      </trkpt>
      <trkpt lat="62.95817" lon="7.08819">
        <ele>58.862107</ele>
        <time>2020-08-03T09:09:30.079Z</time>
      </trkpt>
      <trkpt lat="62.95808" lon="7.08829">
        <ele>58.690021</ele>
        <time>2020-08-03T09:09:32.083Z</time>
      </trkpt>
      <trkpt lat="62.95799" lon="7.08839">
        <ele>58.511476</ele>
        <time>2020-08-03T09:09:34.092Z</time>
      </trkpt>
      <trkpt lat="62.9579" lon="7.0885">
        <ele>58.317787</ele>
        <time>2020-08-03T09:09:36.099Z</time>
      </trkpt>
      <trkpt lat="62.95779" lon="7.08861">
        <ele>58.114508</ele>
        <time>2020-08-03T09:09:38.079Z</time>
      </trkpt>
      <trkpt lat="62.95768" lon="7.08873">
        <ele>57.89333</ele>
        <time>2020-08-03T09:09:40.097Z</time>
      </trkpt>
      <trkpt lat="62.95756" lon="7.08885">
        <ele>57.665402</ele>
        <time>2020-08-03T09:09:42.149Z</time>
      </trkpt>
      <trkpt lat="62.95744" lon="7.08898">
        <ele>57.425854</ele>
        <time>2020-08-03T09:09:44.096Z</time>
      </trkpt>
      <trkpt lat="62.95731" lon="7.08909">
        <ele>57.124747</ele>
        <time>2020-08-03T09:09:46.115Z</time>
      </trkpt>
      <trkpt lat="62.95717" lon="7.0892">
        <ele>56.670225</ele>
        <time>2020-08-03T09:09:48.094Z</time>
      </trkpt>
      <trkpt lat="62.95703" lon="7.08929">
        <ele>56.219739</ele>
        <time>2020-08-03T09:09:50.123Z</time>
      </trkpt>
      <trkpt lat="62.9569" lon="7.08936">
        <ele>55.792232</ele>
        <time>2020-08-03T09:09:52.086Z</time>
      </trkpt>
      <trkpt lat="62.95677" lon="7.08942">
        <ele>55.378051</ele>
        <time>2020-08-03T09:09:54.077Z</time>
      </trkpt>
      <trkpt lat="62.95665" lon="7.08946">
        <ele>54.998491</ele>
        <time>2020-08-03T09:09:56.119Z</time>
      </trkpt>
      <trkpt lat="62.95655" lon="7.08951">
        <ele>54.655498</ele>
        <time>2020-08-03T09:09:58.080Z</time>
      </trkpt>
      <trkpt lat="62.95645" lon="7.08955">
        <ele>54.335472</ele>
        <time>2020-08-03T09:10:00.086Z</time>
      </trkpt>
      <trkpt lat="62.95636" lon="7.08958">
        <ele>54.048887</ele>
        <time>2020-08-03T09:10:02.098Z</time>
      </trkpt>
      <trkpt lat="62.95623" lon="7.08964">
        <ele>53.635279</ele>
        <time>2020-08-03T09:10:05.118Z</time>
      </trkpt>
      <trkpt lat="62.9561" lon="7.08969">
        <ele>53.216315</ele>
        <time>2020-08-03T09:10:08.086Z</time>
      </trkpt>
      <trkpt lat="62.95597" lon="7.08974">
        <ele>52.807655</ele>
        <time>2020-08-03T09:10:11.110Z</time>
      </trkpt>
      <trkpt lat="62.95586" lon="7.08981">
        <ele>52.441901</ele>
        <time>2020-08-03T09:10:14.135Z</time>
      </trkpt>
      <trkpt lat="62.95575" lon="7.08987">
        <ele>52.102807</ele>
        <time>2020-08-03T09:10:17.092Z</time>
      </trkpt>
      <trkpt lat="62.95565" lon="7.08994">
        <ele>51.772924</ele>
        <time>2020-08-03T09:10:20.104Z</time>
      </trkpt>
      <trkpt lat="62.95555" lon="7.09001">
        <ele>51.658856</ele>
        <time>2020-08-03T09:10:23.096Z</time>
      </trkpt>
      <trkpt lat="62.95545" lon="7.0901">
        <ele>51.856045</ele>
        <time>2020-08-03T09:10:26.097Z</time>
      </trkpt>
      <trkpt lat="62.95535" lon="7.09021">
        <ele>52.054693</ele>
        <time>2020-08-03T09:10:29.108Z</time>
      </trkpt>
      <trkpt lat="62.95526" lon="7.09032">
        <ele>52.249064</ele>
        <time>2020-08-03T09:10:32.097Z</time>
      </trkpt>
      <trkpt lat="62.95517" lon="7.09044">
        <ele>52.436674</ele>
        <time>2020-08-03T09:10:35.097Z</time>
      </trkpt>
      <trkpt lat="62.95509" lon="7.09056">
        <ele>52.625938</ele>
        <time>2020-08-03T09:10:38.096Z</time>
      </trkpt>
      <trkpt lat="62.95501" lon="7.09069">
        <ele>52.809019</ele>
        <time>2020-08-03T09:10:41.088Z</time>
      </trkpt>
      <trkpt lat="62.95493" lon="7.09083">
        <ele>52.984904</ele>
        <time>2020-08-03T09:10:44.088Z</time>
      </trkpt>
      <trkpt lat="62.95485" lon="7.09098">
        <ele>53.174909</ele>
        <time>2020-08-03T09:10:47.146Z</time>
      </trkpt>
      <trkpt lat="62.95478" lon="7.09115">
        <ele>53.3734</ele>
        <time>2020-08-03T09:10:50.120Z</time>
      </trkpt>
      <trkpt lat="62.95471" lon="7.09134">
        <ele>53.573953</ele>
        <time>2020-08-03T09:10:53.080Z</time>
      </trkpt>
      <trkpt lat="62.95465" lon="7.09152">
        <ele>53.760542</ele>
        <time>2020-08-03T09:10:56.086Z</time>
      </trkpt>
      <trkpt lat="62.95458" lon="7.09169">
        <ele>53.944242</ele>
        <time>2020-08-03T09:10:59.087Z</time>
      </trkpt>
      <trkpt lat="62.95453" lon="7.09188">
        <ele>54.130806</ele>
        <time>2020-08-03T09:11:02.105Z</time>
      </trkpt>
      <trkpt lat="62.95447" lon="7.09206">
        <ele>54.318382</ele>
        <time>2020-08-03T09:11:05.091Z</time>
      </trkpt>
      <trkpt lat="62.95441" lon="7.09224">
        <ele>54.500837</ele>
        <time>2020-08-03T09:11:08.115Z</time>
      </trkpt>
      <trkpt lat="62.95436" lon="7.09242">
        <ele>54.676186</ele>
        <time>2020-08-03T09:11:11.102Z</time>
      </trkpt>
      <trkpt lat="62.95431" lon="7.09261">
        <ele>54.857508</ele>
        <time>2020-08-03T09:11:14.104Z</time>
      </trkpt>
      <trkpt lat="62.95426" lon="7.0928">
        <ele>55.112902</ele>
        <time>2020-08-03T09:11:17.096Z</time>
      </trkpt>
      <trkpt lat="62.9542" lon="7.09298">
        <ele>55.363927</ele>
        <time>2020-08-03T09:11:20.096Z</time>
      </trkpt>
      <trkpt lat="62.95415" lon="7.09315">
        <ele>55.592904</ele>
        <time>2020-08-03T09:11:23.095Z</time>
      </trkpt>
      <trkpt lat="62.9541" lon="7.09332">
        <ele>55.84479</ele>
        <time>2020-08-03T09:11:27.096Z</time>
      </trkpt>
      <trkpt lat="62.95404" lon="7.09351">
        <ele>56.100372</ele>
        <time>2020-08-03T09:11:32.097Z</time>
      </trkpt>
      <trkpt lat="62.954" lon="7.0937">
        <ele>56.349606</ele>
        <time>2020-08-03T09:11:38.109Z</time>
      </trkpt>
      <trkpt lat="62.95396" lon="7.09391">
        <ele>56.604486</ele>
        <time>2020-08-03T09:11:44.078Z</time>
      </trkpt>
      <trkpt lat="62.95395" lon="7.09411">
        <ele>56.839035</ele>
        <time>2020-08-03T09:11:49.108Z</time>
      </trkpt>
      <trkpt lat="62.95396" lon="7.09431">
        <ele>57.072269</ele>
        <time>2020-08-03T09:11:54.096Z</time>
      </trkpt>
      <trkpt lat="62.95397" lon="7.09452">
        <ele>57.318976</ele>
        <time>2020-08-03T09:11:59.096Z</time>
      </trkpt>
      <trkpt lat="62.95397" lon="7.09474">
        <ele>57.568897</ele>
        <time>2020-08-03T09:12:04.094Z</time>
      </trkpt>
      <trkpt lat="62.95398" lon="7.09497">
        <ele>57.836594</ele>
        <time>2020-08-03T09:12:09.117Z</time>
      </trkpt>
      <trkpt lat="62.95402" lon="7.09518">
        <ele>58.103063</ele>
        <time>2020-08-03T09:12:14.098Z</time>
      </trkpt>
      <trkpt lat="62.95412" lon="7.09526">
        <ele>58.368746</ele>
        <time>2020-08-03T09:12:18.086Z</time>
      </trkpt>
      <trkpt lat="62.95423" lon="7.09536">
        <ele>58.665403</ele>
        <time>2020-08-03T09:12:22.106Z</time>
      </trkpt>
      <trkpt lat="62.95432" lon="7.09542">
        <ele>58.916829</ele>
        <time>2020-08-03T09:12:25.118Z</time>
      </trkpt>
      <trkpt lat="62.95443" lon="7.0955">
        <ele>59.191987</ele>
        <time>2020-08-03T09:12:28.097Z</time>
      </trkpt>
      <trkpt lat="62.95454" lon="7.09564">
        <ele>59.409476</ele>
        <time>2020-08-03T09:12:31.131Z</time>
      </trkpt>
      <trkpt lat="62.95462" lon="7.09574">
        <ele>59.319629</ele>
        <time>2020-08-03T09:12:33.094Z</time>
      </trkpt>
      <trkpt lat="62.9547" lon="7.09582">
        <ele>59.229083</ele>
        <time>2020-08-03T09:12:35.101Z</time>
      </trkpt>
      <trkpt lat="62.95479" lon="7.09588">
        <ele>59.137991</ele>
        <time>2020-08-03T09:12:37.108Z</time>
      </trkpt>
      <trkpt lat="62.95489" lon="7.09595">
        <ele>59.03777</ele>
        <time>2020-08-03T09:12:39.087Z</time>
      </trkpt>
      <trkpt lat="62.95498" lon="7.09607">
        <ele>58.936473</ele>
        <time>2020-08-03T09:12:41.115Z</time>
      </trkpt>
      <trkpt lat="62.95508" lon="7.09621">
        <ele>58.824875</ele>
        <time>2020-08-03T09:12:43.094Z</time>
      </trkpt>
      <trkpt lat="62.95517" lon="7.0964">
        <ele>58.70109</ele>
        <time>2020-08-03T09:12:45.091Z</time>
      </trkpt>
      <trkpt lat="62.95527" lon="7.0966">
        <ele>58.574891</ele>
        <time>2020-08-03T09:12:47.106Z</time>
      </trkpt>
      <trkpt lat="62.95536" lon="7.09679">
        <ele>58.456139</ele>
        <time>2020-08-03T09:12:49.094Z</time>
      </trkpt>
      <trkpt lat="62.95544" lon="7.09697">
        <ele>58.338545</ele>
        <time>2020-08-03T09:12:51.092Z</time>
      </trkpt>
      <trkpt lat="62.95552" lon="7.09716">
        <ele>58.229534</ele>
        <time>2020-08-03T09:12:53.088Z</time>
      </trkpt>
      <trkpt lat="62.95558" lon="7.09733">
        <ele>58.131108</ele>
        <time>2020-08-03T09:12:55.100Z</time>
      </trkpt>
      <trkpt lat="62.95564" lon="7.09751">
        <ele>58.038268</ele>
        <time>2020-08-03T09:12:57.090Z</time>
      </trkpt>
      <trkpt lat="62.95568" lon="7.09768">
        <ele>57.950707</ele>
        <time>2020-08-03T09:12:59.098Z</time>
      </trkpt>
      <trkpt lat="62.95572" lon="7.09786">
        <ele>57.863832</ele>
        <time>2020-08-03T09:13:01.084Z</time>
      </trkpt>
      <trkpt lat="62.95576" lon="7.09812">
        <ele>57.742306</ele>
        <time>2020-08-03T09:13:04.090Z</time>
      </trkpt>
      <trkpt lat="62.9558" lon="7.09837">
        <ele>57.691531</ele>
        <time>2020-08-03T09:13:07.092Z</time>
      </trkpt>
      <trkpt lat="62.95582" lon="7.09862">
        <ele>57.681175</ele>
        <time>2020-08-03T09:13:10.088Z</time>
      </trkpt>
      <trkpt lat="62.95584" lon="7.09885">
        <ele>57.671042</ele>
        <time>2020-08-03T09:13:13.082Z</time>
      </trkpt>
      <trkpt lat="62.95589" lon="7.09907">
        <ele>57.660656</ele>
        <time>2020-08-03T09:13:16.074Z</time>
      </trkpt>
      <trkpt lat="62.95595" lon="7.09928">
        <ele>57.650428</ele>
        <time>2020-08-03T09:13:19.104Z</time>
      </trkpt>
      <trkpt lat="62.956" lon="7.09949">
        <ele>57.640435</ele>
        <time>2020-08-03T09:13:22.089Z</time>
      </trkpt>
      <trkpt lat="62.95605" lon="7.09972">
        <ele>57.629713</ele>
        <time>2020-08-03T09:13:25.122Z</time>
      </trkpt>
      <trkpt lat="62.9561" lon="7.09996">
        <ele>57.618878</ele>
        <time>2020-08-03T09:13:28.105Z</time>
      </trkpt>
      <trkpt lat="62.95615" lon="7.10019">
        <ele>57.607819</ele>
        <time>2020-08-03T09:13:31.084Z</time>
      </trkpt>
      <trkpt lat="62.95619" lon="7.10043">
        <ele>57.597248</ele>
        <time>2020-08-03T09:13:34.091Z</time>
      </trkpt>
      <trkpt lat="62.95624" lon="7.10065">
        <ele>57.586671</ele>
        <time>2020-08-03T09:13:37.086Z</time>
      </trkpt>
      <trkpt lat="62.95629" lon="7.10087">
        <ele>57.57645</ele>
        <time>2020-08-03T09:13:40.089Z</time>
      </trkpt>
      <trkpt lat="62.95633" lon="7.1011">
        <ele>57.566256</ele>
        <time>2020-08-03T09:13:43.092Z</time>
      </trkpt>
      <trkpt lat="62.95637" lon="7.10132">
        <ele>57.556179</ele>
        <time>2020-08-03T09:13:46.097Z</time>
      </trkpt>
      <trkpt lat="62.95642" lon="7.10155">
        <ele>57.54546</ele>
        <time>2020-08-03T09:13:49.107Z</time>
      </trkpt>
      <trkpt lat="62.95646" lon="7.10178">
        <ele>57.535205</ele>
        <time>2020-08-03T09:13:52.076Z</time>
      </trkpt>
      <trkpt lat="62.95651" lon="7.10199">
        <ele>57.661314</ele>
        <time>2020-08-03T09:13:55.144Z</time>
      </trkpt>
      <trkpt lat="62.95654" lon="7.10219">
        <ele>57.821132</ele>
        <time>2020-08-03T09:13:58.109Z</time>
      </trkpt>
      <trkpt lat="62.95654" lon="7.1024">
        <ele>57.978462</ele>
        <time>2020-08-03T09:14:01.074Z</time>
      </trkpt>
      <trkpt lat="62.95653" lon="7.10269">
        <ele>58.198717</ele>
        <time>2020-08-03T09:14:04.099Z</time>
      </trkpt>
      <trkpt lat="62.95654" lon="7.10296">
        <ele>58.406009</ele>
        <time>2020-08-03T09:14:07.077Z</time>
      </trkpt>
      <trkpt lat="62.95655" lon="7.10324">
        <ele>58.616807</ele>
        <time>2020-08-03T09:14:10.090Z</time>
      </trkpt>
      <trkpt lat="62.95657" lon="7.1035">
        <ele>58.817651</ele>
        <time>2020-08-03T09:14:13.098Z</time>
      </trkpt>
      <trkpt lat="62.95658" lon="7.10376">
        <ele>59.010346</ele>
        <time>2020-08-03T09:14:16.119Z</time>
      </trkpt>
      <trkpt lat="62.95659" lon="7.10399">
        <ele>59.189205</ele>
        <time>2020-08-03T09:14:19.090Z</time>
      </trkpt>
      <trkpt lat="62.9566" lon="7.10422">
        <ele>59.361719</ele>
        <time>2020-08-03T09:14:22.088Z</time>
      </trkpt>
      <trkpt lat="62.95662" lon="7.10445">
        <ele>59.53647</ele>
        <time>2020-08-03T09:14:25.093Z</time>
      </trkpt>
      <trkpt lat="62.95664" lon="7.10466">
        <ele>59.701385</ele>
        <time>2020-08-03T09:14:28.097Z</time>
      </trkpt>
      <trkpt lat="62.95667" lon="7.10488">
        <ele>59.87753</ele>
        <time>2020-08-03T09:14:31.129Z</time>
      </trkpt>
      <trkpt lat="62.95672" lon="7.10513">
        <ele>60.082843</ele>
        <time>2020-08-03T09:14:34.078Z</time>
      </trkpt>
      <trkpt lat="62.95678" lon="7.10538">
        <ele>60.297789</ele>
        <time>2020-08-03T09:14:37.084Z</time>
      </trkpt>
      <trkpt lat="62.95686" lon="7.10561">
        <ele>60.519077</ele>
        <time>2020-08-03T09:14:40.086Z</time>
      </trkpt>
      <trkpt lat="62.95692" lon="7.10577">
        <ele>60.512765</ele>
        <time>2020-08-03T09:14:42.125Z</time>
      </trkpt>
      <trkpt lat="62.957" lon="7.106">
        <ele>60.494985</ele>
        <time>2020-08-03T09:14:45.099Z</time>
      </trkpt>
      <trkpt lat="62.95708" lon="7.10623">
        <ele>60.477612</ele>
        <time>2020-08-03T09:14:48.099Z</time>
      </trkpt>
      <trkpt lat="62.95716" lon="7.10646">
        <ele>60.460301</ele>
        <time>2020-08-03T09:14:51.122Z</time>
      </trkpt>
      <trkpt lat="62.95722" lon="7.1067">
        <ele>60.443427</ele>
        <time>2020-08-03T09:14:54.092Z</time>
      </trkpt>
      <trkpt lat="62.95728" lon="7.10692">
        <ele>60.4278</ele>
        <time>2020-08-03T09:14:57.092Z</time>
      </trkpt>
      <trkpt lat="62.95733" lon="7.10713">
        <ele>60.413589</ele>
        <time>2020-08-03T09:15:00.088Z</time>
      </trkpt>
      <trkpt lat="62.95736" lon="7.10733">
        <ele>60.400541</ele>
        <time>2020-08-03T09:15:03.113Z</time>
      </trkpt>
      <trkpt lat="62.9574" lon="7.10752">
        <ele>60.387992</ele>
        <time>2020-08-03T09:15:06.094Z</time>
      </trkpt>
      <trkpt lat="62.95743" lon="7.10772">
        <ele>60.374915</ele>
        <time>2020-08-03T09:15:09.084Z</time>
      </trkpt>
      <trkpt lat="62.95747" lon="7.10793">
        <ele>60.361723</ele>
        <time>2020-08-03T09:15:12.083Z</time>
      </trkpt>
      <trkpt lat="62.9575" lon="7.10815">
        <ele>60.347178</ele>
        <time>2020-08-03T09:15:15.095Z</time>
      </trkpt>
      <trkpt lat="62.95753" lon="7.10839">
        <ele>60.33203</ele>
        <time>2020-08-03T09:15:18.119Z</time>
      </trkpt>
      <trkpt lat="62.95756" lon="7.10864">
        <ele>60.316608</ele>
        <time>2020-08-03T09:15:21.085Z</time>
      </trkpt>
      <trkpt lat="62.95759" lon="7.10892">
        <ele>60.299084</ele>
        <time>2020-08-03T09:15:24.097Z</time>
      </trkpt>
      <trkpt lat="62.95761" lon="7.1092">
        <ele>60.296214</ele>
        <time>2020-08-03T09:15:27.102Z</time>
      </trkpt>
      <trkpt lat="62.95763" lon="7.10946">
        <ele>60.372455</ele>
        <time>2020-08-03T09:15:30.116Z</time>
      </trkpt>
      <trkpt lat="62.95767" lon="7.10972">
        <ele>60.452472</ele>
        <time>2020-08-03T09:15:33.094Z</time>
      </trkpt>
      <trkpt lat="62.95772" lon="7.10989">
        <ele>60.511551</ele>
        <time>2020-08-03T09:15:35.110Z</time>
      </trkpt>
      <trkpt lat="62.95778" lon="7.11008">
        <ele>60.579308</ele>
        <time>2020-08-03T09:15:37.102Z</time>
      </trkpt>
      <trkpt lat="62.95784" lon="7.11034">
        <ele>60.6616</ele>
        <time>2020-08-03T09:15:39.087Z</time>
      </trkpt>
      <trkpt lat="62.9579" lon="7.11062">
        <ele>60.7542</ele>
        <time>2020-08-03T09:15:41.088Z</time>
      </trkpt>
      <trkpt lat="62.95797" lon="7.11094">
        <ele>60.854895</ele>
        <time>2020-08-03T09:15:43.082Z</time>
      </trkpt>
      <trkpt lat="62.95803" lon="7.11124">
        <ele>60.949083</ele>
        <time>2020-08-03T09:15:45.099Z</time>
      </trkpt>
      <trkpt lat="62.95808" lon="7.11151">
        <ele>61.034481</ele>
        <time>2020-08-03T09:15:47.081Z</time>
      </trkpt>
      <trkpt lat="62.95813" lon="7.11175">
        <ele>61.110387</ele>
        <time>2020-08-03T09:15:49.095Z</time>
      </trkpt>
      <trkpt lat="62.95816" lon="7.11195">
        <ele>61.171441</ele>
        <time>2020-08-03T09:15:51.083Z</time>
      </trkpt>
      <trkpt lat="62.95824" lon="7.11214">
        <ele>61.24462</ele>
        <time>2020-08-03T09:15:54.085Z</time>
      </trkpt>
      <trkpt lat="62.95832" lon="7.11224">
        <ele>61.3074</ele>
        <time>2020-08-03T09:15:57.078Z</time>
      </trkpt>
      <trkpt lat="62.9584" lon="7.11236">
        <ele>61.368259</ele>
        <time>2020-08-03T09:16:00.086Z</time>
      </trkpt>
      <trkpt lat="62.95849" lon="7.11249">
        <ele>61.470411</ele>
        <time>2020-08-03T09:16:03.087Z</time>
      </trkpt>
      <trkpt lat="62.9586" lon="7.11262">
        <ele>61.900343</ele>
        <time>2020-08-03T09:16:06.130Z</time>
      </trkpt>
      <trkpt lat="62.9587" lon="7.11275">
        <ele>62.340061</ele>
        <time>2020-08-03T09:16:09.080Z</time>
      </trkpt>
      <trkpt lat="62.95879" lon="7.11288">
        <ele>62.741535</ele>
        <time>2020-08-03T09:16:12.123Z</time>
      </trkpt>
      <trkpt lat="62.95888" lon="7.113">
        <ele>63.107186</ele>
        <time>2020-08-03T09:16:15.113Z</time>
      </trkpt>
      <trkpt lat="62.95896" lon="7.11311">
        <ele>63.455659</ele>
        <time>2020-08-03T09:16:18.108Z</time>
      </trkpt>
      <trkpt lat="62.95903" lon="7.11324">
        <ele>63.781379</ele>
        <time>2020-08-03T09:16:21.095Z</time>
      </trkpt>
      <trkpt lat="62.95913" lon="7.11339">
        <ele>64.209588</ele>
        <time>2020-08-03T09:16:25.092Z</time>
      </trkpt>
      <trkpt lat="62.9592" lon="7.11351">
        <ele>64.537218</ele>
        <time>2020-08-03T09:16:28.088Z</time>
      </trkpt>
      <trkpt lat="62.95929" lon="7.11366">
        <ele>64.952686</ele>
        <time>2020-08-03T09:16:32.087Z</time>
      </trkpt>
      <trkpt lat="62.95936" lon="7.11382">
        <ele>65.32562</ele>
        <time>2020-08-03T09:16:36.100Z</time>
      </trkpt>
      <trkpt lat="62.95944" lon="7.11398">
        <ele>65.718154</ele>
        <time>2020-08-03T09:16:40.100Z</time>
      </trkpt>
      <trkpt lat="62.95952" lon="7.11414">
        <ele>66.099443</ele>
        <time>2020-08-03T09:16:44.103Z</time>
      </trkpt>
      <trkpt lat="62.95959" lon="7.11427">
        <ele>66.425237</ele>
        <time>2020-08-03T09:16:47.091Z</time>
      </trkpt>
      <trkpt lat="62.95966" lon="7.11443">
        <ele>66.802778</ele>
        <time>2020-08-03T09:16:50.092Z</time>
      </trkpt>
      <trkpt lat="62.95973" lon="7.11461">
        <ele>67.185923</ele>
        <time>2020-08-03T09:16:53.100Z</time>
      </trkpt>
      <trkpt lat="62.9598" lon="7.11478">
        <ele>67.575135</ele>
        <time>2020-08-03T09:16:56.081Z</time>
      </trkpt>
      <trkpt lat="62.95987" lon="7.11495">
        <ele>67.942384</ele>
        <time>2020-08-03T09:16:59.087Z</time>
      </trkpt>
      <trkpt lat="62.95994" lon="7.11511">
        <ele>68.182425</ele>
        <time>2020-08-03T09:17:02.103Z</time>
      </trkpt>
      <trkpt lat="62.96001" lon="7.11527">
        <ele>68.424986</ele>
        <time>2020-08-03T09:17:05.108Z</time>
      </trkpt>
      <trkpt lat="62.96008" lon="7.11543">
        <ele>68.668395</ele>
        <time>2020-08-03T09:17:08.099Z</time>
      </trkpt>
      <trkpt lat="62.96015" lon="7.11559">
        <ele>68.911803</ele>
        <time>2020-08-03T09:17:11.093Z</time>
      </trkpt>
      <trkpt lat="62.96022" lon="7.11575">
        <ele>69.151293</ele>
        <time>2020-08-03T09:17:14.096Z</time>
      </trkpt>
      <trkpt lat="62.96028" lon="7.11591">
        <ele>69.386666</ele>
        <time>2020-08-03T09:17:17.097Z</time>
      </trkpt>
      <trkpt lat="62.96035" lon="7.11605">
        <ele>69.610128</ele>
        <time>2020-08-03T09:17:20.088Z</time>
      </trkpt>
      <trkpt lat="62.96043" lon="7.11624">
        <ele>69.884167</ele>
        <time>2020-08-03T09:17:24.130Z</time>
      </trkpt>
      <trkpt lat="62.9605" lon="7.11642">
        <ele>70.149276</ele>
        <time>2020-08-03T09:17:28.112Z</time>
      </trkpt>
      <trkpt lat="62.96058" lon="7.11659">
        <ele>70.408319</ele>
        <time>2020-08-03T09:17:32.099Z</time>
      </trkpt>
      <trkpt lat="62.96067" lon="7.11672">
        <ele>70.665959</ele>
        <time>2020-08-03T09:17:36.092Z</time>
      </trkpt>
      <trkpt lat="62.96075" lon="7.11683">
        <ele>70.90474</ele>
        <time>2020-08-03T09:17:41.094Z</time>
      </trkpt>
      <trkpt lat="62.96084" lon="7.11697">
        <ele>71.161691</ele>
        <time>2020-08-03T09:17:46.108Z</time>
      </trkpt>
      <trkpt lat="62.96095" lon="7.11703">
        <ele>71.431953</ele>
        <time>2020-08-03T09:17:50.089Z</time>
      </trkpt>
      <trkpt lat="62.96103" lon="7.11716">
        <ele>71.677996</ele>
        <time>2020-08-03T09:17:54.081Z</time>
      </trkpt>
      <trkpt lat="62.9611" lon="7.11733">
        <ele>71.927072</ele>
        <time>2020-08-03T09:17:58.093Z</time>
      </trkpt>
      <trkpt lat="62.96118" lon="7.1175">
        <ele>72.183308</ele>
        <time>2020-08-03T09:18:02.114Z</time>
      </trkpt>
      <trkpt lat="62.96125" lon="7.11766">
        <ele>72.461235</ele>
        <time>2020-08-03T09:18:06.121Z</time>
      </trkpt>
      <trkpt lat="62.96132" lon="7.11782">
        <ele>72.751367</ele>
        <time>2020-08-03T09:18:10.117Z</time>
      </trkpt>
      <trkpt lat="62.9614" lon="7.11799">
        <ele>73.046536</ele>
        <time>2020-08-03T09:18:14.083Z</time>
      </trkpt>
      <trkpt lat="62.96147" lon="7.11817">
        <ele>73.366745</ele>
        <time>2020-08-03T09:18:18.085Z</time>
      </trkpt>
      <trkpt lat="62.96154" lon="7.11831">
        <ele>73.625655</ele>
        <time>2020-08-03T09:18:21.087Z</time>
      </trkpt>
      <trkpt lat="62.96162" lon="7.1185">
        <ele>73.956242</ele>
        <time>2020-08-03T09:18:25.108Z</time>
      </trkpt>
      <trkpt lat="62.96168" lon="7.11867">
        <ele>74.220986</ele>
        <time>2020-08-03T09:18:28.126Z</time>
      </trkpt>
      <trkpt lat="62.96174" lon="7.11884">
        <ele>74.500205</ele>
        <time>2020-08-03T09:18:31.092Z</time>
      </trkpt>
      <trkpt lat="62.96181" lon="7.11901">
        <ele>74.805375</ele>
        <time>2020-08-03T09:18:34.084Z</time>
      </trkpt>
      <trkpt lat="62.96189" lon="7.11921">
        <ele>75.142572</ele>
        <time>2020-08-03T09:18:37.080Z</time>
      </trkpt>
      <trkpt lat="62.96198" lon="7.1194">
        <ele>75.490839</ele>
        <time>2020-08-03T09:18:40.107Z</time>
      </trkpt>
      <trkpt lat="62.96207" lon="7.11959">
        <ele>75.841596</ele>
        <time>2020-08-03T09:18:43.123Z</time>
      </trkpt>
      <trkpt lat="62.96216" lon="7.11978">
        <ele>76.185679</ele>
        <time>2020-08-03T09:18:46.083Z</time>
      </trkpt>
      <trkpt lat="62.96225" lon="7.11996">
        <ele>76.520466</ele>
        <time>2020-08-03T09:18:49.087Z</time>
      </trkpt>
      <trkpt lat="62.96234" lon="7.12011">
        <ele>76.846013</ele>
        <time>2020-08-03T09:18:52.112Z</time>
      </trkpt>
      <trkpt lat="62.96244" lon="7.12027">
        <ele>77.185704</ele>
        <time>2020-08-03T09:18:55.099Z</time>
      </trkpt>
      <trkpt lat="62.96251" lon="7.12048">
        <ele>77.27132</ele>
        <time>2020-08-03T09:18:58.096Z</time>
      </trkpt>
      <trkpt lat="62.96255" lon="7.12072">
        <ele>77.205439</ele>
        <time>2020-08-03T09:19:01.127Z</time>
      </trkpt>
      <trkpt lat="62.96261" lon="7.12093">
        <ele>77.141559</ele>
        <time>2020-08-03T09:19:04.088Z</time>
      </trkpt>
      <trkpt lat="62.96268" lon="7.12113">
        <ele>77.074898</ele>
        <time>2020-08-03T09:19:07.081Z</time>
      </trkpt>
      <trkpt lat="62.96275" lon="7.12134">
        <ele>77.007944</ele>
        <time>2020-08-03T09:19:10.107Z</time>
      </trkpt>
      <trkpt lat="62.96282" lon="7.12155">
        <ele>76.94052</ele>
        <time>2020-08-03T09:19:13.083Z</time>
      </trkpt>
      <trkpt lat="62.96289" lon="7.12176">
        <ele>76.875479</ele>
        <time>2020-08-03T09:19:16.090Z</time>
      </trkpt>
      <trkpt lat="62.96296" lon="7.12196">
        <ele>76.809146</ele>
        <time>2020-08-03T09:19:19.103Z</time>
      </trkpt>
      <trkpt lat="62.96303" lon="7.12217">
        <ele>76.743019</ele>
        <time>2020-08-03T09:19:22.095Z</time>
      </trkpt>
      <trkpt lat="62.9631" lon="7.12238">
        <ele>76.677893</ele>
        <time>2020-08-03T09:19:25.099Z</time>
      </trkpt>
      <trkpt lat="62.96317" lon="7.12258">
        <ele>76.612885</ele>
        <time>2020-08-03T09:19:28.122Z</time>
      </trkpt>
      <trkpt lat="62.96323" lon="7.12279">
        <ele>76.548717</ele>
        <time>2020-08-03T09:19:31.092Z</time>
      </trkpt>
      <trkpt lat="62.9633" lon="7.12298">
        <ele>76.484979</ele>
        <time>2020-08-03T09:19:34.112Z</time>
      </trkpt>
      <trkpt lat="62.96337" lon="7.12318">
        <ele>76.419669</ele>
        <time>2020-08-03T09:19:37.112Z</time>
      </trkpt>
      <trkpt lat="62.96345" lon="7.12337">
        <ele>76.352499</ele>
        <time>2020-08-03T09:19:40.097Z</time>
      </trkpt>
      <trkpt lat="62.96353" lon="7.12357">
        <ele>76.25598</ele>
        <time>2020-08-03T09:19:43.093Z</time>
      </trkpt>
      <trkpt lat="62.96361" lon="7.12378">
        <ele>76.02136</ele>
        <time>2020-08-03T09:19:46.116Z</time>
      </trkpt>
      <trkpt lat="62.96368" lon="7.12397">
        <ele>75.79868</ele>
        <time>2020-08-03T09:19:49.106Z</time>
      </trkpt>
      <trkpt lat="62.96376" lon="7.12414">
        <ele>75.587763</ele>
        <time>2020-08-03T09:19:52.108Z</time>
      </trkpt>
      <trkpt lat="62.96383" lon="7.12433">
        <ele>75.365751</ele>
        <time>2020-08-03T09:19:55.087Z</time>
      </trkpt>
      <trkpt lat="62.9639" lon="7.12453">
        <ele>75.143254</ele>
        <time>2020-08-03T09:19:58.112Z</time>
      </trkpt>
      <trkpt lat="62.96397" lon="7.12472">
        <ele>74.929387</ele>
        <time>2020-08-03T09:20:01.097Z</time>
      </trkpt>
      <trkpt lat="62.96404" lon="7.12491">
        <ele>74.708962</ele>
        <time>2020-08-03T09:20:04.105Z</time>
      </trkpt>
      <trkpt lat="62.96411" lon="7.1251">
        <ele>74.500551</ele>
        <time>2020-08-03T09:20:07.106Z</time>
      </trkpt>
      <trkpt lat="62.96418" lon="7.12529">
        <ele>74.290049</ele>
        <time>2020-08-03T09:20:10.086Z</time>
      </trkpt>
      <trkpt lat="62.96425" lon="7.12549">
        <ele>74.065138</ele>
        <time>2020-08-03T09:20:13.077Z</time>
      </trkpt>
      <trkpt lat="62.96431" lon="7.1257">
        <ele>73.84638</ele>
        <time>2020-08-03T09:20:16.091Z</time>
      </trkpt>
      <trkpt lat="62.96437" lon="7.1259">
        <ele>73.637126</ele>
        <time>2020-08-03T09:20:19.117Z</time>
      </trkpt>
      <trkpt lat="62.96444" lon="7.12612">
        <ele>73.397308</ele>
        <time>2020-08-03T09:20:22.147Z</time>
      </trkpt>
      <trkpt lat="62.96449" lon="7.12638">
        <ele>73.148253</ele>
        <time>2020-08-03T09:20:25.131Z</time>
      </trkpt>
      <trkpt lat="62.96453" lon="7.12656">
        <ele>72.970653</ele>
        <time>2020-08-03T09:20:27.088Z</time>
      </trkpt>
      <trkpt lat="62.96456" lon="7.12677">
        <ele>72.797311</ele>
        <time>2020-08-03T09:20:29.074Z</time>
      </trkpt>
      <trkpt lat="62.9646" lon="7.12699">
        <ele>72.735372</ele>
        <time>2020-08-03T09:20:31.099Z</time>
      </trkpt>
      <trkpt lat="62.96464" lon="7.1272">
        <ele>72.673677</ele>
        <time>2020-08-03T09:20:33.124Z</time>
      </trkpt>
      <trkpt lat="62.96468" lon="7.12742">
        <ele>72.61325</ele>
        <time>2020-08-03T09:20:35.082Z</time>
      </trkpt>
      <trkpt lat="62.96471" lon="7.12763">
        <ele>72.554128</ele>
        <time>2020-08-03T09:20:37.105Z</time>
      </trkpt>
      <trkpt lat="62.96475" lon="7.12785">
        <ele>72.494443</ele>
        <time>2020-08-03T09:20:39.132Z</time>
      </trkpt>
      <trkpt lat="62.96478" lon="7.12806">
        <ele>72.4355</ele>
        <time>2020-08-03T09:20:41.083Z</time>
      </trkpt>
      <trkpt lat="62.96481" lon="7.12828">
        <ele>72.374677</ele>
        <time>2020-08-03T09:20:43.091Z</time>
      </trkpt>
      <trkpt lat="62.96485" lon="7.12849">
        <ele>72.315848</ele>
        <time>2020-08-03T09:20:45.103Z</time>
      </trkpt>
      <trkpt lat="62.96489" lon="7.12869">
        <ele>72.258476</ele>
        <time>2020-08-03T09:20:47.091Z</time>
      </trkpt>
      <trkpt lat="62.96493" lon="7.12888">
        <ele>72.203506</ele>
        <time>2020-08-03T09:20:49.090Z</time>
      </trkpt>
      <trkpt lat="62.96496" lon="7.12908">
        <ele>72.149978</ele>
        <time>2020-08-03T09:20:51.107Z</time>
      </trkpt>
      <trkpt lat="62.96499" lon="7.12927">
        <ele>72.094987</ele>
        <time>2020-08-03T09:20:53.149Z</time>
      </trkpt>
      <trkpt lat="62.96503" lon="7.12946">
        <ele>72.040738</ele>
        <time>2020-08-03T09:20:55.086Z</time>
      </trkpt>
      <trkpt lat="62.96507" lon="7.12965">
        <ele>71.985193</ele>
        <time>2020-08-03T09:20:57.084Z</time>
      </trkpt>
      <trkpt lat="62.9651" lon="7.12985">
        <ele>71.930342</ele>
        <time>2020-08-03T09:20:59.096Z</time>
      </trkpt>
      <trkpt lat="62.96515" lon="7.13012">
        <ele>71.853101</ele>
        <time>2020-08-03T09:21:02.109Z</time>
      </trkpt>
      <trkpt lat="62.9652" lon="7.13039">
        <ele>71.778483</ele>
        <time>2020-08-03T09:21:05.099Z</time>
      </trkpt>
      <trkpt lat="62.96524" lon="7.13063">
        <ele>71.627526</ele>
        <time>2020-08-03T09:21:08.098Z</time>
      </trkpt>
      <trkpt lat="62.96528" lon="7.13087">
        <ele>71.466614</ele>
        <time>2020-08-03T09:21:11.085Z</time>
      </trkpt>
      <trkpt lat="62.96532" lon="7.13111">
        <ele>71.30349</ele>
        <time>2020-08-03T09:21:14.095Z</time>
      </trkpt>
      <trkpt lat="62.96535" lon="7.13135">
        <ele>71.136966</ele>
        <time>2020-08-03T09:21:17.088Z</time>
      </trkpt>
      <trkpt lat="62.96539" lon="7.13159">
        <ele>70.97166</ele>
        <time>2020-08-03T09:21:20.116Z</time>
      </trkpt>
      <trkpt lat="62.96543" lon="7.13184">
        <ele>70.808518</ele>
        <time>2020-08-03T09:21:23.105Z</time>
      </trkpt>
      <trkpt lat="62.96547" lon="7.13208">
        <ele>70.636746</ele>
        <time>2020-08-03T09:21:26.087Z</time>
      </trkpt>
      <trkpt lat="62.96551" lon="7.13235">
        <ele>70.457894</ele>
        <time>2020-08-03T09:21:29.095Z</time>
      </trkpt>
      <trkpt lat="62.96554" lon="7.13254">
        <ele>70.326346</ele>
        <time>2020-08-03T09:21:31.121Z</time>
      </trkpt>
      <trkpt lat="62.96558" lon="7.13274">
        <ele>70.189687</ele>
        <time>2020-08-03T09:21:33.110Z</time>
      </trkpt>
      <trkpt lat="62.96561" lon="7.13294">
        <ele>70.048318</ele>
        <time>2020-08-03T09:21:35.087Z</time>
      </trkpt>
      <trkpt lat="62.96565" lon="7.13315">
        <ele>69.909029</ele>
        <time>2020-08-03T09:21:37.086Z</time>
      </trkpt>
      <trkpt lat="62.96568" lon="7.13336">
        <ele>69.765024</ele>
        <time>2020-08-03T09:21:39.125Z</time>
      </trkpt>
      <trkpt lat="62.96571" lon="7.13358">
        <ele>69.615389</ele>
        <time>2020-08-03T09:21:41.097Z</time>
      </trkpt>
      <trkpt lat="62.96575" lon="7.1338">
        <ele>69.463307</ele>
        <time>2020-08-03T09:21:43.087Z</time>
      </trkpt>
      <trkpt lat="62.96578" lon="7.13402">
        <ele>69.315051</ele>
        <time>2020-08-03T09:21:45.091Z</time>
      </trkpt>
      <trkpt lat="62.96581" lon="7.13424">
        <ele>69.255419</ele>
        <time>2020-08-03T09:21:47.081Z</time>
      </trkpt>
      <trkpt lat="62.96584" lon="7.13447">
        <ele>69.349214</ele>
        <time>2020-08-03T09:21:49.127Z</time>
      </trkpt>
      <trkpt lat="62.96587" lon="7.13469">
        <ele>69.442773</ele>
        <time>2020-08-03T09:21:51.099Z</time>
      </trkpt>
      <trkpt lat="62.9659" lon="7.13491">
        <ele>69.534506</ele>
        <time>2020-08-03T09:21:53.107Z</time>
      </trkpt>
      <trkpt lat="62.96592" lon="7.13513">
        <ele>69.625824</ele>
        <time>2020-08-03T09:21:55.159Z</time>
      </trkpt>
      <trkpt lat="62.96594" lon="7.13535">
        <ele>69.714209</ele>
        <time>2020-08-03T09:21:57.111Z</time>
      </trkpt>
      <trkpt lat="62.96597" lon="7.13556">
        <ele>69.802273</ele>
        <time>2020-08-03T09:21:59.095Z</time>
      </trkpt>
      <trkpt lat="62.96599" lon="7.13576">
        <ele>69.886784</ele>
        <time>2020-08-03T09:22:01.115Z</time>
      </trkpt>
      <trkpt lat="62.96602" lon="7.13597">
        <ele>69.969911</ele>
        <time>2020-08-03T09:22:03.077Z</time>
      </trkpt>
      <trkpt lat="62.96604" lon="7.13616">
        <ele>70.049692</ele>
        <time>2020-08-03T09:22:05.107Z</time>
      </trkpt>
      <trkpt lat="62.96606" lon="7.13636">
        <ele>70.130458</ele>
        <time>2020-08-03T09:22:07.086Z</time>
      </trkpt>
      <trkpt lat="62.96607" lon="7.13656">
        <ele>70.214982</ele>
        <time>2020-08-03T09:22:09.127Z</time>
      </trkpt>
      <trkpt lat="62.9661" lon="7.13678">
        <ele>70.303366</ele>
        <time>2020-08-03T09:22:11.097Z</time>
      </trkpt>
      <trkpt lat="62.96612" lon="7.137">
        <ele>70.393738</ele>
        <time>2020-08-03T09:22:13.135Z</time>
      </trkpt>
      <trkpt lat="62.96613" lon="7.13722">
        <ele>70.485125</ele>
        <time>2020-08-03T09:22:15.125Z</time>
      </trkpt>
      <trkpt lat="62.96615" lon="7.13744">
        <ele>70.574711</ele>
        <time>2020-08-03T09:22:17.076Z</time>
      </trkpt>
      <trkpt lat="62.96618" lon="7.13765">
        <ele>70.661921</ele>
        <time>2020-08-03T09:22:19.090Z</time>
      </trkpt>
      <trkpt lat="62.96619" lon="7.13786">
        <ele>70.747467</ele>
        <time>2020-08-03T09:22:21.090Z</time>
      </trkpt>
      <trkpt lat="62.96621" lon="7.13807">
        <ele>70.859356</ele>
        <time>2020-08-03T09:22:23.115Z</time>
      </trkpt>
      <trkpt lat="62.96623" lon="7.13827">
        <ele>71.059327</ele>
        <time>2020-08-03T09:22:25.090Z</time>
      </trkpt>
      <trkpt lat="62.96625" lon="7.13848">
        <ele>71.259594</ele>
        <time>2020-08-03T09:22:27.088Z</time>
      </trkpt>
      <trkpt lat="62.96627" lon="7.13867">
        <ele>71.455639</ele>
        <time>2020-08-03T09:22:29.096Z</time>
      </trkpt>
      <trkpt lat="62.96629" lon="7.13888">
        <ele>71.65359</ele>
        <time>2020-08-03T09:22:31.104Z</time>
      </trkpt>
      <trkpt lat="62.96631" lon="7.13916">
        <ele>71.931524</ele>
        <time>2020-08-03T09:22:34.095Z</time>
      </trkpt>
      <trkpt lat="62.96634" lon="7.13944">
        <ele>72.211787</ele>
        <time>2020-08-03T09:22:37.126Z</time>
      </trkpt>
      <trkpt lat="62.96636" lon="7.13964">
        <ele>72.405042</ele>
        <time>2020-08-03T09:22:39.084Z</time>
      </trkpt>
      <trkpt lat="62.96639" lon="7.13991">
        <ele>72.671274</ele>
        <time>2020-08-03T09:22:42.102Z</time>
      </trkpt>
      <trkpt lat="62.96643" lon="7.14017">
        <ele>72.92751</ele>
        <time>2020-08-03T09:22:45.094Z</time>
      </trkpt>
      <trkpt lat="62.96646" lon="7.14042">
        <ele>73.178844</ele>
        <time>2020-08-03T09:22:48.093Z</time>
      </trkpt>
      <trkpt lat="62.96649" lon="7.14067">
        <ele>73.42474</ele>
        <time>2020-08-03T09:22:51.097Z</time>
      </trkpt>
      <trkpt lat="62.96652" lon="7.1409">
        <ele>73.65648</ele>
        <time>2020-08-03T09:22:54.092Z</time>
      </trkpt>
      <trkpt lat="62.96655" lon="7.14114">
        <ele>73.901697</ele>
        <time>2020-08-03T09:22:57.084Z</time>
      </trkpt>
      <trkpt lat="62.96657" lon="7.14138">
        <ele>74.13207</ele>
        <time>2020-08-03T09:23:00.111Z</time>
      </trkpt>
      <trkpt lat="62.9666" lon="7.14161">
        <ele>74.359846</ele>
        <time>2020-08-03T09:23:03.086Z</time>
      </trkpt>
      <trkpt lat="62.96665" lon="7.14184">
        <ele>74.605994</ele>
        <time>2020-08-03T09:23:06.092Z</time>
      </trkpt>
      <trkpt lat="62.96669" lon="7.14211">
        <ele>74.639315</ele>
        <time>2020-08-03T09:23:09.150Z</time>
      </trkpt>
      <trkpt lat="62.96675" lon="7.14236">
        <ele>74.672073</ele>
        <time>2020-08-03T09:23:12.120Z</time>
      </trkpt>
      <trkpt lat="62.96682" lon="7.1426">
        <ele>74.705507</ele>
        <time>2020-08-03T09:23:15.116Z</time>
      </trkpt>
      <trkpt lat="62.96688" lon="7.14277">
        <ele>74.728783</ele>
        <time>2020-08-03T09:23:17.089Z</time>
      </trkpt>
      <trkpt lat="62.96693" lon="7.14294">
        <ele>74.752257</ele>
        <time>2020-08-03T09:23:19.103Z</time>
      </trkpt>
      <trkpt lat="62.96698" lon="7.14311">
        <ele>74.776204</ele>
        <time>2020-08-03T09:23:21.102Z</time>
      </trkpt>
      <trkpt lat="62.96703" lon="7.14329">
        <ele>74.800679</ele>
        <time>2020-08-03T09:23:23.098Z</time>
      </trkpt>
      <trkpt lat="62.96708" lon="7.14347">
        <ele>74.825444</ele>
        <time>2020-08-03T09:23:25.119Z</time>
      </trkpt>
      <trkpt lat="62.96714" lon="7.14364">
        <ele>74.850458</ele>
        <time>2020-08-03T09:23:27.107Z</time>
      </trkpt>
      <trkpt lat="62.9672" lon="7.14382">
        <ele>74.875219</ele>
        <time>2020-08-03T09:23:29.090Z</time>
      </trkpt>
      <trkpt lat="62.96725" lon="7.14399">
        <ele>74.899739</ele>
        <time>2020-08-03T09:23:31.084Z</time>
      </trkpt>
      <trkpt lat="62.9673" lon="7.14417">
        <ele>74.924723</ele>
        <time>2020-08-03T09:23:33.100Z</time>
      </trkpt>
      <trkpt lat="62.96735" lon="7.14436">
        <ele>74.949905</ele>
        <time>2020-08-03T09:23:35.090Z</time>
      </trkpt>
      <trkpt lat="62.9674" lon="7.14455">
        <ele>74.975584</ele>
        <time>2020-08-03T09:23:37.110Z</time>
      </trkpt>
      <trkpt lat="62.96745" lon="7.14474">
        <ele>75.001136</ele>
        <time>2020-08-03T09:23:39.098Z</time>
      </trkpt>
      <trkpt lat="62.9675" lon="7.14494">
        <ele>75.027698</ele>
        <time>2020-08-03T09:23:41.126Z</time>
      </trkpt>
      <trkpt lat="62.96755" lon="7.14516">
        <ele>75.055709</ele>
        <time>2020-08-03T09:23:43.085Z</time>
      </trkpt>
      <trkpt lat="62.96761" lon="7.14538">
        <ele>74.644279</ele>
        <time>2020-08-03T09:23:45.082Z</time>
      </trkpt>
      <trkpt lat="62.96768" lon="7.14562">
        <ele>73.961285</ele>
        <time>2020-08-03T09:23:47.089Z</time>
      </trkpt>
      <trkpt lat="62.96775" lon="7.14587">
        <ele>73.245169</ele>
        <time>2020-08-03T09:23:49.096Z</time>
      </trkpt>
      <trkpt lat="62.96782" lon="7.14614">
        <ele>72.49909</ele>
        <time>2020-08-03T09:23:51.098Z</time>
      </trkpt>
      <trkpt lat="62.96789" lon="7.14645">
        <ele>71.630197</ele>
        <time>2020-08-03T09:23:53.090Z</time>
      </trkpt>
      <trkpt lat="62.96794" lon="7.14663">
        <ele>71.148993</ele>
        <time>2020-08-03T09:23:54.087Z</time>
      </trkpt>
      <trkpt lat="62.96797" lon="7.14681">
        <ele>70.666057</ele>
        <time>2020-08-03T09:23:55.088Z</time>
      </trkpt>
      <trkpt lat="62.96801" lon="7.14699">
        <ele>70.174033</ele>
        <time>2020-08-03T09:23:56.095Z</time>
      </trkpt>
      <trkpt lat="62.96806" lon="7.14718">
        <ele>69.670725</ele>
        <time>2020-08-03T09:23:57.139Z</time>
      </trkpt>
      <trkpt lat="62.9681" lon="7.14737">
        <ele>69.143556</ele>
        <time>2020-08-03T09:23:58.096Z</time>
      </trkpt>
      <trkpt lat="62.96814" lon="7.14757">
        <ele>68.612117</ele>
        <time>2020-08-03T09:23:59.105Z</time>
      </trkpt>
      <trkpt lat="62.96818" lon="7.14777">
        <ele>68.089308</ele>
        <time>2020-08-03T09:24:00.085Z</time>
      </trkpt>
      <trkpt lat="62.96823" lon="7.14796">
        <ele>67.570633</ele>
        <time>2020-08-03T09:24:01.092Z</time>
      </trkpt>
      <trkpt lat="62.96827" lon="7.14815">
        <ele>67.058869</ele>
        <time>2020-08-03T09:24:02.104Z</time>
      </trkpt>
      <trkpt lat="62.96831" lon="7.14834">
        <ele>66.540412</ele>
        <time>2020-08-03T09:24:03.113Z</time>
      </trkpt>
      <trkpt lat="62.96836" lon="7.14852">
        <ele>66.036432</ele>
        <time>2020-08-03T09:24:04.084Z</time>
      </trkpt>
      <trkpt lat="62.9684" lon="7.1487">
        <ele>65.537107</ele>
        <time>2020-08-03T09:24:05.104Z</time>
      </trkpt>
      <trkpt lat="62.96844" lon="7.14888">
        <ele>65.125057</ele>
        <time>2020-08-03T09:24:06.107Z</time>
      </trkpt>
      <trkpt lat="62.96852" lon="7.14921">
        <ele>64.379148</ele>
        <time>2020-08-03T09:24:08.097Z</time>
      </trkpt>
      <trkpt lat="62.96859" lon="7.14952">
        <ele>63.654045</ele>
        <time>2020-08-03T09:24:10.110Z</time>
      </trkpt>
      <trkpt lat="62.96867" lon="7.14983">
        <ele>62.928121</ele>
        <time>2020-08-03T09:24:12.086Z</time>
      </trkpt>
      <trkpt lat="62.96875" lon="7.15012">
        <ele>62.231964</ele>
        <time>2020-08-03T09:24:14.100Z</time>
      </trkpt>
      <trkpt lat="62.96882" lon="7.15041">
        <ele>61.556207</ele>
        <time>2020-08-03T09:24:16.099Z</time>
      </trkpt>
      <trkpt lat="62.96889" lon="7.15069">
        <ele>60.900282</ele>
        <time>2020-08-03T09:24:18.127Z</time>
      </trkpt>
      <trkpt lat="62.96896" lon="7.15096">
        <ele>60.278145</ele>
        <time>2020-08-03T09:24:20.094Z</time>
      </trkpt>
      <trkpt lat="62.96902" lon="7.15122">
        <ele>59.682243</ele>
        <time>2020-08-03T09:24:22.093Z</time>
      </trkpt>
      <trkpt lat="62.96908" lon="7.15145">
        <ele>59.13628</ele>
        <time>2020-08-03T09:24:24.096Z</time>
      </trkpt>
      <trkpt lat="62.96913" lon="7.15167">
        <ele>58.628698</ele>
        <time>2020-08-03T09:24:26.091Z</time>
      </trkpt>
      <trkpt lat="62.96918" lon="7.15188">
        <ele>58.140217</ele>
        <time>2020-08-03T09:24:28.088Z</time>
      </trkpt>
      <trkpt lat="62.96923" lon="7.1521">
        <ele>57.647683</ele>
        <time>2020-08-03T09:24:30.097Z</time>
      </trkpt>
      <trkpt lat="62.96928" lon="7.15231">
        <ele>57.337208</ele>
        <time>2020-08-03T09:24:32.095Z</time>
      </trkpt>
      <trkpt lat="62.96933" lon="7.15253">
        <ele>57.246083</ele>
        <time>2020-08-03T09:24:34.092Z</time>
      </trkpt>
      <trkpt lat="62.96937" lon="7.15275">
        <ele>57.156338</ele>
        <time>2020-08-03T09:24:36.095Z</time>
      </trkpt>
      <trkpt lat="62.96942" lon="7.15296">
        <ele>57.067894</ele>
        <time>2020-08-03T09:24:38.112Z</time>
      </trkpt>
      <trkpt lat="62.96947" lon="7.15316">
        <ele>56.979744</ele>
        <time>2020-08-03T09:24:40.092Z</time>
      </trkpt>
      <trkpt lat="62.96951" lon="7.15337">
        <ele>56.893047</ele>
        <time>2020-08-03T09:24:42.084Z</time>
      </trkpt>
      <trkpt lat="62.96956" lon="7.15358">
        <ele>56.804604</ele>
        <time>2020-08-03T09:24:44.078Z</time>
      </trkpt>
      <trkpt lat="62.96961" lon="7.15379">
        <ele>56.718246</ele>
        <time>2020-08-03T09:24:46.079Z</time>
      </trkpt>
      <trkpt lat="62.96965" lon="7.15399">
        <ele>56.635</ele>
        <time>2020-08-03T09:24:48.101Z</time>
      </trkpt>
      <trkpt lat="62.96969" lon="7.15418">
        <ele>56.552787</ele>
        <time>2020-08-03T09:24:50.083Z</time>
      </trkpt>
      <trkpt lat="62.96973" lon="7.15439">
        <ele>56.469549</ele>
        <time>2020-08-03T09:24:52.106Z</time>
      </trkpt>
      <trkpt lat="62.96978" lon="7.15458">
        <ele>56.386592</ele>
        <time>2020-08-03T09:24:54.091Z</time>
      </trkpt>
      <trkpt lat="62.96982" lon="7.15478">
        <ele>56.305687</ele>
        <time>2020-08-03T09:24:56.106Z</time>
      </trkpt>
      <trkpt lat="62.96987" lon="7.15496">
        <ele>56.224472</ele>
        <time>2020-08-03T09:24:58.092Z</time>
      </trkpt>
      <trkpt lat="62.96992" lon="7.15515">
        <ele>56.142682</ele>
        <time>2020-08-03T09:25:00.110Z</time>
      </trkpt>
      <trkpt lat="62.96997" lon="7.15534">
        <ele>56.062281</ele>
        <time>2020-08-03T09:25:02.090Z</time>
      </trkpt>
      <trkpt lat="62.97001" lon="7.15552">
        <ele>55.984769</ele>
        <time>2020-08-03T09:25:04.116Z</time>
      </trkpt>
      <trkpt lat="62.97006" lon="7.1557">
        <ele>55.905917</ele>
        <time>2020-08-03T09:25:06.119Z</time>
      </trkpt>
      <trkpt lat="62.97011" lon="7.15588">
        <ele>56.021404</ele>
        <time>2020-08-03T09:25:08.109Z</time>
      </trkpt>
      <trkpt lat="62.97017" lon="7.15605">
        <ele>56.191781</ele>
        <time>2020-08-03T09:25:10.095Z</time>
      </trkpt>
      <trkpt lat="62.97024" lon="7.15621">
        <ele>56.362825</ele>
        <time>2020-08-03T09:25:12.129Z</time>
      </trkpt>
      <trkpt lat="62.97031" lon="7.15635">
        <ele>56.5266</ele>
        <time>2020-08-03T09:25:14.095Z</time>
      </trkpt>
      <trkpt lat="62.97037" lon="7.15649">
        <ele>56.683206</ele>
        <time>2020-08-03T09:25:16.107Z</time>
      </trkpt>
      <trkpt lat="62.97044" lon="7.15662">
        <ele>56.839581</ele>
        <time>2020-08-03T09:25:18.076Z</time>
      </trkpt>
      <trkpt lat="62.97048" lon="7.15688">
        <ele>57.050273</ele>
        <time>2020-08-03T09:25:21.092Z</time>
      </trkpt>
      <trkpt lat="62.97043" lon="7.15707">
        <ele>57.224349</ele>
        <time>2020-08-03T09:25:24.126Z</time>
      </trkpt>
      <trkpt lat="62.9705" lon="7.15721">
        <ele>57.383297</ele>
        <time>2020-08-03T09:25:27.116Z</time>
      </trkpt>
      <trkpt lat="62.97059" lon="7.15737">
        <ele>57.589929</ele>
        <time>2020-08-03T09:25:30.092Z</time>
      </trkpt>
      <trkpt lat="62.97068" lon="7.15756">
        <ele>57.796072</ele>
        <time>2020-08-03T09:25:33.088Z</time>
      </trkpt>
      <trkpt lat="62.97077" lon="7.15773">
        <ele>58.003198</ele>
        <time>2020-08-03T09:25:36.141Z</time>
      </trkpt>
      <trkpt lat="62.97085" lon="7.15791">
        <ele>58.207545</ele>
        <time>2020-08-03T09:25:39.084Z</time>
      </trkpt>
      <trkpt lat="62.97095" lon="7.1581">
        <ele>58.432382</ele>
        <time>2020-08-03T09:25:42.091Z</time>
      </trkpt>
      <trkpt lat="62.97105" lon="7.15829">
        <ele>58.660612</ele>
        <time>2020-08-03T09:25:45.096Z</time>
      </trkpt>
      <trkpt lat="62.97112" lon="7.15842">
        <ele>58.818899</ele>
        <time>2020-08-03T09:25:47.080Z</time>
      </trkpt>
      <trkpt lat="62.97119" lon="7.15854">
        <ele>58.982647</ele>
        <time>2020-08-03T09:25:49.107Z</time>
      </trkpt>
      <trkpt lat="62.97127" lon="7.15865">
        <ele>59.095409</ele>
        <time>2020-08-03T09:25:51.094Z</time>
      </trkpt>
      <trkpt lat="62.97135" lon="7.15878">
        <ele>59.196747</ele>
        <time>2020-08-03T09:25:53.097Z</time>
      </trkpt>
      <trkpt lat="62.97142" lon="7.15892">
        <ele>59.301673</ele>
        <time>2020-08-03T09:25:55.090Z</time>
      </trkpt>
      <trkpt lat="62.97148" lon="7.15907">
        <ele>59.404239</ele>
        <time>2020-08-03T09:25:57.093Z</time>
      </trkpt>
      <trkpt lat="62.97155" lon="7.15922">
        <ele>59.508913</ele>
        <time>2020-08-03T09:25:59.136Z</time>
      </trkpt>
      <trkpt lat="62.97162" lon="7.15936">
        <ele>59.611821</ele>
        <time>2020-08-03T09:26:01.106Z</time>
      </trkpt>
      <trkpt lat="62.97169" lon="7.1595">
        <ele>59.71222</ele>
        <time>2020-08-03T09:26:03.121Z</time>
      </trkpt>
      <trkpt lat="62.97178" lon="7.1597">
        <ele>59.859008</ele>
        <time>2020-08-03T09:26:06.110Z</time>
      </trkpt>
      <trkpt lat="62.97186" lon="7.15983">
        <ele>59.960268</ele>
        <time>2020-08-03T09:26:08.087Z</time>
      </trkpt>
      <trkpt lat="62.97193" lon="7.15995">
        <ele>60.060316</ele>
        <time>2020-08-03T09:26:10.115Z</time>
      </trkpt>
      <trkpt lat="62.972" lon="7.16008">
        <ele>60.162405</ele>
        <time>2020-08-03T09:26:12.107Z</time>
      </trkpt>
      <trkpt lat="62.97207" lon="7.16021">
        <ele>60.263118</ele>
        <time>2020-08-03T09:26:14.119Z</time>
      </trkpt>
      <trkpt lat="62.97214" lon="7.16034">
        <ele>60.364073</ele>
        <time>2020-08-03T09:26:16.093Z</time>
      </trkpt>
      <trkpt lat="62.97225" lon="7.16051">
        <ele>60.504378</ele>
        <time>2020-08-03T09:26:19.089Z</time>
      </trkpt>
      <trkpt lat="62.97235" lon="7.16066">
        <ele>60.639185</ele>
        <time>2020-08-03T09:26:22.112Z</time>
      </trkpt>
      <trkpt lat="62.97246" lon="7.16077">
        <ele>60.768456</ele>
        <time>2020-08-03T09:26:25.116Z</time>
      </trkpt>
      <trkpt lat="62.97259" lon="7.16084">
        <ele>60.920066</ele>
        <time>2020-08-03T09:26:28.084Z</time>
      </trkpt>
      <trkpt lat="62.97269" lon="7.16087">
        <ele>60.845305</ele>
        <time>2020-08-03T09:26:30.094Z</time>
      </trkpt>
      <trkpt lat="62.9728" lon="7.16092">
        <ele>60.570632</ele>
        <time>2020-08-03T09:26:32.132Z</time>
      </trkpt>
      <trkpt lat="62.97291" lon="7.16097">
        <ele>60.279641</ele>
        <time>2020-08-03T09:26:34.112Z</time>
      </trkpt>
      <trkpt lat="62.97302" lon="7.16102">
        <ele>60.005622</ele>
        <time>2020-08-03T09:26:36.098Z</time>
      </trkpt>
      <trkpt lat="62.97313" lon="7.16106">
        <ele>59.732431</ele>
        <time>2020-08-03T09:26:38.102Z</time>
      </trkpt>
      <trkpt lat="62.97323" lon="7.1611">
        <ele>59.482098</ele>
        <time>2020-08-03T09:26:40.091Z</time>
      </trkpt>
      <trkpt lat="62.97332" lon="7.16115">
        <ele>59.246557</ele>
        <time>2020-08-03T09:26:42.089Z</time>
      </trkpt>
      <trkpt lat="62.97344" lon="7.16118">
        <ele>58.955706</ele>
        <time>2020-08-03T09:26:45.095Z</time>
      </trkpt>
      <trkpt lat="62.97357" lon="7.16119">
        <ele>58.63592</ele>
        <time>2020-08-03T09:26:48.133Z</time>
      </trkpt>
      <trkpt lat="62.97367" lon="7.16121">
        <ele>58.381893</ele>
        <time>2020-08-03T09:26:50.097Z</time>
      </trkpt>
      <trkpt lat="62.97376" lon="7.16124">
        <ele>58.148756</ele>
        <time>2020-08-03T09:26:52.112Z</time>
      </trkpt>
      <trkpt lat="62.97388" lon="7.16134">
        <ele>57.845406</ele>
        <time>2020-08-03T09:26:55.095Z</time>
      </trkpt>
      <trkpt lat="62.97395" lon="7.16152">
        <ele>57.573628</ele>
        <time>2020-08-03T09:26:58.128Z</time>
      </trkpt>
      <trkpt lat="62.97402" lon="7.16169">
        <ele>57.31011</ele>
        <time>2020-08-03T09:27:01.081Z</time>
      </trkpt>
      <trkpt lat="62.97412" lon="7.16182">
        <ele>57.035768</ele>
        <time>2020-08-03T09:27:04.128Z</time>
      </trkpt>
      <trkpt lat="62.97422" lon="7.16185">
        <ele>56.770579</ele>
        <time>2020-08-03T09:27:07.105Z</time>
      </trkpt>
      <trkpt lat="62.97433" lon="7.1618">
        <ele>56.532659</ele>
        <time>2020-08-03T09:27:11.088Z</time>
      </trkpt>
      <trkpt lat="62.97444" lon="7.16177">
        <ele>56.917426</ele>
        <time>2020-08-03T09:27:16.096Z</time>
      </trkpt>
      <trkpt lat="62.97454" lon="7.16176">
        <ele>57.280458</ele>
        <time>2020-08-03T09:27:20.092Z</time>
      </trkpt>
      <trkpt lat="62.97464" lon="7.16176">
        <ele>57.632593</ele>
        <time>2020-08-03T09:27:24.097Z</time>
      </trkpt>
      <trkpt lat="62.97473" lon="7.16176">
        <ele>57.974115</ele>
        <time>2020-08-03T09:27:28.091Z</time>
      </trkpt>
      <trkpt lat="62.97484" lon="7.16177">
        <ele>58.351175</ele>
        <time>2020-08-03T09:27:33.105Z</time>
      </trkpt>
      <trkpt lat="62.97493" lon="7.16177">
        <ele>58.674855</ele>
        <time>2020-08-03T09:27:37.106Z</time>
      </trkpt>
      <trkpt lat="62.97503" lon="7.16174">
        <ele>59.029297</ele>
        <time>2020-08-03T09:27:42.113Z</time>
      </trkpt>
      <trkpt lat="62.97512" lon="7.16171">
        <ele>59.36462</ele>
        <time>2020-08-03T09:27:46.112Z</time>
      </trkpt>
      <trkpt lat="62.97523" lon="7.16164">
        <ele>59.774013</ele>
        <time>2020-08-03T09:27:50.089Z</time>
      </trkpt>
      <trkpt lat="62.97532" lon="7.1616">
        <ele>60.101935</ele>
        <time>2020-08-03T09:27:53.161Z</time>
      </trkpt>
      <trkpt lat="62.97542" lon="7.16155">
        <ele>60.440976</ele>
        <time>2020-08-03T09:27:56.076Z</time>
      </trkpt>
      <trkpt lat="62.97551" lon="7.1615">
        <ele>60.780017</ele>
        <time>2020-08-03T09:27:59.086Z</time>
      </trkpt>
      <trkpt lat="62.9756" lon="7.16147">
        <ele>61.10003</ele>
        <time>2020-08-03T09:28:02.093Z</time>
      </trkpt>
      <trkpt lat="62.97572" lon="7.16142">
        <ele>61.525913</ele>
        <time>2020-08-03T09:28:06.092Z</time>
      </trkpt>
      <trkpt lat="62.97581" lon="7.16137">
        <ele>61.878182</ele>
        <time>2020-08-03T09:28:09.102Z</time>
      </trkpt>
      <trkpt lat="62.97592" lon="7.16134">
        <ele>62.249923</ele>
        <time>2020-08-03T09:28:12.094Z</time>
      </trkpt>
      <trkpt lat="62.97602" lon="7.1613">
        <ele>62.623897</ele>
        <time>2020-08-03T09:28:15.082Z</time>
      </trkpt>
      <trkpt lat="62.97612" lon="7.16128">
        <ele>62.901763</ele>
        <time>2020-08-03T09:28:18.119Z</time>
      </trkpt>
      <trkpt lat="62.97621" lon="7.16123">
        <ele>62.836987</ele>
        <time>2020-08-03T09:28:21.087Z</time>
      </trkpt>
      <trkpt lat="62.97632" lon="7.16115">
        <ele>62.763498</ele>
        <time>2020-08-03T09:28:24.091Z</time>
      </trkpt>
      <trkpt lat="62.97644" lon="7.16107">
        <ele>62.684035</ele>
        <time>2020-08-03T09:28:27.103Z</time>
      </trkpt>
      <trkpt lat="62.97655" lon="7.16104">
        <ele>62.611188</ele>
        <time>2020-08-03T09:28:30.117Z</time>
      </trkpt>
      <trkpt lat="62.97667" lon="7.16103">
        <ele>62.529146</ele>
        <time>2020-08-03T09:28:33.097Z</time>
      </trkpt>
      <trkpt lat="62.97679" lon="7.161">
        <ele>62.448869</ele>
        <time>2020-08-03T09:28:36.119Z</time>
      </trkpt>
      <trkpt lat="62.9769" lon="7.161">
        <ele>62.37738</ele>
        <time>2020-08-03T09:28:39.088Z</time>
      </trkpt>
      <trkpt lat="62.977" lon="7.161">
        <ele>62.311141</ele>
        <time>2020-08-03T09:28:42.083Z</time>
      </trkpt>
      <trkpt lat="62.9771" lon="7.16099">
        <ele>62.244136</ele>
        <time>2020-08-03T09:28:45.089Z</time>
      </trkpt>
      <trkpt lat="62.97721" lon="7.16096">
        <ele>62.171481</ele>
        <time>2020-08-03T09:28:48.082Z</time>
      </trkpt>
      <trkpt lat="62.97733" lon="7.16094">
        <ele>62.097835</ele>
        <time>2020-08-03T09:28:51.092Z</time>
      </trkpt>
      <trkpt lat="62.97744" lon="7.16091">
        <ele>62.021202</ele>
        <time>2020-08-03T09:28:54.091Z</time>
      </trkpt>
      <trkpt lat="62.97756" lon="7.16088">
        <ele>61.942616</ele>
        <time>2020-08-03T09:28:57.111Z</time>
      </trkpt>
      <trkpt lat="62.97769" lon="7.16084">
        <ele>61.859941</ele>
        <time>2020-08-03T09:29:00.087Z</time>
      </trkpt>
      <trkpt lat="62.97781" lon="7.1608">
        <ele>61.775197</ele>
        <time>2020-08-03T09:29:03.105Z</time>
      </trkpt>
      <trkpt lat="62.97794" lon="7.16073">
        <ele>61.761769</ele>
        <time>2020-08-03T09:29:06.089Z</time>
      </trkpt>
      <trkpt lat="62.97803" lon="7.16067">
        <ele>61.800421</ele>
        <time>2020-08-03T09:29:08.087Z</time>
      </trkpt>
      <trkpt lat="62.97815" lon="7.16059">
        <ele>61.856375</ele>
        <time>2020-08-03T09:29:11.094Z</time>
      </trkpt>
      <trkpt lat="62.97828" lon="7.16054">
        <ele>61.912273</ele>
        <time>2020-08-03T09:29:14.133Z</time>
      </trkpt>
      <trkpt lat="62.97841" lon="7.16048">
        <ele>61.969765</ele>
        <time>2020-08-03T09:29:17.098Z</time>
      </trkpt>
      <trkpt lat="62.9785" lon="7.16044">
        <ele>62.009474</ele>
        <time>2020-08-03T09:29:19.087Z</time>
      </trkpt>
      <trkpt lat="62.9786" lon="7.16039">
        <ele>62.051918</ele>
        <time>2020-08-03T09:29:21.078Z</time>
      </trkpt>
      <trkpt lat="62.97869" lon="7.16033">
        <ele>62.094872</ele>
        <time>2020-08-03T09:29:23.113Z</time>
      </trkpt>
      <trkpt lat="62.97879" lon="7.16028">
        <ele>62.139638</ele>
        <time>2020-08-03T09:29:25.132Z</time>
      </trkpt>
      <trkpt lat="62.97889" lon="7.16023">
        <ele>62.183428</ele>
        <time>2020-08-03T09:29:27.104Z</time>
      </trkpt>
      <trkpt lat="62.97899" lon="7.16018">
        <ele>62.227506</ele>
        <time>2020-08-03T09:29:29.092Z</time>
      </trkpt>
      <trkpt lat="62.9791" lon="7.16013">
        <ele>62.273916</ele>
        <time>2020-08-03T09:29:31.106Z</time>
      </trkpt>
      <trkpt lat="62.97921" lon="7.16009">
        <ele>62.321561</ele>
        <time>2020-08-03T09:29:33.098Z</time>
      </trkpt>
      <trkpt lat="62.97932" lon="7.16005">
        <ele>62.369468</ele>
        <time>2020-08-03T09:29:35.112Z</time>
      </trkpt>
      <trkpt lat="62.97943" lon="7.16003">
        <ele>62.417944</ele>
        <time>2020-08-03T09:29:37.091Z</time>
      </trkpt>
      <trkpt lat="62.97954" lon="7.16">
        <ele>62.465037</ele>
        <time>2020-08-03T09:29:39.087Z</time>
      </trkpt>
      <trkpt lat="62.97965" lon="7.15999">
        <ele>62.507814</ele>
        <time>2020-08-03T09:29:41.166Z</time>
      </trkpt>
      <trkpt lat="62.97976" lon="7.15997">
        <ele>62.514631</ele>
        <time>2020-08-03T09:29:43.092Z</time>
      </trkpt>
      <trkpt lat="62.97987" lon="7.15995">
        <ele>62.521015</ele>
        <time>2020-08-03T09:29:45.111Z</time>
      </trkpt>
      <trkpt lat="62.97998" lon="7.15994">
        <ele>62.527577</ele>
        <time>2020-08-03T09:29:47.112Z</time>
      </trkpt>
      <trkpt lat="62.98008" lon="7.15992">
        <ele>62.533724</ele>
        <time>2020-08-03T09:29:49.093Z</time>
      </trkpt>
      <trkpt lat="62.98017" lon="7.15991">
        <ele>62.539258</ele>
        <time>2020-08-03T09:29:51.092Z</time>
      </trkpt>
      <trkpt lat="62.98026" lon="7.1599">
        <ele>62.545028</ele>
        <time>2020-08-03T09:29:53.104Z</time>
      </trkpt>
      <trkpt lat="62.98036" lon="7.1599">
        <ele>62.55061</ele>
        <time>2020-08-03T09:29:55.083Z</time>
      </trkpt>
      <trkpt lat="62.98045" lon="7.15989">
        <ele>62.556132</ele>
        <time>2020-08-03T09:29:57.112Z</time>
      </trkpt>
      <trkpt lat="62.98054" lon="7.15989">
        <ele>62.561713</ele>
        <time>2020-08-03T09:29:59.091Z</time>
      </trkpt>
      <trkpt lat="62.98063" lon="7.15989">
        <ele>62.567295</ele>
        <time>2020-08-03T09:30:01.111Z</time>
      </trkpt>
      <trkpt lat="62.98076" lon="7.15989">
        <ele>62.575243</ele>
        <time>2020-08-03T09:30:04.086Z</time>
      </trkpt>
      <trkpt lat="62.98089" lon="7.15988">
        <ele>62.583133</ele>
        <time>2020-08-03T09:30:07.091Z</time>
      </trkpt>
      <trkpt lat="62.98102" lon="7.15988">
        <ele>62.591021</ele>
        <time>2020-08-03T09:30:10.124Z</time>
      </trkpt>
      <trkpt lat="62.98115" lon="7.15987">
        <ele>62.598606</ele>
        <time>2020-08-03T09:30:13.116Z</time>
      </trkpt>
      <trkpt lat="62.98128" lon="7.15987">
        <ele>62.606493</ele>
        <time>2020-08-03T09:30:16.110Z</time>
      </trkpt>
      <trkpt lat="62.98141" lon="7.15987">
        <ele>62.614379</ele>
        <time>2020-08-03T09:30:19.107Z</time>
      </trkpt>
      <trkpt lat="62.9815" lon="7.15987">
        <ele>62.706808</ele>
        <time>2020-08-03T09:30:21.102Z</time>
      </trkpt>
      <trkpt lat="62.98159" lon="7.15986">
        <ele>62.838305</ele>
        <time>2020-08-03T09:30:23.113Z</time>
      </trkpt>
      <trkpt lat="62.98168" lon="7.15986">
        <ele>62.969788</ele>
        <time>2020-08-03T09:30:25.109Z</time>
      </trkpt>
      <trkpt lat="62.98177" lon="7.15987">
        <ele>63.104186</ele>
        <time>2020-08-03T09:30:27.084Z</time>
      </trkpt>
      <trkpt lat="62.98186" lon="7.15987">
        <ele>63.23856</ele>
        <time>2020-08-03T09:30:29.083Z</time>
      </trkpt>
      <trkpt lat="62.982" lon="7.15986">
        <ele>63.432243</ele>
        <time>2020-08-03T09:30:32.106Z</time>
      </trkpt>
      <trkpt lat="62.98212" lon="7.15984">
        <ele>63.611795</ele>
        <time>2020-08-03T09:30:35.087Z</time>
      </trkpt>
      <trkpt lat="62.98223" lon="7.15986">
        <ele>63.768507</ele>
        <time>2020-08-03T09:30:38.107Z</time>
      </trkpt>
      <trkpt lat="62.98233" lon="7.15989">
        <ele>63.909616</ele>
        <time>2020-08-03T09:30:41.087Z</time>
      </trkpt>
      <trkpt lat="62.98243" lon="7.15992">
        <ele>64.054388</ele>
        <time>2020-08-03T09:30:44.110Z</time>
      </trkpt>
      <trkpt lat="62.98253" lon="7.15998">
        <ele>64.210035</ele>
        <time>2020-08-03T09:30:47.115Z</time>
      </trkpt>
      <trkpt lat="62.98263" lon="7.16003">
        <ele>64.358963</ele>
        <time>2020-08-03T09:30:50.100Z</time>
      </trkpt>
      <trkpt lat="62.98274" lon="7.16009">
        <ele>64.520836</ele>
        <time>2020-08-03T09:30:53.103Z</time>
      </trkpt>
      <trkpt lat="62.98286" lon="7.16018">
        <ele>64.702426</ele>
        <time>2020-08-03T09:30:56.115Z</time>
      </trkpt>
      <trkpt lat="62.98298" lon="7.16026">
        <ele>64.879072</ele>
        <time>2020-08-03T09:30:59.112Z</time>
      </trkpt>
      <trkpt lat="62.98309" lon="7.16038">
        <ele>65.062672</ele>
        <time>2020-08-03T09:31:02.124Z</time>
      </trkpt>
      <trkpt lat="62.98321" lon="7.16049">
        <ele>65.178558</ele>
        <time>2020-08-03T09:31:05.113Z</time>
      </trkpt>
      <trkpt lat="62.9833" lon="7.16056">
        <ele>65.001456</ele>
        <time>2020-08-03T09:31:07.097Z</time>
      </trkpt>
      <trkpt lat="62.98339" lon="7.16062">
        <ele>64.809288</ele>
        <time>2020-08-03T09:31:09.088Z</time>
      </trkpt>
      <trkpt lat="62.98349" lon="7.16068">
        <ele>64.618045</ele>
        <time>2020-08-03T09:31:11.105Z</time>
      </trkpt>
      <trkpt lat="62.98359" lon="7.16074">
        <ele>64.428182</ele>
        <time>2020-08-03T09:31:13.137Z</time>
      </trkpt>
      <trkpt lat="62.98369" lon="7.16079">
        <ele>64.244341</ele>
        <time>2020-08-03T09:31:15.093Z</time>
      </trkpt>
      <trkpt lat="62.98378" lon="7.16083">
        <ele>64.075097</ele>
        <time>2020-08-03T09:31:17.098Z</time>
      </trkpt>
      <trkpt lat="62.98387" lon="7.16087">
        <ele>63.903086</ele>
        <time>2020-08-03T09:31:19.094Z</time>
      </trkpt>
      <trkpt lat="62.98396" lon="7.16091">
        <ele>63.725762</ele>
        <time>2020-08-03T09:31:21.122Z</time>
      </trkpt>
      <trkpt lat="62.98406" lon="7.16096">
        <ele>63.539846</ele>
        <time>2020-08-03T09:31:23.084Z</time>
      </trkpt>
      <trkpt lat="62.98416" lon="7.16101">
        <ele>63.351576</ele>
        <time>2020-08-03T09:31:25.099Z</time>
      </trkpt>
      <trkpt lat="62.98426" lon="7.16106">
        <ele>63.161498</ele>
        <time>2020-08-03T09:31:27.096Z</time>
      </trkpt>
      <trkpt lat="62.98436" lon="7.16112">
        <ele>62.974781</ele>
        <time>2020-08-03T09:31:29.088Z</time>
      </trkpt>
      <trkpt lat="62.98445" lon="7.16119">
        <ele>62.796206</ele>
        <time>2020-08-03T09:31:31.090Z</time>
      </trkpt>
      <trkpt lat="62.98454" lon="7.16126">
        <ele>62.611544</ele>
        <time>2020-08-03T09:31:33.121Z</time>
      </trkpt>
      <trkpt lat="62.98464" lon="7.16134">
        <ele>62.416165</ele>
        <time>2020-08-03T09:31:35.112Z</time>
      </trkpt>
      <trkpt lat="62.98474" lon="7.16143">
        <ele>62.217435</ele>
        <time>2020-08-03T09:31:37.090Z</time>
      </trkpt>
      <trkpt lat="62.98483" lon="7.16152">
        <ele>62.025545</ele>
        <time>2020-08-03T09:31:39.104Z</time>
      </trkpt>
      <trkpt lat="62.98493" lon="7.16162">
        <ele>61.873309</ele>
        <time>2020-08-03T09:31:41.102Z</time>
      </trkpt>
      <trkpt lat="62.98502" lon="7.16171">
        <ele>61.854931</ele>
        <time>2020-08-03T09:31:43.136Z</time>
      </trkpt>
      <trkpt lat="62.98511" lon="7.1618">
        <ele>61.836286</ele>
        <time>2020-08-03T09:31:45.087Z</time>
      </trkpt>
      <trkpt lat="62.9852" lon="7.1619">
        <ele>61.817586</ele>
        <time>2020-08-03T09:31:47.118Z</time>
      </trkpt>
      <trkpt lat="62.98529" lon="7.16201">
        <ele>61.798886</ele>
        <time>2020-08-03T09:31:49.084Z</time>
      </trkpt>
      <trkpt lat="62.98538" lon="7.16212">
        <ele>61.780627</ele>
        <time>2020-08-03T09:31:51.119Z</time>
      </trkpt>
      <trkpt lat="62.98547" lon="7.16222">
        <ele>61.761628</ele>
        <time>2020-08-03T09:31:53.098Z</time>
      </trkpt>
      <trkpt lat="62.98557" lon="7.16232">
        <ele>61.741989</ele>
        <time>2020-08-03T09:31:55.091Z</time>
      </trkpt>
      <trkpt lat="62.98567" lon="7.16242">
        <ele>61.722259</ele>
        <time>2020-08-03T09:31:57.097Z</time>
      </trkpt>
      <trkpt lat="62.98576" lon="7.16253">
        <ele>61.702821</ele>
        <time>2020-08-03T09:31:59.099Z</time>
      </trkpt>
      <trkpt lat="62.98586" lon="7.16264">
        <ele>61.683119</ele>
        <time>2020-08-03T09:32:01.093Z</time>
      </trkpt>
      <trkpt lat="62.98595" lon="7.16276">
        <ele>61.663819</ele>
        <time>2020-08-03T09:32:03.106Z</time>
      </trkpt>
      <trkpt lat="62.98604" lon="7.16287">
        <ele>61.644638</ele>
        <time>2020-08-03T09:32:05.090Z</time>
      </trkpt>
      <trkpt lat="62.98613" lon="7.16298">
        <ele>61.625656</ele>
        <time>2020-08-03T09:32:07.140Z</time>
      </trkpt>
      <trkpt lat="62.98622" lon="7.16308">
        <ele>61.606996</ele>
        <time>2020-08-03T09:32:09.102Z</time>
      </trkpt>
      <trkpt lat="62.98631" lon="7.1632">
        <ele>61.587572</ele>
        <time>2020-08-03T09:32:11.106Z</time>
      </trkpt>
      <trkpt lat="62.9864" lon="7.16333">
        <ele>61.567544</ele>
        <time>2020-08-03T09:32:13.093Z</time>
      </trkpt>
      <trkpt lat="62.9865" lon="7.16346">
        <ele>61.550388</ele>
        <time>2020-08-03T09:32:15.105Z</time>
      </trkpt>
      <trkpt lat="62.98659" lon="7.16359">
        <ele>61.618579</ele>
        <time>2020-08-03T09:32:17.127Z</time>
      </trkpt>
      <trkpt lat="62.98667" lon="7.16371">
        <ele>61.683542</ele>
        <time>2020-08-03T09:32:19.108Z</time>
      </trkpt>
      <trkpt lat="62.98676" lon="7.16384">
        <ele>61.74792</ele>
        <time>2020-08-03T09:32:21.100Z</time>
      </trkpt>
      <trkpt lat="62.98684" lon="7.16396">
        <ele>61.811937</ele>
        <time>2020-08-03T09:32:23.100Z</time>
      </trkpt>
      <trkpt lat="62.98692" lon="7.16409">
        <ele>61.87422</ele>
        <time>2020-08-03T09:32:25.110Z</time>
      </trkpt>
      <trkpt lat="62.987" lon="7.16422">
        <ele>61.93753</ele>
        <time>2020-08-03T09:32:27.111Z</time>
      </trkpt>
      <trkpt lat="62.98708" lon="7.16435">
        <ele>62.000665</ele>
        <time>2020-08-03T09:32:29.094Z</time>
      </trkpt>
      <trkpt lat="62.98716" lon="7.16448">
        <ele>62.062959</ele>
        <time>2020-08-03T09:32:31.117Z</time>
      </trkpt>
      <trkpt lat="62.98724" lon="7.16461">
        <ele>62.12507</ele>
        <time>2020-08-03T09:32:33.099Z</time>
      </trkpt>
      <trkpt lat="62.98731" lon="7.16474">
        <ele>62.187214</ele>
        <time>2020-08-03T09:32:35.109Z</time>
      </trkpt>
      <trkpt lat="62.98739" lon="7.16488">
        <ele>62.250694</ele>
        <time>2020-08-03T09:32:37.092Z</time>
      </trkpt>
      <trkpt lat="62.98747" lon="7.16502">
        <ele>62.314594</ele>
        <time>2020-08-03T09:32:39.088Z</time>
      </trkpt>
      <trkpt lat="62.98754" lon="7.16516">
        <ele>62.37703</ele>
        <time>2020-08-03T09:32:41.114Z</time>
      </trkpt>
      <trkpt lat="62.98761" lon="7.1653">
        <ele>62.436027</ele>
        <time>2020-08-03T09:32:43.100Z</time>
      </trkpt>
      <trkpt lat="62.98768" lon="7.16544">
        <ele>62.495339</ele>
        <time>2020-08-03T09:32:45.095Z</time>
      </trkpt>
      <trkpt lat="62.98775" lon="7.16558">
        <ele>62.55453</ele>
        <time>2020-08-03T09:32:47.111Z</time>
      </trkpt>
      <trkpt lat="62.98781" lon="7.16572">
        <ele>62.611929</ele>
        <time>2020-08-03T09:32:49.122Z</time>
      </trkpt>
      <trkpt lat="62.98788" lon="7.16585">
        <ele>62.668741</ele>
        <time>2020-08-03T09:32:51.119Z</time>
      </trkpt>
      <trkpt lat="62.98798" lon="7.16605">
        <ele>62.640899</ele>
        <time>2020-08-03T09:32:54.106Z</time>
      </trkpt>
      <trkpt lat="62.98805" lon="7.16619">
        <ele>62.594746</ele>
        <time>2020-08-03T09:32:56.084Z</time>
      </trkpt>
      <trkpt lat="62.98811" lon="7.16634">
        <ele>62.549595</ele>
        <time>2020-08-03T09:32:58.088Z</time>
      </trkpt>
      <trkpt lat="62.98818" lon="7.16648">
        <ele>62.505594</ele>
        <time>2020-08-03T09:33:00.088Z</time>
      </trkpt>
      <trkpt lat="62.98824" lon="7.16663">
        <ele>62.461913</ele>
        <time>2020-08-03T09:33:02.089Z</time>
      </trkpt>
      <trkpt lat="62.9883" lon="7.16678">
        <ele>62.41805</ele>
        <time>2020-08-03T09:33:04.089Z</time>
      </trkpt>
      <trkpt lat="62.98836" lon="7.16693">
        <ele>62.373555</ele>
        <time>2020-08-03T09:33:06.083Z</time>
      </trkpt>
      <trkpt lat="62.98842" lon="7.16708">
        <ele>62.328415</ele>
        <time>2020-08-03T09:33:08.084Z</time>
      </trkpt>
      <trkpt lat="62.98848" lon="7.16723">
        <ele>62.283765</ele>
        <time>2020-08-03T09:33:10.094Z</time>
      </trkpt>
      <trkpt lat="62.98854" lon="7.16738">
        <ele>62.239768</ele>
        <time>2020-08-03T09:33:12.095Z</time>
      </trkpt>
      <trkpt lat="62.98863" lon="7.16761">
        <ele>62.174455</ele>
        <time>2020-08-03T09:33:15.126Z</time>
      </trkpt>
      <trkpt lat="62.98868" lon="7.16776">
        <ele>62.130083</ele>
        <time>2020-08-03T09:33:17.118Z</time>
      </trkpt>
      <trkpt lat="62.98874" lon="7.16792">
        <ele>62.085369</ele>
        <time>2020-08-03T09:33:19.109Z</time>
      </trkpt>
      <trkpt lat="62.9888" lon="7.16808">
        <ele>62.040826</ele>
        <time>2020-08-03T09:33:21.097Z</time>
      </trkpt>
      <trkpt lat="62.98886" lon="7.16823">
        <ele>61.996546</ele>
        <time>2020-08-03T09:33:23.096Z</time>
      </trkpt>
      <trkpt lat="62.98891" lon="7.16839">
        <ele>61.952738</ele>
        <time>2020-08-03T09:33:25.097Z</time>
      </trkpt>
      <trkpt lat="62.98899" lon="7.16863">
        <ele>61.887429</ele>
        <time>2020-08-03T09:33:28.143Z</time>
      </trkpt>
      <trkpt lat="62.98906" lon="7.16886">
        <ele>61.824332</ele>
        <time>2020-08-03T09:33:31.098Z</time>
      </trkpt>
      <trkpt lat="62.98914" lon="7.1691">
        <ele>61.730413</ele>
        <time>2020-08-03T09:33:34.093Z</time>
      </trkpt>
      <trkpt lat="62.98921" lon="7.16934">
        <ele>61.63067</ele>
        <time>2020-08-03T09:33:37.099Z</time>
      </trkpt>
      <trkpt lat="62.98929" lon="7.16957">
        <ele>61.530339</ele>
        <time>2020-08-03T09:33:40.103Z</time>
      </trkpt>
      <trkpt lat="62.98936" lon="7.16981">
        <ele>61.429558</ele>
        <time>2020-08-03T09:33:43.087Z</time>
      </trkpt>
      <trkpt lat="62.98943" lon="7.17006">
        <ele>61.327652</ele>
        <time>2020-08-03T09:33:46.091Z</time>
      </trkpt>
      <trkpt lat="62.9895" lon="7.17032">
        <ele>61.224897</ele>
        <time>2020-08-03T09:33:49.107Z</time>
      </trkpt>
      <trkpt lat="62.98957" lon="7.17057">
        <ele>61.12286</ele>
        <time>2020-08-03T09:33:52.095Z</time>
      </trkpt>
      <trkpt lat="62.98963" lon="7.17081">
        <ele>61.02328</ele>
        <time>2020-08-03T09:33:55.115Z</time>
      </trkpt>
      <trkpt lat="62.9897" lon="7.17107">
        <ele>60.920603</ele>
        <time>2020-08-03T09:33:58.113Z</time>
      </trkpt>
      <trkpt lat="62.98974" lon="7.17125">
        <ele>60.850429</ele>
        <time>2020-08-03T09:34:00.091Z</time>
      </trkpt>
      <trkpt lat="62.98981" lon="7.17151">
        <ele>60.746843</ele>
        <time>2020-08-03T09:34:03.092Z</time>
      </trkpt>
      <trkpt lat="62.98984" lon="7.17169">
        <ele>60.678131</ele>
        <time>2020-08-03T09:34:05.088Z</time>
      </trkpt>
      <trkpt lat="62.9899" lon="7.17194">
        <ele>60.579571</ele>
        <time>2020-08-03T09:34:08.132Z</time>
      </trkpt>
      <trkpt lat="62.98994" lon="7.17212">
        <ele>60.509899</ele>
        <time>2020-08-03T09:34:10.106Z</time>
      </trkpt>
      <trkpt lat="62.98998" lon="7.1723">
        <ele>60.441169</ele>
        <time>2020-08-03T09:34:12.130Z</time>
      </trkpt>
      <trkpt lat="62.99002" lon="7.17248">
        <ele>60.640248</ele>
        <time>2020-08-03T09:34:14.087Z</time>
      </trkpt>
      <trkpt lat="62.99005" lon="7.17267">
        <ele>60.84987</ele>
        <time>2020-08-03T09:34:16.120Z</time>
      </trkpt>
      <trkpt lat="62.9901" lon="7.17293">
        <ele>61.15486</ele>
        <time>2020-08-03T09:34:19.110Z</time>
      </trkpt>
      <trkpt lat="62.99015" lon="7.17321">
        <ele>61.462921</ele>
        <time>2020-08-03T09:34:22.126Z</time>
      </trkpt>
      <trkpt lat="62.99019" lon="7.17348">
        <ele>61.767962</ele>
        <time>2020-08-03T09:34:25.098Z</time>
      </trkpt>
      <trkpt lat="62.99024" lon="7.17376">
        <ele>62.078994</ele>
        <time>2020-08-03T09:34:28.129Z</time>
      </trkpt>
      <trkpt lat="62.99027" lon="7.17395">
        <ele>62.29887</ele>
        <time>2020-08-03T09:34:30.127Z</time>
      </trkpt>
      <trkpt lat="62.99031" lon="7.17421">
        <ele>62.58467</ele>
        <time>2020-08-03T09:34:33.098Z</time>
      </trkpt>
      <trkpt lat="62.99034" lon="7.17446">
        <ele>62.862544</ele>
        <time>2020-08-03T09:34:36.129Z</time>
      </trkpt>
      <trkpt lat="62.99038" lon="7.17473">
        <ele>63.155279</ele>
        <time>2020-08-03T09:34:39.084Z</time>
      </trkpt>
      <trkpt lat="62.99042" lon="7.175">
        <ele>63.462565</ele>
        <time>2020-08-03T09:34:42.114Z</time>
      </trkpt>
      <trkpt lat="62.99045" lon="7.1752">
        <ele>63.674442</ele>
        <time>2020-08-03T09:34:44.110Z</time>
      </trkpt>
      <trkpt lat="62.99048" lon="7.17548">
        <ele>63.985711</ele>
        <time>2020-08-03T09:34:47.099Z</time>
      </trkpt>
      <trkpt lat="62.99052" lon="7.17576">
        <ele>64.295897</ele>
        <time>2020-08-03T09:34:50.117Z</time>
      </trkpt>
      <trkpt lat="62.99055" lon="7.17605">
        <ele>64.607324</ele>
        <time>2020-08-03T09:34:53.099Z</time>
      </trkpt>
      <trkpt lat="62.99058" lon="7.17624">
        <ele>64.633223</ele>
        <time>2020-08-03T09:34:55.096Z</time>
      </trkpt>
      <trkpt lat="62.99061" lon="7.17644">
        <ele>64.648678</ele>
        <time>2020-08-03T09:34:57.108Z</time>
      </trkpt>
      <trkpt lat="62.99062" lon="7.17664">
        <ele>64.663942</ele>
        <time>2020-08-03T09:34:59.111Z</time>
      </trkpt>
      <trkpt lat="62.99065" lon="7.17692">
        <ele>64.685509</ele>
        <time>2020-08-03T09:35:02.088Z</time>
      </trkpt>
      <trkpt lat="62.99068" lon="7.17721">
        <ele>64.707771</ele>
        <time>2020-08-03T09:35:05.098Z</time>
      </trkpt>
      <trkpt lat="62.9907" lon="7.1775">
        <ele>64.729959</ele>
        <time>2020-08-03T09:35:08.104Z</time>
      </trkpt>
      <trkpt lat="62.99072" lon="7.1777">
        <ele>64.745351</ele>
        <time>2020-08-03T09:35:10.106Z</time>
      </trkpt>
      <trkpt lat="62.99073" lon="7.17791">
        <ele>64.760845</ele>
        <time>2020-08-03T09:35:12.090Z</time>
      </trkpt>
      <trkpt lat="62.99075" lon="7.17812">
        <ele>64.776977</ele>
        <time>2020-08-03T09:35:14.125Z</time>
      </trkpt>
      <trkpt lat="62.99076" lon="7.17834">
        <ele>64.793274</ele>
        <time>2020-08-03T09:35:16.094Z</time>
      </trkpt>
      <trkpt lat="62.99077" lon="7.17854">
        <ele>64.808868</ele>
        <time>2020-08-03T09:35:18.091Z</time>
      </trkpt>
      <trkpt lat="62.99077" lon="7.17876">
        <ele>64.824911</ele>
        <time>2020-08-03T09:35:20.092Z</time>
      </trkpt>
      <trkpt lat="62.99078" lon="7.17897">
        <ele>64.840941</ele>
        <time>2020-08-03T09:35:22.089Z</time>
      </trkpt>
      <trkpt lat="62.99079" lon="7.17918">
        <ele>64.856585</ele>
        <time>2020-08-03T09:35:24.111Z</time>
      </trkpt>
      <trkpt lat="62.99079" lon="7.17938">
        <ele>64.871705</ele>
        <time>2020-08-03T09:35:26.093Z</time>
      </trkpt>
      <trkpt lat="62.99079" lon="7.17958">
        <ele>64.886568</ele>
        <time>2020-08-03T09:35:28.121Z</time>
      </trkpt>
      <trkpt lat="62.99079" lon="7.17987">
        <ele>64.908714</ele>
        <time>2020-08-03T09:35:31.093Z</time>
      </trkpt>
      <trkpt lat="62.99079" lon="7.18007">
        <ele>64.922556</ele>
        <time>2020-08-03T09:35:33.092Z</time>
      </trkpt>
      <trkpt lat="62.99079" lon="7.18027">
        <ele>64.935367</ele>
        <time>2020-08-03T09:35:35.102Z</time>
      </trkpt>
      <trkpt lat="62.99078" lon="7.18047">
        <ele>64.948506</ele>
        <time>2020-08-03T09:35:37.101Z</time>
      </trkpt>
      <trkpt lat="62.99078" lon="7.18075">
        <ele>64.966941</ele>
        <time>2020-08-03T09:35:40.089Z</time>
      </trkpt>
      <trkpt lat="62.99078" lon="7.18105">
        <ele>64.985838</ele>
        <time>2020-08-03T09:35:43.097Z</time>
      </trkpt>
      <trkpt lat="62.99077" lon="7.18126">
        <ele>64.999449</ele>
        <time>2020-08-03T09:35:45.093Z</time>
      </trkpt>
      <trkpt lat="62.99077" lon="7.18147">
        <ele>65.013052</ele>
        <time>2020-08-03T09:35:47.112Z</time>
      </trkpt>
      <trkpt lat="62.99076" lon="7.18167">
        <ele>65.026331</ele>
        <time>2020-08-03T09:35:49.093Z</time>
      </trkpt>
      <trkpt lat="62.99076" lon="7.18187">
        <ele>65.039103</ele>
        <time>2020-08-03T09:35:51.138Z</time>
      </trkpt>
      <trkpt lat="62.99076" lon="7.18215">
        <ele>65.057151</ele>
        <time>2020-08-03T09:35:54.087Z</time>
      </trkpt>
      <trkpt lat="62.99076" lon="7.18243">
        <ele>65.07533</ele>
        <time>2020-08-03T09:35:57.104Z</time>
      </trkpt>
      <trkpt lat="62.99075" lon="7.18269">
        <ele>65.092022</ele>
        <time>2020-08-03T09:36:00.118Z</time>
      </trkpt>
      <trkpt lat="62.99076" lon="7.18295">
        <ele>65.109094</ele>
        <time>2020-08-03T09:36:03.095Z</time>
      </trkpt>
      <trkpt lat="62.99079" lon="7.18322">
        <ele>65.127261</ele>
        <time>2020-08-03T09:36:06.107Z</time>
      </trkpt>
      <trkpt lat="62.99085" lon="7.18348">
        <ele>65.146019</ele>
        <time>2020-08-03T09:36:09.112Z</time>
      </trkpt>
      <trkpt lat="62.99088" lon="7.18375">
        <ele>65.16365</ele>
        <time>2020-08-03T09:36:12.092Z</time>
      </trkpt>
      <trkpt lat="62.99089" lon="7.18403">
        <ele>65.154596</ele>
        <time>2020-08-03T09:36:15.110Z</time>
      </trkpt>
      <trkpt lat="62.9909" lon="7.18428">
        <ele>65.12416</ele>
        <time>2020-08-03T09:36:18.116Z</time>
      </trkpt>
      <trkpt lat="62.99092" lon="7.18452">
        <ele>65.094988</ele>
        <time>2020-08-03T09:36:21.092Z</time>
      </trkpt>
      <trkpt lat="62.99096" lon="7.18475">
        <ele>65.065736</ele>
        <time>2020-08-03T09:36:24.099Z</time>
      </trkpt>
      <trkpt lat="62.99102" lon="7.18502">
        <ele>65.03098</ele>
        <time>2020-08-03T09:36:27.107Z</time>
      </trkpt>
      <trkpt lat="62.99106" lon="7.18523">
        <ele>65.002849</ele>
        <time>2020-08-03T09:36:29.098Z</time>
      </trkpt>
      <trkpt lat="62.9911" lon="7.18546">
        <ele>64.97372</ele>
        <time>2020-08-03T09:36:31.089Z</time>
      </trkpt>
      <trkpt lat="62.99113" lon="7.18568">
        <ele>64.945856</ele>
        <time>2020-08-03T09:36:33.099Z</time>
      </trkpt>
      <trkpt lat="62.99117" lon="7.18589">
        <ele>64.919886</ele>
        <time>2020-08-03T09:36:35.102Z</time>
      </trkpt>
      <trkpt lat="62.99122" lon="7.18614">
        <ele>64.88665</ele>
        <time>2020-08-03T09:36:38.135Z</time>
      </trkpt>
      <trkpt lat="62.99126" lon="7.18639">
        <ele>64.854831</ele>
        <time>2020-08-03T09:36:41.089Z</time>
      </trkpt>
      <trkpt lat="62.99129" lon="7.18664">
        <ele>64.823723</ele>
        <time>2020-08-03T09:36:44.117Z</time>
      </trkpt>
      <trkpt lat="62.99133" lon="7.18686">
        <ele>64.795691</ele>
        <time>2020-08-03T09:36:47.095Z</time>
      </trkpt>
      <trkpt lat="62.99136" lon="7.18708">
        <ele>64.769381</ele>
        <time>2020-08-03T09:36:50.103Z</time>
      </trkpt>
      <trkpt lat="62.99138" lon="7.18729">
        <ele>64.743202</ele>
        <time>2020-08-03T09:36:53.111Z</time>
      </trkpt>
      <trkpt lat="62.9914" lon="7.1875">
        <ele>64.717611</ele>
        <time>2020-08-03T09:36:56.126Z</time>
      </trkpt>
      <trkpt lat="62.99142" lon="7.18772">
        <ele>64.709046</ele>
        <time>2020-08-03T09:36:59.100Z</time>
      </trkpt>
      <trkpt lat="62.99145" lon="7.18796">
        <ele>64.738651</ele>
        <time>2020-08-03T09:37:02.106Z</time>
      </trkpt>
      <trkpt lat="62.99148" lon="7.18821">
        <ele>64.770163</ele>
        <time>2020-08-03T09:37:05.097Z</time>
      </trkpt>
      <trkpt lat="62.99149" lon="7.18843">
        <ele>64.797048</ele>
        <time>2020-08-03T09:37:08.106Z</time>
      </trkpt>
      <trkpt lat="62.99151" lon="7.18865">
        <ele>64.824388</ele>
        <time>2020-08-03T09:37:13.098Z</time>
      </trkpt>
      <trkpt lat="62.99153" lon="7.18887">
        <ele>64.85162</ele>
        <time>2020-08-03T09:37:17.118Z</time>
      </trkpt>
      <trkpt lat="62.99154" lon="7.18909">
        <ele>64.878262</ele>
        <time>2020-08-03T09:37:21.112Z</time>
      </trkpt>
      <trkpt lat="62.99155" lon="7.18934">
        <ele>64.90845</ele>
        <time>2020-08-03T09:37:25.111Z</time>
      </trkpt>
      <trkpt lat="62.99156" lon="7.18956">
        <ele>64.935217</ele>
        <time>2020-08-03T09:37:29.093Z</time>
      </trkpt>
      <trkpt lat="62.99156" lon="7.18978">
        <ele>64.961311</ele>
        <time>2020-08-03T09:37:34.130Z</time>
      </trkpt>
      <trkpt lat="62.99155" lon="7.19">
        <ele>64.988297</ele>
        <time>2020-08-03T09:37:39.093Z</time>
      </trkpt>
      <trkpt lat="62.99155" lon="7.19021">
        <ele>65.013492</ele>
        <time>2020-08-03T09:37:43.096Z</time>
      </trkpt>
      <trkpt lat="62.99153" lon="7.19045">
        <ele>65.04245</ele>
        <time>2020-08-03T09:37:47.095Z</time>
      </trkpt>
      <trkpt lat="62.99153" lon="7.19066">
        <ele>65.068806</ele>
        <time>2020-08-03T09:37:51.131Z</time>
      </trkpt>
      <trkpt lat="62.99152" lon="7.19091">
        <ele>65.098333</ele>
        <time>2020-08-03T09:37:56.146Z</time>
      </trkpt>
      <trkpt lat="62.99148" lon="7.19113">
        <ele>65.126379</ele>
        <time>2020-08-03T09:38:00.112Z</time>
      </trkpt>
      <trkpt lat="62.99146" lon="7.19133">
        <ele>65.151647</ele>
        <time>2020-08-03T09:38:03.088Z</time>
      </trkpt>
      <trkpt lat="62.99146" lon="7.19156">
        <ele>65.180717</ele>
        <time>2020-08-03T09:38:06.090Z</time>
      </trkpt>
      <trkpt lat="62.99147" lon="7.19178">
        <ele>65.238515</ele>
        <time>2020-08-03T09:38:09.117Z</time>
      </trkpt>
      <trkpt lat="62.99147" lon="7.19201">
        <ele>65.299243</ele>
        <time>2020-08-03T09:38:12.085Z</time>
      </trkpt>
      <trkpt lat="62.99146" lon="7.19224">
        <ele>65.362109</ele>
        <time>2020-08-03T09:38:15.122Z</time>
      </trkpt>
      <trkpt lat="62.99147" lon="7.19248">
        <ele>65.425008</ele>
        <time>2020-08-03T09:38:18.096Z</time>
      </trkpt>
      <trkpt lat="62.99147" lon="7.19271">
        <ele>65.487875</ele>
        <time>2020-08-03T09:38:21.082Z</time>
      </trkpt>
      <trkpt lat="62.99146" lon="7.19296">
        <ele>65.553222</ele>
        <time>2020-08-03T09:38:24.100Z</time>
      </trkpt>
      <trkpt lat="62.99145" lon="7.19322">
        <ele>65.622894</ele>
        <time>2020-08-03T09:38:27.099Z</time>
      </trkpt>
      <trkpt lat="62.99144" lon="7.19348">
        <ele>65.692296</ele>
        <time>2020-08-03T09:38:30.088Z</time>
      </trkpt>
      <trkpt lat="62.99142" lon="7.19372">
        <ele>65.758483</ele>
        <time>2020-08-03T09:38:33.104Z</time>
      </trkpt>
      <trkpt lat="62.9914" lon="7.19397">
        <ele>65.826045</ele>
        <time>2020-08-03T09:38:36.126Z</time>
      </trkpt>
      <trkpt lat="62.99138" lon="7.19424">
        <ele>65.898216</ele>
        <time>2020-08-03T09:38:39.136Z</time>
      </trkpt>
      <trkpt lat="62.99136" lon="7.1945">
        <ele>65.969288</ele>
        <time>2020-08-03T09:38:42.116Z</time>
      </trkpt>
      <trkpt lat="62.99133" lon="7.19476">
        <ele>66.039162</ele>
        <time>2020-08-03T09:38:45.135Z</time>
      </trkpt>
      <trkpt lat="62.9913" lon="7.19502">
        <ele>66.110807</ele>
        <time>2020-08-03T09:38:48.098Z</time>
      </trkpt>
      <trkpt lat="62.99125" lon="7.1953">
        <ele>66.189469</ele>
        <time>2020-08-03T09:38:51.089Z</time>
      </trkpt>
      <trkpt lat="62.99122" lon="7.19549">
        <ele>66.208009</ele>
        <time>2020-08-03T09:38:53.095Z</time>
      </trkpt>
      <trkpt lat="62.9912" lon="7.19568">
        <ele>66.066133</ele>
        <time>2020-08-03T09:38:55.086Z</time>
      </trkpt>
      <trkpt lat="62.99117" lon="7.19588">
        <ele>65.924668</ele>
        <time>2020-08-03T09:38:57.088Z</time>
      </trkpt>
      <trkpt lat="62.99115" lon="7.19607">
        <ele>65.781466</ele>
        <time>2020-08-03T09:38:59.118Z</time>
      </trkpt>
      <trkpt lat="62.99111" lon="7.19627">
        <ele>65.636285</ele>
        <time>2020-08-03T09:39:01.116Z</time>
      </trkpt>
      <trkpt lat="62.99107" lon="7.19646">
        <ele>65.486386</ele>
        <time>2020-08-03T09:39:03.098Z</time>
      </trkpt>
      <trkpt lat="62.99103" lon="7.19665">
        <ele>65.331978</ele>
        <time>2020-08-03T09:39:05.103Z</time>
      </trkpt>
      <trkpt lat="62.99098" lon="7.19685">
        <ele>65.174298</ele>
        <time>2020-08-03T09:39:07.132Z</time>
      </trkpt>
      <trkpt lat="62.99093" lon="7.19705">
        <ele>65.015903</ele>
        <time>2020-08-03T09:39:09.091Z</time>
      </trkpt>
      <trkpt lat="62.99088" lon="7.19725">
        <ele>64.855141</ele>
        <time>2020-08-03T09:39:11.110Z</time>
      </trkpt>
      <trkpt lat="62.99082" lon="7.19746">
        <ele>64.682008</ele>
        <time>2020-08-03T09:39:13.117Z</time>
      </trkpt>
      <trkpt lat="62.99076" lon="7.19768">
        <ele>64.505906</ele>
        <time>2020-08-03T09:39:15.084Z</time>
      </trkpt>
      <trkpt lat="62.9907" lon="7.19789">
        <ele>64.332996</ele>
        <time>2020-08-03T09:39:17.100Z</time>
      </trkpt>
      <trkpt lat="62.99064" lon="7.19809">
        <ele>64.160797</ele>
        <time>2020-08-03T09:39:19.114Z</time>
      </trkpt>
      <trkpt lat="62.99058" lon="7.1983">
        <ele>63.989076</ele>
        <time>2020-08-03T09:39:21.104Z</time>
      </trkpt>
      <trkpt lat="62.99052" lon="7.1985">
        <ele>63.821361</ele>
        <time>2020-08-03T09:39:23.093Z</time>
      </trkpt>
      <trkpt lat="62.99047" lon="7.1987">
        <ele>63.65839</ele>
        <time>2020-08-03T09:39:25.109Z</time>
      </trkpt>
      <trkpt lat="62.99041" lon="7.1989">
        <ele>63.49706</ele>
        <time>2020-08-03T09:39:27.103Z</time>
      </trkpt>
      <trkpt lat="62.99036" lon="7.19908">
        <ele>63.505725</ele>
        <time>2020-08-03T09:39:29.102Z</time>
      </trkpt>
      <trkpt lat="62.9903" lon="7.19927">
        <ele>63.562901</ele>
        <time>2020-08-03T09:39:31.092Z</time>
      </trkpt>
      <trkpt lat="62.99025" lon="7.19943">
        <ele>63.616499</ele>
        <time>2020-08-03T09:39:33.095Z</time>
      </trkpt>
      <trkpt lat="62.9902" lon="7.19959">
        <ele>63.67001</ele>
        <time>2020-08-03T09:39:35.092Z</time>
      </trkpt>
      <trkpt lat="62.99015" lon="7.19976">
        <ele>63.72506</ele>
        <time>2020-08-03T09:39:37.123Z</time>
      </trkpt>
      <trkpt lat="62.9901" lon="7.19994">
        <ele>63.779948</ele>
        <time>2020-08-03T09:39:39.114Z</time>
      </trkpt>
      <trkpt lat="62.99005" lon="7.20011">
        <ele>63.834858</ele>
        <time>2020-08-03T09:39:41.107Z</time>
      </trkpt>
      <trkpt lat="62.98997" lon="7.20035">
        <ele>63.912431</ele>
        <time>2020-08-03T09:39:44.107Z</time>
      </trkpt>
      <trkpt lat="62.98991" lon="7.20059">
        <ele>63.986615</ele>
        <time>2020-08-03T09:39:47.105Z</time>
      </trkpt>
      <trkpt lat="62.98984" lon="7.20082">
        <ele>64.059724</ele>
        <time>2020-08-03T09:39:50.096Z</time>
      </trkpt>
      <trkpt lat="62.98978" lon="7.20105">
        <ele>64.133061</ele>
        <time>2020-08-03T09:39:53.118Z</time>
      </trkpt>
      <trkpt lat="62.98971" lon="7.20129">
        <ele>64.206322</ele>
        <time>2020-08-03T09:39:56.098Z</time>
      </trkpt>
      <trkpt lat="62.98965" lon="7.20153">
        <ele>64.279448</ele>
        <time>2020-08-03T09:39:59.129Z</time>
      </trkpt>
      <trkpt lat="62.9896" lon="7.20175">
        <ele>64.348708</ele>
        <time>2020-08-03T09:40:02.116Z</time>
      </trkpt>
      <trkpt lat="62.98954" lon="7.20198">
        <ele>64.415968</ele>
        <time>2020-08-03T09:40:05.109Z</time>
      </trkpt>
      <trkpt lat="62.98949" lon="7.2022">
        <ele>64.48344</ele>
        <time>2020-08-03T09:40:08.098Z</time>
      </trkpt>
      <trkpt lat="62.98944" lon="7.20243">
        <ele>64.544867</ele>
        <time>2020-08-03T09:40:11.113Z</time>
      </trkpt>
      <trkpt lat="62.9894" lon="7.20263">
        <ele>64.595577</ele>
        <time>2020-08-03T09:40:14.106Z</time>
      </trkpt>
      <trkpt lat="62.98935" lon="7.20283">
        <ele>64.646086</ele>
        <time>2020-08-03T09:40:17.139Z</time>
      </trkpt>
      <trkpt lat="62.98931" lon="7.20304">
        <ele>64.695967</ele>
        <time>2020-08-03T09:40:20.096Z</time>
      </trkpt>
      <trkpt lat="62.98927" lon="7.20325">
        <ele>64.747068</ele>
        <time>2020-08-03T09:40:23.096Z</time>
      </trkpt>
      <trkpt lat="62.98923" lon="7.20345">
        <ele>64.796185</ele>
        <time>2020-08-03T09:40:26.111Z</time>
      </trkpt>
      <trkpt lat="62.98919" lon="7.20364">
        <ele>64.843418</ele>
        <time>2020-08-03T09:40:29.128Z</time>
      </trkpt>
      <trkpt lat="62.98915" lon="7.20383">
        <ele>64.892155</ele>
        <time>2020-08-03T09:40:32.108Z</time>
      </trkpt>
      <trkpt lat="62.9891" lon="7.20402">
        <ele>64.93919</ele>
        <time>2020-08-03T09:40:35.108Z</time>
      </trkpt>
      <trkpt lat="62.98907" lon="7.20421">
        <ele>64.984387</ele>
        <time>2020-08-03T09:40:38.130Z</time>
      </trkpt>
      <trkpt lat="62.98903" lon="7.2044">
        <ele>65.03203</ele>
        <time>2020-08-03T09:40:41.104Z</time>
      </trkpt>
      <trkpt lat="62.98899" lon="7.2046">
        <ele>65.080713</ele>
        <time>2020-08-03T09:40:44.087Z</time>
      </trkpt>
      <trkpt lat="62.98895" lon="7.2048">
        <ele>65.127389</ele>
        <time>2020-08-03T09:40:47.093Z</time>
      </trkpt>
      <trkpt lat="62.98891" lon="7.20499">
        <ele>65.175242</ele>
        <time>2020-08-03T09:40:50.091Z</time>
      </trkpt>
      <trkpt lat="62.98887" lon="7.20519">
        <ele>65.225</ele>
        <time>2020-08-03T09:40:53.147Z</time>
      </trkpt>
      <trkpt lat="62.98882" lon="7.20538">
        <ele>65.273935</ele>
        <time>2020-08-03T09:40:56.112Z</time>
      </trkpt>
      <trkpt lat="62.98878" lon="7.20557">
        <ele>65.319969</ele>
        <time>2020-08-03T09:40:59.093Z</time>
      </trkpt>
      <trkpt lat="62.98875" lon="7.20576">
        <ele>65.365608</ele>
        <time>2020-08-03T09:41:02.100Z</time>
      </trkpt>
      <trkpt lat="62.98871" lon="7.20594">
        <ele>65.406976</ele>
        <time>2020-08-03T09:41:05.128Z</time>
      </trkpt>
      <trkpt lat="62.98868" lon="7.20618">
        <ele>65.429527</ele>
        <time>2020-08-03T09:41:09.092Z</time>
      </trkpt>
      <trkpt lat="62.98866" lon="7.20638">
        <ele>65.448447</ele>
        <time>2020-08-03T09:41:12.108Z</time>
      </trkpt>
      <trkpt lat="62.98864" lon="7.20658">
        <ele>65.467472</ele>
        <time>2020-08-03T09:41:15.082Z</time>
      </trkpt>
      <trkpt lat="62.98862" lon="7.20684">
        <ele>65.492033</ele>
        <time>2020-08-03T09:41:19.104Z</time>
      </trkpt>
      <trkpt lat="62.9886" lon="7.20706">
        <ele>65.513057</ele>
        <time>2020-08-03T09:41:22.100Z</time>
      </trkpt>
      <trkpt lat="62.98858" lon="7.20729">
        <ele>65.535061</ele>
        <time>2020-08-03T09:41:25.098Z</time>
      </trkpt>
      <trkpt lat="62.98856" lon="7.20752">
        <ele>65.556413</ele>
        <time>2020-08-03T09:41:28.101Z</time>
      </trkpt>
      <trkpt lat="62.98854" lon="7.20776">
        <ele>65.578376</ele>
        <time>2020-08-03T09:41:31.112Z</time>
      </trkpt>
      <trkpt lat="62.98853" lon="7.208">
        <ele>65.601117</ele>
        <time>2020-08-03T09:41:34.106Z</time>
      </trkpt>
      <trkpt lat="62.98852" lon="7.20825">
        <ele>65.624642</ele>
        <time>2020-08-03T09:41:37.112Z</time>
      </trkpt>
      <trkpt lat="62.98851" lon="7.20853">
        <ele>65.650334</ele>
        <time>2020-08-03T09:41:40.115Z</time>
      </trkpt>
      <trkpt lat="62.98849" lon="7.20882">
        <ele>65.677521</ele>
        <time>2020-08-03T09:41:43.084Z</time>
      </trkpt>
      <trkpt lat="62.98847" lon="7.20911">
        <ele>65.705222</ele>
        <time>2020-08-03T09:41:46.090Z</time>
      </trkpt>
      <trkpt lat="62.98845" lon="7.20933">
        <ele>65.725136</ele>
        <time>2020-08-03T09:41:48.133Z</time>
      </trkpt>
      <trkpt lat="62.98844" lon="7.20953">
        <ele>65.743858</ele>
        <time>2020-08-03T09:41:50.096Z</time>
      </trkpt>
      <trkpt lat="62.98843" lon="7.20973">
        <ele>65.762985</ele>
        <time>2020-08-03T09:41:52.110Z</time>
      </trkpt>
      <trkpt lat="62.98842" lon="7.20993">
        <ele>65.64255</ele>
        <time>2020-08-03T09:41:54.091Z</time>
      </trkpt>
      <trkpt lat="62.98841" lon="7.21014">
        <ele>65.411657</ele>
        <time>2020-08-03T09:41:56.169Z</time>
      </trkpt>
      <trkpt lat="62.98842" lon="7.21035">
        <ele>65.168064</ele>
        <time>2020-08-03T09:41:58.091Z</time>
      </trkpt>
      <trkpt lat="62.98848" lon="7.21052">
        <ele>64.931382</ele>
        <time>2020-08-03T09:42:00.110Z</time>
      </trkpt>
      <trkpt lat="62.98856" lon="7.21063">
        <ele>64.680379</ele>
        <time>2020-08-03T09:42:02.103Z</time>
      </trkpt>
      <trkpt lat="62.98869" lon="7.21068">
        <ele>64.355131</ele>
        <time>2020-08-03T09:42:05.134Z</time>
      </trkpt>
      <trkpt lat="62.9888" lon="7.21074">
        <ele>64.080981</ele>
        <time>2020-08-03T09:42:07.133Z</time>
      </trkpt>
      <trkpt lat="62.98893" lon="7.21083">
        <ele>63.736612</ele>
        <time>2020-08-03T09:42:09.109Z</time>
      </trkpt>
      <trkpt lat="62.98907" lon="7.21095">
        <ele>63.347106</ele>
        <time>2020-08-03T09:42:11.094Z</time>
      </trkpt>
      <trkpt lat="62.98922" lon="7.21107">
        <ele>62.949694</ele>
        <time>2020-08-03T09:42:13.112Z</time>
      </trkpt>
      <trkpt lat="62.98937" lon="7.21121">
        <ele>62.546579</ele>
        <time>2020-08-03T09:42:15.097Z</time>
      </trkpt>
      <trkpt lat="62.98952" lon="7.21134">
        <ele>62.134192</ele>
        <time>2020-08-03T09:42:17.088Z</time>
      </trkpt>
      <trkpt lat="62.98967" lon="7.21148">
        <ele>61.732954</ele>
        <time>2020-08-03T09:42:19.087Z</time>
      </trkpt>
      <trkpt lat="62.98981" lon="7.21162">
        <ele>61.353749</ele>
        <time>2020-08-03T09:42:21.099Z</time>
      </trkpt>
      <trkpt lat="62.98994" lon="7.21177">
        <ele>61.067074</ele>
        <time>2020-08-03T09:42:23.098Z</time>
      </trkpt>
      <trkpt lat="62.99006" lon="7.21196">
        <ele>60.807742</ele>
        <time>2020-08-03T09:42:25.108Z</time>
      </trkpt>
      <trkpt lat="62.99017" lon="7.21218">
        <ele>60.550946</ele>
        <time>2020-08-03T09:42:27.092Z</time>
      </trkpt>
      <trkpt lat="62.99026" lon="7.21243">
        <ele>60.294246</ele>
        <time>2020-08-03T09:42:29.136Z</time>
      </trkpt>
      <trkpt lat="62.99034" lon="7.21269">
        <ele>60.037516</ele>
        <time>2020-08-03T09:42:31.083Z</time>
      </trkpt>
      <trkpt lat="62.99041" lon="7.21297">
        <ele>59.783357</ele>
        <time>2020-08-03T09:42:33.112Z</time>
      </trkpt>
      <trkpt lat="62.99047" lon="7.21326">
        <ele>59.527553</ele>
        <time>2020-08-03T09:42:35.095Z</time>
      </trkpt>
      <trkpt lat="62.99053" lon="7.21355">
        <ele>59.272469</ele>
        <time>2020-08-03T09:42:37.095Z</time>
      </trkpt>
      <trkpt lat="62.99057" lon="7.21383">
        <ele>59.036921</ele>
        <time>2020-08-03T09:42:39.112Z</time>
      </trkpt>
      <trkpt lat="62.99061" lon="7.2141">
        <ele>58.808197</ele>
        <time>2020-08-03T09:42:41.092Z</time>
      </trkpt>
      <trkpt lat="62.99065" lon="7.21436">
        <ele>58.585407</ele>
        <time>2020-08-03T09:42:43.092Z</time>
      </trkpt>
      <trkpt lat="62.99068" lon="7.21461">
        <ele>58.38018</ele>
        <time>2020-08-03T09:42:45.123Z</time>
      </trkpt>
      <trkpt lat="62.99071" lon="7.21485">
        <ele>58.183756</ele>
        <time>2020-08-03T09:42:47.105Z</time>
      </trkpt>
      <trkpt lat="62.99074" lon="7.21507">
        <ele>58.217557</ele>
        <time>2020-08-03T09:42:49.117Z</time>
      </trkpt>
      <trkpt lat="62.99078" lon="7.21528">
        <ele>58.456328</ele>
        <time>2020-08-03T09:42:51.122Z</time>
      </trkpt>
      <trkpt lat="62.99082" lon="7.21549">
        <ele>58.682045</ele>
        <time>2020-08-03T09:42:53.110Z</time>
      </trkpt>
      <trkpt lat="62.99085" lon="7.21567">
        <ele>58.886072</ele>
        <time>2020-08-03T09:42:55.099Z</time>
      </trkpt>
      <trkpt lat="62.9909" lon="7.21593">
        <ele>59.182806</ele>
        <time>2020-08-03T09:42:58.116Z</time>
      </trkpt>
      <trkpt lat="62.99096" lon="7.2162">
        <ele>59.481445</ele>
        <time>2020-08-03T09:43:01.087Z</time>
      </trkpt>
      <trkpt lat="62.99102" lon="7.21644">
        <ele>59.761995</ele>
        <time>2020-08-03T09:43:04.087Z</time>
      </trkpt>
      <trkpt lat="62.99108" lon="7.2167">
        <ele>60.067479</ele>
        <time>2020-08-03T09:43:07.150Z</time>
      </trkpt>
      <trkpt lat="62.99112" lon="7.21687">
        <ele>60.270873</ele>
        <time>2020-08-03T09:43:09.105Z</time>
      </trkpt>
      <trkpt lat="62.99116" lon="7.21706">
        <ele>60.484101</ele>
        <time>2020-08-03T09:43:11.100Z</time>
      </trkpt>
      <trkpt lat="62.9912" lon="7.21725">
        <ele>60.701048</ele>
        <time>2020-08-03T09:43:13.089Z</time>
      </trkpt>
      <trkpt lat="62.99125" lon="7.21744">
        <ele>60.92147</ele>
        <time>2020-08-03T09:43:15.084Z</time>
      </trkpt>
      <trkpt lat="62.9913" lon="7.21762">
        <ele>61.145916</ele>
        <time>2020-08-03T09:43:17.110Z</time>
      </trkpt>
      <trkpt lat="62.99135" lon="7.21781">
        <ele>61.371496</ele>
        <time>2020-08-03T09:43:19.094Z</time>
      </trkpt>
      <trkpt lat="62.9914" lon="7.218">
        <ele>61.596456</ele>
        <time>2020-08-03T09:43:21.114Z</time>
      </trkpt>
      <trkpt lat="62.99145" lon="7.21819">
        <ele>61.819112</ele>
        <time>2020-08-03T09:43:23.111Z</time>
      </trkpt>
      <trkpt lat="62.9915" lon="7.21838">
        <ele>62.047894</ele>
        <time>2020-08-03T09:43:25.106Z</time>
      </trkpt>
      <trkpt lat="62.99155" lon="7.21855">
        <ele>62.149532</ele>
        <time>2020-08-03T09:43:27.130Z</time>
      </trkpt>
      <trkpt lat="62.99162" lon="7.21879">
        <ele>62.048648</ele>
        <time>2020-08-03T09:43:30.109Z</time>
      </trkpt>
      <trkpt lat="62.9917" lon="7.21902">
        <ele>61.94928</ele>
        <time>2020-08-03T09:43:33.123Z</time>
      </trkpt>
      <trkpt lat="62.99176" lon="7.21917">
        <ele>61.878937</ele>
        <time>2020-08-03T09:43:35.116Z</time>
      </trkpt>
      <trkpt lat="62.99183" lon="7.21932">
        <ele>61.806344</ele>
        <time>2020-08-03T09:43:37.109Z</time>
      </trkpt>
      <trkpt lat="62.99194" lon="7.2195">
        <ele>61.705657</ele>
        <time>2020-08-03T09:43:40.093Z</time>
      </trkpt>
      <trkpt lat="62.99204" lon="7.21965">
        <ele>61.60944</ele>
        <time>2020-08-03T09:43:43.091Z</time>
      </trkpt>
      <trkpt lat="62.99216" lon="7.21978">
        <ele>61.507773</ele>
        <time>2020-08-03T09:43:46.094Z</time>
      </trkpt>
      <trkpt lat="62.99225" lon="7.21985">
        <ele>61.436086</ele>
        <time>2020-08-03T09:43:48.106Z</time>
      </trkpt>
      <trkpt lat="62.99234" lon="7.21991">
        <ele>61.364669</ele>
        <time>2020-08-03T09:43:50.108Z</time>
      </trkpt>
      <trkpt lat="62.99243" lon="7.21996">
        <ele>61.290308</ele>
        <time>2020-08-03T09:43:52.109Z</time>
      </trkpt>
      <trkpt lat="62.99253" lon="7.22">
        <ele>61.21407</ele>
        <time>2020-08-03T09:43:54.095Z</time>
      </trkpt>
      <trkpt lat="62.99263" lon="7.22003">
        <ele>61.138608</ele>
        <time>2020-08-03T09:43:56.132Z</time>
      </trkpt>
      <trkpt lat="62.99273" lon="7.22006">
        <ele>61.063053</ele>
        <time>2020-08-03T09:43:58.092Z</time>
      </trkpt>
      <trkpt lat="62.99283" lon="7.22009">
        <ele>60.985986</ele>
        <time>2020-08-03T09:44:00.104Z</time>
      </trkpt>
      <trkpt lat="62.99293" lon="7.22012">
        <ele>60.908251</ele>
        <time>2020-08-03T09:44:02.084Z</time>
      </trkpt>
      <trkpt lat="62.99303" lon="7.22015">
        <ele>60.829043</ele>
        <time>2020-08-03T09:44:04.093Z</time>
      </trkpt>
      <trkpt lat="62.99314" lon="7.22017">
        <ele>60.787983</ele>
        <time>2020-08-03T09:44:06.106Z</time>
      </trkpt>
      <trkpt lat="62.99324" lon="7.22019">
        <ele>60.765597</ele>
        <time>2020-08-03T09:44:08.094Z</time>
      </trkpt>
      <trkpt lat="62.99334" lon="7.22022">
        <ele>60.743598</ele>
        <time>2020-08-03T09:44:10.108Z</time>
      </trkpt>
      <trkpt lat="62.99344" lon="7.22023">
        <ele>60.723183</ele>
        <time>2020-08-03T09:44:12.116Z</time>
      </trkpt>
      <trkpt lat="62.99353" lon="7.22025">
        <ele>60.703647</ele>
        <time>2020-08-03T09:44:14.091Z</time>
      </trkpt>
      <trkpt lat="62.99366" lon="7.22026">
        <ele>60.67572</ele>
        <time>2020-08-03T09:44:17.089Z</time>
      </trkpt>
      <trkpt lat="62.99379" lon="7.22026">
        <ele>60.648281</ele>
        <time>2020-08-03T09:44:20.111Z</time>
      </trkpt>
      <trkpt lat="62.99391" lon="7.22025">
        <ele>60.621478</ele>
        <time>2020-08-03T09:44:23.117Z</time>
      </trkpt>
      <trkpt lat="62.99403" lon="7.22025">
        <ele>60.595104</ele>
        <time>2020-08-03T09:44:26.085Z</time>
      </trkpt>
      <trkpt lat="62.99415" lon="7.22024">
        <ele>60.570236</ele>
        <time>2020-08-03T09:44:29.111Z</time>
      </trkpt>
      <trkpt lat="62.99425" lon="7.22026">
        <ele>60.548054</ele>
        <time>2020-08-03T09:44:32.087Z</time>
      </trkpt>
      <trkpt lat="62.99436" lon="7.22028">
        <ele>60.525685</ele>
        <time>2020-08-03T09:44:35.099Z</time>
      </trkpt>
      <trkpt lat="62.99446" lon="7.22032">
        <ele>60.503689</ele>
        <time>2020-08-03T09:44:38.105Z</time>
      </trkpt>
      <trkpt lat="62.99456" lon="7.22042">
        <ele>60.480147</ele>
        <time>2020-08-03T09:44:41.111Z</time>
      </trkpt>
      <trkpt lat="62.99464" lon="7.22051">
        <ele>60.460665</ele>
        <time>2020-08-03T09:44:43.107Z</time>
      </trkpt>
      <trkpt lat="62.99473" lon="7.22065">
        <ele>60.437796</ele>
        <time>2020-08-03T09:44:45.099Z</time>
      </trkpt>
      <trkpt lat="62.99483" lon="7.22081">
        <ele>60.363313</ele>
        <time>2020-08-03T09:44:47.123Z</time>
      </trkpt>
      <trkpt lat="62.99494" lon="7.22096">
        <ele>60.129699</ele>
        <time>2020-08-03T09:44:49.112Z</time>
      </trkpt>
      <trkpt lat="62.99506" lon="7.22109">
        <ele>59.895116</ele>
        <time>2020-08-03T09:44:51.095Z</time>
      </trkpt>
      <trkpt lat="62.99519" lon="7.2212">
        <ele>59.646631</ele>
        <time>2020-08-03T09:44:53.115Z</time>
      </trkpt>
      <trkpt lat="62.99532" lon="7.22131">
        <ele>59.390586</ele>
        <time>2020-08-03T09:44:55.098Z</time>
      </trkpt>
      <trkpt lat="62.99545" lon="7.22143">
        <ele>59.146919</ele>
        <time>2020-08-03T09:44:57.098Z</time>
      </trkpt>
      <trkpt lat="62.99557" lon="7.22157">
        <ele>58.896257</ele>
        <time>2020-08-03T09:44:59.127Z</time>
      </trkpt>
      <trkpt lat="62.99569" lon="7.22172">
        <ele>58.651933</ele>
        <time>2020-08-03T09:45:01.113Z</time>
      </trkpt>
      <trkpt lat="62.99581" lon="7.22187">
        <ele>58.410962</ele>
        <time>2020-08-03T09:45:03.096Z</time>
      </trkpt>
      <trkpt lat="62.99592" lon="7.22201">
        <ele>58.174048</ele>
        <time>2020-08-03T09:45:05.092Z</time>
      </trkpt>
      <trkpt lat="62.99603" lon="7.22214">
        <ele>57.962509</ele>
        <time>2020-08-03T09:45:07.127Z</time>
      </trkpt>
      <trkpt lat="62.99612" lon="7.22226">
        <ele>57.767734</ele>
        <time>2020-08-03T09:45:09.117Z</time>
      </trkpt>
      <trkpt lat="62.99621" lon="7.22237">
        <ele>57.587403</ele>
        <time>2020-08-03T09:45:11.099Z</time>
      </trkpt>
      <trkpt lat="62.9963" lon="7.22247">
        <ele>57.40543</ele>
        <time>2020-08-03T09:45:13.095Z</time>
      </trkpt>
      <trkpt lat="62.99639" lon="7.22256">
        <ele>57.23504</ele>
        <time>2020-08-03T09:45:15.104Z</time>
      </trkpt>
      <trkpt lat="62.9965" lon="7.22269">
        <ele>57.291543</ele>
        <time>2020-08-03T09:45:18.133Z</time>
      </trkpt>
      <trkpt lat="62.99661" lon="7.22285">
        <ele>57.376531</ele>
        <time>2020-08-03T09:45:21.116Z</time>
      </trkpt>
      <trkpt lat="62.99672" lon="7.223">
        <ele>57.462574</ele>
        <time>2020-08-03T09:45:24.153Z</time>
      </trkpt>
      <trkpt lat="62.99682" lon="7.22316">
        <ele>57.547764</ele>
        <time>2020-08-03T09:45:27.119Z</time>
      </trkpt>
      <trkpt lat="62.99693" lon="7.22332">
        <ele>57.634865</ele>
        <time>2020-08-03T09:45:30.123Z</time>
      </trkpt>
      <trkpt lat="62.99704" lon="7.22347">
        <ele>57.7194</ele>
        <time>2020-08-03T09:45:33.127Z</time>
      </trkpt>
      <trkpt lat="62.99714" lon="7.22363">
        <ele>57.805512</ele>
        <time>2020-08-03T09:45:36.093Z</time>
      </trkpt>
      <trkpt lat="62.99722" lon="7.22375">
        <ele>57.865905</ele>
        <time>2020-08-03T09:45:38.117Z</time>
      </trkpt>
      <trkpt lat="62.99729" lon="7.22386">
        <ele>57.926676</ele>
        <time>2020-08-03T09:45:40.124Z</time>
      </trkpt>
      <trkpt lat="62.99737" lon="7.22397">
        <ele>57.988131</ele>
        <time>2020-08-03T09:45:42.107Z</time>
      </trkpt>
      <trkpt lat="62.99744" lon="7.22409">
        <ele>58.050132</ele>
        <time>2020-08-03T09:45:44.111Z</time>
      </trkpt>
      <trkpt lat="62.99751" lon="7.22423">
        <ele>58.11259</ele>
        <time>2020-08-03T09:45:46.125Z</time>
      </trkpt>
      <trkpt lat="62.99759" lon="7.2244">
        <ele>58.183882</ele>
        <time>2020-08-03T09:45:48.112Z</time>
      </trkpt>
      <trkpt lat="62.99766" lon="7.2246">
        <ele>58.26335</ele>
        <time>2020-08-03T09:45:50.116Z</time>
      </trkpt>
      <trkpt lat="62.99772" lon="7.22482">
        <ele>58.340538</ele>
        <time>2020-08-03T09:45:52.103Z</time>
      </trkpt>
      <trkpt lat="62.99778" lon="7.22504">
        <ele>58.41206</ele>
        <time>2020-08-03T09:45:54.110Z</time>
      </trkpt>
      <trkpt lat="62.99782" lon="7.22527">
        <ele>58.231054</ele>
        <time>2020-08-03T09:45:56.095Z</time>
      </trkpt>
      <trkpt lat="62.99786" lon="7.22549">
        <ele>58.057234</ele>
        <time>2020-08-03T09:45:58.108Z</time>
      </trkpt>
      <trkpt lat="62.99789" lon="7.22572">
        <ele>57.882722</ele>
        <time>2020-08-03T09:46:00.097Z</time>
      </trkpt>
      <trkpt lat="62.99793" lon="7.22594">
        <ele>57.710014</ele>
        <time>2020-08-03T09:46:02.112Z</time>
      </trkpt>
      <trkpt lat="62.99797" lon="7.22616">
        <ele>57.535254</ele>
        <time>2020-08-03T09:46:04.087Z</time>
      </trkpt>
      <trkpt lat="62.99801" lon="7.22639">
        <ele>57.358662</ele>
        <time>2020-08-03T09:46:06.127Z</time>
      </trkpt>
      <trkpt lat="62.99804" lon="7.22661">
        <ele>57.185003</ele>
        <time>2020-08-03T09:46:08.095Z</time>
      </trkpt>
      <trkpt lat="62.99808" lon="7.22683">
        <ele>57.016845</ele>
        <time>2020-08-03T09:46:10.103Z</time>
      </trkpt>
      <trkpt lat="62.99812" lon="7.22704">
        <ele>56.852112</ele>
        <time>2020-08-03T09:46:12.108Z</time>
      </trkpt>
      <trkpt lat="62.99815" lon="7.22725">
        <ele>56.686565</ele>
        <time>2020-08-03T09:46:14.112Z</time>
      </trkpt>
      <trkpt lat="62.99818" lon="7.22747">
        <ele>56.522401</ele>
        <time>2020-08-03T09:46:16.112Z</time>
      </trkpt>
      <trkpt lat="62.9982" lon="7.22769">
        <ele>56.358019</ele>
        <time>2020-08-03T09:46:18.139Z</time>
      </trkpt>
      <trkpt lat="62.99821" lon="7.22792">
        <ele>56.18421</ele>
        <time>2020-08-03T09:46:20.108Z</time>
      </trkpt>
      <trkpt lat="62.99822" lon="7.22817">
        <ele>56.003967</ele>
        <time>2020-08-03T09:46:22.092Z</time>
      </trkpt>
      <trkpt lat="62.99821" lon="7.22842">
        <ele>55.822659</ele>
        <time>2020-08-03T09:46:24.100Z</time>
      </trkpt>
      <trkpt lat="62.9982" lon="7.22866">
        <ele>55.647469</ele>
        <time>2020-08-03T09:46:26.133Z</time>
      </trkpt>
      <trkpt lat="62.99819" lon="7.2289">
        <ele>55.509951</ele>
        <time>2020-08-03T09:46:28.109Z</time>
      </trkpt>
      <trkpt lat="62.99817" lon="7.22914">
        <ele>55.474865</ele>
        <time>2020-08-03T09:46:30.091Z</time>
      </trkpt>
      <trkpt lat="62.99816" lon="7.22937">
        <ele>55.440117</ele>
        <time>2020-08-03T09:46:32.108Z</time>
      </trkpt>
      <trkpt lat="62.99814" lon="7.22961">
        <ele>55.404634</ele>
        <time>2020-08-03T09:46:34.100Z</time>
      </trkpt>
      <trkpt lat="62.99812" lon="7.22984">
        <ele>55.370844</ele>
        <time>2020-08-03T09:46:36.131Z</time>
      </trkpt>
      <trkpt lat="62.99811" lon="7.23007">
        <ele>55.337774</ele>
        <time>2020-08-03T09:46:38.093Z</time>
      </trkpt>
      <trkpt lat="62.9981" lon="7.23028">
        <ele>55.306924</ele>
        <time>2020-08-03T09:46:40.128Z</time>
      </trkpt>
      <trkpt lat="62.99809" lon="7.23048">
        <ele>55.277107</ele>
        <time>2020-08-03T09:46:42.116Z</time>
      </trkpt>
      <trkpt lat="62.99811" lon="7.23077">
        <ele>55.234698</ele>
        <time>2020-08-03T09:46:45.111Z</time>
      </trkpt>
      <trkpt lat="62.99814" lon="7.23105">
        <ele>55.193993</ele>
        <time>2020-08-03T09:46:48.101Z</time>
      </trkpt>
      <trkpt lat="62.99817" lon="7.23128">
        <ele>55.157935</ele>
        <time>2020-08-03T09:46:51.120Z</time>
      </trkpt>
      <trkpt lat="62.99821" lon="7.23152">
        <ele>55.12103</ele>
        <time>2020-08-03T09:46:54.096Z</time>
      </trkpt>
      <trkpt lat="62.99825" lon="7.23177">
        <ele>55.083032</ele>
        <time>2020-08-03T09:46:57.107Z</time>
      </trkpt>
      <trkpt lat="62.99829" lon="7.232">
        <ele>55.046752</ele>
        <time>2020-08-03T09:47:00.107Z</time>
      </trkpt>
      <trkpt lat="62.99833" lon="7.23223">
        <ele>55.009984</ele>
        <time>2020-08-03T09:47:03.127Z</time>
      </trkpt>
      <trkpt lat="62.99837" lon="7.23247">
        <ele>54.973327</ele>
        <time>2020-08-03T09:47:06.118Z</time>
      </trkpt>
      <trkpt lat="62.9984" lon="7.2327">
        <ele>54.981114</ele>
        <time>2020-08-03T09:47:09.090Z</time>
      </trkpt>
      <trkpt lat="62.99842" lon="7.23292">
        <ele>55.205574</ele>
        <time>2020-08-03T09:47:12.130Z</time>
      </trkpt>
      <trkpt lat="62.99845" lon="7.23313">
        <ele>55.430124</ele>
        <time>2020-08-03T09:47:15.114Z</time>
      </trkpt>
      <trkpt lat="62.99847" lon="7.23335">
        <ele>55.665687</ele>
        <time>2020-08-03T09:47:18.114Z</time>
      </trkpt>
      <trkpt lat="62.9985" lon="7.23359">
        <ele>55.914525</ele>
        <time>2020-08-03T09:47:21.094Z</time>
      </trkpt>
      <trkpt lat="62.99852" lon="7.23384">
        <ele>56.177295</ele>
        <time>2020-08-03T09:47:24.111Z</time>
      </trkpt>
      <trkpt lat="62.99856" lon="7.2341">
        <ele>56.448913</ele>
        <time>2020-08-03T09:47:27.106Z</time>
      </trkpt>
      <trkpt lat="62.99859" lon="7.23438">
        <ele>56.747902</ele>
        <time>2020-08-03T09:47:30.115Z</time>
      </trkpt>
      <trkpt lat="62.99861" lon="7.23457">
        <ele>56.951993</ele>
        <time>2020-08-03T09:47:32.090Z</time>
      </trkpt>
      <trkpt lat="62.99864" lon="7.23477">
        <ele>57.158066</ele>
        <time>2020-08-03T09:47:34.095Z</time>
      </trkpt>
      <trkpt lat="62.99866" lon="7.23496">
        <ele>57.363293</ele>
        <time>2020-08-03T09:47:36.141Z</time>
      </trkpt>
      <trkpt lat="62.99868" lon="7.23516">
        <ele>57.564858</ele>
        <time>2020-08-03T09:47:38.121Z</time>
      </trkpt>
      <trkpt lat="62.99871" lon="7.23544">
        <ele>57.861012</ele>
        <time>2020-08-03T09:47:41.096Z</time>
      </trkpt>
      <trkpt lat="62.99874" lon="7.23569">
        <ele>58.127901</ele>
        <time>2020-08-03T09:47:44.106Z</time>
      </trkpt>
      <trkpt lat="62.99877" lon="7.23593">
        <ele>58.380989</ele>
        <time>2020-08-03T09:47:47.092Z</time>
      </trkpt>
      <trkpt lat="62.99879" lon="7.23615">
        <ele>58.60644</ele>
        <time>2020-08-03T09:47:50.137Z</time>
      </trkpt>
      <trkpt lat="62.99881" lon="7.23635">
        <ele>58.812111</ele>
        <time>2020-08-03T09:47:53.098Z</time>
      </trkpt>
      <trkpt lat="62.99883" lon="7.23659">
        <ele>59.023462</ele>
        <time>2020-08-03T09:47:57.128Z</time>
      </trkpt>
      <trkpt lat="62.99886" lon="7.23681">
        <ele>59.124913</ele>
        <time>2020-08-03T09:48:01.106Z</time>
      </trkpt>
      <trkpt lat="62.9989" lon="7.23705">
        <ele>59.233615</ele>
        <time>2020-08-03T09:48:05.100Z</time>
      </trkpt>
      <trkpt lat="62.99893" lon="7.23728">
        <ele>59.335398</ele>
        <time>2020-08-03T09:48:09.139Z</time>
      </trkpt>
      <trkpt lat="62.99896" lon="7.2375">
        <ele>59.43586</ele>
        <time>2020-08-03T09:48:13.115Z</time>
      </trkpt>
      <trkpt lat="62.99899" lon="7.23773">
        <ele>59.543998</ele>
        <time>2020-08-03T09:48:17.096Z</time>
      </trkpt>
      <trkpt lat="62.99901" lon="7.23794">
        <ele>59.6372</ele>
        <time>2020-08-03T09:48:20.094Z</time>
      </trkpt>
      <trkpt lat="62.99904" lon="7.23815">
        <ele>59.734453</ele>
        <time>2020-08-03T09:48:23.104Z</time>
      </trkpt>
      <trkpt lat="62.99908" lon="7.23838">
        <ele>59.84117</ele>
        <time>2020-08-03T09:48:26.092Z</time>
      </trkpt>
      <trkpt lat="62.99912" lon="7.23864">
        <ele>59.960628</ele>
        <time>2020-08-03T09:48:29.128Z</time>
      </trkpt>
      <trkpt lat="62.99916" lon="7.23891">
        <ele>60.087105</ele>
        <time>2020-08-03T09:48:32.097Z</time>
      </trkpt>
      <trkpt lat="62.9992" lon="7.23919">
        <ele>60.215863</ele>
        <time>2020-08-03T09:48:35.112Z</time>
      </trkpt>
      <trkpt lat="62.99925" lon="7.23946">
        <ele>60.340684</ele>
        <time>2020-08-03T09:48:38.103Z</time>
      </trkpt>
      <trkpt lat="62.99929" lon="7.23972">
        <ele>60.460553</ele>
        <time>2020-08-03T09:48:41.107Z</time>
      </trkpt>
      <trkpt lat="62.99932" lon="7.23998">
        <ele>60.578316</ele>
        <time>2020-08-03T09:48:44.097Z</time>
      </trkpt>
      <trkpt lat="62.99936" lon="7.24023">
        <ele>60.695692</ele>
        <time>2020-08-03T09:48:47.092Z</time>
      </trkpt>
      <trkpt lat="62.99939" lon="7.24049">
        <ele>60.732716</ele>
        <time>2020-08-03T09:48:50.084Z</time>
      </trkpt>
      <trkpt lat="62.99942" lon="7.24074">
        <ele>60.748358</ele>
        <time>2020-08-03T09:48:53.109Z</time>
      </trkpt>
      <trkpt lat="62.99945" lon="7.24096">
        <ele>60.762718</ele>
        <time>2020-08-03T09:48:56.134Z</time>
      </trkpt>
      <trkpt lat="62.99949" lon="7.24117">
        <ele>60.776111</ele>
        <time>2020-08-03T09:48:59.129Z</time>
      </trkpt>
      <trkpt lat="62.99951" lon="7.24139">
        <ele>60.789531</ele>
        <time>2020-08-03T09:49:02.103Z</time>
      </trkpt>
      <trkpt lat="62.99954" lon="7.24159">
        <ele>60.802484</ele>
        <time>2020-08-03T09:49:05.109Z</time>
      </trkpt>
      <trkpt lat="62.99957" lon="7.24179">
        <ele>60.81549</ele>
        <time>2020-08-03T09:49:08.123Z</time>
      </trkpt>
      <trkpt lat="62.9996" lon="7.242">
        <ele>60.828579</ele>
        <time>2020-08-03T09:49:11.113Z</time>
      </trkpt>
      <trkpt lat="62.99963" lon="7.2422">
        <ele>60.841162</ele>
        <time>2020-08-03T09:49:14.114Z</time>
      </trkpt>
      <trkpt lat="62.99966" lon="7.24241">
        <ele>60.854696</ele>
        <time>2020-08-03T09:49:17.114Z</time>
      </trkpt>
      <trkpt lat="62.9997" lon="7.24263">
        <ele>60.869193</ele>
        <time>2020-08-03T09:49:20.088Z</time>
      </trkpt>
      <trkpt lat="62.99974" lon="7.24287">
        <ele>60.884333</ele>
        <time>2020-08-03T09:49:23.118Z</time>
      </trkpt>
      <trkpt lat="62.99977" lon="7.24312">
        <ele>60.900404</ele>
        <time>2020-08-03T09:49:26.100Z</time>
      </trkpt>
      <trkpt lat="62.99981" lon="7.24339">
        <ele>60.917165</ele>
        <time>2020-08-03T09:49:29.094Z</time>
      </trkpt>
      <trkpt lat="62.99985" lon="7.24365">
        <ele>60.93424</ele>
        <time>2020-08-03T09:49:32.131Z</time>
      </trkpt>
      <trkpt lat="62.99988" lon="7.24384">
        <ele>60.946186</ele>
        <time>2020-08-03T09:49:34.127Z</time>
      </trkpt>
      <trkpt lat="62.99991" lon="7.24404">
        <ele>60.958931</ele>
        <time>2020-08-03T09:49:36.131Z</time>
      </trkpt>
      <trkpt lat="62.99994" lon="7.24425">
        <ele>60.994161</ele>
        <time>2020-08-03T09:49:38.116Z</time>
      </trkpt>
      <trkpt lat="62.99997" lon="7.24447">
        <ele>61.03396</ele>
        <time>2020-08-03T09:49:40.092Z</time>
      </trkpt>
      <trkpt lat="63.00001" lon="7.24471">
        <ele>61.076103</ele>
        <time>2020-08-03T09:49:42.117Z</time>
      </trkpt>
      <trkpt lat="63.00004" lon="7.24495">
        <ele>61.120546</ele>
        <time>2020-08-03T09:49:44.111Z</time>
      </trkpt>
      <trkpt lat="63.00008" lon="7.24522">
        <ele>61.167379</ele>
        <time>2020-08-03T09:49:46.123Z</time>
      </trkpt>
      <trkpt lat="63.00012" lon="7.24548">
        <ele>61.215629</ele>
        <time>2020-08-03T09:49:48.137Z</time>
      </trkpt>
      <trkpt lat="63.00016" lon="7.24575">
        <ele>61.263712</ele>
        <time>2020-08-03T09:49:50.100Z</time>
      </trkpt>
      <trkpt lat="63.00019" lon="7.24602">
        <ele>61.310321</ele>
        <time>2020-08-03T09:49:52.100Z</time>
      </trkpt>
      <trkpt lat="63.00023" lon="7.24627">
        <ele>61.356017</ele>
        <time>2020-08-03T09:49:54.128Z</time>
      </trkpt>
      <trkpt lat="63.00027" lon="7.24651">
        <ele>61.400421</ele>
        <time>2020-08-03T09:49:56.093Z</time>
      </trkpt>
      <trkpt lat="63.00031" lon="7.24675">
        <ele>61.444336</ele>
        <time>2020-08-03T09:49:58.111Z</time>
      </trkpt>
      <trkpt lat="63.00035" lon="7.247">
        <ele>61.488471</ele>
        <time>2020-08-03T09:50:00.111Z</time>
      </trkpt>
      <trkpt lat="63.00039" lon="7.24723">
        <ele>61.530289</ele>
        <time>2020-08-03T09:50:02.107Z</time>
      </trkpt>
      <trkpt lat="63.00042" lon="7.24745">
        <ele>61.570465</ele>
        <time>2020-08-03T09:50:04.107Z</time>
      </trkpt>
      <trkpt lat="63.00045" lon="7.24766">
        <ele>61.608196</ele>
        <time>2020-08-03T09:50:06.092Z</time>
      </trkpt>
      <trkpt lat="63.00048" lon="7.24787">
        <ele>61.64584</ele>
        <time>2020-08-03T09:50:08.113Z</time>
      </trkpt>
      <trkpt lat="63.00051" lon="7.24807">
        <ele>61.684429</ele>
        <time>2020-08-03T09:50:10.107Z</time>
      </trkpt>
      <trkpt lat="63.00054" lon="7.24826">
        <ele>61.72236</ele>
        <time>2020-08-03T09:50:12.102Z</time>
      </trkpt>
      <trkpt lat="63.00057" lon="7.24852">
        <ele>61.773842</ele>
        <time>2020-08-03T09:50:15.101Z</time>
      </trkpt>
      <trkpt lat="63.0006" lon="7.24876">
        <ele>61.819558</ele>
        <time>2020-08-03T09:50:18.117Z</time>
      </trkpt>
      <trkpt lat="63.00064" lon="7.24897">
        <ele>61.861236</ele>
        <time>2020-08-03T09:50:21.088Z</time>
      </trkpt>
      <trkpt lat="63.00067" lon="7.24918">
        <ele>61.901192</ele>
        <time>2020-08-03T09:50:24.104Z</time>
      </trkpt>
      <trkpt lat="63.00069" lon="7.24937">
        <ele>61.939419</ele>
        <time>2020-08-03T09:50:27.103Z</time>
      </trkpt>
      <trkpt lat="63.00072" lon="7.24956">
        <ele>61.977179</ele>
        <time>2020-08-03T09:50:30.111Z</time>
      </trkpt>
      <trkpt lat="63.00076" lon="7.2498">
        <ele>62.02423</ele>
        <time>2020-08-03T09:50:34.091Z</time>
      </trkpt>
      <trkpt lat="63.00079" lon="7.25002">
        <ele>62.065404</ele>
        <time>2020-08-03T09:50:38.119Z</time>
      </trkpt>
      <trkpt lat="63.00082" lon="7.25023">
        <ele>62.107262</ele>
        <time>2020-08-03T09:50:42.097Z</time>
      </trkpt>
      <trkpt lat="63.00086" lon="7.25048">
        <ele>62.156966</ele>
        <time>2020-08-03T09:50:46.112Z</time>
      </trkpt>
      <trkpt lat="63.00088" lon="7.2507">
        <ele>62.198604</ele>
        <time>2020-08-03T09:50:49.119Z</time>
      </trkpt>
      <trkpt lat="63.00092" lon="7.25094">
        <ele>62.245655</ele>
        <time>2020-08-03T09:50:52.076Z</time>
      </trkpt>
      <trkpt lat="63.00096" lon="7.25121">
        <ele>62.297974</ele>
        <time>2020-08-03T09:50:55.101Z</time>
      </trkpt>
      <trkpt lat="63.001" lon="7.25147">
        <ele>62.350098</ele>
        <time>2020-08-03T09:50:58.135Z</time>
      </trkpt>
      <trkpt lat="63.00103" lon="7.25172">
        <ele>62.39325</ele>
        <time>2020-08-03T09:51:01.121Z</time>
      </trkpt>
      <trkpt lat="63.00106" lon="7.25196">
        <ele>62.428641</ele>
        <time>2020-08-03T09:51:04.129Z</time>
      </trkpt>
      <trkpt lat="63.00109" lon="7.25219">
        <ele>62.463536</ele>
        <time>2020-08-03T09:51:07.158Z</time>
      </trkpt>
      <trkpt lat="63.00113" lon="7.25244">
        <ele>62.500116</ele>
        <time>2020-08-03T09:51:10.124Z</time>
      </trkpt>
      <trkpt lat="63.00116" lon="7.25269">
        <ele>62.537261</ele>
        <time>2020-08-03T09:51:13.112Z</time>
      </trkpt>
      <trkpt lat="63.0012" lon="7.25295">
        <ele>62.576474</ele>
        <time>2020-08-03T09:51:16.152Z</time>
      </trkpt>
      <trkpt lat="63.00124" lon="7.25322">
        <ele>62.617337</ele>
        <time>2020-08-03T09:51:19.122Z</time>
      </trkpt>
      <trkpt lat="63.00128" lon="7.25349">
        <ele>62.658279</ele>
        <time>2020-08-03T09:51:22.105Z</time>
      </trkpt>
      <trkpt lat="63.00131" lon="7.25368">
        <ele>62.687039</ele>
        <time>2020-08-03T09:51:24.092Z</time>
      </trkpt>
      <trkpt lat="63.00134" lon="7.25387">
        <ele>62.715317</ele>
        <time>2020-08-03T09:51:26.089Z</time>
      </trkpt>
      <trkpt lat="63.00138" lon="7.25414">
        <ele>62.756122</ele>
        <time>2020-08-03T09:51:29.117Z</time>
      </trkpt>
      <trkpt lat="63.00142" lon="7.25442">
        <ele>62.797745</ele>
        <time>2020-08-03T09:51:32.135Z</time>
      </trkpt>
      <trkpt lat="63.00145" lon="7.25461">
        <ele>62.826129</ele>
        <time>2020-08-03T09:51:34.091Z</time>
      </trkpt>
      <trkpt lat="63.00148" lon="7.25481">
        <ele>62.855293</ele>
        <time>2020-08-03T09:51:36.090Z</time>
      </trkpt>
      <trkpt lat="63.00151" lon="7.255">
        <ele>62.884589</ele>
        <time>2020-08-03T09:51:38.097Z</time>
      </trkpt>
      <trkpt lat="63.00154" lon="7.2552">
        <ele>62.914856</ele>
        <time>2020-08-03T09:51:40.118Z</time>
      </trkpt>
      <trkpt lat="63.00157" lon="7.25541">
        <ele>62.920607</ele>
        <time>2020-08-03T09:51:42.094Z</time>
      </trkpt>
      <trkpt lat="63.0016" lon="7.25562">
        <ele>62.814165</ele>
        <time>2020-08-03T09:51:44.127Z</time>
      </trkpt>
      <trkpt lat="63.00164" lon="7.25583">
        <ele>62.706116</ele>
        <time>2020-08-03T09:51:46.090Z</time>
      </trkpt>
      <trkpt lat="63.00167" lon="7.25604">
        <ele>62.598975</ele>
        <time>2020-08-03T09:51:48.106Z</time>
      </trkpt>
      <trkpt lat="63.0017" lon="7.25624">
        <ele>62.494361</ele>
        <time>2020-08-03T09:51:50.090Z</time>
      </trkpt>
      <trkpt lat="63.00173" lon="7.25645">
        <ele>62.390759</ele>
        <time>2020-08-03T09:51:52.094Z</time>
      </trkpt>
      <trkpt lat="63.00177" lon="7.25664">
        <ele>62.287044</ele>
        <time>2020-08-03T09:51:54.097Z</time>
      </trkpt>
      <trkpt lat="63.00181" lon="7.25685">
        <ele>62.179807</ele>
        <time>2020-08-03T09:51:56.108Z</time>
      </trkpt>
      <trkpt lat="63.00185" lon="7.25705">
        <ele>62.073842</ele>
        <time>2020-08-03T09:51:58.108Z</time>
      </trkpt>
      <trkpt lat="63.00189" lon="7.25726">
        <ele>61.966339</ele>
        <time>2020-08-03T09:52:00.113Z</time>
      </trkpt>
      <trkpt lat="63.00193" lon="7.25746">
        <ele>61.859102</ele>
        <time>2020-08-03T09:52:02.150Z</time>
      </trkpt>
      <trkpt lat="63.00197" lon="7.25767">
        <ele>61.748368</ele>
        <time>2020-08-03T09:52:04.101Z</time>
      </trkpt>
      <trkpt lat="63.00201" lon="7.2579">
        <ele>61.632142</ele>
        <time>2020-08-03T09:52:06.098Z</time>
      </trkpt>
      <trkpt lat="63.00205" lon="7.25813">
        <ele>61.51245</ele>
        <time>2020-08-03T09:52:08.116Z</time>
      </trkpt>
      <trkpt lat="63.00209" lon="7.25837">
        <ele>61.388619</ele>
        <time>2020-08-03T09:52:10.105Z</time>
      </trkpt>
      <trkpt lat="63.00213" lon="7.25862">
        <ele>61.260182</ele>
        <time>2020-08-03T09:52:12.103Z</time>
      </trkpt>
      <trkpt lat="63.00218" lon="7.25887">
        <ele>61.128747</ele>
        <time>2020-08-03T09:52:14.129Z</time>
      </trkpt>
      <trkpt lat="63.00223" lon="7.25913">
        <ele>60.95267</ele>
        <time>2020-08-03T09:52:16.094Z</time>
      </trkpt>
      <trkpt lat="63.00228" lon="7.25939">
        <ele>60.659244</ele>
        <time>2020-08-03T09:52:18.091Z</time>
      </trkpt>
      <trkpt lat="63.00233" lon="7.25965">
        <ele>60.364863</ele>
        <time>2020-08-03T09:52:20.136Z</time>
      </trkpt>
      <trkpt lat="63.00238" lon="7.25991">
        <ele>60.070257</ele>
        <time>2020-08-03T09:52:22.109Z</time>
      </trkpt>
      <trkpt lat="63.00243" lon="7.26016">
        <ele>59.7787</ele>
        <time>2020-08-03T09:52:24.095Z</time>
      </trkpt>
      <trkpt lat="63.00248" lon="7.26043">
        <ele>59.476747</ele>
        <time>2020-08-03T09:52:26.092Z</time>
      </trkpt>
      <trkpt lat="63.00254" lon="7.26071">
        <ele>59.157607</ele>
        <time>2020-08-03T09:52:28.106Z</time>
      </trkpt>
      <trkpt lat="63.00259" lon="7.261">
        <ele>58.836356</ele>
        <time>2020-08-03T09:52:30.129Z</time>
      </trkpt>
      <trkpt lat="63.00264" lon="7.26128">
        <ele>58.516628</ele>
        <time>2020-08-03T09:52:32.104Z</time>
      </trkpt>
      <trkpt lat="63.00268" lon="7.26156">
        <ele>58.211205</ele>
        <time>2020-08-03T09:52:34.116Z</time>
      </trkpt>
      <trkpt lat="63.00273" lon="7.26182">
        <ele>57.920466</ele>
        <time>2020-08-03T09:52:36.128Z</time>
      </trkpt>
      <trkpt lat="63.00278" lon="7.26207">
        <ele>57.635422</ele>
        <time>2020-08-03T09:52:38.110Z</time>
      </trkpt>
      <trkpt lat="63.00283" lon="7.26232">
        <ele>57.352209</ele>
        <time>2020-08-03T09:52:40.119Z</time>
      </trkpt>
      <trkpt lat="63.00287" lon="7.26257">
        <ele>57.070815</ele>
        <time>2020-08-03T09:52:42.130Z</time>
      </trkpt>
      <trkpt lat="63.00292" lon="7.26281">
        <ele>56.828023</ele>
        <time>2020-08-03T09:52:44.118Z</time>
      </trkpt>
      <trkpt lat="63.00296" lon="7.26305">
        <ele>56.645946</ele>
        <time>2020-08-03T09:52:46.140Z</time>
      </trkpt>
      <trkpt lat="63.003" lon="7.26329">
        <ele>56.464275</ele>
        <time>2020-08-03T09:52:48.118Z</time>
      </trkpt>
      <trkpt lat="63.00304" lon="7.26352">
        <ele>56.284604</ele>
        <time>2020-08-03T09:52:50.095Z</time>
      </trkpt>
      <trkpt lat="63.00309" lon="7.26375">
        <ele>56.106425</ele>
        <time>2020-08-03T09:52:52.125Z</time>
      </trkpt>
      <trkpt lat="63.00313" lon="7.26399">
        <ele>55.926328</ele>
        <time>2020-08-03T09:52:54.127Z</time>
      </trkpt>
      <trkpt lat="63.00318" lon="7.26422">
        <ele>55.745621</ele>
        <time>2020-08-03T09:52:56.107Z</time>
      </trkpt>
      <trkpt lat="63.00322" lon="7.26445">
        <ele>55.571397</ele>
        <time>2020-08-03T09:52:58.125Z</time>
      </trkpt>
      <trkpt lat="63.00326" lon="7.26467">
        <ele>55.401604</ele>
        <time>2020-08-03T09:53:00.093Z</time>
      </trkpt>
      <trkpt lat="63.0033" lon="7.26488">
        <ele>55.239018</ele>
        <time>2020-08-03T09:53:02.132Z</time>
      </trkpt>
      <trkpt lat="63.00334" lon="7.26509">
        <ele>55.075174</ele>
        <time>2020-08-03T09:53:04.109Z</time>
      </trkpt>
      <trkpt lat="63.00338" lon="7.2653">
        <ele>54.910604</ele>
        <time>2020-08-03T09:53:06.103Z</time>
      </trkpt>
      <trkpt lat="63.00342" lon="7.26552">
        <ele>54.74352</ele>
        <time>2020-08-03T09:53:08.110Z</time>
      </trkpt>
      <trkpt lat="63.00346" lon="7.26573">
        <ele>54.578288</ele>
        <time>2020-08-03T09:53:10.130Z</time>
      </trkpt>
      <trkpt lat="63.0035" lon="7.26596">
        <ele>54.406408</ele>
        <time>2020-08-03T09:53:12.109Z</time>
      </trkpt>
      <trkpt lat="63.00354" lon="7.26619">
        <ele>54.227015</ele>
        <time>2020-08-03T09:53:14.116Z</time>
      </trkpt>
      <trkpt lat="63.00359" lon="7.26644">
        <ele>54.082862</ele>
        <time>2020-08-03T09:53:16.098Z</time>
      </trkpt>
      <trkpt lat="63.00363" lon="7.26668">
        <ele>54.167003</ele>
        <time>2020-08-03T09:53:18.119Z</time>
      </trkpt>
      <trkpt lat="63.00367" lon="7.26691">
        <ele>54.248068</ele>
        <time>2020-08-03T09:53:20.111Z</time>
      </trkpt>
      <trkpt lat="63.00371" lon="7.26713">
        <ele>54.324428</ele>
        <time>2020-08-03T09:53:22.096Z</time>
      </trkpt>
      <trkpt lat="63.00375" lon="7.26735">
        <ele>54.40232</ele>
        <time>2020-08-03T09:53:24.132Z</time>
      </trkpt>
      <trkpt lat="63.00379" lon="7.26757">
        <ele>54.479151</ele>
        <time>2020-08-03T09:53:26.131Z</time>
      </trkpt>
      <trkpt lat="63.00382" lon="7.26779">
        <ele>54.552454</ele>
        <time>2020-08-03T09:53:28.111Z</time>
      </trkpt>
      <trkpt lat="63.00386" lon="7.26799">
        <ele>54.623842</ele>
        <time>2020-08-03T09:53:30.150Z</time>
      </trkpt>
      <trkpt lat="63.00389" lon="7.2682">
        <ele>54.693922</ele>
        <time>2020-08-03T09:53:32.092Z</time>
      </trkpt>
      <trkpt lat="63.00393" lon="7.2684">
        <ele>54.764709</ele>
        <time>2020-08-03T09:53:34.107Z</time>
      </trkpt>
      <trkpt lat="63.00397" lon="7.26861">
        <ele>54.836139</ele>
        <time>2020-08-03T09:53:36.130Z</time>
      </trkpt>
      <trkpt lat="63.004" lon="7.2688">
        <ele>54.902763</ele>
        <time>2020-08-03T09:53:38.115Z</time>
      </trkpt>
      <trkpt lat="63.00406" lon="7.26907">
        <ele>54.997671</ele>
        <time>2020-08-03T09:53:41.111Z</time>
      </trkpt>
      <trkpt lat="63.0041" lon="7.26933">
        <ele>55.091465</ele>
        <time>2020-08-03T09:53:44.100Z</time>
      </trkpt>
      <trkpt lat="63.00414" lon="7.26953">
        <ele>55.159584</ele>
        <time>2020-08-03T09:53:46.149Z</time>
      </trkpt>
      <trkpt lat="63.00418" lon="7.26973">
        <ele>55.231238</ele>
        <time>2020-08-03T09:53:48.114Z</time>
      </trkpt>
      <trkpt lat="63.00421" lon="7.26995">
        <ele>55.305696</ele>
        <time>2020-08-03T09:53:50.115Z</time>
      </trkpt>
      <trkpt lat="63.00426" lon="7.27018">
        <ele>55.385315</ele>
        <time>2020-08-03T09:53:52.113Z</time>
      </trkpt>
      <trkpt lat="63.0043" lon="7.2704">
        <ele>55.464094</ele>
        <time>2020-08-03T09:53:54.113Z</time>
      </trkpt>
      <trkpt lat="63.00434" lon="7.27064">
        <ele>55.546743</ele>
        <time>2020-08-03T09:53:56.094Z</time>
      </trkpt>
      <trkpt lat="63.00439" lon="7.27087">
        <ele>55.628461</ele>
        <time>2020-08-03T09:53:58.099Z</time>
      </trkpt>
      <trkpt lat="63.00443" lon="7.2711">
        <ele>55.70814</ele>
        <time>2020-08-03T09:54:00.118Z</time>
      </trkpt>
      <trkpt lat="63.00447" lon="7.27132">
        <ele>55.783981</ele>
        <time>2020-08-03T09:54:02.116Z</time>
      </trkpt>
      <trkpt lat="63.0045" lon="7.27153">
        <ele>55.857639</ele>
        <time>2020-08-03T09:54:04.109Z</time>
      </trkpt>
      <trkpt lat="63.00454" lon="7.27173">
        <ele>55.928125</ele>
        <time>2020-08-03T09:54:06.095Z</time>
      </trkpt>
      <trkpt lat="63.00458" lon="7.27192">
        <ele>55.995654</ele>
        <time>2020-08-03T09:54:08.108Z</time>
      </trkpt>
      <trkpt lat="63.00463" lon="7.27219">
        <ele>56.087783</ele>
        <time>2020-08-03T09:54:11.097Z</time>
      </trkpt>
      <trkpt lat="63.00467" lon="7.27245">
        <ele>56.178243</ele>
        <time>2020-08-03T09:54:14.105Z</time>
      </trkpt>
      <trkpt lat="63.00472" lon="7.2727">
        <ele>56.267612</ele>
        <time>2020-08-03T09:54:17.091Z</time>
      </trkpt>
      <trkpt lat="63.00477" lon="7.27297">
        <ele>56.359702</ele>
        <time>2020-08-03T09:54:20.086Z</time>
      </trkpt>
      <trkpt lat="63.00482" lon="7.27324">
        <ele>56.455571</ele>
        <time>2020-08-03T09:54:23.092Z</time>
      </trkpt>
      <trkpt lat="63.00485" lon="7.27343">
        <ele>56.5205</ele>
        <time>2020-08-03T09:54:25.142Z</time>
      </trkpt>
      <trkpt lat="63.0049" lon="7.27369">
        <ele>56.61041</ele>
        <time>2020-08-03T09:54:28.119Z</time>
      </trkpt>
      <trkpt lat="63.00493" lon="7.27392">
        <ele>56.698296</ele>
        <time>2020-08-03T09:54:31.103Z</time>
      </trkpt>
      <trkpt lat="63.00496" lon="7.27415">
        <ele>56.783724</ele>
        <time>2020-08-03T09:54:34.132Z</time>
      </trkpt>
      <trkpt lat="63.00499" lon="7.27435">
        <ele>56.859931</ele>
        <time>2020-08-03T09:54:37.099Z</time>
      </trkpt>
      <trkpt lat="63.00501" lon="7.27455">
        <ele>56.935733</ele>
        <time>2020-08-03T09:54:40.114Z</time>
      </trkpt>
      <trkpt lat="63.00504" lon="7.27475">
        <ele>57.014171</ele>
        <time>2020-08-03T09:54:43.119Z</time>
      </trkpt>
      <trkpt lat="63.00508" lon="7.27496">
        <ele>57.095167</ele>
        <time>2020-08-03T09:54:46.121Z</time>
      </trkpt>
      <trkpt lat="63.00512" lon="7.27517">
        <ele>57.180021</ele>
        <time>2020-08-03T09:54:49.097Z</time>
      </trkpt>
      <trkpt lat="63.00515" lon="7.27541">
        <ele>57.269099</ele>
        <time>2020-08-03T09:54:52.095Z</time>
      </trkpt>
      <trkpt lat="63.00518" lon="7.27564">
        <ele>57.357689</ele>
        <time>2020-08-03T09:54:55.131Z</time>
      </trkpt>
      <trkpt lat="63.00521" lon="7.27586">
        <ele>57.443379</ele>
        <time>2020-08-03T09:54:58.108Z</time>
      </trkpt>
      <trkpt lat="63.00524" lon="7.27608">
        <ele>57.52527</ele>
        <time>2020-08-03T09:55:01.119Z</time>
      </trkpt>
      <trkpt lat="63.00526" lon="7.27629">
        <ele>57.604481</ele>
        <time>2020-08-03T09:55:04.120Z</time>
      </trkpt>
      <trkpt lat="63.00529" lon="7.2765">
        <ele>57.685254</ele>
        <time>2020-08-03T09:55:07.110Z</time>
      </trkpt>
      <trkpt lat="63.00531" lon="7.27672">
        <ele>57.765885</ele>
        <time>2020-08-03T09:55:10.093Z</time>
      </trkpt>
      <trkpt lat="63.00533" lon="7.27693">
        <ele>57.847237</ele>
        <time>2020-08-03T09:55:13.095Z</time>
      </trkpt>
      <trkpt lat="63.00536" lon="7.27716">
        <ele>57.931067</ele>
        <time>2020-08-03T09:55:16.106Z</time>
      </trkpt>
      <trkpt lat="63.00539" lon="7.27739">
        <ele>58.017816</ele>
        <time>2020-08-03T09:55:19.115Z</time>
      </trkpt>
      <trkpt lat="63.00542" lon="7.27762">
        <ele>58.077317</ele>
        <time>2020-08-03T09:55:22.116Z</time>
      </trkpt>
      <trkpt lat="63.00545" lon="7.27785">
        <ele>58.052565</ele>
        <time>2020-08-03T09:55:25.087Z</time>
      </trkpt>
      <trkpt lat="63.00549" lon="7.27808">
        <ele>58.027804</ele>
        <time>2020-08-03T09:55:28.119Z</time>
      </trkpt>
      <trkpt lat="63.00552" lon="7.27832">
        <ele>58.002823</ele>
        <time>2020-08-03T09:55:31.116Z</time>
      </trkpt>
      <trkpt lat="63.00555" lon="7.27855">
        <ele>57.978585</ele>
        <time>2020-08-03T09:55:34.096Z</time>
      </trkpt>
      <trkpt lat="63.00558" lon="7.27878">
        <ele>57.954622</ele>
        <time>2020-08-03T09:55:37.111Z</time>
      </trkpt>
      <trkpt lat="63.00561" lon="7.279">
        <ele>57.930867</ele>
        <time>2020-08-03T09:55:40.112Z</time>
      </trkpt>
      <trkpt lat="63.00565" lon="7.27924">
        <ele>57.904437</ele>
        <time>2020-08-03T09:55:43.107Z</time>
      </trkpt>
      <trkpt lat="63.00569" lon="7.27948">
        <ele>57.879266</ele>
        <time>2020-08-03T09:55:46.125Z</time>
      </trkpt>
      <trkpt lat="63.00573" lon="7.27972">
        <ele>57.852992</ele>
        <time>2020-08-03T09:55:49.095Z</time>
      </trkpt>
      <trkpt lat="63.00578" lon="7.27998">
        <ele>57.824647</ele>
        <time>2020-08-03T09:55:52.118Z</time>
      </trkpt>
      <trkpt lat="63.00582" lon="7.28026">
        <ele>57.795231</ele>
        <time>2020-08-03T09:55:55.106Z</time>
      </trkpt>
      <trkpt lat="63.00586" lon="7.28053">
        <ele>57.766207</ele>
        <time>2020-08-03T09:55:58.096Z</time>
      </trkpt>
      <trkpt lat="63.00588" lon="7.28072">
        <ele>57.746206</ele>
        <time>2020-08-03T09:56:00.102Z</time>
      </trkpt>
      <trkpt lat="63.00591" lon="7.28092">
        <ele>57.725878</ele>
        <time>2020-08-03T09:56:02.126Z</time>
      </trkpt>
      <trkpt lat="63.00594" lon="7.28119">
        <ele>57.696794</ele>
        <time>2020-08-03T09:56:05.091Z</time>
      </trkpt>
      <trkpt lat="63.00596" lon="7.28147">
        <ele>57.62073</ele>
        <time>2020-08-03T09:56:08.129Z</time>
      </trkpt>
      <trkpt lat="63.00598" lon="7.28176">
        <ele>57.487236</ele>
        <time>2020-08-03T09:56:11.118Z</time>
      </trkpt>
      <trkpt lat="63.00599" lon="7.28196">
        <ele>57.395095</ele>
        <time>2020-08-03T09:56:13.095Z</time>
      </trkpt>
      <trkpt lat="63.006" lon="7.28216">
        <ele>57.305408</ele>
        <time>2020-08-03T09:56:15.111Z</time>
      </trkpt>
      <trkpt lat="63.00601" lon="7.28244">
        <ele>57.178048</ele>
        <time>2020-08-03T09:56:18.104Z</time>
      </trkpt>
      <trkpt lat="63.00603" lon="7.28267">
        <ele>57.070363</ele>
        <time>2020-08-03T09:56:21.107Z</time>
      </trkpt>
      <trkpt lat="63.00606" lon="7.2829">
        <ele>56.96132</ele>
        <time>2020-08-03T09:56:24.146Z</time>
      </trkpt>
      <trkpt lat="63.00609" lon="7.28316">
        <ele>56.838106</ele>
        <time>2020-08-03T09:56:27.109Z</time>
      </trkpt>
      <trkpt lat="63.00612" lon="7.28343">
        <ele>56.713761</ele>
        <time>2020-08-03T09:56:30.109Z</time>
      </trkpt>
      <trkpt lat="63.00616" lon="7.2837">
        <ele>56.586877</ele>
        <time>2020-08-03T09:56:33.139Z</time>
      </trkpt>
      <trkpt lat="63.00621" lon="7.28397">
        <ele>56.450567</ele>
        <time>2020-08-03T09:56:36.109Z</time>
      </trkpt>
      <trkpt lat="63.00625" lon="7.28421">
        <ele>56.338299</ele>
        <time>2020-08-03T09:56:38.127Z</time>
      </trkpt>
      <trkpt lat="63.00629" lon="7.28447">
        <ele>56.211624</ele>
        <time>2020-08-03T09:56:40.118Z</time>
      </trkpt>
      <trkpt lat="63.00633" lon="7.28473">
        <ele>56.088068</ele>
        <time>2020-08-03T09:56:42.091Z</time>
      </trkpt>
      <trkpt lat="63.00636" lon="7.28496">
        <ele>55.978401</ele>
        <time>2020-08-03T09:56:44.121Z</time>
      </trkpt>
      <trkpt lat="63.00639" lon="7.28524">
        <ele>55.954753</ele>
        <time>2020-08-03T09:56:47.120Z</time>
      </trkpt>
      <trkpt lat="63.00643" lon="7.28551">
        <ele>56.183114</ele>
        <time>2020-08-03T09:56:50.099Z</time>
      </trkpt>
      <trkpt lat="63.00647" lon="7.28577">
        <ele>56.400978</ele>
        <time>2020-08-03T09:56:53.158Z</time>
      </trkpt>
      <trkpt lat="63.00651" lon="7.28602">
        <ele>56.616642</ele>
        <time>2020-08-03T09:56:56.113Z</time>
      </trkpt>
      <trkpt lat="63.00654" lon="7.28626">
        <ele>56.825981</ele>
        <time>2020-08-03T09:56:59.094Z</time>
      </trkpt>
      <trkpt lat="63.00658" lon="7.28649">
        <ele>57.024162</ele>
        <time>2020-08-03T09:57:02.107Z</time>
      </trkpt>
      <trkpt lat="63.00661" lon="7.28673">
        <ele>57.222453</ele>
        <time>2020-08-03T09:57:05.108Z</time>
      </trkpt>
      <trkpt lat="63.00663" lon="7.28696">
        <ele>57.413555</ele>
        <time>2020-08-03T09:57:08.105Z</time>
      </trkpt>
      <trkpt lat="63.00666" lon="7.28719">
        <ele>57.609765</ele>
        <time>2020-08-03T09:57:11.112Z</time>
      </trkpt>
      <trkpt lat="63.00668" lon="7.2874">
        <ele>57.786955</ele>
        <time>2020-08-03T09:57:14.109Z</time>
      </trkpt>
      <trkpt lat="63.00669" lon="7.2876">
        <ele>57.948095</ele>
        <time>2020-08-03T09:57:17.099Z</time>
      </trkpt>
      <trkpt lat="63.0067" lon="7.28785">
        <ele>58.147805</ele>
        <time>2020-08-03T09:57:21.118Z</time>
      </trkpt>
      <trkpt lat="63.00671" lon="7.28804">
        <ele>58.309661</ele>
        <time>2020-08-03T09:57:25.108Z</time>
      </trkpt>
      <trkpt lat="63.00669" lon="7.28824">
        <ele>58.471239</ele>
        <time>2020-08-03T09:57:30.124Z</time>
      </trkpt>
      <trkpt lat="63.00668" lon="7.28845">
        <ele>58.640659</ele>
        <time>2020-08-03T09:57:36.124Z</time>
      </trkpt>
      <trkpt lat="63.00666" lon="7.28864">
        <ele>58.801633</ele>
        <time>2020-08-03T09:57:43.183Z</time>
      </trkpt>
      <trkpt lat="63.00663" lon="7.28885">
        <ele>58.98219</ele>
        <time>2020-08-03T09:57:51.098Z</time>
      </trkpt>
      <trkpt lat="63.0066" lon="7.28906">
        <ele>59.080019</ele>
        <time>2020-08-03T09:57:57.137Z</time>
      </trkpt>
      <trkpt lat="63.00656" lon="7.28925">
        <ele>59.001882</ele>
        <time>2020-08-03T09:58:02.135Z</time>
      </trkpt>
      <trkpt lat="63.00652" lon="7.28944">
        <ele>58.924501</ele>
        <time>2020-08-03T09:58:06.127Z</time>
      </trkpt>
      <trkpt lat="63.00647" lon="7.28968">
        <ele>58.820614</ele>
        <time>2020-08-03T09:58:10.122Z</time>
      </trkpt>
      <trkpt lat="63.00644" lon="7.28995">
        <ele>58.715647</ele>
        <time>2020-08-03T09:58:13.107Z</time>
      </trkpt>
      <trkpt lat="63.00643" lon="7.29016">
        <ele>58.632862</ele>
        <time>2020-08-03T09:58:15.090Z</time>
      </trkpt>
      <trkpt lat="63.0064" lon="7.29041">
        <ele>58.535609</ele>
        <time>2020-08-03T09:58:17.124Z</time>
      </trkpt>
      <trkpt lat="63.00636" lon="7.29066">
        <ele>58.433962</ele>
        <time>2020-08-03T09:58:19.124Z</time>
      </trkpt>
      <trkpt lat="63.00633" lon="7.29091">
        <ele>58.335127</ele>
        <time>2020-08-03T09:58:21.106Z</time>
      </trkpt>
      <trkpt lat="63.00629" lon="7.29115">
        <ele>58.23946</ele>
        <time>2020-08-03T09:58:23.107Z</time>
      </trkpt>
      <trkpt lat="63.00625" lon="7.29136">
        <ele>58.151953</ele>
        <time>2020-08-03T09:58:25.112Z</time>
      </trkpt>
      <trkpt lat="63.00621" lon="7.29156">
        <ele>58.068992</ele>
        <time>2020-08-03T09:58:27.090Z</time>
      </trkpt>
      <trkpt lat="63.00617" lon="7.29175">
        <ele>57.986721</ele>
        <time>2020-08-03T09:58:29.097Z</time>
      </trkpt>
      <trkpt lat="63.00613" lon="7.29196">
        <ele>57.899227</ele>
        <time>2020-08-03T09:58:31.092Z</time>
      </trkpt>
      <trkpt lat="63.00609" lon="7.29219">
        <ele>57.807084</ele>
        <time>2020-08-03T09:58:33.104Z</time>
      </trkpt>
      <trkpt lat="63.00605" lon="7.29241">
        <ele>57.712538</ele>
        <time>2020-08-03T09:58:35.107Z</time>
      </trkpt>
      <trkpt lat="63.00602" lon="7.29266">
        <ele>57.61577</ele>
        <time>2020-08-03T09:58:37.106Z</time>
      </trkpt>
      <trkpt lat="63.00599" lon="7.29289">
        <ele>57.872905</ele>
        <time>2020-08-03T09:58:39.113Z</time>
      </trkpt>
      <trkpt lat="63.00598" lon="7.29312">
        <ele>58.237556</ele>
        <time>2020-08-03T09:58:41.087Z</time>
      </trkpt>
      <trkpt lat="63.00596" lon="7.29339">
        <ele>58.682649</ele>
        <time>2020-08-03T09:58:44.115Z</time>
      </trkpt>
      <trkpt lat="63.00604" lon="7.29356">
        <ele>59.069701</ele>
        <time>2020-08-03T09:58:47.130Z</time>
      </trkpt>
      <trkpt lat="63.00615" lon="7.29365">
        <ele>59.491068</ele>
        <time>2020-08-03T09:58:50.113Z</time>
      </trkpt>
      <trkpt lat="63.00623" lon="7.29374">
        <ele>59.829593</ele>
        <time>2020-08-03T09:58:53.106Z</time>
      </trkpt>
      <trkpt lat="63.00633" lon="7.29384">
        <ele>60.201241</ele>
        <time>2020-08-03T09:58:57.118Z</time>
      </trkpt>
      <trkpt lat="63.0064" lon="7.29395">
        <ele>60.522399</ele>
        <time>2020-08-03T09:59:01.147Z</time>
      </trkpt>
      <trkpt lat="63.00648" lon="7.29405">
        <ele>60.846986</ele>
        <time>2020-08-03T09:59:05.102Z</time>
      </trkpt>
      <trkpt lat="63.00656" lon="7.29418">
        <ele>61.201396</ele>
        <time>2020-08-03T09:59:10.113Z</time>
      </trkpt>
      <trkpt lat="63.00663" lon="7.2943">
        <ele>61.536543</ele>
        <time>2020-08-03T09:59:15.105Z</time>
      </trkpt>
      <trkpt lat="63.00671" lon="7.29443">
        <ele>61.893823</ele>
        <time>2020-08-03T09:59:20.097Z</time>
      </trkpt>
      <trkpt lat="63.00678" lon="7.29459">
        <ele>62.245566</ele>
        <time>2020-08-03T09:59:25.140Z</time>
      </trkpt>
      <trkpt lat="63.00686" lon="7.29474">
        <ele>62.609701</ele>
        <time>2020-08-03T09:59:30.112Z</time>
      </trkpt>
      <trkpt lat="63.00693" lon="7.29492">
        <ele>62.997808</ele>
        <time>2020-08-03T09:59:35.099Z</time>
      </trkpt>
      <trkpt lat="63.00699" lon="7.29508">
        <ele>63.327995</ele>
        <time>2020-08-03T09:59:39.156Z</time>
      </trkpt>
      <trkpt lat="63.00704" lon="7.29526">
        <ele>63.677665</ele>
        <time>2020-08-03T09:59:43.144Z</time>
      </trkpt>
      <trkpt lat="63.0071" lon="7.29543">
        <ele>64.030015</ele>
        <time>2020-08-03T09:59:47.113Z</time>
      </trkpt>
      <trkpt lat="63.00715" lon="7.29565">
        <ele>63.799769</ele>
        <time>2020-08-03T09:59:51.097Z</time>
      </trkpt>
      <trkpt lat="63.00719" lon="7.29583">
        <ele>63.599185</ele>
        <time>2020-08-03T09:59:54.131Z</time>
      </trkpt>
      <trkpt lat="63.00723" lon="7.29603">
        <ele>63.384221</ele>
        <time>2020-08-03T09:59:57.097Z</time>
      </trkpt>
      <trkpt lat="63.00727" lon="7.29625">
        <ele>63.152527</ele>
        <time>2020-08-03T10:00:00.103Z</time>
      </trkpt>
      <trkpt lat="63.0073" lon="7.29648">
        <ele>62.912669</ele>
        <time>2020-08-03T10:00:03.128Z</time>
      </trkpt>
      <trkpt lat="63.00734" lon="7.29672">
        <ele>62.66124</ele>
        <time>2020-08-03T10:00:06.123Z</time>
      </trkpt>
      <trkpt lat="63.00736" lon="7.29692">
        <ele>62.462087</ele>
        <time>2020-08-03T10:00:08.110Z</time>
      </trkpt>
      <trkpt lat="63.0074" lon="7.29714">
        <ele>62.23187</ele>
        <time>2020-08-03T10:00:10.110Z</time>
      </trkpt>
      <trkpt lat="63.00744" lon="7.29738">
        <ele>61.983192</ele>
        <time>2020-08-03T10:00:12.133Z</time>
      </trkpt>
      <trkpt lat="63.00747" lon="7.29764">
        <ele>61.709645</ele>
        <time>2020-08-03T10:00:14.102Z</time>
      </trkpt>
      <trkpt lat="63.00747" lon="7.29792">
        <ele>61.43391</ele>
        <time>2020-08-03T10:00:16.128Z</time>
      </trkpt>
      <trkpt lat="63.00745" lon="7.29817">
        <ele>61.188778</ele>
        <time>2020-08-03T10:00:18.096Z</time>
      </trkpt>
      <trkpt lat="63.00746" lon="7.29838">
        <ele>60.9724</ele>
        <time>2020-08-03T10:00:20.107Z</time>
      </trkpt>
      <trkpt lat="63.0075" lon="7.29861">
        <ele>60.731784</ele>
        <time>2020-08-03T10:00:22.099Z</time>
      </trkpt>
      <trkpt lat="63.00753" lon="7.29885">
        <ele>60.478904</ele>
        <time>2020-08-03T10:00:24.093Z</time>
      </trkpt>
      <trkpt lat="63.00757" lon="7.2991">
        <ele>60.222289</ele>
        <time>2020-08-03T10:00:26.089Z</time>
      </trkpt>
      <trkpt lat="63.00761" lon="7.29935">
        <ele>59.96942</ele>
        <time>2020-08-03T10:00:28.111Z</time>
      </trkpt>
      <trkpt lat="63.00765" lon="7.29961">
        <ele>59.717018</ele>
        <time>2020-08-03T10:00:30.093Z</time>
      </trkpt>
      <trkpt lat="63.00768" lon="7.29988">
        <ele>59.461061</ele>
        <time>2020-08-03T10:00:32.096Z</time>
      </trkpt>
      <trkpt lat="63.00773" lon="7.30014">
        <ele>59.202251</ele>
        <time>2020-08-03T10:00:34.100Z</time>
      </trkpt>
      <trkpt lat="63.00777" lon="7.30041">
        <ele>58.937717</ele>
        <time>2020-08-03T10:00:36.132Z</time>
      </trkpt>
      <trkpt lat="63.0078" lon="7.30068">
        <ele>58.678271</ele>
        <time>2020-08-03T10:00:38.121Z</time>
      </trkpt>
      <trkpt lat="63.00784" lon="7.30095">
        <ele>58.409321</ele>
        <time>2020-08-03T10:00:40.112Z</time>
      </trkpt>
      <trkpt lat="63.00788" lon="7.30123">
        <ele>58.136551</ele>
        <time>2020-08-03T10:00:42.097Z</time>
      </trkpt>
      <trkpt lat="63.00792" lon="7.30152">
        <ele>57.862291</ele>
        <time>2020-08-03T10:00:44.107Z</time>
      </trkpt>
      <trkpt lat="63.00797" lon="7.3018">
        <ele>57.586358</ele>
        <time>2020-08-03T10:00:46.102Z</time>
      </trkpt>
      <trkpt lat="63.00802" lon="7.30207">
        <ele>57.310499</ele>
        <time>2020-08-03T10:00:48.127Z</time>
      </trkpt>
      <trkpt lat="63.00806" lon="7.30235">
        <ele>57.040012</ele>
        <time>2020-08-03T10:00:50.112Z</time>
      </trkpt>
      <trkpt lat="63.0081" lon="7.30263">
        <ele>56.762207</ele>
        <time>2020-08-03T10:00:52.107Z</time>
      </trkpt>
      <trkpt lat="63.00815" lon="7.30292">
        <ele>56.482097</ele>
        <time>2020-08-03T10:00:54.134Z</time>
      </trkpt>
      <trkpt lat="63.00819" lon="7.30321">
        <ele>56.654944</ele>
        <time>2020-08-03T10:00:56.124Z</time>
      </trkpt>
      <trkpt lat="63.00824" lon="7.30351">
        <ele>56.905378</ele>
        <time>2020-08-03T10:00:58.146Z</time>
      </trkpt>
      <trkpt lat="63.00828" lon="7.30379">
        <ele>57.139565</ele>
        <time>2020-08-03T10:01:00.108Z</time>
      </trkpt>
      <trkpt lat="63.00832" lon="7.30406">
        <ele>57.360639</ele>
        <time>2020-08-03T10:01:02.128Z</time>
      </trkpt>
      <trkpt lat="63.00836" lon="7.3043">
        <ele>57.567022</ele>
        <time>2020-08-03T10:01:04.099Z</time>
      </trkpt>
      <trkpt lat="63.0084" lon="7.30453">
        <ele>57.763824</ele>
        <time>2020-08-03T10:01:06.095Z</time>
      </trkpt>
      <trkpt lat="63.00844" lon="7.30475">
        <ele>57.949718</ele>
        <time>2020-08-03T10:01:08.099Z</time>
      </trkpt>
      <trkpt lat="63.00848" lon="7.30495">
        <ele>58.122597</ele>
        <time>2020-08-03T10:01:10.095Z</time>
      </trkpt>
      <trkpt lat="63.00853" lon="7.30519">
        <ele>58.330008</ele>
        <time>2020-08-03T10:01:13.128Z</time>
      </trkpt>
      <trkpt lat="63.00857" lon="7.30537">
        <ele>58.492118</ele>
        <time>2020-08-03T10:01:16.144Z</time>
      </trkpt>
      <trkpt lat="63.00862" lon="7.30555">
        <ele>58.658343</ele>
        <time>2020-08-03T10:01:20.123Z</time>
      </trkpt>
      <trkpt lat="63.00868" lon="7.30575">
        <ele>58.84965</ele>
        <time>2020-08-03T10:01:25.115Z</time>
      </trkpt>
      <trkpt lat="63.00874" lon="7.30595">
        <ele>59.031093</ele>
        <time>2020-08-03T10:01:30.104Z</time>
      </trkpt>
      <trkpt lat="63.0088" lon="7.30613">
        <ele>59.207331</ele>
        <time>2020-08-03T10:01:35.127Z</time>
      </trkpt>
      <trkpt lat="63.00886" lon="7.30631">
        <ele>59.390336</ele>
        <time>2020-08-03T10:01:40.108Z</time>
      </trkpt>
      <trkpt lat="63.00893" lon="7.30649">
        <ele>59.574736</ele>
        <time>2020-08-03T10:01:45.108Z</time>
      </trkpt>
      <trkpt lat="63.009" lon="7.30667">
        <ele>59.315925</ele>
        <time>2020-08-03T10:01:50.094Z</time>
      </trkpt>
      <trkpt lat="63.00907" lon="7.30683">
        <ele>59.078077</ele>
        <time>2020-08-03T10:01:54.092Z</time>
      </trkpt>
      <trkpt lat="63.00914" lon="7.307">
        <ele>58.805601</ele>
        <time>2020-08-03T10:01:58.106Z</time>
      </trkpt>
      <trkpt lat="63.00921" lon="7.30716">
        <ele>58.55702</ele>
        <time>2020-08-03T10:02:01.115Z</time>
      </trkpt>
      <trkpt lat="63.00929" lon="7.30735">
        <ele>58.272121</ele>
        <time>2020-08-03T10:02:04.109Z</time>
      </trkpt>
      <trkpt lat="63.00938" lon="7.30756">
        <ele>57.947679</ele>
        <time>2020-08-03T10:02:07.151Z</time>
      </trkpt>
      <trkpt lat="63.00946" lon="7.30775">
        <ele>57.668642</ele>
        <time>2020-08-03T10:02:09.104Z</time>
      </trkpt>
      <trkpt lat="63.00955" lon="7.30798">
        <ele>57.330901</ele>
        <time>2020-08-03T10:02:11.093Z</time>
      </trkpt>
      <trkpt lat="63.00965" lon="7.30824">
        <ele>56.944538</ele>
        <time>2020-08-03T10:02:13.117Z</time>
      </trkpt>
      <trkpt lat="63.00977" lon="7.30852">
        <ele>56.517731</ele>
        <time>2020-08-03T10:02:15.095Z</time>
      </trkpt>
      <trkpt lat="63.00983" lon="7.30867">
        <ele>56.285747</ele>
        <time>2020-08-03T10:02:16.129Z</time>
      </trkpt>
      <trkpt lat="63.0099" lon="7.30883">
        <ele>56.046334</ele>
        <time>2020-08-03T10:02:17.139Z</time>
      </trkpt>
      <trkpt lat="63.00997" lon="7.30899">
        <ele>55.8061</ele>
        <time>2020-08-03T10:02:18.106Z</time>
      </trkpt>
      <trkpt lat="63.01003" lon="7.30916">
        <ele>55.55827</ele>
        <time>2020-08-03T10:02:19.097Z</time>
      </trkpt>
      <trkpt lat="63.0101" lon="7.30933">
        <ele>55.309586</ele>
        <time>2020-08-03T10:02:20.108Z</time>
      </trkpt>
      <trkpt lat="63.01016" lon="7.30951">
        <ele>55.111658</ele>
        <time>2020-08-03T10:02:21.094Z</time>
      </trkpt>
      <trkpt lat="63.01021" lon="7.30969">
        <ele>54.99278</ele>
        <time>2020-08-03T10:02:22.104Z</time>
      </trkpt>
      <trkpt lat="63.01027" lon="7.30987">
        <ele>54.873728</ele>
        <time>2020-08-03T10:02:23.114Z</time>
      </trkpt>
      <trkpt lat="63.01032" lon="7.31005">
        <ele>54.758385</ele>
        <time>2020-08-03T10:02:24.113Z</time>
      </trkpt>
      <trkpt lat="63.01036" lon="7.31023">
        <ele>54.645589</ele>
        <time>2020-08-03T10:02:25.114Z</time>
      </trkpt>
      <trkpt lat="63.0104" lon="7.31041">
        <ele>54.535559</ele>
        <time>2020-08-03T10:02:26.108Z</time>
      </trkpt>
      <trkpt lat="63.01047" lon="7.31076">
        <ele>54.32786</ele>
        <time>2020-08-03T10:02:28.109Z</time>
      </trkpt>
      <trkpt lat="63.01051" lon="7.31109">
        <ele>54.137964</ele>
        <time>2020-08-03T10:02:30.099Z</time>
      </trkpt>
      <trkpt lat="63.01054" lon="7.31139">
        <ele>53.971392</ele>
        <time>2020-08-03T10:02:32.119Z</time>
      </trkpt>
      <trkpt lat="63.01056" lon="7.31166">
        <ele>53.822603</ele>
        <time>2020-08-03T10:02:34.086Z</time>
      </trkpt>
      <trkpt lat="63.01058" lon="7.31191">
        <ele>53.684779</ele>
        <time>2020-08-03T10:02:36.160Z</time>
      </trkpt>
      <trkpt lat="63.01059" lon="7.31214">
        <ele>53.557519</ele>
        <time>2020-08-03T10:02:38.112Z</time>
      </trkpt>
      <trkpt lat="63.01059" lon="7.31236">
        <ele>53.436728</ele>
        <time>2020-08-03T10:02:40.147Z</time>
      </trkpt>
      <trkpt lat="63.01059" lon="7.31258">
        <ele>53.32029</ele>
        <time>2020-08-03T10:02:42.116Z</time>
      </trkpt>
      <trkpt lat="63.01059" lon="7.31279">
        <ele>53.204367</ele>
        <time>2020-08-03T10:02:44.118Z</time>
      </trkpt>
      <trkpt lat="63.01058" lon="7.31299">
        <ele>53.094275</ele>
        <time>2020-08-03T10:02:46.106Z</time>
      </trkpt>
      <trkpt lat="63.01057" lon="7.31327">
        <ele>52.956503</ele>
        <time>2020-08-03T10:02:49.108Z</time>
      </trkpt>
      <trkpt lat="63.01055" lon="7.31357">
        <ele>52.84304</ele>
        <time>2020-08-03T10:02:52.100Z</time>
      </trkpt>
      <trkpt lat="63.01054" lon="7.31378">
        <ele>52.763357</ele>
        <time>2020-08-03T10:02:54.117Z</time>
      </trkpt>
      <trkpt lat="63.01053" lon="7.31399">
        <ele>52.683142</ele>
        <time>2020-08-03T10:02:56.152Z</time>
      </trkpt>
      <trkpt lat="63.01052" lon="7.3142">
        <ele>52.603082</ele>
        <time>2020-08-03T10:02:58.128Z</time>
      </trkpt>
      <trkpt lat="63.01052" lon="7.31441">
        <ele>52.523609</ele>
        <time>2020-08-03T10:03:00.119Z</time>
      </trkpt>
      <trkpt lat="63.01052" lon="7.31464">
        <ele>52.438152</ele>
        <time>2020-08-03T10:03:02.115Z</time>
      </trkpt>
      <trkpt lat="63.01052" lon="7.31487">
        <ele>52.350036</ele>
        <time>2020-08-03T10:03:04.095Z</time>
      </trkpt>
      <trkpt lat="63.01053" lon="7.31511">
        <ele>52.258827</ele>
        <time>2020-08-03T10:03:06.096Z</time>
      </trkpt>
      <trkpt lat="63.01055" lon="7.31537">
        <ele>52.161331</ele>
        <time>2020-08-03T10:03:08.134Z</time>
      </trkpt>
      <trkpt lat="63.01056" lon="7.31561">
        <ele>52.068234</ele>
        <time>2020-08-03T10:03:10.094Z</time>
      </trkpt>
      <trkpt lat="63.01059" lon="7.31585">
        <ele>51.973635</ele>
        <time>2020-08-03T10:03:12.099Z</time>
      </trkpt>
      <trkpt lat="63.01062" lon="7.3161">
        <ele>51.875056</ele>
        <time>2020-08-03T10:03:14.130Z</time>
      </trkpt>
      <trkpt lat="63.01066" lon="7.31635">
        <ele>51.775726</ele>
        <time>2020-08-03T10:03:16.097Z</time>
      </trkpt>
      <trkpt lat="63.0107" lon="7.31661">
        <ele>51.673023</ele>
        <time>2020-08-03T10:03:18.108Z</time>
      </trkpt>
      <trkpt lat="63.01075" lon="7.31686">
        <ele>51.567658</ele>
        <time>2020-08-03T10:03:20.108Z</time>
      </trkpt>
      <trkpt lat="63.01081" lon="7.31711">
        <ele>51.46911</ele>
        <time>2020-08-03T10:03:22.149Z</time>
      </trkpt>
      <trkpt lat="63.01087" lon="7.31736">
        <ele>51.388621</ele>
        <time>2020-08-03T10:03:24.096Z</time>
      </trkpt>
      <trkpt lat="63.01093" lon="7.31759">
        <ele>51.309046</ele>
        <time>2020-08-03T10:03:26.111Z</time>
      </trkpt>
      <trkpt lat="63.01099" lon="7.31782">
        <ele>51.231418</ele>
        <time>2020-08-03T10:03:28.119Z</time>
      </trkpt>
      <trkpt lat="63.01106" lon="7.31805">
        <ele>51.152333</ele>
        <time>2020-08-03T10:03:30.119Z</time>
      </trkpt>
      <trkpt lat="63.01112" lon="7.31827">
        <ele>51.076115</ele>
        <time>2020-08-03T10:03:32.127Z</time>
      </trkpt>
      <trkpt lat="63.01118" lon="7.3185">
        <ele>50.998404</ele>
        <time>2020-08-03T10:03:34.099Z</time>
      </trkpt>
      <trkpt lat="63.01124" lon="7.31873">
        <ele>50.922636</ele>
        <time>2020-08-03T10:03:36.107Z</time>
      </trkpt>
      <trkpt lat="63.0113" lon="7.31895">
        <ele>50.846591</ele>
        <time>2020-08-03T10:03:38.104Z</time>
      </trkpt>
      <trkpt lat="63.01136" lon="7.31918">
        <ele>50.769365</ele>
        <time>2020-08-03T10:03:40.104Z</time>
      </trkpt>
      <trkpt lat="63.01142" lon="7.3194">
        <ele>50.694871</ele>
        <time>2020-08-03T10:03:42.106Z</time>
      </trkpt>
      <trkpt lat="63.01147" lon="7.31963">
        <ele>50.620123</ele>
        <time>2020-08-03T10:03:44.108Z</time>
      </trkpt>
      <trkpt lat="63.01153" lon="7.31984">
        <ele>50.547725</ele>
        <time>2020-08-03T10:03:46.113Z</time>
      </trkpt>
      <trkpt lat="63.01159" lon="7.32005">
        <ele>50.476762</ele>
        <time>2020-08-03T10:03:48.098Z</time>
      </trkpt>
      <trkpt lat="63.01164" lon="7.32026">
        <ele>50.404466</ele>
        <time>2020-08-03T10:03:50.130Z</time>
      </trkpt>
      <trkpt lat="63.0117" lon="7.32046">
        <ele>50.340735</ele>
        <time>2020-08-03T10:03:52.177Z</time>
      </trkpt>
      <trkpt lat="63.01176" lon="7.32067">
        <ele>50.382841</ele>
        <time>2020-08-03T10:03:54.146Z</time>
      </trkpt>
      <trkpt lat="63.01181" lon="7.32089">
        <ele>50.426128</ele>
        <time>2020-08-03T10:03:56.117Z</time>
      </trkpt>
      <trkpt lat="63.01187" lon="7.3211">
        <ele>50.468046</ele>
        <time>2020-08-03T10:03:58.103Z</time>
      </trkpt>
      <trkpt lat="63.01192" lon="7.3213">
        <ele>50.508828</ele>
        <time>2020-08-03T10:04:00.111Z</time>
      </trkpt>
      <trkpt lat="63.01197" lon="7.32151">
        <ele>50.549305</ele>
        <time>2020-08-03T10:04:02.139Z</time>
      </trkpt>
      <trkpt lat="63.01202" lon="7.32173">
        <ele>50.593041</ele>
        <time>2020-08-03T10:04:04.111Z</time>
      </trkpt>
      <trkpt lat="63.01207" lon="7.32195">
        <ele>50.635467</ele>
        <time>2020-08-03T10:04:06.117Z</time>
      </trkpt>
      <trkpt lat="63.01211" lon="7.32216">
        <ele>50.675658</ele>
        <time>2020-08-03T10:04:08.108Z</time>
      </trkpt>
      <trkpt lat="63.01215" lon="7.32237">
        <ele>50.716166</ele>
        <time>2020-08-03T10:04:10.122Z</time>
      </trkpt>
      <trkpt lat="63.0122" lon="7.32258">
        <ele>50.755565</ele>
        <time>2020-08-03T10:04:12.124Z</time>
      </trkpt>
      <trkpt lat="63.01223" lon="7.3228">
        <ele>50.796727</ele>
        <time>2020-08-03T10:04:14.101Z</time>
      </trkpt>
      <trkpt lat="63.01227" lon="7.32302">
        <ele>50.838016</ele>
        <time>2020-08-03T10:04:16.127Z</time>
      </trkpt>
      <trkpt lat="63.0123" lon="7.32325">
        <ele>50.879427</ele>
        <time>2020-08-03T10:04:18.095Z</time>
      </trkpt>
      <trkpt lat="63.01233" lon="7.32348">
        <ele>50.920733</ele>
        <time>2020-08-03T10:04:20.139Z</time>
      </trkpt>
      <trkpt lat="63.01235" lon="7.3237">
        <ele>50.959945</ele>
        <time>2020-08-03T10:04:22.103Z</time>
      </trkpt>
      <trkpt lat="63.01237" lon="7.32391">
        <ele>50.998392</ele>
        <time>2020-08-03T10:04:24.131Z</time>
      </trkpt>
      <trkpt lat="63.01239" lon="7.32412">
        <ele>51.042431</ele>
        <time>2020-08-03T10:04:26.125Z</time>
      </trkpt>
      <trkpt lat="63.01241" lon="7.32434">
        <ele>51.122098</ele>
        <time>2020-08-03T10:04:28.119Z</time>
      </trkpt>
      <trkpt lat="63.01243" lon="7.32456">
        <ele>51.202312</ele>
        <time>2020-08-03T10:04:30.124Z</time>
      </trkpt>
      <trkpt lat="63.01246" lon="7.32478">
        <ele>51.284435</ele>
        <time>2020-08-03T10:04:32.130Z</time>
      </trkpt>
      <trkpt lat="63.01248" lon="7.32501">
        <ele>51.367238</ele>
        <time>2020-08-03T10:04:34.095Z</time>
      </trkpt>
      <trkpt lat="63.0125" lon="7.32524">
        <ele>51.451088</ele>
        <time>2020-08-03T10:04:36.109Z</time>
      </trkpt>
      <trkpt lat="63.01252" lon="7.32546">
        <ele>51.531103</ele>
        <time>2020-08-03T10:04:38.101Z</time>
      </trkpt>
      <trkpt lat="63.01255" lon="7.32567">
        <ele>51.609378</ele>
        <time>2020-08-03T10:04:40.109Z</time>
      </trkpt>
      <trkpt lat="63.01257" lon="7.32589">
        <ele>51.689916</ele>
        <time>2020-08-03T10:04:42.127Z</time>
      </trkpt>
      <trkpt lat="63.01259" lon="7.32611">
        <ele>51.769589</ele>
        <time>2020-08-03T10:04:44.112Z</time>
      </trkpt>
      <trkpt lat="63.01261" lon="7.32634">
        <ele>51.852392</ele>
        <time>2020-08-03T10:04:46.099Z</time>
      </trkpt>
      <trkpt lat="63.01264" lon="7.32656">
        <ele>51.936784</ele>
        <time>2020-08-03T10:04:48.145Z</time>
      </trkpt>
      <trkpt lat="63.01266" lon="7.32678">
        <ele>52.018058</ele>
        <time>2020-08-03T10:04:50.109Z</time>
      </trkpt>
      <trkpt lat="63.01269" lon="7.327">
        <ele>52.098588</ele>
        <time>2020-08-03T10:04:52.099Z</time>
      </trkpt>
      <trkpt lat="63.01272" lon="7.32722">
        <ele>52.179647</ele>
        <time>2020-08-03T10:04:54.101Z</time>
      </trkpt>
      <trkpt lat="63.01274" lon="7.32745">
        <ele>52.263055</ele>
        <time>2020-08-03T10:04:56.110Z</time>
      </trkpt>
      <trkpt lat="63.01277" lon="7.32766">
        <ele>52.343364</ele>
        <time>2020-08-03T10:04:58.132Z</time>
      </trkpt>
      <trkpt lat="63.0128" lon="7.32787">
        <ele>52.420529</ele>
        <time>2020-08-03T10:05:00.096Z</time>
      </trkpt>
      <trkpt lat="63.01283" lon="7.32807">
        <ele>52.419674</ele>
        <time>2020-08-03T10:05:02.105Z</time>
      </trkpt>
      <trkpt lat="63.01287" lon="7.32827">
        <ele>52.376656</ele>
        <time>2020-08-03T10:05:04.100Z</time>
      </trkpt>
      <trkpt lat="63.0129" lon="7.32849">
        <ele>52.331715</ele>
        <time>2020-08-03T10:05:06.118Z</time>
      </trkpt>
      <trkpt lat="63.01294" lon="7.32871">
        <ele>52.285524</ele>
        <time>2020-08-03T10:05:08.104Z</time>
      </trkpt>
      <trkpt lat="63.01298" lon="7.32892">
        <ele>52.240738</ele>
        <time>2020-08-03T10:05:10.120Z</time>
      </trkpt>
      <trkpt lat="63.01302" lon="7.32913">
        <ele>52.197098</ele>
        <time>2020-08-03T10:05:12.096Z</time>
      </trkpt>
      <trkpt lat="63.01306" lon="7.32932">
        <ele>52.155248</ele>
        <time>2020-08-03T10:05:14.129Z</time>
      </trkpt>
      <trkpt lat="63.0131" lon="7.32952">
        <ele>52.112863</ele>
        <time>2020-08-03T10:05:16.107Z</time>
      </trkpt>
      <trkpt lat="63.01314" lon="7.32971">
        <ele>52.071707</ele>
        <time>2020-08-03T10:05:18.099Z</time>
      </trkpt>
      <trkpt lat="63.01319" lon="7.32989">
        <ele>52.029764</ele>
        <time>2020-08-03T10:05:20.121Z</time>
      </trkpt>
      <trkpt lat="63.01324" lon="7.33009">
        <ele>51.987156</ele>
        <time>2020-08-03T10:05:22.130Z</time>
      </trkpt>
      <trkpt lat="63.01328" lon="7.33028">
        <ele>51.944868</ele>
        <time>2020-08-03T10:05:24.117Z</time>
      </trkpt>
      <trkpt lat="63.01336" lon="7.33044">
        <ele>51.901104</ele>
        <time>2020-08-03T10:05:26.128Z</time>
      </trkpt>
      <trkpt lat="63.01346" lon="7.3306">
        <ele>51.847146</ele>
        <time>2020-08-03T10:05:29.119Z</time>
      </trkpt>
      <trkpt lat="63.01353" lon="7.3308">
        <ele>51.797286</ele>
        <time>2020-08-03T10:05:33.118Z</time>
      </trkpt>
      <trkpt lat="63.01359" lon="7.33095">
        <ele>51.75774</ele>
        <time>2020-08-03T10:05:40.137Z</time>
      </trkpt>
      <trkpt lat="63.01365" lon="7.33076">
        <ele>51.710694</ele>
        <time>2020-08-03T10:21:04.096Z</time>
      </trkpt>
      <trkpt lat="63.01346" lon="7.33095">
        <ele>51.87352</ele>
        <time>2020-08-03T10:21:09.115Z</time>
      </trkpt>
      <trkpt lat="63.01347" lon="7.33115">
        <ele>52.031432</ele>
        <time>2020-08-03T10:21:13.116Z</time>
      </trkpt>
      <trkpt lat="63.01353" lon="7.33132">
        <ele>52.199215</ele>
        <time>2020-08-03T10:21:16.148Z</time>
      </trkpt>
      <trkpt lat="63.01359" lon="7.33152">
        <ele>52.390849</ele>
        <time>2020-08-03T10:21:19.118Z</time>
      </trkpt>
      <trkpt lat="63.01365" lon="7.33173">
        <ele>52.582824</ele>
        <time>2020-08-03T10:21:22.124Z</time>
      </trkpt>
      <trkpt lat="63.01372" lon="7.33194">
        <ele>52.791349</ele>
        <time>2020-08-03T10:21:25.105Z</time>
      </trkpt>
      <trkpt lat="63.01379" lon="7.33217">
        <ele>53.00982</ele>
        <time>2020-08-03T10:21:28.093Z</time>
      </trkpt>
      <trkpt lat="63.01387" lon="7.33239">
        <ele>53.220249</ele>
        <time>2020-08-03T10:21:31.117Z</time>
      </trkpt>
      <trkpt lat="63.01394" lon="7.33264">
        <ele>53.450985</ele>
        <time>2020-08-03T10:21:34.108Z</time>
      </trkpt>
      <trkpt lat="63.014" lon="7.3328">
        <ele>53.611307</ele>
        <time>2020-08-03T10:21:36.101Z</time>
      </trkpt>
      <trkpt lat="63.01405" lon="7.33296">
        <ele>53.765952</ele>
        <time>2020-08-03T10:21:38.116Z</time>
      </trkpt>
      <trkpt lat="63.01411" lon="7.33312">
        <ele>53.927896</ele>
        <time>2020-08-03T10:21:40.109Z</time>
      </trkpt>
      <trkpt lat="63.01417" lon="7.33329">
        <ele>54.092312</ele>
        <time>2020-08-03T10:21:42.117Z</time>
      </trkpt>
      <trkpt lat="63.01422" lon="7.33346">
        <ele>54.253567</ele>
        <time>2020-08-03T10:21:44.102Z</time>
      </trkpt>
      <trkpt lat="63.01428" lon="7.33363">
        <ele>54.420082</ele>
        <time>2020-08-03T10:21:46.132Z</time>
      </trkpt>
      <trkpt lat="63.01434" lon="7.33381">
        <ele>54.592187</ele>
        <time>2020-08-03T10:21:48.144Z</time>
      </trkpt>
      <trkpt lat="63.01439" lon="7.33399">
        <ele>54.765153</ele>
        <time>2020-08-03T10:21:50.100Z</time>
      </trkpt>
      <trkpt lat="63.01446" lon="7.33418">
        <ele>54.82766</ele>
        <time>2020-08-03T10:21:52.111Z</time>
      </trkpt>
      <trkpt lat="63.01452" lon="7.33438">
        <ele>54.888503</ele>
        <time>2020-08-03T10:21:54.116Z</time>
      </trkpt>
      <trkpt lat="63.01458" lon="7.33458">
        <ele>54.95039</ele>
        <time>2020-08-03T10:21:56.104Z</time>
      </trkpt>
      <trkpt lat="63.01464" lon="7.33479">
        <ele>55.013795</ele>
        <time>2020-08-03T10:21:58.108Z</time>
      </trkpt>
      <trkpt lat="63.0147" lon="7.33502">
        <ele>55.079238</ele>
        <time>2020-08-03T10:22:00.108Z</time>
      </trkpt>
      <trkpt lat="63.01476" lon="7.33525">
        <ele>55.144851</ele>
        <time>2020-08-03T10:22:02.110Z</time>
      </trkpt>
      <trkpt lat="63.01481" lon="7.33548">
        <ele>55.20987</ele>
        <time>2020-08-03T10:22:04.116Z</time>
      </trkpt>
      <trkpt lat="63.01485" lon="7.33571">
        <ele>55.273001</ele>
        <time>2020-08-03T10:22:06.111Z</time>
      </trkpt>
      <trkpt lat="63.0149" lon="7.33593">
        <ele>55.334754</ele>
        <time>2020-08-03T10:22:08.094Z</time>
      </trkpt>
      <trkpt lat="63.01494" lon="7.33616">
        <ele>55.396212</ele>
        <time>2020-08-03T10:22:10.098Z</time>
      </trkpt>
      <trkpt lat="63.01497" lon="7.33638">
        <ele>55.454615</ele>
        <time>2020-08-03T10:22:12.181Z</time>
      </trkpt>
      <trkpt lat="63.015" lon="7.3366">
        <ele>55.511885</ele>
        <time>2020-08-03T10:22:14.106Z</time>
      </trkpt>
      <trkpt lat="63.01503" lon="7.33681">
        <ele>55.568022</ele>
        <time>2020-08-03T10:22:16.143Z</time>
      </trkpt>
      <trkpt lat="63.01505" lon="7.33703">
        <ele>55.623698</ele>
        <time>2020-08-03T10:22:18.139Z</time>
      </trkpt>
      <trkpt lat="63.01507" lon="7.33724">
        <ele>55.677781</ele>
        <time>2020-08-03T10:22:20.111Z</time>
      </trkpt>
      <trkpt lat="63.01509" lon="7.33744">
        <ele>55.731152</ele>
        <time>2020-08-03T10:22:22.116Z</time>
      </trkpt>
      <trkpt lat="63.01511" lon="7.33773">
        <ele>55.937224</ele>
        <time>2020-08-03T10:22:25.115Z</time>
      </trkpt>
      <trkpt lat="63.01512" lon="7.33801">
        <ele>56.288547</ele>
        <time>2020-08-03T10:22:28.127Z</time>
      </trkpt>
      <trkpt lat="63.01513" lon="7.33829">
        <ele>56.636713</ele>
        <time>2020-08-03T10:22:31.119Z</time>
      </trkpt>
      <trkpt lat="63.01514" lon="7.33856">
        <ele>56.980936</ele>
        <time>2020-08-03T10:22:34.093Z</time>
      </trkpt>
      <trkpt lat="63.01515" lon="7.33883">
        <ele>57.316446</ele>
        <time>2020-08-03T10:22:37.122Z</time>
      </trkpt>
      <trkpt lat="63.01517" lon="7.33909">
        <ele>57.649467</ele>
        <time>2020-08-03T10:22:40.118Z</time>
      </trkpt>
      <trkpt lat="63.01517" lon="7.33933">
        <ele>57.950604</ele>
        <time>2020-08-03T10:22:43.127Z</time>
      </trkpt>
      <trkpt lat="63.01518" lon="7.33957">
        <ele>58.253331</ele>
        <time>2020-08-03T10:22:46.102Z</time>
      </trkpt>
      <trkpt lat="63.01519" lon="7.33981">
        <ele>58.555952</ele>
        <time>2020-08-03T10:22:49.152Z</time>
      </trkpt>
      <trkpt lat="63.01521" lon="7.34005">
        <ele>58.85767</ele>
        <time>2020-08-03T10:22:52.108Z</time>
      </trkpt>
      <trkpt lat="63.01523" lon="7.34029">
        <ele>59.162205</ele>
        <time>2020-08-03T10:22:55.107Z</time>
      </trkpt>
      <trkpt lat="63.01527" lon="7.34053">
        <ele>59.484516</ele>
        <time>2020-08-03T10:22:58.122Z</time>
      </trkpt>
      <trkpt lat="63.01531" lon="7.34077">
        <ele>59.806828</ele>
        <time>2020-08-03T10:23:01.112Z</time>
      </trkpt>
      <trkpt lat="63.01535" lon="7.34103">
        <ele>60.149842</ele>
        <time>2020-08-03T10:23:04.148Z</time>
      </trkpt>
      <trkpt lat="63.01541" lon="7.3413">
        <ele>60.517772</ele>
        <time>2020-08-03T10:23:07.136Z</time>
      </trkpt>
      <trkpt lat="63.01546" lon="7.34157">
        <ele>60.715346</ele>
        <time>2020-08-03T10:23:10.115Z</time>
      </trkpt>
      <trkpt lat="63.01553" lon="7.34182">
        <ele>60.689376</ele>
        <time>2020-08-03T10:23:13.102Z</time>
      </trkpt>
      <trkpt lat="63.01558" lon="7.342">
        <ele>60.671176</ele>
        <time>2020-08-03T10:23:15.155Z</time>
      </trkpt>
      <trkpt lat="63.01563" lon="7.34217">
        <ele>60.652688</ele>
        <time>2020-08-03T10:23:17.095Z</time>
      </trkpt>
      <trkpt lat="63.01569" lon="7.34234">
        <ele>60.634426</ele>
        <time>2020-08-03T10:23:19.106Z</time>
      </trkpt>
      <trkpt lat="63.01574" lon="7.34252">
        <ele>60.615692</ele>
        <time>2020-08-03T10:23:21.124Z</time>
      </trkpt>
      <trkpt lat="63.0158" lon="7.34268">
        <ele>60.597135</ele>
        <time>2020-08-03T10:23:23.127Z</time>
      </trkpt>
      <trkpt lat="63.01586" lon="7.34286">
        <ele>60.578205</ele>
        <time>2020-08-03T10:23:25.097Z</time>
      </trkpt>
      <trkpt lat="63.01592" lon="7.34302">
        <ele>60.559628</ele>
        <time>2020-08-03T10:23:27.111Z</time>
      </trkpt>
      <trkpt lat="63.01597" lon="7.3432">
        <ele>60.540638</ele>
        <time>2020-08-03T10:23:29.132Z</time>
      </trkpt>
      <trkpt lat="63.01603" lon="7.34337">
        <ele>60.521754</ele>
        <time>2020-08-03T10:23:31.131Z</time>
      </trkpt>
      <trkpt lat="63.01609" lon="7.34354">
        <ele>60.503316</ele>
        <time>2020-08-03T10:23:33.113Z</time>
      </trkpt>
      <trkpt lat="63.01614" lon="7.3437">
        <ele>60.48527</ele>
        <time>2020-08-03T10:23:35.123Z</time>
      </trkpt>
      <trkpt lat="63.0162" lon="7.34387">
        <ele>60.466853</ele>
        <time>2020-08-03T10:23:37.119Z</time>
      </trkpt>
      <trkpt lat="63.01626" lon="7.34403">
        <ele>60.449329</ele>
        <time>2020-08-03T10:23:39.134Z</time>
      </trkpt>
      <trkpt lat="63.01632" lon="7.3442">
        <ele>60.43053</ele>
        <time>2020-08-03T10:23:41.141Z</time>
      </trkpt>
      <trkpt lat="63.01637" lon="7.34437">
        <ele>60.411429</ele>
        <time>2020-08-03T10:23:43.108Z</time>
      </trkpt>
      <trkpt lat="63.01643" lon="7.34454">
        <ele>60.393311</ele>
        <time>2020-08-03T10:23:45.110Z</time>
      </trkpt>
      <trkpt lat="63.01651" lon="7.34478">
        <ele>60.348975</ele>
        <time>2020-08-03T10:23:48.124Z</time>
      </trkpt>
      <trkpt lat="63.01655" lon="7.34495">
        <ele>60.297829</ele>
        <time>2020-08-03T10:23:50.117Z</time>
      </trkpt>
      <trkpt lat="63.0166" lon="7.34513">
        <ele>60.245095</ele>
        <time>2020-08-03T10:23:52.113Z</time>
      </trkpt>
      <trkpt lat="63.01664" lon="7.34532">
        <ele>60.19127</ele>
        <time>2020-08-03T10:23:54.110Z</time>
      </trkpt>
      <trkpt lat="63.01668" lon="7.34552">
        <ele>60.136528</ele>
        <time>2020-08-03T10:23:56.096Z</time>
      </trkpt>
      <trkpt lat="63.01672" lon="7.34573">
        <ele>60.080165</ele>
        <time>2020-08-03T10:23:58.108Z</time>
      </trkpt>
      <trkpt lat="63.01676" lon="7.34594">
        <ele>60.024325</ele>
        <time>2020-08-03T10:24:00.110Z</time>
      </trkpt>
      <trkpt lat="63.01678" lon="7.34613">
        <ele>59.971864</ele>
        <time>2020-08-03T10:24:02.107Z</time>
      </trkpt>
      <trkpt lat="63.01681" lon="7.34634">
        <ele>59.918772</ele>
        <time>2020-08-03T10:24:04.111Z</time>
      </trkpt>
      <trkpt lat="63.01683" lon="7.34655">
        <ele>59.86334</ele>
        <time>2020-08-03T10:24:06.092Z</time>
      </trkpt>
      <trkpt lat="63.01684" lon="7.34677">
        <ele>59.807806</ele>
        <time>2020-08-03T10:24:08.114Z</time>
      </trkpt>
      <trkpt lat="63.01685" lon="7.34699">
        <ele>59.753218</ele>
        <time>2020-08-03T10:24:10.135Z</time>
      </trkpt>
      <trkpt lat="63.01685" lon="7.34721">
        <ele>59.696894</ele>
        <time>2020-08-03T10:24:12.119Z</time>
      </trkpt>
      <trkpt lat="63.01684" lon="7.34743">
        <ele>59.640779</ele>
        <time>2020-08-03T10:24:14.116Z</time>
      </trkpt>
      <trkpt lat="63.01684" lon="7.34766">
        <ele>59.583982</ele>
        <time>2020-08-03T10:24:16.144Z</time>
      </trkpt>
      <trkpt lat="63.01681" lon="7.34788">
        <ele>59.524973</ele>
        <time>2020-08-03T10:24:18.098Z</time>
      </trkpt>
      <trkpt lat="63.01679" lon="7.34811">
        <ele>59.466474</ele>
        <time>2020-08-03T10:24:20.148Z</time>
      </trkpt>
      <trkpt lat="63.01677" lon="7.34832">
        <ele>59.412637</ele>
        <time>2020-08-03T10:24:22.100Z</time>
      </trkpt>
      <trkpt lat="63.01675" lon="7.34852">
        <ele>59.587893</ele>
        <time>2020-08-03T10:24:24.114Z</time>
      </trkpt>
      <trkpt lat="63.0167" lon="7.34878">
        <ele>60.553302</ele>
        <time>2020-08-03T10:24:27.147Z</time>
      </trkpt>
      <trkpt lat="63.01667" lon="7.34901">
        <ele>61.418496</ele>
        <time>2020-08-03T10:24:30.114Z</time>
      </trkpt>
      <trkpt lat="63.01664" lon="7.34923">
        <ele>62.206802</ele>
        <time>2020-08-03T10:24:33.120Z</time>
      </trkpt>
      <trkpt lat="63.0166" lon="7.34943">
        <ele>62.930661</ele>
        <time>2020-08-03T10:24:36.150Z</time>
      </trkpt>
      <trkpt lat="63.01657" lon="7.34966">
        <ele>63.765563</ele>
        <time>2020-08-03T10:24:40.099Z</time>
      </trkpt>
      <trkpt lat="63.01655" lon="7.34987">
        <ele>64.519125</ele>
        <time>2020-08-03T10:24:44.124Z</time>
      </trkpt>
      <trkpt lat="63.01653" lon="7.35007">
        <ele>65.237344</ele>
        <time>2020-08-03T10:24:48.105Z</time>
      </trkpt>
      <trkpt lat="63.01651" lon="7.35029">
        <ele>65.995709</ele>
        <time>2020-08-03T10:24:53.112Z</time>
      </trkpt>
      <trkpt lat="63.01651" lon="7.3505">
        <ele>66.727836</ele>
        <time>2020-08-03T10:24:58.159Z</time>
      </trkpt>
      <trkpt lat="63.01651" lon="7.35071">
        <ele>67.479796</ele>
        <time>2020-08-03T10:25:03.158Z</time>
      </trkpt>
      <trkpt lat="63.01651" lon="7.35092">
        <ele>68.179783</ele>
        <time>2020-08-03T10:25:08.110Z</time>
      </trkpt>
      <trkpt lat="63.01651" lon="7.35116">
        <ele>69.008499</ele>
        <time>2020-08-03T10:25:14.107Z</time>
      </trkpt>
      <trkpt lat="63.01652" lon="7.35136">
        <ele>69.706586</ele>
        <time>2020-08-03T10:25:19.117Z</time>
      </trkpt>
      <trkpt lat="63.01653" lon="7.35157">
        <ele>70.466629</ele>
        <time>2020-08-03T10:25:25.101Z</time>
      </trkpt>
      <trkpt lat="63.01654" lon="7.3518">
        <ele>71.271456</ele>
        <time>2020-08-03T10:25:31.114Z</time>
      </trkpt>
      <trkpt lat="63.01656" lon="7.35202">
        <ele>72.033239</ele>
        <time>2020-08-03T10:25:37.129Z</time>
      </trkpt>
      <trkpt lat="63.01657" lon="7.35222">
        <ele>72.720757</ele>
        <time>2020-08-03T10:25:43.127Z</time>
      </trkpt>
      <trkpt lat="63.01658" lon="7.35245">
        <ele>73.305127</ele>
        <time>2020-08-03T10:25:50.127Z</time>
      </trkpt>
      <trkpt lat="63.01659" lon="7.35265">
        <ele>73.633819</ele>
        <time>2020-08-03T10:25:56.113Z</time>
      </trkpt>
      <trkpt lat="63.01661" lon="7.35286">
        <ele>73.98569</ele>
        <time>2020-08-03T10:26:02.119Z</time>
      </trkpt>
      <trkpt lat="63.01664" lon="7.35308">
        <ele>74.342485</ele>
        <time>2020-08-03T10:26:08.133Z</time>
      </trkpt>
      <trkpt lat="63.01666" lon="7.35328">
        <ele>74.683418</ele>
        <time>2020-08-03T10:26:13.148Z</time>
      </trkpt>
      <trkpt lat="63.01667" lon="7.3535">
        <ele>75.040635</ele>
        <time>2020-08-03T10:26:19.135Z</time>
      </trkpt>
      <trkpt lat="63.0167" lon="7.35372">
        <ele>75.399653</ele>
        <time>2020-08-03T10:26:25.119Z</time>
      </trkpt>
      <trkpt lat="63.01672" lon="7.35393">
        <ele>75.757744</ele>
        <time>2020-08-03T10:26:31.128Z</time>
      </trkpt>
      <trkpt lat="63.01675" lon="7.35412">
        <ele>76.078262</ele>
        <time>2020-08-03T10:26:36.093Z</time>
      </trkpt>
      <trkpt lat="63.01678" lon="7.35434">
        <ele>76.445736</ele>
        <time>2020-08-03T10:26:42.105Z</time>
      </trkpt>
      <trkpt lat="63.01681" lon="7.35456">
        <ele>76.822844</ele>
        <time>2020-08-03T10:26:48.138Z</time>
      </trkpt>
      <trkpt lat="63.01684" lon="7.35478">
        <ele>77.201197</ele>
        <time>2020-08-03T10:26:53.124Z</time>
      </trkpt>
      <trkpt lat="63.01687" lon="7.35499">
        <ele>77.555818</ele>
        <time>2020-08-03T10:26:57.145Z</time>
      </trkpt>
      <trkpt lat="63.01689" lon="7.35519">
        <ele>77.886426</ele>
        <time>2020-08-03T10:27:00.118Z</time>
      </trkpt>
      <trkpt lat="63.01692" lon="7.35544">
        <ele>78.310142</ele>
        <time>2020-08-03T10:27:03.114Z</time>
      </trkpt>
      <trkpt lat="63.01696" lon="7.35564">
        <ele>78.655618</ele>
        <time>2020-08-03T10:27:05.162Z</time>
      </trkpt>
      <trkpt lat="63.017" lon="7.35588">
        <ele>79.062213</ele>
        <time>2020-08-03T10:27:07.105Z</time>
      </trkpt>
      <trkpt lat="63.01705" lon="7.35615">
        <ele>79.506824</ele>
        <time>2020-08-03T10:27:09.123Z</time>
      </trkpt>
      <trkpt lat="63.01711" lon="7.35646">
        <ele>78.323766</ele>
        <time>2020-08-03T10:27:11.104Z</time>
      </trkpt>
      <trkpt lat="63.01718" lon="7.35677">
        <ele>77.082621</ele>
        <time>2020-08-03T10:27:13.105Z</time>
      </trkpt>
      <trkpt lat="63.01725" lon="7.3571">
        <ele>75.765552</ele>
        <time>2020-08-03T10:27:15.110Z</time>
      </trkpt>
      <trkpt lat="63.01729" lon="7.35728">
        <ele>75.062116</ele>
        <time>2020-08-03T10:27:16.127Z</time>
      </trkpt>
      <trkpt lat="63.01734" lon="7.35747">
        <ele>74.323552</ele>
        <time>2020-08-03T10:27:17.111Z</time>
      </trkpt>
      <trkpt lat="63.01738" lon="7.35766">
        <ele>73.559019</ele>
        <time>2020-08-03T10:27:18.107Z</time>
      </trkpt>
      <trkpt lat="63.01743" lon="7.35786">
        <ele>72.764922</ele>
        <time>2020-08-03T10:27:19.104Z</time>
      </trkpt>
      <trkpt lat="63.01748" lon="7.35807">
        <ele>71.93174</ele>
        <time>2020-08-03T10:27:20.138Z</time>
      </trkpt>
      <trkpt lat="63.01753" lon="7.35828">
        <ele>71.073436</ele>
        <time>2020-08-03T10:27:21.128Z</time>
      </trkpt>
      <trkpt lat="63.01758" lon="7.35851">
        <ele>70.183457</ele>
        <time>2020-08-03T10:27:22.131Z</time>
      </trkpt>
      <trkpt lat="63.01763" lon="7.35874">
        <ele>69.271255</ele>
        <time>2020-08-03T10:27:23.138Z</time>
      </trkpt>
      <trkpt lat="63.01767" lon="7.35899">
        <ele>68.339504</ele>
        <time>2020-08-03T10:27:24.148Z</time>
      </trkpt>
      <trkpt lat="63.01772" lon="7.35924">
        <ele>67.374346</ele>
        <time>2020-08-03T10:27:25.110Z</time>
      </trkpt>
      <trkpt lat="63.01776" lon="7.3595">
        <ele>66.402072</ele>
        <time>2020-08-03T10:27:26.119Z</time>
      </trkpt>
      <trkpt lat="63.0178" lon="7.35976">
        <ele>65.446948</ele>
        <time>2020-08-03T10:27:27.129Z</time>
      </trkpt>
      <trkpt lat="63.01784" lon="7.36003">
        <ele>64.830498</ele>
        <time>2020-08-03T10:27:28.119Z</time>
      </trkpt>
      <trkpt lat="63.01788" lon="7.3603">
        <ele>64.212003</ele>
        <time>2020-08-03T10:27:29.118Z</time>
      </trkpt>
      <trkpt lat="63.01791" lon="7.36057">
        <ele>63.591067</ele>
        <time>2020-08-03T10:27:30.104Z</time>
      </trkpt>
      <trkpt lat="63.01794" lon="7.36085">
        <ele>62.98526</ele>
        <time>2020-08-03T10:27:31.098Z</time>
      </trkpt>
      <trkpt lat="63.01796" lon="7.36112">
        <ele>62.39099</ele>
        <time>2020-08-03T10:27:32.128Z</time>
      </trkpt>
      <trkpt lat="63.01797" lon="7.36138">
        <ele>61.80176</ele>
        <time>2020-08-03T10:27:33.106Z</time>
      </trkpt>
      <trkpt lat="63.01799" lon="7.36165">
        <ele>61.210146</ele>
        <time>2020-08-03T10:27:34.171Z</time>
      </trkpt>
      <trkpt lat="63.018" lon="7.36192">
        <ele>60.624917</ele>
        <time>2020-08-03T10:27:35.106Z</time>
      </trkpt>
      <trkpt lat="63.01801" lon="7.36218">
        <ele>60.042996</ele>
        <time>2020-08-03T10:27:36.105Z</time>
      </trkpt>
      <trkpt lat="63.01801" lon="7.36244">
        <ele>59.478805</ele>
        <time>2020-08-03T10:27:37.119Z</time>
      </trkpt>
      <trkpt lat="63.01802" lon="7.36269">
        <ele>58.935721</ele>
        <time>2020-08-03T10:27:38.135Z</time>
      </trkpt>
      <trkpt lat="63.01803" lon="7.36293">
        <ele>58.403103</ele>
        <time>2020-08-03T10:27:39.114Z</time>
      </trkpt>
      <trkpt lat="63.01805" lon="7.36316">
        <ele>57.894993</ele>
        <time>2020-08-03T10:27:40.105Z</time>
      </trkpt>
      <trkpt lat="63.01806" lon="7.36338">
        <ele>57.412868</ele>
        <time>2020-08-03T10:27:41.118Z</time>
      </trkpt>
      <trkpt lat="63.01807" lon="7.36359">
        <ele>56.958178</ele>
        <time>2020-08-03T10:27:42.105Z</time>
      </trkpt>
      <trkpt lat="63.01809" lon="7.36379">
        <ele>56.81919</ele>
        <time>2020-08-03T10:27:43.105Z</time>
      </trkpt>
      <trkpt lat="63.01811" lon="7.36399">
        <ele>56.79239</ele>
        <time>2020-08-03T10:27:44.112Z</time>
      </trkpt>
      <trkpt lat="63.01813" lon="7.36419">
        <ele>56.765568</ele>
        <time>2020-08-03T10:27:45.110Z</time>
      </trkpt>
      <trkpt lat="63.01818" lon="7.36455">
        <ele>56.715617</ele>
        <time>2020-08-03T10:27:47.136Z</time>
      </trkpt>
      <trkpt lat="63.01822" lon="7.36488">
        <ele>56.669838</ele>
        <time>2020-08-03T10:27:49.130Z</time>
      </trkpt>
      <trkpt lat="63.01827" lon="7.36519">
        <ele>56.626687</ele>
        <time>2020-08-03T10:27:51.128Z</time>
      </trkpt>
      <trkpt lat="63.01832" lon="7.36549">
        <ele>56.584768</ele>
        <time>2020-08-03T10:27:53.104Z</time>
      </trkpt>
      <trkpt lat="63.01837" lon="7.36577">
        <ele>56.544061</ele>
        <time>2020-08-03T10:27:55.106Z</time>
      </trkpt>
      <trkpt lat="63.01843" lon="7.36605">
        <ele>56.504476</ele>
        <time>2020-08-03T10:27:57.164Z</time>
      </trkpt>
      <trkpt lat="63.01849" lon="7.3663">
        <ele>56.466658</ele>
        <time>2020-08-03T10:27:59.120Z</time>
      </trkpt>
      <trkpt lat="63.01855" lon="7.36655">
        <ele>56.4289</ele>
        <time>2020-08-03T10:28:01.175Z</time>
      </trkpt>
      <trkpt lat="63.01861" lon="7.3668">
        <ele>56.391091</ele>
        <time>2020-08-03T10:28:03.154Z</time>
      </trkpt>
      <trkpt lat="63.01869" lon="7.36704">
        <ele>56.353016</ele>
        <time>2020-08-03T10:28:05.097Z</time>
      </trkpt>
      <trkpt lat="63.01876" lon="7.36729">
        <ele>56.314006</ele>
        <time>2020-08-03T10:28:07.114Z</time>
      </trkpt>
      <trkpt lat="63.01883" lon="7.36753">
        <ele>56.225893</ele>
        <time>2020-08-03T10:28:09.148Z</time>
      </trkpt>
      <trkpt lat="63.01891" lon="7.36777">
        <ele>56.136268</ele>
        <time>2020-08-03T10:28:11.112Z</time>
      </trkpt>
      <trkpt lat="63.019" lon="7.36802">
        <ele>56.044918</ele>
        <time>2020-08-03T10:28:13.114Z</time>
      </trkpt>
      <trkpt lat="63.01909" lon="7.36826">
        <ele>55.950372</ele>
        <time>2020-08-03T10:28:15.102Z</time>
      </trkpt>
      <trkpt lat="63.01918" lon="7.36851">
        <ele>55.854848</ele>
        <time>2020-08-03T10:28:17.141Z</time>
      </trkpt>
      <trkpt lat="63.01928" lon="7.36876">
        <ele>55.757161</ele>
        <time>2020-08-03T10:28:19.110Z</time>
      </trkpt>
      <trkpt lat="63.01939" lon="7.36901">
        <ele>55.655058</ele>
        <time>2020-08-03T10:28:21.133Z</time>
      </trkpt>
      <trkpt lat="63.01949" lon="7.36926">
        <ele>55.552534</ele>
        <time>2020-08-03T10:28:23.131Z</time>
      </trkpt>
      <trkpt lat="63.0196" lon="7.3695">
        <ele>55.451531</ele>
        <time>2020-08-03T10:28:25.105Z</time>
      </trkpt>
      <trkpt lat="63.0197" lon="7.36976">
        <ele>55.350769</ele>
        <time>2020-08-03T10:28:27.119Z</time>
      </trkpt>
      <trkpt lat="63.0198" lon="7.37001">
        <ele>55.252807</ele>
        <time>2020-08-03T10:28:29.118Z</time>
      </trkpt>
      <trkpt lat="63.01989" lon="7.37026">
        <ele>55.15628</ele>
        <time>2020-08-03T10:28:31.122Z</time>
      </trkpt>
      <trkpt lat="63.01998" lon="7.37052">
        <ele>55.446808</ele>
        <time>2020-08-03T10:28:33.135Z</time>
      </trkpt>
      <trkpt lat="63.02006" lon="7.37078">
        <ele>55.847461</ele>
        <time>2020-08-03T10:28:35.111Z</time>
      </trkpt>
      <trkpt lat="63.02013" lon="7.37102">
        <ele>56.222848</ele>
        <time>2020-08-03T10:28:37.104Z</time>
      </trkpt>
      <trkpt lat="63.0202" lon="7.37124">
        <ele>56.556762</ele>
        <time>2020-08-03T10:28:39.132Z</time>
      </trkpt>
      <trkpt lat="63.02025" lon="7.37144">
        <ele>56.858933</ele>
        <time>2020-08-03T10:28:41.129Z</time>
      </trkpt>
      <trkpt lat="63.02031" lon="7.37163">
        <ele>57.141936</ele>
        <time>2020-08-03T10:28:43.105Z</time>
      </trkpt>
      <trkpt lat="63.02036" lon="7.3718">
        <ele>57.406924</ele>
        <time>2020-08-03T10:28:45.140Z</time>
      </trkpt>
      <trkpt lat="63.02042" lon="7.37196">
        <ele>57.659919</ele>
        <time>2020-08-03T10:28:47.130Z</time>
      </trkpt>
      <trkpt lat="63.02049" lon="7.37218">
        <ele>58.011611</ele>
        <time>2020-08-03T10:28:50.133Z</time>
      </trkpt>
      <trkpt lat="63.02056" lon="7.37239">
        <ele>58.346752</ele>
        <time>2020-08-03T10:28:53.131Z</time>
      </trkpt>
      <trkpt lat="63.02063" lon="7.3726">
        <ele>58.667689</ele>
        <time>2020-08-03T10:28:56.113Z</time>
      </trkpt>
      <trkpt lat="63.0207" lon="7.37278">
        <ele>58.977613</ele>
        <time>2020-08-03T10:28:59.118Z</time>
      </trkpt>
      <trkpt lat="63.02078" lon="7.37296">
        <ele>59.302668</ele>
        <time>2020-08-03T10:29:02.095Z</time>
      </trkpt>
      <trkpt lat="63.02087" lon="7.37314">
        <ele>59.638278</ele>
        <time>2020-08-03T10:29:05.113Z</time>
      </trkpt>
      <trkpt lat="63.02097" lon="7.37332">
        <ele>59.997873</ele>
        <time>2020-08-03T10:29:08.109Z</time>
      </trkpt>
      <trkpt lat="63.02107" lon="7.3735">
        <ele>60.105697</ele>
        <time>2020-08-03T10:29:11.098Z</time>
      </trkpt>
      <trkpt lat="63.02118" lon="7.37367">
        <ele>59.960548</ele>
        <time>2020-08-03T10:29:14.141Z</time>
      </trkpt>
      <trkpt lat="63.02126" lon="7.37378">
        <ele>59.86127</ele>
        <time>2020-08-03T10:29:16.142Z</time>
      </trkpt>
      <trkpt lat="63.02133" lon="7.37391">
        <ele>59.758796</ele>
        <time>2020-08-03T10:29:18.111Z</time>
      </trkpt>
      <trkpt lat="63.0214" lon="7.37404">
        <ele>59.652049</ele>
        <time>2020-08-03T10:29:20.117Z</time>
      </trkpt>
      <trkpt lat="63.02149" lon="7.37419">
        <ele>59.536843</ele>
        <time>2020-08-03T10:29:22.140Z</time>
      </trkpt>
      <trkpt lat="63.02157" lon="7.37435">
        <ele>59.415679</ele>
        <time>2020-08-03T10:29:24.142Z</time>
      </trkpt>
      <trkpt lat="63.02166" lon="7.37452">
        <ele>59.28775</ele>
        <time>2020-08-03T10:29:26.123Z</time>
      </trkpt>
      <trkpt lat="63.02175" lon="7.37471">
        <ele>59.153902</ele>
        <time>2020-08-03T10:29:28.101Z</time>
      </trkpt>
      <trkpt lat="63.02183" lon="7.37491">
        <ele>59.016925</ele>
        <time>2020-08-03T10:29:30.102Z</time>
      </trkpt>
      <trkpt lat="63.02191" lon="7.37513">
        <ele>58.872439</ele>
        <time>2020-08-03T10:29:32.135Z</time>
      </trkpt>
      <trkpt lat="63.02199" lon="7.37537">
        <ele>58.728171</ele>
        <time>2020-08-03T10:29:34.124Z</time>
      </trkpt>
      <trkpt lat="63.02205" lon="7.37565">
        <ele>58.575453</ele>
        <time>2020-08-03T10:29:36.130Z</time>
      </trkpt>
      <trkpt lat="63.02211" lon="7.37593">
        <ele>58.422391</ele>
        <time>2020-08-03T10:29:38.118Z</time>
      </trkpt>
      <trkpt lat="63.02215" lon="7.37623">
        <ele>58.266247</ele>
        <time>2020-08-03T10:29:40.120Z</time>
      </trkpt>
      <trkpt lat="63.02219" lon="7.37654">
        <ele>57.882235</ele>
        <time>2020-08-03T10:29:42.111Z</time>
      </trkpt>
      <trkpt lat="63.02222" lon="7.37686">
        <ele>57.366714</ele>
        <time>2020-08-03T10:29:44.111Z</time>
      </trkpt>
      <trkpt lat="63.02223" lon="7.37718">
        <ele>56.864135</ele>
        <time>2020-08-03T10:29:46.104Z</time>
      </trkpt>
      <trkpt lat="63.02222" lon="7.3775">
        <ele>56.354048</ele>
        <time>2020-08-03T10:29:48.111Z</time>
      </trkpt>
      <trkpt lat="63.02222" lon="7.37783">
        <ele>55.838695</ele>
        <time>2020-08-03T10:29:50.118Z</time>
      </trkpt>
      <trkpt lat="63.0222" lon="7.37815">
        <ele>55.333471</ele>
        <time>2020-08-03T10:29:52.152Z</time>
      </trkpt>
      <trkpt lat="63.02218" lon="7.37845">
        <ele>54.846803</ele>
        <time>2020-08-03T10:29:54.114Z</time>
      </trkpt>
      <trkpt lat="63.02215" lon="7.37875">
        <ele>54.367874</ele>
        <time>2020-08-03T10:29:56.167Z</time>
      </trkpt>
      <trkpt lat="63.0221" lon="7.37903">
        <ele>53.898092</ele>
        <time>2020-08-03T10:29:58.115Z</time>
      </trkpt>
      <trkpt lat="63.02206" lon="7.37929">
        <ele>53.447673</ele>
        <time>2020-08-03T10:30:00.153Z</time>
      </trkpt>
      <trkpt lat="63.022" lon="7.37953">
        <ele>53.021809</ele>
        <time>2020-08-03T10:30:02.126Z</time>
      </trkpt>
      <trkpt lat="63.02195" lon="7.37975">
        <ele>52.628207</ele>
        <time>2020-08-03T10:30:04.136Z</time>
      </trkpt>
      <trkpt lat="63.02189" lon="7.37997">
        <ele>52.234567</ele>
        <time>2020-08-03T10:30:06.111Z</time>
      </trkpt>
      <trkpt lat="63.02182" lon="7.38017">
        <ele>51.966457</ele>
        <time>2020-08-03T10:30:08.094Z</time>
      </trkpt>
      <trkpt lat="63.02176" lon="7.38035">
        <ele>52.04444</ele>
        <time>2020-08-03T10:30:10.126Z</time>
      </trkpt>
      <trkpt lat="63.0217" lon="7.38053">
        <ele>52.12142</ele>
        <time>2020-08-03T10:30:12.099Z</time>
      </trkpt>
      <trkpt lat="63.02163" lon="7.3807">
        <ele>52.198079</ele>
        <time>2020-08-03T10:30:14.103Z</time>
      </trkpt>
      <trkpt lat="63.02156" lon="7.38086">
        <ele>52.271777</ele>
        <time>2020-08-03T10:30:16.098Z</time>
      </trkpt>
      <trkpt lat="63.0215" lon="7.38103">
        <ele>52.345218</ele>
        <time>2020-08-03T10:30:18.119Z</time>
      </trkpt>
      <trkpt lat="63.02144" lon="7.38119">
        <ele>52.417892</ele>
        <time>2020-08-03T10:30:20.106Z</time>
      </trkpt>
      <trkpt lat="63.02137" lon="7.38136">
        <ele>52.490311</ele>
        <time>2020-08-03T10:30:22.165Z</time>
      </trkpt>
      <trkpt lat="63.02131" lon="7.38151">
        <ele>52.559487</ele>
        <time>2020-08-03T10:30:24.099Z</time>
      </trkpt>
      <trkpt lat="63.02125" lon="7.38167">
        <ele>52.630643</ele>
        <time>2020-08-03T10:30:26.125Z</time>
      </trkpt>
      <trkpt lat="63.02118" lon="7.38182">
        <ele>52.701053</ele>
        <time>2020-08-03T10:30:28.144Z</time>
      </trkpt>
      <trkpt lat="63.02113" lon="7.38198">
        <ele>52.770098</ele>
        <time>2020-08-03T10:30:30.118Z</time>
      </trkpt>
      <trkpt lat="63.02107" lon="7.38214">
        <ele>52.838617</ele>
        <time>2020-08-03T10:30:32.133Z</time>
      </trkpt>
      <trkpt lat="63.02099" lon="7.38235">
        <ele>52.931262</ele>
        <time>2020-08-03T10:30:35.123Z</time>
      </trkpt>
      <trkpt lat="63.02092" lon="7.38254">
        <ele>53.012524</ele>
        <time>2020-08-03T10:30:38.134Z</time>
      </trkpt>
      <trkpt lat="63.02085" lon="7.3827">
        <ele>53.085487</ele>
        <time>2020-08-03T10:30:41.116Z</time>
      </trkpt>
      <trkpt lat="63.02079" lon="7.38285">
        <ele>53.153661</ele>
        <time>2020-08-03T10:30:44.104Z</time>
      </trkpt>
      <trkpt lat="63.02072" lon="7.38303">
        <ele>53.232416</ele>
        <time>2020-08-03T10:30:48.131Z</time>
      </trkpt>
      <trkpt lat="63.02066" lon="7.3832">
        <ele>53.289523</ele>
        <time>2020-08-03T10:30:52.110Z</time>
      </trkpt>
      <trkpt lat="63.02059" lon="7.38337">
        <ele>53.31147</ele>
        <time>2020-08-03T10:30:56.125Z</time>
      </trkpt>
      <trkpt lat="63.02053" lon="7.38353">
        <ele>53.331873</ele>
        <time>2020-08-03T10:31:00.163Z</time>
      </trkpt>
      <trkpt lat="63.02046" lon="7.38372">
        <ele>53.35504</ele>
        <time>2020-08-03T10:31:05.124Z</time>
      </trkpt>
      <trkpt lat="63.0204" lon="7.38388">
        <ele>53.375224</ele>
        <time>2020-08-03T10:31:09.120Z</time>
      </trkpt>
      <trkpt lat="63.02033" lon="7.38404">
        <ele>53.395674</ele>
        <time>2020-08-03T10:31:13.108Z</time>
      </trkpt>
      <trkpt lat="63.02028" lon="7.3842">
        <ele>53.415422</ele>
        <time>2020-08-03T10:31:17.135Z</time>
      </trkpt>
      <trkpt lat="63.02021" lon="7.38437">
        <ele>53.436299</ele>
        <time>2020-08-03T10:31:21.148Z</time>
      </trkpt>
      <trkpt lat="63.02015" lon="7.38453">
        <ele>53.456481</ele>
        <time>2020-08-03T10:31:24.109Z</time>
      </trkpt>
      <trkpt lat="63.02007" lon="7.38472">
        <ele>53.480996</ele>
        <time>2020-08-03T10:31:27.117Z</time>
      </trkpt>
      <trkpt lat="63.01999" lon="7.38494">
        <ele>53.509106</ele>
        <time>2020-08-03T10:31:30.113Z</time>
      </trkpt>
      <trkpt lat="63.01993" lon="7.38511">
        <ele>53.530349</ele>
        <time>2020-08-03T10:31:32.135Z</time>
      </trkpt>
      <trkpt lat="63.01985" lon="7.3853">
        <ele>53.553874</ele>
        <time>2020-08-03T10:31:34.130Z</time>
      </trkpt>
      <trkpt lat="63.01977" lon="7.38551">
        <ele>53.580121</ele>
        <time>2020-08-03T10:31:36.108Z</time>
      </trkpt>
      <trkpt lat="63.01969" lon="7.38574">
        <ele>53.608738</ele>
        <time>2020-08-03T10:31:38.130Z</time>
      </trkpt>
      <trkpt lat="63.0196" lon="7.38597">
        <ele>53.638881</ele>
        <time>2020-08-03T10:31:40.112Z</time>
      </trkpt>
      <trkpt lat="63.0195" lon="7.38622">
        <ele>53.600336</ele>
        <time>2020-08-03T10:31:42.133Z</time>
      </trkpt>
      <trkpt lat="63.01941" lon="7.38647">
        <ele>53.273708</ele>
        <time>2020-08-03T10:31:44.129Z</time>
      </trkpt>
      <trkpt lat="63.01932" lon="7.38671">
        <ele>52.954913</ele>
        <time>2020-08-03T10:31:46.113Z</time>
      </trkpt>
      <trkpt lat="63.01923" lon="7.38693">
        <ele>52.651292</ele>
        <time>2020-08-03T10:31:48.194Z</time>
      </trkpt>
      <trkpt lat="63.01915" lon="7.38714">
        <ele>52.362126</ele>
        <time>2020-08-03T10:31:50.113Z</time>
      </trkpt>
      <trkpt lat="63.01907" lon="7.38735">
        <ele>52.090234</ele>
        <time>2020-08-03T10:31:52.109Z</time>
      </trkpt>
      <trkpt lat="63.01899" lon="7.38754">
        <ele>51.823034</ele>
        <time>2020-08-03T10:31:54.112Z</time>
      </trkpt>
      <trkpt lat="63.01891" lon="7.38774">
        <ele>51.557328</ele>
        <time>2020-08-03T10:31:56.120Z</time>
      </trkpt>
      <trkpt lat="63.01884" lon="7.38793">
        <ele>51.301943</ele>
        <time>2020-08-03T10:31:58.097Z</time>
      </trkpt>
      <trkpt lat="63.01877" lon="7.38812">
        <ele>51.055583</ele>
        <time>2020-08-03T10:32:00.132Z</time>
      </trkpt>
      <trkpt lat="63.0187" lon="7.38829">
        <ele>50.813339</ele>
        <time>2020-08-03T10:32:02.117Z</time>
      </trkpt>
      <trkpt lat="63.01863" lon="7.38847">
        <ele>50.569555</ele>
        <time>2020-08-03T10:32:04.115Z</time>
      </trkpt>
      <trkpt lat="63.01856" lon="7.38864">
        <ele>50.341543</ele>
        <time>2020-08-03T10:32:06.108Z</time>
      </trkpt>
      <trkpt lat="63.0185" lon="7.38882">
        <ele>50.11339</ele>
        <time>2020-08-03T10:32:08.108Z</time>
      </trkpt>
      <trkpt lat="63.01844" lon="7.38899">
        <ele>49.890616</ele>
        <time>2020-08-03T10:32:10.153Z</time>
      </trkpt>
      <trkpt lat="63.01837" lon="7.38914">
        <ele>49.67489</ele>
        <time>2020-08-03T10:32:12.119Z</time>
      </trkpt>
      <trkpt lat="63.01831" lon="7.38929">
        <ele>49.687477</ele>
        <time>2020-08-03T10:32:14.120Z</time>
      </trkpt>
      <trkpt lat="63.01825" lon="7.38945">
        <ele>49.792778</ele>
        <time>2020-08-03T10:32:16.121Z</time>
      </trkpt>
      <trkpt lat="63.01819" lon="7.38961">
        <ele>49.900483</ele>
        <time>2020-08-03T10:32:18.105Z</time>
      </trkpt>
      <trkpt lat="63.01813" lon="7.38978">
        <ele>50.010352</ele>
        <time>2020-08-03T10:32:20.125Z</time>
      </trkpt>
      <trkpt lat="63.01807" lon="7.38993">
        <ele>50.113285</ele>
        <time>2020-08-03T10:32:22.106Z</time>
      </trkpt>
      <trkpt lat="63.01799" lon="7.39015">
        <ele>50.261552</ele>
        <time>2020-08-03T10:32:25.096Z</time>
      </trkpt>
      <trkpt lat="63.01793" lon="7.39031">
        <ele>50.366403</ele>
        <time>2020-08-03T10:32:27.107Z</time>
      </trkpt>
      <trkpt lat="63.01784" lon="7.39053">
        <ele>50.51916</ele>
        <time>2020-08-03T10:32:30.098Z</time>
      </trkpt>
      <trkpt lat="63.01775" lon="7.39075">
        <ele>50.671411</ele>
        <time>2020-08-03T10:32:33.114Z</time>
      </trkpt>
      <trkpt lat="63.01769" lon="7.39091">
        <ele>50.77559</ele>
        <time>2020-08-03T10:32:35.137Z</time>
      </trkpt>
      <trkpt lat="63.01761" lon="7.39113">
        <ele>50.923325</ele>
        <time>2020-08-03T10:32:38.099Z</time>
      </trkpt>
      <trkpt lat="63.01753" lon="7.39134">
        <ele>51.064964</ele>
        <time>2020-08-03T10:32:41.126Z</time>
      </trkpt>
      <trkpt lat="63.01745" lon="7.39154">
        <ele>51.201243</ele>
        <time>2020-08-03T10:32:44.104Z</time>
      </trkpt>
      <trkpt lat="63.01738" lon="7.39173">
        <ele>51.327593</ele>
        <time>2020-08-03T10:32:47.122Z</time>
      </trkpt>
      <trkpt lat="63.01732" lon="7.3919">
        <ele>51.444908</ele>
        <time>2020-08-03T10:32:50.128Z</time>
      </trkpt>
      <trkpt lat="63.01726" lon="7.39208">
        <ele>51.556436</ele>
        <time>2020-08-03T10:32:53.147Z</time>
      </trkpt>
      <trkpt lat="63.01721" lon="7.39224">
        <ele>51.66166</ele>
        <time>2020-08-03T10:32:56.103Z</time>
      </trkpt>
      <trkpt lat="63.01715" lon="7.3924">
        <ele>51.779939</ele>
        <time>2020-08-03T10:32:59.139Z</time>
      </trkpt>
      <trkpt lat="63.0171" lon="7.39257">
        <ele>51.900893</ele>
        <time>2020-08-03T10:33:02.135Z</time>
      </trkpt>
      <trkpt lat="63.01704" lon="7.39274">
        <ele>52.020412</ele>
        <time>2020-08-03T10:33:05.112Z</time>
      </trkpt>
      <trkpt lat="63.017" lon="7.39291">
        <ele>52.140201</ele>
        <time>2020-08-03T10:33:08.097Z</time>
      </trkpt>
      <trkpt lat="63.01694" lon="7.39309">
        <ele>52.26487</ele>
        <time>2020-08-03T10:33:11.110Z</time>
      </trkpt>
      <trkpt lat="63.0169" lon="7.39326">
        <ele>52.384659</ele>
        <time>2020-08-03T10:33:14.124Z</time>
      </trkpt>
      <trkpt lat="63.01684" lon="7.39343">
        <ele>52.508538</ele>
        <time>2020-08-03T10:33:17.140Z</time>
      </trkpt>
      <trkpt lat="63.01679" lon="7.39361">
        <ele>52.62983</ele>
        <time>2020-08-03T10:33:20.113Z</time>
      </trkpt>
      <trkpt lat="63.01675" lon="7.39379">
        <ele>52.755018</ele>
        <time>2020-08-03T10:33:23.123Z</time>
      </trkpt>
      <trkpt lat="63.0167" lon="7.39398">
        <ele>52.885736</ele>
        <time>2020-08-03T10:33:26.140Z</time>
      </trkpt>
      <trkpt lat="63.01664" lon="7.39418">
        <ele>53.020663</ele>
        <time>2020-08-03T10:33:29.128Z</time>
      </trkpt>
      <trkpt lat="63.01659" lon="7.39437">
        <ele>53.15541</ele>
        <time>2020-08-03T10:33:32.108Z</time>
      </trkpt>
      <trkpt lat="63.01653" lon="7.39457">
        <ele>53.290338</ele>
        <time>2020-08-03T10:33:35.134Z</time>
      </trkpt>
      <trkpt lat="63.01648" lon="7.39476">
        <ele>53.426094</ele>
        <time>2020-08-03T10:33:38.128Z</time>
      </trkpt>
      <trkpt lat="63.01642" lon="7.39497">
        <ele>53.571972</ele>
        <time>2020-08-03T10:33:41.128Z</time>
      </trkpt>
      <trkpt lat="63.01636" lon="7.39519">
        <ele>53.71799</ele>
        <time>2020-08-03T10:33:44.122Z</time>
      </trkpt>
      <trkpt lat="63.0163" lon="7.39541">
        <ele>53.868445</ele>
        <time>2020-08-03T10:33:47.129Z</time>
      </trkpt>
      <trkpt lat="63.01624" lon="7.39563">
        <ele>54.001922</ele>
        <time>2020-08-03T10:33:50.124Z</time>
      </trkpt>
      <trkpt lat="63.01617" lon="7.39586">
        <ele>54.030957</ele>
        <time>2020-08-03T10:33:53.128Z</time>
      </trkpt>
      <trkpt lat="63.0161" lon="7.3961">
        <ele>54.06125</ele>
        <time>2020-08-03T10:33:56.116Z</time>
      </trkpt>
      <trkpt lat="63.01605" lon="7.39626">
        <ele>54.082795</ele>
        <time>2020-08-03T10:33:58.104Z</time>
      </trkpt>
      <trkpt lat="63.01599" lon="7.39642">
        <ele>54.104794</ele>
        <time>2020-08-03T10:34:00.098Z</time>
      </trkpt>
      <trkpt lat="63.01592" lon="7.39658">
        <ele>54.127616</ele>
        <time>2020-08-03T10:34:02.115Z</time>
      </trkpt>
      <trkpt lat="63.01584" lon="7.39674">
        <ele>54.152027</ele>
        <time>2020-08-03T10:34:04.116Z</time>
      </trkpt>
      <trkpt lat="63.01576" lon="7.39689">
        <ele>54.176858</ele>
        <time>2020-08-03T10:34:06.102Z</time>
      </trkpt>
      <trkpt lat="63.01568" lon="7.39704">
        <ele>54.202406</ele>
        <time>2020-08-03T10:34:08.145Z</time>
      </trkpt>
      <trkpt lat="63.01559" lon="7.3972">
        <ele>54.229249</ele>
        <time>2020-08-03T10:34:10.135Z</time>
      </trkpt>
      <trkpt lat="63.01549" lon="7.39736">
        <ele>54.258342</ele>
        <time>2020-08-03T10:34:12.138Z</time>
      </trkpt>
      <trkpt lat="63.01538" lon="7.39754">
        <ele>54.289441</ele>
        <time>2020-08-03T10:34:14.107Z</time>
      </trkpt>
      <trkpt lat="63.01527" lon="7.39771">
        <ele>54.320417</ele>
        <time>2020-08-03T10:34:16.367Z</time>
      </trkpt>
      <trkpt lat="63.01517" lon="7.39787">
        <ele>54.350152</ele>
        <time>2020-08-03T10:34:18.120Z</time>
      </trkpt>
      <trkpt lat="63.01506" lon="7.39802">
        <ele>54.3793</ele>
        <time>2020-08-03T10:34:20.101Z</time>
      </trkpt>
      <trkpt lat="63.01496" lon="7.39816">
        <ele>54.406671</ele>
        <time>2020-08-03T10:34:22.115Z</time>
      </trkpt>
      <trkpt lat="63.01487" lon="7.39829">
        <ele>54.330491</ele>
        <time>2020-08-03T10:34:24.108Z</time>
      </trkpt>
      <trkpt lat="63.01478" lon="7.3984">
        <ele>54.192128</ele>
        <time>2020-08-03T10:34:26.123Z</time>
      </trkpt>
      <trkpt lat="63.01469" lon="7.39851">
        <ele>54.069921</ele>
        <time>2020-08-03T10:34:28.120Z</time>
      </trkpt>
      <trkpt lat="63.01459" lon="7.39867">
        <ele>53.902497</ele>
        <time>2020-08-03T10:34:31.111Z</time>
      </trkpt>
      <trkpt lat="63.0145" lon="7.39882">
        <ele>53.755017</ele>
        <time>2020-08-03T10:34:34.097Z</time>
      </trkpt>
      <trkpt lat="63.01442" lon="7.39896">
        <ele>53.622748</ele>
        <time>2020-08-03T10:34:37.135Z</time>
      </trkpt>
      <trkpt lat="63.01433" lon="7.39914">
        <ele>53.470805</ele>
        <time>2020-08-03T10:34:41.112Z</time>
      </trkpt>
      <trkpt lat="63.01426" lon="7.39933">
        <ele>53.322879</ele>
        <time>2020-08-03T10:34:45.174Z</time>
      </trkpt>
      <trkpt lat="63.0142" lon="7.39949">
        <ele>53.202759</ele>
        <time>2020-08-03T10:34:48.121Z</time>
      </trkpt>
      <trkpt lat="63.01414" lon="7.39965">
        <ele>53.08217</ele>
        <time>2020-08-03T10:34:51.110Z</time>
      </trkpt>
      <trkpt lat="63.01409" lon="7.39985">
        <ele>52.94708</ele>
        <time>2020-08-03T10:34:54.131Z</time>
      </trkpt>
      <trkpt lat="63.01403" lon="7.40007">
        <ele>52.794598</ele>
        <time>2020-08-03T10:34:57.115Z</time>
      </trkpt>
      <trkpt lat="63.01397" lon="7.40031">
        <ele>52.635963</ele>
        <time>2020-08-03T10:35:00.131Z</time>
      </trkpt>
      <trkpt lat="63.01392" lon="7.40058">
        <ele>52.461502</ele>
        <time>2020-08-03T10:35:03.127Z</time>
      </trkpt>
      <trkpt lat="63.01389" lon="7.40078">
        <ele>52.33646</ele>
        <time>2020-08-03T10:35:05.104Z</time>
      </trkpt>
      <trkpt lat="63.01386" lon="7.40099">
        <ele>52.209794</ele>
        <time>2020-08-03T10:35:07.132Z</time>
      </trkpt>
      <trkpt lat="63.01385" lon="7.40122">
        <ele>52.098483</ele>
        <time>2020-08-03T10:35:09.108Z</time>
      </trkpt>
      <trkpt lat="63.01383" lon="7.40145">
        <ele>52.221439</ele>
        <time>2020-08-03T10:35:11.114Z</time>
      </trkpt>
      <trkpt lat="63.01382" lon="7.40169">
        <ele>52.350647</ele>
        <time>2020-08-03T10:35:13.123Z</time>
      </trkpt>
      <trkpt lat="63.01382" lon="7.40194">
        <ele>52.478863</ele>
        <time>2020-08-03T10:35:15.129Z</time>
      </trkpt>
      <trkpt lat="63.01382" lon="7.40218">
        <ele>52.607219</ele>
        <time>2020-08-03T10:35:17.118Z</time>
      </trkpt>
      <trkpt lat="63.01384" lon="7.40243">
        <ele>52.736032</ele>
        <time>2020-08-03T10:35:19.168Z</time>
      </trkpt>
      <trkpt lat="63.01386" lon="7.40266">
        <ele>52.859829</ele>
        <time>2020-08-03T10:35:21.154Z</time>
      </trkpt>
      <trkpt lat="63.01387" lon="7.40288">
        <ele>52.976389</ele>
        <time>2020-08-03T10:35:23.122Z</time>
      </trkpt>
      <trkpt lat="63.0139" lon="7.40309">
        <ele>53.090978</ele>
        <time>2020-08-03T10:35:25.118Z</time>
      </trkpt>
      <trkpt lat="63.01392" lon="7.40329">
        <ele>53.199473</ele>
        <time>2020-08-03T10:35:27.124Z</time>
      </trkpt>
      <trkpt lat="63.01395" lon="7.40349">
        <ele>53.308132</ele>
        <time>2020-08-03T10:35:29.128Z</time>
      </trkpt>
      <trkpt lat="63.01398" lon="7.40369">
        <ele>53.41383</ele>
        <time>2020-08-03T10:35:31.104Z</time>
      </trkpt>
      <trkpt lat="63.014" lon="7.40388">
        <ele>53.517713</ele>
        <time>2020-08-03T10:35:33.119Z</time>
      </trkpt>
      <trkpt lat="63.01403" lon="7.40416">
        <ele>53.670767</ele>
        <time>2020-08-03T10:35:36.146Z</time>
      </trkpt>
      <trkpt lat="63.01405" lon="7.40445">
        <ele>53.8222</ele>
        <time>2020-08-03T10:35:39.123Z</time>
      </trkpt>
      <trkpt lat="63.01406" lon="7.40473">
        <ele>53.967882</ele>
        <time>2020-08-03T10:35:42.123Z</time>
      </trkpt>
      <trkpt lat="63.01407" lon="7.40499">
        <ele>54.105545</ele>
        <time>2020-08-03T10:35:45.127Z</time>
      </trkpt>
      <trkpt lat="63.01407" lon="7.40524">
        <ele>54.12863</ele>
        <time>2020-08-03T10:35:48.124Z</time>
      </trkpt>
      <trkpt lat="63.01406" lon="7.4055">
        <ele>54.070645</ele>
        <time>2020-08-03T10:35:51.116Z</time>
      </trkpt>
      <trkpt lat="63.01406" lon="7.40574">
        <ele>54.014449</ele>
        <time>2020-08-03T10:35:54.147Z</time>
      </trkpt>
      <trkpt lat="63.01405" lon="7.406">
        <ele>53.954581</ele>
        <time>2020-08-03T10:35:57.119Z</time>
      </trkpt>
      <trkpt lat="63.01404" lon="7.40627">
        <ele>53.893442</ele>
        <time>2020-08-03T10:36:00.120Z</time>
      </trkpt>
      <trkpt lat="63.01402" lon="7.40656">
        <ele>53.828074</ele>
        <time>2020-08-03T10:36:03.111Z</time>
      </trkpt>
      <trkpt lat="63.01401" lon="7.40685">
        <ele>53.761435</ele>
        <time>2020-08-03T10:36:06.105Z</time>
      </trkpt>
      <trkpt lat="63.01401" lon="7.40705">
        <ele>53.715951</ele>
        <time>2020-08-03T10:36:08.104Z</time>
      </trkpt>
      <trkpt lat="63.01399" lon="7.40725">
        <ele>53.668415</ele>
        <time>2020-08-03T10:36:10.133Z</time>
      </trkpt>
      <trkpt lat="63.01399" lon="7.40746">
        <ele>53.620709</ele>
        <time>2020-08-03T10:36:12.128Z</time>
      </trkpt>
      <trkpt lat="63.01399" lon="7.40769">
        <ele>53.568674</ele>
        <time>2020-08-03T10:36:14.118Z</time>
      </trkpt>
      <trkpt lat="63.01399" lon="7.40792">
        <ele>53.515729</ele>
        <time>2020-08-03T10:36:16.109Z</time>
      </trkpt>
      <trkpt lat="63.014" lon="7.40816">
        <ele>53.461183</ele>
        <time>2020-08-03T10:36:18.122Z</time>
      </trkpt>
      <trkpt lat="63.01401" lon="7.40839">
        <ele>53.408045</ele>
        <time>2020-08-03T10:36:20.120Z</time>
      </trkpt>
      <trkpt lat="63.01402" lon="7.40862">
        <ele>53.354812</ele>
        <time>2020-08-03T10:36:22.095Z</time>
      </trkpt>
      <trkpt lat="63.01403" lon="7.40887">
        <ele>53.298911</ele>
        <time>2020-08-03T10:36:24.129Z</time>
      </trkpt>
      <trkpt lat="63.01405" lon="7.40911">
        <ele>53.267164</ele>
        <time>2020-08-03T10:36:26.154Z</time>
      </trkpt>
      <trkpt lat="63.01406" lon="7.40937">
        <ele>53.303949</ele>
        <time>2020-08-03T10:36:28.128Z</time>
      </trkpt>
      <trkpt lat="63.01407" lon="7.40962">
        <ele>53.340591</ele>
        <time>2020-08-03T10:36:30.108Z</time>
      </trkpt>
      <trkpt lat="63.01408" lon="7.40988">
        <ele>53.377938</ele>
        <time>2020-08-03T10:36:32.109Z</time>
      </trkpt>
      <trkpt lat="63.01409" lon="7.41013">
        <ele>53.414521</ele>
        <time>2020-08-03T10:36:34.114Z</time>
      </trkpt>
      <trkpt lat="63.0141" lon="7.41038">
        <ele>53.450527</ele>
        <time>2020-08-03T10:36:36.128Z</time>
      </trkpt>
      <trkpt lat="63.0141" lon="7.41062">
        <ele>53.484883</ele>
        <time>2020-08-03T10:36:38.105Z</time>
      </trkpt>
      <trkpt lat="63.0141" lon="7.41086">
        <ele>53.520256</ele>
        <time>2020-08-03T10:36:40.110Z</time>
      </trkpt>
      <trkpt lat="63.01409" lon="7.41111">
        <ele>53.555524</ele>
        <time>2020-08-03T10:36:42.133Z</time>
      </trkpt>
      <trkpt lat="63.01408" lon="7.41135">
        <ele>53.590982</ele>
        <time>2020-08-03T10:36:44.150Z</time>
      </trkpt>
      <trkpt lat="63.01406" lon="7.41158">
        <ele>53.624851</ele>
        <time>2020-08-03T10:36:46.114Z</time>
      </trkpt>
      <trkpt lat="63.01404" lon="7.41181">
        <ele>53.658341</ele>
        <time>2020-08-03T10:36:48.133Z</time>
      </trkpt>
      <trkpt lat="63.01402" lon="7.41202">
        <ele>53.689026</ele>
        <time>2020-08-03T10:36:50.106Z</time>
      </trkpt>
      <trkpt lat="63.014" lon="7.41223">
        <ele>53.720766</ele>
        <time>2020-08-03T10:36:52.117Z</time>
      </trkpt>
      <trkpt lat="63.01398" lon="7.41244">
        <ele>53.752367</ele>
        <time>2020-08-03T10:36:54.152Z</time>
      </trkpt>
      <trkpt lat="63.01395" lon="7.41264">
        <ele>53.782225</ele>
        <time>2020-08-03T10:36:56.132Z</time>
      </trkpt>
      <trkpt lat="63.01391" lon="7.41292">
        <ele>53.824267</ele>
        <time>2020-08-03T10:36:59.105Z</time>
      </trkpt>
      <trkpt lat="63.01388" lon="7.41318">
        <ele>54.064873</ele>
        <time>2020-08-03T10:37:02.110Z</time>
      </trkpt>
      <trkpt lat="63.01384" lon="7.41341">
        <ele>54.31436</ele>
        <time>2020-08-03T10:37:05.119Z</time>
      </trkpt>
      <trkpt lat="63.0138" lon="7.41361">
        <ele>54.533855</ele>
        <time>2020-08-03T10:37:08.119Z</time>
      </trkpt>
      <trkpt lat="63.01376" lon="7.41385">
        <ele>54.794936</ele>
        <time>2020-08-03T10:37:12.115Z</time>
      </trkpt>
      <trkpt lat="63.01372" lon="7.41408">
        <ele>55.041517</ele>
        <time>2020-08-03T10:37:16.114Z</time>
      </trkpt>
      <trkpt lat="63.01368" lon="7.41428">
        <ele>55.260139</ele>
        <time>2020-08-03T10:37:20.139Z</time>
      </trkpt>
      <trkpt lat="63.01364" lon="7.41445">
        <ele>55.461497</ele>
        <time>2020-08-03T10:37:24.119Z</time>
      </trkpt>
      <trkpt lat="63.01359" lon="7.41467">
        <ele>55.702168</ele>
        <time>2020-08-03T10:37:29.117Z</time>
      </trkpt>
      <trkpt lat="63.01356" lon="7.41486">
        <ele>55.909671</ele>
        <time>2020-08-03T10:37:34.125Z</time>
      </trkpt>
      <trkpt lat="63.01352" lon="7.41506">
        <ele>56.134954</ele>
        <time>2020-08-03T10:37:39.116Z</time>
      </trkpt>
      <trkpt lat="63.01348" lon="7.41527">
        <ele>56.361181</ele>
        <time>2020-08-03T10:37:44.108Z</time>
      </trkpt>
      <trkpt lat="63.01345" lon="7.41547">
        <ele>56.577171</ele>
        <time>2020-08-03T10:37:49.109Z</time>
      </trkpt>
      <trkpt lat="63.01341" lon="7.41566">
        <ele>56.782939</ele>
        <time>2020-08-03T10:37:54.132Z</time>
      </trkpt>
      <trkpt lat="63.01337" lon="7.41585">
        <ele>57.001482</ele>
        <time>2020-08-03T10:37:59.102Z</time>
      </trkpt>
      <trkpt lat="63.01333" lon="7.41605">
        <ele>57.221911</ele>
        <time>2020-08-03T10:38:04.108Z</time>
      </trkpt>
      <trkpt lat="63.0133" lon="7.41625">
        <ele>57.427318</ele>
        <time>2020-08-03T10:38:08.135Z</time>
      </trkpt>
      <trkpt lat="63.01326" lon="7.41647">
        <ele>57.67723</ele>
        <time>2020-08-03T10:38:12.127Z</time>
      </trkpt>
      <trkpt lat="63.01322" lon="7.41667">
        <ele>57.768376</ele>
        <time>2020-08-03T10:38:15.123Z</time>
      </trkpt>
      <trkpt lat="63.01318" lon="7.4169">
        <ele>57.423253</ele>
        <time>2020-08-03T10:38:18.107Z</time>
      </trkpt>
      <trkpt lat="63.01312" lon="7.41715">
        <ele>57.029417</ele>
        <time>2020-08-03T10:38:21.149Z</time>
      </trkpt>
      <trkpt lat="63.01309" lon="7.41735">
        <ele>56.727781</ele>
        <time>2020-08-03T10:38:23.123Z</time>
      </trkpt>
      <trkpt lat="63.01305" lon="7.41758">
        <ele>56.382458</ele>
        <time>2020-08-03T10:38:25.122Z</time>
      </trkpt>
      <trkpt lat="63.013" lon="7.41783">
        <ele>55.997218</ele>
        <time>2020-08-03T10:38:27.140Z</time>
      </trkpt>
      <trkpt lat="63.01295" lon="7.4181">
        <ele>55.593976</ele>
        <time>2020-08-03T10:38:29.124Z</time>
      </trkpt>
      <trkpt lat="63.0129" lon="7.41837">
        <ele>55.176796</ele>
        <time>2020-08-03T10:38:31.129Z</time>
      </trkpt>
      <trkpt lat="63.01285" lon="7.41867">
        <ele>54.727534</ele>
        <time>2020-08-03T10:38:33.143Z</time>
      </trkpt>
      <trkpt lat="63.01279" lon="7.41896">
        <ele>54.274651</ele>
        <time>2020-08-03T10:38:35.116Z</time>
      </trkpt>
      <trkpt lat="63.01273" lon="7.41927">
        <ele>53.799812</ele>
        <time>2020-08-03T10:38:37.112Z</time>
      </trkpt>
      <trkpt lat="63.01267" lon="7.41958">
        <ele>53.333967</ele>
        <time>2020-08-03T10:38:39.120Z</time>
      </trkpt>
      <trkpt lat="63.01261" lon="7.41988">
        <ele>52.868122</ele>
        <time>2020-08-03T10:38:41.140Z</time>
      </trkpt>
      <trkpt lat="63.01255" lon="7.42017">
        <ele>52.422978</ele>
        <time>2020-08-03T10:38:43.126Z</time>
      </trkpt>
      <trkpt lat="63.0125" lon="7.42045">
        <ele>52.416379</ele>
        <time>2020-08-03T10:38:45.144Z</time>
      </trkpt>
      <trkpt lat="63.01245" lon="7.42072">
        <ele>52.649041</ele>
        <time>2020-08-03T10:38:47.112Z</time>
      </trkpt>
      <trkpt lat="63.01241" lon="7.42097">
        <ele>52.870419</ele>
        <time>2020-08-03T10:38:49.127Z</time>
      </trkpt>
      <trkpt lat="63.01236" lon="7.42119">
        <ele>53.07368</ele>
        <time>2020-08-03T10:38:51.128Z</time>
      </trkpt>
      <trkpt lat="63.01232" lon="7.42142">
        <ele>53.276907</ele>
        <time>2020-08-03T10:38:53.113Z</time>
      </trkpt>
      <trkpt lat="63.01227" lon="7.42163">
        <ele>53.473385</ele>
        <time>2020-08-03T10:38:55.128Z</time>
      </trkpt>
      <trkpt lat="63.01223" lon="7.42184">
        <ele>53.657849</ele>
        <time>2020-08-03T10:38:57.110Z</time>
      </trkpt>
      <trkpt lat="63.01219" lon="7.42203">
        <ele>53.829618</ele>
        <time>2020-08-03T10:38:59.119Z</time>
      </trkpt>
      <trkpt lat="63.01214" lon="7.4223">
        <ele>54.068117</ele>
        <time>2020-08-03T10:39:02.104Z</time>
      </trkpt>
      <trkpt lat="63.01209" lon="7.42254">
        <ele>54.28786</ele>
        <time>2020-08-03T10:39:05.105Z</time>
      </trkpt>
      <trkpt lat="63.01204" lon="7.42278">
        <ele>54.50308</ele>
        <time>2020-08-03T10:39:08.136Z</time>
      </trkpt>
      <trkpt lat="63.012" lon="7.42301">
        <ele>54.713178</ele>
        <time>2020-08-03T10:39:11.104Z</time>
      </trkpt>
      <trkpt lat="63.01195" lon="7.42322">
        <ele>54.902155</ele>
        <time>2020-08-03T10:39:14.136Z</time>
      </trkpt>
      <trkpt lat="63.01191" lon="7.42344">
        <ele>55.095619</ele>
        <time>2020-08-03T10:39:18.111Z</time>
      </trkpt>
      <trkpt lat="63.01187" lon="7.42364">
        <ele>55.274117</ele>
        <time>2020-08-03T10:39:22.116Z</time>
      </trkpt>
      <trkpt lat="63.01183" lon="7.42384">
        <ele>55.463866</ele>
        <time>2020-08-03T10:39:26.133Z</time>
      </trkpt>
      <trkpt lat="63.01179" lon="7.42404">
        <ele>55.689485</ele>
        <time>2020-08-03T10:39:30.119Z</time>
      </trkpt>
      <trkpt lat="63.01176" lon="7.42425">
        <ele>55.953386</ele>
        <time>2020-08-03T10:39:34.131Z</time>
      </trkpt>
      <trkpt lat="63.01172" lon="7.42444">
        <ele>56.210797</ele>
        <time>2020-08-03T10:39:38.138Z</time>
      </trkpt>
      <trkpt lat="63.01169" lon="7.42464">
        <ele>56.460674</ele>
        <time>2020-08-03T10:39:42.109Z</time>
      </trkpt>
      <trkpt lat="63.01165" lon="7.42484">
        <ele>56.722702</ele>
        <time>2020-08-03T10:39:46.111Z</time>
      </trkpt>
      <trkpt lat="63.01161" lon="7.42504">
        <ele>56.985625</ele>
        <time>2020-08-03T10:39:50.144Z</time>
      </trkpt>
      <trkpt lat="63.01157" lon="7.42523">
        <ele>57.250975</ele>
        <time>2020-08-03T10:39:54.118Z</time>
      </trkpt>
      <trkpt lat="63.01152" lon="7.42544">
        <ele>57.535156</ele>
        <time>2020-08-03T10:39:58.108Z</time>
      </trkpt>
      <trkpt lat="63.01147" lon="7.42564">
        <ele>57.815239</ele>
        <time>2020-08-03T10:40:02.118Z</time>
      </trkpt>
      <trkpt lat="63.01141" lon="7.42585">
        <ele>58.113398</ele>
        <time>2020-08-03T10:40:06.118Z</time>
      </trkpt>
      <trkpt lat="63.01133" lon="7.42606">
        <ele>58.429136</ele>
        <time>2020-08-03T10:40:10.118Z</time>
      </trkpt>
      <trkpt lat="63.01127" lon="7.42622">
        <ele>58.683617</ele>
        <time>2020-08-03T10:40:13.132Z</time>
      </trkpt>
      <trkpt lat="63.01121" lon="7.42639">
        <ele>58.941473</ele>
        <time>2020-08-03T10:40:16.118Z</time>
      </trkpt>
      <trkpt lat="63.01114" lon="7.42657">
        <ele>59.231897</ele>
        <time>2020-08-03T10:40:19.126Z</time>
      </trkpt>
      <trkpt lat="63.01107" lon="7.42676">
        <ele>59.532459</ele>
        <time>2020-08-03T10:40:22.144Z</time>
      </trkpt>
      <trkpt lat="63.011" lon="7.42693">
        <ele>59.814266</ele>
        <time>2020-08-03T10:40:25.129Z</time>
      </trkpt>
      <trkpt lat="63.01093" lon="7.42711">
        <ele>60.102307</ele>
        <time>2020-08-03T10:40:28.104Z</time>
      </trkpt>
      <trkpt lat="63.01085" lon="7.42728">
        <ele>60.346797</ele>
        <time>2020-08-03T10:40:31.143Z</time>
      </trkpt>
      <trkpt lat="63.01078" lon="7.42745">
        <ele>60.46702</ele>
        <time>2020-08-03T10:40:34.112Z</time>
      </trkpt>
      <trkpt lat="63.01071" lon="7.42761">
        <ele>60.590429</ele>
        <time>2020-08-03T10:40:37.139Z</time>
      </trkpt>
      <trkpt lat="63.01064" lon="7.42778">
        <ele>60.710233</ele>
        <time>2020-08-03T10:40:40.169Z</time>
      </trkpt>
      <trkpt lat="63.01057" lon="7.42794">
        <ele>60.826935</ele>
        <time>2020-08-03T10:40:43.106Z</time>
      </trkpt>
      <trkpt lat="63.0105" lon="7.42809">
        <ele>60.937023</ele>
        <time>2020-08-03T10:40:46.113Z</time>
      </trkpt>
      <trkpt lat="63.01043" lon="7.42825">
        <ele>61.056482</ele>
        <time>2020-08-03T10:40:49.136Z</time>
      </trkpt>
      <trkpt lat="63.01036" lon="7.42843">
        <ele>61.180985</ele>
        <time>2020-08-03T10:40:52.127Z</time>
      </trkpt>
      <trkpt lat="63.01029" lon="7.42859">
        <ele>61.297658</ele>
        <time>2020-08-03T10:40:55.131Z</time>
      </trkpt>
      <trkpt lat="63.01023" lon="7.42874">
        <ele>61.40338</ele>
        <time>2020-08-03T10:40:58.110Z</time>
      </trkpt>
      <trkpt lat="63.01015" lon="7.42893">
        <ele>61.536924</ele>
        <time>2020-08-03T10:41:02.132Z</time>
      </trkpt>
      <trkpt lat="63.01009" lon="7.42906">
        <ele>61.64063</ele>
        <time>2020-08-03T10:41:05.130Z</time>
      </trkpt>
      <trkpt lat="63.01002" lon="7.42921">
        <ele>61.750262</ele>
        <time>2020-08-03T10:41:08.145Z</time>
      </trkpt>
      <trkpt lat="63.00994" lon="7.4294">
        <ele>61.888098</ele>
        <time>2020-08-03T10:41:12.124Z</time>
      </trkpt>
      <trkpt lat="63.00987" lon="7.4296">
        <ele>62.026836</ele>
        <time>2020-08-03T10:41:16.143Z</time>
      </trkpt>
      <trkpt lat="63.0098" lon="7.42976">
        <ele>62.137264</ele>
        <time>2020-08-03T10:41:19.128Z</time>
      </trkpt>
      <trkpt lat="63.00974" lon="7.42991">
        <ele>62.246509</ele>
        <time>2020-08-03T10:41:22.119Z</time>
      </trkpt>
      <trkpt lat="63.00968" lon="7.43008">
        <ele>62.363481</ele>
        <time>2020-08-03T10:41:25.147Z</time>
      </trkpt>
      <trkpt lat="63.00961" lon="7.43028">
        <ele>62.509446</ele>
        <time>2020-08-03T10:41:29.138Z</time>
      </trkpt>
      <trkpt lat="63.00955" lon="7.43045">
        <ele>62.637438</ele>
        <time>2020-08-03T10:41:32.131Z</time>
      </trkpt>
      <trkpt lat="63.00947" lon="7.43063">
        <ele>62.784607</ele>
        <time>2020-08-03T10:41:35.135Z</time>
      </trkpt>
      <trkpt lat="63.00941" lon="7.4308">
        <ele>62.916543</ele>
        <time>2020-08-03T10:41:38.114Z</time>
      </trkpt>
      <trkpt lat="63.00937" lon="7.43098">
        <ele>63.039125</ele>
        <time>2020-08-03T10:41:41.116Z</time>
      </trkpt>
      <trkpt lat="63.00938" lon="7.4312">
        <ele>63.172162</ele>
        <time>2020-08-03T10:41:44.118Z</time>
      </trkpt>
      <trkpt lat="63.00938" lon="7.43145">
        <ele>63.318293</ele>
        <time>2020-08-03T10:41:47.132Z</time>
      </trkpt>
      <trkpt lat="63.00941" lon="7.43164">
        <ele>63.442136</ele>
        <time>2020-08-03T10:41:50.112Z</time>
      </trkpt>
      <trkpt lat="63.00947" lon="7.43183">
        <ele>63.581938</ele>
        <time>2020-08-03T10:41:53.142Z</time>
      </trkpt>
      <trkpt lat="63.00954" lon="7.43203">
        <ele>63.730378</ele>
        <time>2020-08-03T10:41:56.133Z</time>
      </trkpt>
      <trkpt lat="63.00961" lon="7.43221">
        <ele>63.874548</ele>
        <time>2020-08-03T10:41:59.118Z</time>
      </trkpt>
      <trkpt lat="63.00967" lon="7.43241">
        <ele>64.020511</ele>
        <time>2020-08-03T10:42:02.118Z</time>
      </trkpt>
      <trkpt lat="63.00973" lon="7.43261">
        <ele>64.166709</ele>
        <time>2020-08-03T10:42:05.131Z</time>
      </trkpt>
      <trkpt lat="63.0098" lon="7.43281">
        <ele>64.317142</ele>
        <time>2020-08-03T10:42:08.135Z</time>
      </trkpt>
      <trkpt lat="63.00988" lon="7.43301">
        <ele>64.479079</ele>
        <time>2020-08-03T10:42:11.117Z</time>
      </trkpt>
      <trkpt lat="63.00995" lon="7.43323">
        <ele>64.639013</ele>
        <time>2020-08-03T10:42:14.132Z</time>
      </trkpt>
      <trkpt lat="63.01002" lon="7.43345">
        <ele>64.798446</ele>
        <time>2020-08-03T10:42:17.136Z</time>
      </trkpt>
      <trkpt lat="63.0101" lon="7.43368">
        <ele>64.772622</ele>
        <time>2020-08-03T10:42:20.147Z</time>
      </trkpt>
      <trkpt lat="63.01017" lon="7.43392">
        <ele>64.746317</ele>
        <time>2020-08-03T10:42:23.108Z</time>
      </trkpt>
      <trkpt lat="63.01024" lon="7.43414">
        <ele>64.721554</ele>
        <time>2020-08-03T10:42:26.121Z</time>
      </trkpt>
      <trkpt lat="63.01032" lon="7.43437">
        <ele>64.696077</ele>
        <time>2020-08-03T10:42:29.134Z</time>
      </trkpt>
      <trkpt lat="63.01039" lon="7.4346">
        <ele>64.6706</ele>
        <time>2020-08-03T10:42:32.151Z</time>
      </trkpt>
      <trkpt lat="63.01046" lon="7.43483">
        <ele>64.644747</ele>
        <time>2020-08-03T10:42:35.115Z</time>
      </trkpt>
      <trkpt lat="63.01054" lon="7.43507">
        <ele>64.617758</ele>
        <time>2020-08-03T10:42:38.142Z</time>
      </trkpt>
      <trkpt lat="63.01062" lon="7.4353">
        <ele>64.591191</ele>
        <time>2020-08-03T10:42:41.112Z</time>
      </trkpt>
      <trkpt lat="63.01067" lon="7.43547">
        <ele>64.572913</ele>
        <time>2020-08-03T10:42:43.108Z</time>
      </trkpt>
      <trkpt lat="63.01072" lon="7.43563">
        <ele>64.554821</ele>
        <time>2020-08-03T10:42:45.150Z</time>
      </trkpt>
      <trkpt lat="63.01078" lon="7.43579">
        <ele>64.536881</ele>
        <time>2020-08-03T10:42:47.125Z</time>
      </trkpt>
      <trkpt lat="63.01085" lon="7.43602">
        <ele>64.510726</ele>
        <time>2020-08-03T10:42:50.112Z</time>
      </trkpt>
      <trkpt lat="63.01092" lon="7.43624">
        <ele>64.485963</ele>
        <time>2020-08-03T10:42:53.113Z</time>
      </trkpt>
      <trkpt lat="63.01099" lon="7.43645">
        <ele>64.462748</ele>
        <time>2020-08-03T10:42:56.123Z</time>
      </trkpt>
      <trkpt lat="63.01105" lon="7.43666">
        <ele>64.439759</ele>
        <time>2020-08-03T10:42:59.148Z</time>
      </trkpt>
      <trkpt lat="63.01111" lon="7.43687">
        <ele>64.511819</ele>
        <time>2020-08-03T10:43:02.148Z</time>
      </trkpt>
      <trkpt lat="63.01117" lon="7.43708">
        <ele>64.597424</ele>
        <time>2020-08-03T10:43:05.113Z</time>
      </trkpt>
      <trkpt lat="63.01123" lon="7.4373">
        <ele>64.682953</ele>
        <time>2020-08-03T10:43:08.115Z</time>
      </trkpt>
      <trkpt lat="63.01131" lon="7.43752">
        <ele>64.775878</ele>
        <time>2020-08-03T10:43:11.148Z</time>
      </trkpt>
      <trkpt lat="63.01139" lon="7.43773">
        <ele>64.86871</ele>
        <time>2020-08-03T10:43:14.152Z</time>
      </trkpt>
      <trkpt lat="63.01146" lon="7.43795">
        <ele>64.956699</ele>
        <time>2020-08-03T10:43:17.122Z</time>
      </trkpt>
      <trkpt lat="63.01152" lon="7.43816">
        <ele>65.043864</ele>
        <time>2020-08-03T10:43:20.119Z</time>
      </trkpt>
      <trkpt lat="63.01159" lon="7.43837">
        <ele>65.129079</ele>
        <time>2020-08-03T10:43:23.112Z</time>
      </trkpt>
      <trkpt lat="63.01165" lon="7.43856">
        <ele>65.209722</ele>
        <time>2020-08-03T10:43:26.165Z</time>
      </trkpt>
      <trkpt lat="63.01171" lon="7.43876">
        <ele>65.287193</ele>
        <time>2020-08-03T10:43:29.115Z</time>
      </trkpt>
      <trkpt lat="63.01176" lon="7.43896">
        <ele>65.365474</ele>
        <time>2020-08-03T10:43:32.146Z</time>
      </trkpt>
      <trkpt lat="63.01182" lon="7.43915">
        <ele>65.442642</ele>
        <time>2020-08-03T10:43:35.167Z</time>
      </trkpt>
      <trkpt lat="63.01189" lon="7.43934">
        <ele>65.525071</ele>
        <time>2020-08-03T10:43:38.114Z</time>
      </trkpt>
      <trkpt lat="63.01196" lon="7.43954">
        <ele>65.609959</ele>
        <time>2020-08-03T10:43:41.114Z</time>
      </trkpt>
      <trkpt lat="63.01203" lon="7.43972">
        <ele>65.688382</ele>
        <time>2020-08-03T10:43:44.120Z</time>
      </trkpt>
      <trkpt lat="63.01209" lon="7.4399">
        <ele>65.762076</ele>
        <time>2020-08-03T10:43:47.143Z</time>
      </trkpt>
      <trkpt lat="63.01214" lon="7.44008">
        <ele>66.055443</ele>
        <time>2020-08-03T10:43:50.133Z</time>
      </trkpt>
      <trkpt lat="63.01221" lon="7.44025">
        <ele>66.392627</ele>
        <time>2020-08-03T10:43:53.117Z</time>
      </trkpt>
      <trkpt lat="63.01226" lon="7.44041">
        <ele>66.699409</ele>
        <time>2020-08-03T10:43:56.132Z</time>
      </trkpt>
      <trkpt lat="63.01232" lon="7.44058">
        <ele>67.018101</ele>
        <time>2020-08-03T10:43:59.126Z</time>
      </trkpt>
      <trkpt lat="63.01237" lon="7.44075">
        <ele>67.316112</ele>
        <time>2020-08-03T10:44:02.136Z</time>
      </trkpt>
      <trkpt lat="63.01244" lon="7.44094">
        <ele>67.692547</ele>
        <time>2020-08-03T10:44:06.109Z</time>
      </trkpt>
      <trkpt lat="63.0125" lon="7.44113">
        <ele>68.033404</ele>
        <time>2020-08-03T10:44:10.131Z</time>
      </trkpt>
      <trkpt lat="63.01256" lon="7.44133">
        <ele>68.395353</ele>
        <time>2020-08-03T10:44:14.130Z</time>
      </trkpt>
      <trkpt lat="63.01262" lon="7.44152">
        <ele>68.743712</ele>
        <time>2020-08-03T10:44:18.153Z</time>
      </trkpt>
      <trkpt lat="63.01267" lon="7.4417">
        <ele>69.061576</ele>
        <time>2020-08-03T10:44:22.131Z</time>
      </trkpt>
      <trkpt lat="63.01273" lon="7.44188">
        <ele>69.385677</ele>
        <time>2020-08-03T10:44:26.105Z</time>
      </trkpt>
      <trkpt lat="63.01279" lon="7.44205">
        <ele>69.717974</ele>
        <time>2020-08-03T10:44:30.140Z</time>
      </trkpt>
      <trkpt lat="63.01284" lon="7.44224">
        <ele>70.058833</ele>
        <time>2020-08-03T10:44:34.117Z</time>
      </trkpt>
      <trkpt lat="63.01289" lon="7.44244">
        <ele>70.397864</ele>
        <time>2020-08-03T10:44:38.144Z</time>
      </trkpt>
      <trkpt lat="63.01295" lon="7.44261">
        <ele>70.706421</ele>
        <time>2020-08-03T10:44:42.118Z</time>
      </trkpt>
      <trkpt lat="63.01301" lon="7.44278">
        <ele>71.032275</ele>
        <time>2020-08-03T10:44:46.104Z</time>
      </trkpt>
      <trkpt lat="63.01307" lon="7.44296">
        <ele>71.366313</ele>
        <time>2020-08-03T10:44:50.118Z</time>
      </trkpt>
      <trkpt lat="63.01313" lon="7.44314">
        <ele>71.703008</ele>
        <time>2020-08-03T10:44:54.122Z</time>
      </trkpt>
      <trkpt lat="63.01319" lon="7.44331">
        <ele>71.921189</ele>
        <time>2020-08-03T10:44:58.135Z</time>
      </trkpt>
      <trkpt lat="63.01324" lon="7.44348">
        <ele>72.12754</ele>
        <time>2020-08-03T10:45:02.127Z</time>
      </trkpt>
      <trkpt lat="63.01329" lon="7.44364">
        <ele>72.32937</ele>
        <time>2020-08-03T10:45:06.112Z</time>
      </trkpt>
      <trkpt lat="63.01335" lon="7.44383">
        <ele>72.559016</ele>
        <time>2020-08-03T10:45:11.118Z</time>
      </trkpt>
      <trkpt lat="63.01341" lon="7.44403">
        <ele>72.802806</ele>
        <time>2020-08-03T10:45:16.112Z</time>
      </trkpt>
      <trkpt lat="63.01346" lon="7.44419">
        <ele>73.002969</ele>
        <time>2020-08-03T10:45:20.151Z</time>
      </trkpt>
      <trkpt lat="63.01352" lon="7.44435">
        <ele>73.204756</ele>
        <time>2020-08-03T10:45:24.112Z</time>
      </trkpt>
      <trkpt lat="63.01358" lon="7.44454">
        <ele>73.442418</ele>
        <time>2020-08-03T10:45:29.130Z</time>
      </trkpt>
      <trkpt lat="63.01364" lon="7.44471">
        <ele>73.657295</ele>
        <time>2020-08-03T10:45:33.114Z</time>
      </trkpt>
      <trkpt lat="63.0137" lon="7.44488">
        <ele>73.871908</ele>
        <time>2020-08-03T10:45:37.111Z</time>
      </trkpt>
      <trkpt lat="63.01375" lon="7.44504">
        <ele>74.07323</ele>
        <time>2020-08-03T10:45:41.153Z</time>
      </trkpt>
      <trkpt lat="63.0138" lon="7.4452">
        <ele>74.275445</ele>
        <time>2020-08-03T10:45:45.171Z</time>
      </trkpt>
      <trkpt lat="63.01385" lon="7.4454">
        <ele>74.498328</ele>
        <time>2020-08-03T10:45:49.119Z</time>
      </trkpt>
      <trkpt lat="63.0139" lon="7.44558">
        <ele>74.714479</ele>
        <time>2020-08-03T10:45:53.160Z</time>
      </trkpt>
      <trkpt lat="63.01395" lon="7.44578">
        <ele>74.942358</ele>
        <time>2020-08-03T10:45:57.112Z</time>
      </trkpt>
      <trkpt lat="63.014" lon="7.44599">
        <ele>75.181377</ele>
        <time>2020-08-03T10:46:01.133Z</time>
      </trkpt>
      <trkpt lat="63.01407" lon="7.4462">
        <ele>75.439727</ele>
        <time>2020-08-03T10:46:05.112Z</time>
      </trkpt>
      <trkpt lat="63.01413" lon="7.44639">
        <ele>75.666649</ele>
        <time>2020-08-03T10:46:08.128Z</time>
      </trkpt>
      <trkpt lat="63.01419" lon="7.44658">
        <ele>75.528625</ele>
        <time>2020-08-03T10:46:11.101Z</time>
      </trkpt>
      <trkpt lat="63.01426" lon="7.44677">
        <ele>75.297642</ele>
        <time>2020-08-03T10:46:14.121Z</time>
      </trkpt>
      <trkpt lat="63.01433" lon="7.44699">
        <ele>75.049956</ele>
        <time>2020-08-03T10:46:17.125Z</time>
      </trkpt>
      <trkpt lat="63.0144" lon="7.44722">
        <ele>74.785466</ele>
        <time>2020-08-03T10:46:20.107Z</time>
      </trkpt>
      <trkpt lat="63.01448" lon="7.44746">
        <ele>74.510592</ele>
        <time>2020-08-03T10:46:23.131Z</time>
      </trkpt>
      <trkpt lat="63.01455" lon="7.44771">
        <ele>74.229525</ele>
        <time>2020-08-03T10:46:26.111Z</time>
      </trkpt>
      <trkpt lat="63.01461" lon="7.44788">
        <ele>74.035394</ele>
        <time>2020-08-03T10:46:28.118Z</time>
      </trkpt>
      <trkpt lat="63.01466" lon="7.44805">
        <ele>73.837406</ele>
        <time>2020-08-03T10:46:30.148Z</time>
      </trkpt>
      <trkpt lat="63.01472" lon="7.44822">
        <ele>73.636608</ele>
        <time>2020-08-03T10:46:32.124Z</time>
      </trkpt>
      <trkpt lat="63.01478" lon="7.44839">
        <ele>73.438017</ele>
        <time>2020-08-03T10:46:34.143Z</time>
      </trkpt>
      <trkpt lat="63.01484" lon="7.44856">
        <ele>73.228212</ele>
        <time>2020-08-03T10:46:36.125Z</time>
      </trkpt>
      <trkpt lat="63.01491" lon="7.44875">
        <ele>73.004432</ele>
        <time>2020-08-03T10:46:38.104Z</time>
      </trkpt>
      <trkpt lat="63.01497" lon="7.44894">
        <ele>72.792074</ele>
        <time>2020-08-03T10:46:40.158Z</time>
      </trkpt>
      <trkpt lat="63.01503" lon="7.44913">
        <ele>72.566486</ele>
        <time>2020-08-03T10:46:42.112Z</time>
      </trkpt>
      <trkpt lat="63.01509" lon="7.44934">
        <ele>72.329288</ele>
        <time>2020-08-03T10:46:44.125Z</time>
      </trkpt>
      <trkpt lat="63.01516" lon="7.44957">
        <ele>72.080975</ele>
        <time>2020-08-03T10:46:46.131Z</time>
      </trkpt>
      <trkpt lat="63.0152" lon="7.44982">
        <ele>71.795643</ele>
        <time>2020-08-03T10:46:48.111Z</time>
      </trkpt>
      <trkpt lat="63.01525" lon="7.45009">
        <ele>71.465096</ele>
        <time>2020-08-03T10:46:50.130Z</time>
      </trkpt>
      <trkpt lat="63.01534" lon="7.45038">
        <ele>71.075096</ele>
        <time>2020-08-03T10:46:52.132Z</time>
      </trkpt>
      <trkpt lat="63.0154" lon="7.45073">
        <ele>70.65895</ele>
        <time>2020-08-03T10:46:54.104Z</time>
      </trkpt>
      <trkpt lat="63.01541" lon="7.45111">
        <ele>70.223721</ele>
        <time>2020-08-03T10:46:56.170Z</time>
      </trkpt>
      <trkpt lat="63.01542" lon="7.45132">
        <ele>69.99347</ele>
        <time>2020-08-03T10:46:57.111Z</time>
      </trkpt>
      <trkpt lat="63.01543" lon="7.45153">
        <ele>69.756305</ele>
        <time>2020-08-03T10:46:58.129Z</time>
      </trkpt>
      <trkpt lat="63.01543" lon="7.45174">
        <ele>69.514647</ele>
        <time>2020-08-03T10:46:59.116Z</time>
      </trkpt>
      <trkpt lat="63.01544" lon="7.45195">
        <ele>69.274625</ele>
        <time>2020-08-03T10:47:00.126Z</time>
      </trkpt>
      <trkpt lat="63.01544" lon="7.45216">
        <ele>69.035924</ele>
        <time>2020-08-03T10:47:01.139Z</time>
      </trkpt>
      <trkpt lat="63.01545" lon="7.45237">
        <ele>68.807313</ele>
        <time>2020-08-03T10:47:02.114Z</time>
      </trkpt>
      <trkpt lat="63.01546" lon="7.45257">
        <ele>68.579134</ele>
        <time>2020-08-03T10:47:03.117Z</time>
      </trkpt>
      <trkpt lat="63.01547" lon="7.45277">
        <ele>68.352404</ele>
        <time>2020-08-03T10:47:04.115Z</time>
      </trkpt>
      <trkpt lat="63.01548" lon="7.45313">
        <ele>67.939832</ele>
        <time>2020-08-03T10:47:06.114Z</time>
      </trkpt>
      <trkpt lat="63.01549" lon="7.45345">
        <ele>67.584464</ele>
        <time>2020-08-03T10:47:08.139Z</time>
      </trkpt>
      <trkpt lat="63.0155" lon="7.4537">
        <ele>67.633979</ele>
        <time>2020-08-03T10:47:10.104Z</time>
      </trkpt>
      <trkpt lat="63.0155" lon="7.45392">
        <ele>67.748556</ele>
        <time>2020-08-03T10:47:12.144Z</time>
      </trkpt>
      <trkpt lat="63.01551" lon="7.45418">
        <ele>67.893249</ele>
        <time>2020-08-03T10:47:15.119Z</time>
      </trkpt>
      <trkpt lat="63.01553" lon="7.45441">
        <ele>68.01722</ele>
        <time>2020-08-03T10:47:18.115Z</time>
      </trkpt>
      <trkpt lat="63.01554" lon="7.45463">
        <ele>68.13697</ele>
        <time>2020-08-03T10:47:21.113Z</time>
      </trkpt>
      <trkpt lat="63.01556" lon="7.45483">
        <ele>68.249061</ele>
        <time>2020-08-03T10:47:24.128Z</time>
      </trkpt>
      <trkpt lat="63.01557" lon="7.45505">
        <ele>68.364379</ele>
        <time>2020-08-03T10:47:27.154Z</time>
      </trkpt>
      <trkpt lat="63.01558" lon="7.45527">
        <ele>68.486141</ele>
        <time>2020-08-03T10:47:30.129Z</time>
      </trkpt>
      <trkpt lat="63.01559" lon="7.45551">
        <ele>68.614768</ele>
        <time>2020-08-03T10:47:33.110Z</time>
      </trkpt>
      <trkpt lat="63.01561" lon="7.45574">
        <ele>68.741413</ele>
        <time>2020-08-03T10:47:36.153Z</time>
      </trkpt>
      <trkpt lat="63.01562" lon="7.45596">
        <ele>68.865217</ele>
        <time>2020-08-03T10:47:39.149Z</time>
      </trkpt>
      <trkpt lat="63.01564" lon="7.4562">
        <ele>68.995281</ele>
        <time>2020-08-03T10:47:42.104Z</time>
      </trkpt>
      <trkpt lat="63.01565" lon="7.45644">
        <ele>69.123272</ele>
        <time>2020-08-03T10:47:45.118Z</time>
      </trkpt>
      <trkpt lat="63.01566" lon="7.45667">
        <ele>69.247121</ele>
        <time>2020-08-03T10:47:48.125Z</time>
      </trkpt>
      <trkpt lat="63.01567" lon="7.45692">
        <ele>69.382444</ele>
        <time>2020-08-03T10:47:51.111Z</time>
      </trkpt>
      <trkpt lat="63.01568" lon="7.45718">
        <ele>69.526368</ele>
        <time>2020-08-03T10:47:54.129Z</time>
      </trkpt>
      <trkpt lat="63.01569" lon="7.45745">
        <ele>69.679573</ele>
        <time>2020-08-03T10:47:57.147Z</time>
      </trkpt>
      <trkpt lat="63.0157" lon="7.45764">
        <ele>69.993911</ele>
        <time>2020-08-03T10:47:59.110Z</time>
      </trkpt>
      <trkpt lat="63.01571" lon="7.45785">
        <ele>70.31174</ele>
        <time>2020-08-03T10:48:01.134Z</time>
      </trkpt>
      <trkpt lat="63.01572" lon="7.45805">
        <ele>70.633878</ele>
        <time>2020-08-03T10:48:03.125Z</time>
      </trkpt>
      <trkpt lat="63.01574" lon="7.45834">
        <ele>71.090457</ele>
        <time>2020-08-03T10:48:06.148Z</time>
      </trkpt>
      <trkpt lat="63.01575" lon="7.45862">
        <ele>71.535306</ele>
        <time>2020-08-03T10:48:09.107Z</time>
      </trkpt>
      <trkpt lat="63.01576" lon="7.4589">
        <ele>71.976306</ele>
        <time>2020-08-03T10:48:12.136Z</time>
      </trkpt>
      <trkpt lat="63.01577" lon="7.45918">
        <ele>72.417305</ele>
        <time>2020-08-03T10:48:15.123Z</time>
      </trkpt>
      <trkpt lat="63.01578" lon="7.45943">
        <ele>72.818213</ele>
        <time>2020-08-03T10:48:18.112Z</time>
      </trkpt>
      <trkpt lat="63.01579" lon="7.45968">
        <ele>73.209448</ele>
        <time>2020-08-03T10:48:21.118Z</time>
      </trkpt>
      <trkpt lat="63.0158" lon="7.4599">
        <ele>73.554692</ele>
        <time>2020-08-03T10:48:24.114Z</time>
      </trkpt>
      <trkpt lat="63.01581" lon="7.46013">
        <ele>73.929241</ele>
        <time>2020-08-03T10:48:28.163Z</time>
      </trkpt>
      <trkpt lat="63.01581" lon="7.46038">
        <ele>74.311059</ele>
        <time>2020-08-03T10:48:33.169Z</time>
      </trkpt>
      <trkpt lat="63.01582" lon="7.46061">
        <ele>74.681112</ele>
        <time>2020-08-03T10:48:38.150Z</time>
      </trkpt>
      <trkpt lat="63.01583" lon="7.46084">
        <ele>75.034685</ele>
        <time>2020-08-03T10:48:43.125Z</time>
      </trkpt>
      <trkpt lat="63.01584" lon="7.46105">
        <ele>75.370459</ele>
        <time>2020-08-03T10:48:48.129Z</time>
      </trkpt>
      <trkpt lat="63.01586" lon="7.46127">
        <ele>75.722686</ele>
        <time>2020-08-03T10:48:54.115Z</time>
      </trkpt>
      <trkpt lat="63.01586" lon="7.46147">
        <ele>76.142581</ele>
        <time>2020-08-03T10:48:59.117Z</time>
      </trkpt>
      <trkpt lat="63.01588" lon="7.46167">
        <ele>76.697192</ele>
        <time>2020-08-03T10:49:05.115Z</time>
      </trkpt>
      <trkpt lat="63.0159" lon="7.46189">
        <ele>77.298479</ele>
        <time>2020-08-03T10:49:11.173Z</time>
      </trkpt>
      <trkpt lat="63.0159" lon="7.46212">
        <ele>77.918836</ele>
        <time>2020-08-03T10:49:17.166Z</time>
      </trkpt>
      <trkpt lat="63.0159" lon="7.46233">
        <ele>78.460825</ele>
        <time>2020-08-03T10:49:22.129Z</time>
      </trkpt>
      <trkpt lat="63.01592" lon="7.46253">
        <ele>79.00199</ele>
        <time>2020-08-03T10:49:27.132Z</time>
      </trkpt>
      <trkpt lat="63.01592" lon="7.46274">
        <ele>79.565341</ele>
        <time>2020-08-03T10:49:32.107Z</time>
      </trkpt>
      <trkpt lat="63.01592" lon="7.46296">
        <ele>80.169361</ele>
        <time>2020-08-03T10:49:38.122Z</time>
      </trkpt>
      <trkpt lat="63.01592" lon="7.46317">
        <ele>80.722236</ele>
        <time>2020-08-03T10:49:43.112Z</time>
      </trkpt>
      <trkpt lat="63.01593" lon="7.46338">
        <ele>81.287073</ele>
        <time>2020-08-03T10:49:48.129Z</time>
      </trkpt>
      <trkpt lat="63.01594" lon="7.4636">
        <ele>81.876436</ele>
        <time>2020-08-03T10:49:53.130Z</time>
      </trkpt>
      <trkpt lat="63.01595" lon="7.46384">
        <ele>82.529459</ele>
        <time>2020-08-03T10:49:58.116Z</time>
      </trkpt>
      <trkpt lat="63.01596" lon="7.46404">
        <ele>83.074952</ele>
        <time>2020-08-03T10:50:02.129Z</time>
      </trkpt>
      <trkpt lat="63.01597" lon="7.46427">
        <ele>83.7029</ele>
        <time>2020-08-03T10:50:06.107Z</time>
      </trkpt>
      <trkpt lat="63.01597" lon="7.46453">
        <ele>84.384889</ele>
        <time>2020-08-03T10:50:10.133Z</time>
      </trkpt>
      <trkpt lat="63.01599" lon="7.46478">
        <ele>85.079964</ele>
        <time>2020-08-03T10:50:14.158Z</time>
      </trkpt>
      <trkpt lat="63.01599" lon="7.46499">
        <ele>85.631425</ele>
        <time>2020-08-03T10:50:17.157Z</time>
      </trkpt>
      <trkpt lat="63.016" lon="7.4652">
        <ele>86.202591</ele>
        <time>2020-08-03T10:50:20.112Z</time>
      </trkpt>
      <trkpt lat="63.016" lon="7.46541">
        <ele>86.5202</ele>
        <time>2020-08-03T10:50:23.148Z</time>
      </trkpt>
      <trkpt lat="63.01601" lon="7.46561">
        <ele>86.480225</ele>
        <time>2020-08-03T10:50:26.123Z</time>
      </trkpt>
      <trkpt lat="63.01602" lon="7.46581">
        <ele>86.440644</ele>
        <time>2020-08-03T10:50:29.136Z</time>
      </trkpt>
      <trkpt lat="63.01603" lon="7.46601">
        <ele>86.400517</ele>
        <time>2020-08-03T10:50:32.108Z</time>
      </trkpt>
      <trkpt lat="63.01605" lon="7.46621">
        <ele>86.359983</ele>
        <time>2020-08-03T10:50:35.143Z</time>
      </trkpt>
      <trkpt lat="63.01606" lon="7.46648">
        <ele>86.307264</ele>
        <time>2020-08-03T10:50:39.106Z</time>
      </trkpt>
      <trkpt lat="63.01607" lon="7.46669">
        <ele>86.264493</ele>
        <time>2020-08-03T10:50:42.130Z</time>
      </trkpt>
      <trkpt lat="63.01608" lon="7.4669">
        <ele>86.22289</ele>
        <time>2020-08-03T10:50:45.143Z</time>
      </trkpt>
      <trkpt lat="63.01609" lon="7.4671">
        <ele>86.183397</ele>
        <time>2020-08-03T10:50:48.129Z</time>
      </trkpt>
      <trkpt lat="63.0161" lon="7.4673">
        <ele>86.143174</ele>
        <time>2020-08-03T10:50:51.115Z</time>
      </trkpt>
      <trkpt lat="63.01611" lon="7.4675">
        <ele>86.102849</ele>
        <time>2020-08-03T10:50:54.131Z</time>
      </trkpt>
      <trkpt lat="63.01611" lon="7.46776">
        <ele>86.050397</ele>
        <time>2020-08-03T10:50:58.123Z</time>
      </trkpt>
      <trkpt lat="63.01612" lon="7.46802">
        <ele>85.999745</ele>
        <time>2020-08-03T10:51:02.126Z</time>
      </trkpt>
      <trkpt lat="63.01613" lon="7.46827">
        <ele>85.950146</ele>
        <time>2020-08-03T10:51:06.148Z</time>
      </trkpt>
      <trkpt lat="63.01613" lon="7.46851">
        <ele>85.902234</ele>
        <time>2020-08-03T10:51:10.119Z</time>
      </trkpt>
      <trkpt lat="63.01611" lon="7.46873">
        <ele>85.856633</ele>
        <time>2020-08-03T10:51:14.137Z</time>
      </trkpt>
      <trkpt lat="63.01608" lon="7.46894">
        <ele>85.813019</ele>
        <time>2020-08-03T10:51:17.113Z</time>
      </trkpt>
      <trkpt lat="63.01605" lon="7.46915">
        <ele>85.768507</ele>
        <time>2020-08-03T10:51:20.104Z</time>
      </trkpt>
      <trkpt lat="63.01604" lon="7.46937">
        <ele>85.755056</ele>
        <time>2020-08-03T10:51:23.116Z</time>
      </trkpt>
      <trkpt lat="63.01604" lon="7.46958">
        <ele>85.764956</ele>
        <time>2020-08-03T10:51:26.118Z</time>
      </trkpt>
      <trkpt lat="63.01604" lon="7.46979">
        <ele>85.77435</ele>
        <time>2020-08-03T10:51:29.103Z</time>
      </trkpt>
      <trkpt lat="63.01603" lon="7.47">
        <ele>85.783795</ele>
        <time>2020-08-03T10:51:32.162Z</time>
      </trkpt>
      <trkpt lat="63.01603" lon="7.4702">
        <ele>85.792942</ele>
        <time>2020-08-03T10:51:35.163Z</time>
      </trkpt>
      <trkpt lat="63.01602" lon="7.4704">
        <ele>85.802208</ele>
        <time>2020-08-03T10:51:38.132Z</time>
      </trkpt>
      <trkpt lat="63.01602" lon="7.47061">
        <ele>85.811615</ele>
        <time>2020-08-03T10:51:41.155Z</time>
      </trkpt>
      <trkpt lat="63.01601" lon="7.47081">
        <ele>85.820972</ele>
        <time>2020-08-03T10:51:44.140Z</time>
      </trkpt>
      <trkpt lat="63.016" lon="7.47102">
        <ele>85.830522</ele>
        <time>2020-08-03T10:51:47.123Z</time>
      </trkpt>
      <trkpt lat="63.01599" lon="7.47122">
        <ele>85.839905</ele>
        <time>2020-08-03T10:51:50.127Z</time>
      </trkpt>
      <trkpt lat="63.01599" lon="7.47143">
        <ele>85.849325</ele>
        <time>2020-08-03T10:51:53.106Z</time>
      </trkpt>
      <trkpt lat="63.01598" lon="7.47164">
        <ele>85.859155</ele>
        <time>2020-08-03T10:51:56.098Z</time>
      </trkpt>
      <trkpt lat="63.01598" lon="7.47185">
        <ele>85.868694</ele>
        <time>2020-08-03T10:51:59.110Z</time>
      </trkpt>
      <trkpt lat="63.01598" lon="7.47207">
        <ele>85.878499</ele>
        <time>2020-08-03T10:52:02.125Z</time>
      </trkpt>
      <trkpt lat="63.01597" lon="7.47227">
        <ele>85.887588</ele>
        <time>2020-08-03T10:52:05.126Z</time>
      </trkpt>
      <trkpt lat="63.01596" lon="7.47253">
        <ele>85.89945</ele>
        <time>2020-08-03T10:52:09.135Z</time>
      </trkpt>
      <trkpt lat="63.01595" lon="7.47274">
        <ele>85.909196</ele>
        <time>2020-08-03T10:52:12.126Z</time>
      </trkpt>
      <trkpt lat="63.01594" lon="7.47299">
        <ele>85.920842</ele>
        <time>2020-08-03T10:52:16.135Z</time>
      </trkpt>
      <trkpt lat="63.01593" lon="7.47326">
        <ele>85.998231</ele>
        <time>2020-08-03T10:52:20.159Z</time>
      </trkpt>
      <trkpt lat="63.01592" lon="7.47346">
        <ele>86.244024</ele>
        <time>2020-08-03T10:52:23.133Z</time>
      </trkpt>
      <trkpt lat="63.01592" lon="7.47366">
        <ele>86.481077</ele>
        <time>2020-08-03T10:52:26.116Z</time>
      </trkpt>
      <trkpt lat="63.0159" lon="7.47391">
        <ele>86.77913</ele>
        <time>2020-08-03T10:52:30.121Z</time>
      </trkpt>
      <trkpt lat="63.01589" lon="7.47411">
        <ele>87.024711</ele>
        <time>2020-08-03T10:52:33.155Z</time>
      </trkpt>
      <trkpt lat="63.01589" lon="7.47432">
        <ele>87.277111</ele>
        <time>2020-08-03T10:52:36.124Z</time>
      </trkpt>
      <trkpt lat="63.01589" lon="7.47458">
        <ele>87.587712</ele>
        <time>2020-08-03T10:52:40.164Z</time>
      </trkpt>
      <trkpt lat="63.01588" lon="7.47483">
        <ele>87.882961</ele>
        <time>2020-08-03T10:52:44.130Z</time>
      </trkpt>
      <trkpt lat="63.01587" lon="7.47507">
        <ele>88.17421</ele>
        <time>2020-08-03T10:52:48.115Z</time>
      </trkpt>
      <trkpt lat="63.01587" lon="7.47532">
        <ele>88.470571</ele>
        <time>2020-08-03T10:52:52.146Z</time>
      </trkpt>
      <trkpt lat="63.01587" lon="7.47557">
        <ele>88.762096</ele>
        <time>2020-08-03T10:52:56.134Z</time>
      </trkpt>
      <trkpt lat="63.01588" lon="7.47579">
        <ele>89.032276</ele>
        <time>2020-08-03T10:53:00.109Z</time>
      </trkpt>
      <trkpt lat="63.01587" lon="7.47601">
        <ele>89.290426</ele>
        <time>2020-08-03T10:53:04.117Z</time>
      </trkpt>
      <trkpt lat="63.01587" lon="7.47623">
        <ele>89.554901</ele>
        <time>2020-08-03T10:53:08.145Z</time>
      </trkpt>
      <trkpt lat="63.01587" lon="7.47643">
        <ele>89.798723</ele>
        <time>2020-08-03T10:53:12.123Z</time>
      </trkpt>
      <trkpt lat="63.01586" lon="7.47663">
        <ele>90.037158</ele>
        <time>2020-08-03T10:53:16.109Z</time>
      </trkpt>
      <trkpt lat="63.01585" lon="7.47685">
        <ele>90.30137</ele>
        <time>2020-08-03T10:53:20.111Z</time>
      </trkpt>
      <trkpt lat="63.01585" lon="7.47706">
        <ele>90.543034</ele>
        <time>2020-08-03T10:53:24.169Z</time>
      </trkpt>
      <trkpt lat="63.01584" lon="7.47726">
        <ele>90.917669</ele>
        <time>2020-08-03T10:53:28.111Z</time>
      </trkpt>
      <trkpt lat="63.01584" lon="7.47747">
        <ele>91.415032</ele>
        <time>2020-08-03T10:53:32.124Z</time>
      </trkpt>
      <trkpt lat="63.01583" lon="7.47771">
        <ele>92.004552</ele>
        <time>2020-08-03T10:53:37.115Z</time>
      </trkpt>
      <trkpt lat="63.01582" lon="7.47793">
        <ele>92.538633</ele>
        <time>2020-08-03T10:53:41.113Z</time>
      </trkpt>
      <trkpt lat="63.01581" lon="7.47815">
        <ele>93.069694</ele>
        <time>2020-08-03T10:53:45.132Z</time>
      </trkpt>
      <trkpt lat="63.0158" lon="7.47836">
        <ele>93.599682</ele>
        <time>2020-08-03T10:53:49.104Z</time>
      </trkpt>
      <trkpt lat="63.01579" lon="7.47859">
        <ele>94.135178</ele>
        <time>2020-08-03T10:53:53.140Z</time>
      </trkpt>
      <trkpt lat="63.01579" lon="7.4788">
        <ele>94.661891</ele>
        <time>2020-08-03T10:53:57.111Z</time>
      </trkpt>
      <trkpt lat="63.01577" lon="7.47901">
        <ele>95.165055</ele>
        <time>2020-08-03T10:54:01.128Z</time>
      </trkpt>
      <trkpt lat="63.01576" lon="7.47922">
        <ele>95.684524</ele>
        <time>2020-08-03T10:54:05.151Z</time>
      </trkpt>
      <trkpt lat="63.01574" lon="7.47944">
        <ele>96.237259</ele>
        <time>2020-08-03T10:54:09.128Z</time>
      </trkpt>
      <trkpt lat="63.01573" lon="7.47966">
        <ele>96.770328</ele>
        <time>2020-08-03T10:54:13.147Z</time>
      </trkpt>
      <trkpt lat="63.01571" lon="7.4799">
        <ele>97.36018</ele>
        <time>2020-08-03T10:54:17.146Z</time>
      </trkpt>
      <trkpt lat="63.01572" lon="7.48014">
        <ele>97.937991</ele>
        <time>2020-08-03T10:54:21.117Z</time>
      </trkpt>
      <trkpt lat="63.0157" lon="7.48035">
        <ele>98.460058</ele>
        <time>2020-08-03T10:54:24.127Z</time>
      </trkpt>
      <trkpt lat="63.01569" lon="7.48055">
        <ele>98.939645</ele>
        <time>2020-08-03T10:54:27.128Z</time>
      </trkpt>
      <trkpt lat="63.01568" lon="7.48081">
        <ele>99.561316</ele>
        <time>2020-08-03T10:54:31.109Z</time>
      </trkpt>
      <trkpt lat="63.01568" lon="7.48107">
        <ele>100.193257</ele>
        <time>2020-08-03T10:54:35.128Z</time>
      </trkpt>
      <trkpt lat="63.01569" lon="7.48129">
        <ele>100.130044</ele>
        <time>2020-08-03T10:54:38.130Z</time>
      </trkpt>
      <trkpt lat="63.0157" lon="7.48151">
        <ele>99.983351</ele>
        <time>2020-08-03T10:54:41.139Z</time>
      </trkpt>
      <trkpt lat="63.0157" lon="7.48173">
        <ele>99.841251</ele>
        <time>2020-08-03T10:54:44.123Z</time>
      </trkpt>
      <trkpt lat="63.0157" lon="7.48194">
        <ele>99.697351</ele>
        <time>2020-08-03T10:54:47.132Z</time>
      </trkpt>
      <trkpt lat="63.01571" lon="7.48215">
        <ele>99.55437</ele>
        <time>2020-08-03T10:54:50.126Z</time>
      </trkpt>
      <trkpt lat="63.01572" lon="7.48237">
        <ele>99.408126</ele>
        <time>2020-08-03T10:54:53.117Z</time>
      </trkpt>
      <trkpt lat="63.01574" lon="7.48261">
        <ele>99.248085</ele>
        <time>2020-08-03T10:54:56.130Z</time>
      </trkpt>
      <trkpt lat="63.01575" lon="7.48284">
        <ele>99.094534</ele>
        <time>2020-08-03T10:54:59.112Z</time>
      </trkpt>
      <trkpt lat="63.01576" lon="7.48307">
        <ele>98.939531</ele>
        <time>2020-08-03T10:55:02.130Z</time>
      </trkpt>
      <trkpt lat="63.01578" lon="7.4833">
        <ele>98.781222</ele>
        <time>2020-08-03T10:55:05.107Z</time>
      </trkpt>
      <trkpt lat="63.01579" lon="7.48353">
        <ele>98.62445</ele>
        <time>2020-08-03T10:55:08.135Z</time>
      </trkpt>
      <trkpt lat="63.01581" lon="7.48376">
        <ele>98.473377</ele>
        <time>2020-08-03T10:55:11.148Z</time>
      </trkpt>
      <trkpt lat="63.01583" lon="7.48397">
        <ele>98.325597</ele>
        <time>2020-08-03T10:55:14.121Z</time>
      </trkpt>
      <trkpt lat="63.01585" lon="7.4842">
        <ele>98.168932</ele>
        <time>2020-08-03T10:55:17.132Z</time>
      </trkpt>
      <trkpt lat="63.01587" lon="7.48442">
        <ele>98.017493</ele>
        <time>2020-08-03T10:55:20.117Z</time>
      </trkpt>
      <trkpt lat="63.0159" lon="7.48465">
        <ele>97.859925</ele>
        <time>2020-08-03T10:55:23.136Z</time>
      </trkpt>
      <trkpt lat="63.01593" lon="7.48487">
        <ele>97.7046</ele>
        <time>2020-08-03T10:55:26.162Z</time>
      </trkpt>
      <trkpt lat="63.01596" lon="7.48507">
        <ele>97.626306</ele>
        <time>2020-08-03T10:55:29.121Z</time>
      </trkpt>
      <trkpt lat="63.01599" lon="7.48527">
        <ele>97.671993</ele>
        <time>2020-08-03T10:55:32.126Z</time>
      </trkpt>
      <trkpt lat="63.01603" lon="7.48548">
        <ele>97.717913</ele>
        <time>2020-08-03T10:55:35.135Z</time>
      </trkpt>
      <trkpt lat="63.01607" lon="7.48568">
        <ele>97.764863</ele>
        <time>2020-08-03T10:55:38.105Z</time>
      </trkpt>
      <trkpt lat="63.01612" lon="7.48587">
        <ele>97.812054</ele>
        <time>2020-08-03T10:55:41.132Z</time>
      </trkpt>
      <trkpt lat="63.01617" lon="7.48607">
        <ele>97.860529</ele>
        <time>2020-08-03T10:55:44.147Z</time>
      </trkpt>
      <trkpt lat="63.01622" lon="7.48628">
        <ele>97.910614</ele>
        <time>2020-08-03T10:55:47.112Z</time>
      </trkpt>
      <trkpt lat="63.01628" lon="7.48647">
        <ele>97.95927</ele>
        <time>2020-08-03T10:55:50.118Z</time>
      </trkpt>
      <trkpt lat="63.01635" lon="7.48667">
        <ele>98.011523</ele>
        <time>2020-08-03T10:55:53.124Z</time>
      </trkpt>
      <trkpt lat="63.01642" lon="7.48689">
        <ele>98.068051</ele>
        <time>2020-08-03T10:55:56.129Z</time>
      </trkpt>
      <trkpt lat="63.0165" lon="7.48712">
        <ele>98.130475</ele>
        <time>2020-08-03T10:55:59.128Z</time>
      </trkpt>
      <trkpt lat="63.01657" lon="7.48729">
        <ele>98.176986</ele>
        <time>2020-08-03T10:56:01.145Z</time>
      </trkpt>
      <trkpt lat="63.01664" lon="7.48748">
        <ele>98.228993</ele>
        <time>2020-08-03T10:56:03.126Z</time>
      </trkpt>
      <trkpt lat="63.01671" lon="7.48768">
        <ele>98.284736</ele>
        <time>2020-08-03T10:56:05.123Z</time>
      </trkpt>
      <trkpt lat="63.01679" lon="7.48788">
        <ele>98.337988</ele>
        <time>2020-08-03T10:56:07.127Z</time>
      </trkpt>
      <trkpt lat="63.01686" lon="7.48807">
        <ele>98.389739</ele>
        <time>2020-08-03T10:56:09.114Z</time>
      </trkpt>
      <trkpt lat="63.01692" lon="7.48826">
        <ele>98.440538</ele>
        <time>2020-08-03T10:56:11.130Z</time>
      </trkpt>
      <trkpt lat="63.01699" lon="7.48844">
        <ele>98.482866</ele>
        <time>2020-08-03T10:56:13.132Z</time>
      </trkpt>
      <trkpt lat="63.01706" lon="7.48862">
        <ele>98.522761</ele>
        <time>2020-08-03T10:56:15.110Z</time>
      </trkpt>
      <trkpt lat="63.01712" lon="7.48879">
        <ele>98.56046</ele>
        <time>2020-08-03T10:56:17.134Z</time>
      </trkpt>
      <trkpt lat="63.01719" lon="7.48896">
        <ele>98.597788</ele>
        <time>2020-08-03T10:56:19.116Z</time>
      </trkpt>
      <trkpt lat="63.01725" lon="7.48913">
        <ele>98.634008</ele>
        <time>2020-08-03T10:56:21.144Z</time>
      </trkpt>
      <trkpt lat="63.01733" lon="7.48936">
        <ele>98.683999</ele>
        <time>2020-08-03T10:56:24.132Z</time>
      </trkpt>
      <trkpt lat="63.01741" lon="7.48958">
        <ele>98.732459</ele>
        <time>2020-08-03T10:56:27.130Z</time>
      </trkpt>
      <trkpt lat="63.01748" lon="7.48979">
        <ele>98.77777</ele>
        <time>2020-08-03T10:56:30.114Z</time>
      </trkpt>
      <trkpt lat="63.01755" lon="7.48998">
        <ele>98.819607</ele>
        <time>2020-08-03T10:56:33.116Z</time>
      </trkpt>
      <trkpt lat="63.01762" lon="7.49018">
        <ele>98.862485</ele>
        <time>2020-08-03T10:56:36.126Z</time>
      </trkpt>
      <trkpt lat="63.01769" lon="7.49038">
        <ele>98.904593</ele>
        <time>2020-08-03T10:56:39.162Z</time>
      </trkpt>
      <trkpt lat="63.01776" lon="7.49057">
        <ele>98.94539</ele>
        <time>2020-08-03T10:56:42.120Z</time>
      </trkpt>
      <trkpt lat="63.01781" lon="7.49073">
        <ele>98.98031</ele>
        <time>2020-08-03T10:56:45.164Z</time>
      </trkpt>
      <trkpt lat="63.01786" lon="7.49089">
        <ele>99.014479</ele>
        <time>2020-08-03T10:56:48.121Z</time>
      </trkpt>
      <trkpt lat="63.01791" lon="7.49106">
        <ele>99.049045</ele>
        <time>2020-08-03T10:56:51.111Z</time>
      </trkpt>
      <trkpt lat="63.01797" lon="7.49124">
        <ele>99.085235</ele>
        <time>2020-08-03T10:56:54.120Z</time>
      </trkpt>
      <trkpt lat="63.01803" lon="7.4914">
        <ele>99.120686</ele>
        <time>2020-08-03T10:56:57.106Z</time>
      </trkpt>
      <trkpt lat="63.01809" lon="7.49157">
        <ele>99.545907</ele>
        <time>2020-08-03T10:57:00.137Z</time>
      </trkpt>
      <trkpt lat="63.01815" lon="7.49176">
        <ele>100.038547</ele>
        <time>2020-08-03T10:57:03.123Z</time>
      </trkpt>
      <trkpt lat="63.0182" lon="7.49195">
        <ele>100.520509</ele>
        <time>2020-08-03T10:57:06.142Z</time>
      </trkpt>
      <trkpt lat="63.01826" lon="7.49213">
        <ele>101.00427</ele>
        <time>2020-08-03T10:57:09.119Z</time>
      </trkpt>
      <trkpt lat="63.01831" lon="7.49232">
        <ele>101.479216</ele>
        <time>2020-08-03T10:57:12.124Z</time>
      </trkpt>
      <trkpt lat="63.01836" lon="7.49249">
        <ele>101.913515</ele>
        <time>2020-08-03T10:57:15.127Z</time>
      </trkpt>
      <trkpt lat="63.01841" lon="7.49267">
        <ele>102.360037</ele>
        <time>2020-08-03T10:57:18.125Z</time>
      </trkpt>
      <trkpt lat="63.01846" lon="7.49289">
        <ele>102.901945</ele>
        <time>2020-08-03T10:57:22.110Z</time>
      </trkpt>
      <trkpt lat="63.01851" lon="7.49309">
        <ele>103.381735</ele>
        <time>2020-08-03T10:57:26.124Z</time>
      </trkpt>
      <trkpt lat="63.01856" lon="7.49331">
        <ele>103.921233</ele>
        <time>2020-08-03T10:57:31.137Z</time>
      </trkpt>
      <trkpt lat="63.01862" lon="7.49348">
        <ele>104.377306</ele>
        <time>2020-08-03T10:57:35.114Z</time>
      </trkpt>
      <trkpt lat="63.01867" lon="7.49368">
        <ele>104.868437</ele>
        <time>2020-08-03T10:57:40.127Z</time>
      </trkpt>
      <trkpt lat="63.01871" lon="7.49387">
        <ele>105.335014</ele>
        <time>2020-08-03T10:57:45.142Z</time>
      </trkpt>
      <trkpt lat="63.01877" lon="7.49406">
        <ele>105.804521</ele>
        <time>2020-08-03T10:57:49.111Z</time>
      </trkpt>
      <trkpt lat="63.01881" lon="7.49428">
        <ele>106.321706</ele>
        <time>2020-08-03T10:57:53.107Z</time>
      </trkpt>
      <trkpt lat="63.01886" lon="7.49446">
        <ele>106.791684</ele>
        <time>2020-08-03T10:57:56.114Z</time>
      </trkpt>
      <trkpt lat="63.01891" lon="7.49471">
        <ele>107.363995</ele>
        <time>2020-08-03T10:57:59.110Z</time>
      </trkpt>
      <trkpt lat="63.01894" lon="7.4949">
        <ele>107.664081</ele>
        <time>2020-08-03T10:58:01.120Z</time>
      </trkpt>
      <trkpt lat="63.01899" lon="7.4951">
        <ele>107.582405</ele>
        <time>2020-08-03T10:58:03.117Z</time>
      </trkpt>
      <trkpt lat="63.01905" lon="7.49533">
        <ele>107.488012</ele>
        <time>2020-08-03T10:58:05.132Z</time>
      </trkpt>
      <trkpt lat="63.0191" lon="7.49557">
        <ele>107.392749</ele>
        <time>2020-08-03T10:58:07.148Z</time>
      </trkpt>
      <trkpt lat="63.01915" lon="7.49581">
        <ele>107.301443</ele>
        <time>2020-08-03T10:58:09.128Z</time>
      </trkpt>
      <trkpt lat="63.0192" lon="7.49603">
        <ele>107.212416</ele>
        <time>2020-08-03T10:58:11.138Z</time>
      </trkpt>
      <trkpt lat="63.01925" lon="7.49626">
        <ele>107.121077</ele>
        <time>2020-08-03T10:58:13.122Z</time>
      </trkpt>
      <trkpt lat="63.01929" lon="7.49648">
        <ele>107.033993</ele>
        <time>2020-08-03T10:58:15.117Z</time>
      </trkpt>
      <trkpt lat="63.01934" lon="7.4967">
        <ele>106.949514</ele>
        <time>2020-08-03T10:58:17.136Z</time>
      </trkpt>
      <trkpt lat="63.01938" lon="7.49691">
        <ele>106.868277</ele>
        <time>2020-08-03T10:58:19.121Z</time>
      </trkpt>
      <trkpt lat="63.01942" lon="7.49711">
        <ele>106.788274</ele>
        <time>2020-08-03T10:58:21.126Z</time>
      </trkpt>
      <trkpt lat="63.01946" lon="7.49732">
        <ele>106.708327</ele>
        <time>2020-08-03T10:58:23.108Z</time>
      </trkpt>
      <trkpt lat="63.0195" lon="7.49753">
        <ele>106.629278</ele>
        <time>2020-08-03T10:58:25.112Z</time>
      </trkpt>
      <trkpt lat="63.01954" lon="7.49773">
        <ele>106.548048</ele>
        <time>2020-08-03T10:58:27.124Z</time>
      </trkpt>
      <trkpt lat="63.01958" lon="7.49793">
        <ele>106.469727</ele>
        <time>2020-08-03T10:58:29.193Z</time>
      </trkpt>
      <trkpt lat="63.01963" lon="7.49813">
        <ele>106.391064</ele>
        <time>2020-08-03T10:58:31.110Z</time>
      </trkpt>
      <trkpt lat="63.01967" lon="7.49832">
        <ele>106.314382</ele>
        <time>2020-08-03T10:58:33.194Z</time>
      </trkpt>
      <trkpt lat="63.01971" lon="7.49852">
        <ele>106.277555</ele>
        <time>2020-08-03T10:58:35.130Z</time>
      </trkpt>
      <trkpt lat="63.01975" lon="7.49871">
        <ele>106.296093</ele>
        <time>2020-08-03T10:58:37.124Z</time>
      </trkpt>
      <trkpt lat="63.0198" lon="7.4989">
        <ele>106.314363</ele>
        <time>2020-08-03T10:58:39.140Z</time>
      </trkpt>
      <trkpt lat="63.01984" lon="7.49909">
        <ele>106.332396</ele>
        <time>2020-08-03T10:58:41.125Z</time>
      </trkpt>
      <trkpt lat="63.01988" lon="7.49928">
        <ele>106.350429</ele>
        <time>2020-08-03T10:58:43.124Z</time>
      </trkpt>
      <trkpt lat="63.01992" lon="7.49945">
        <ele>106.368008</ele>
        <time>2020-08-03T10:58:45.139Z</time>
      </trkpt>
      <trkpt lat="63.01997" lon="7.49973">
        <ele>106.393127</ele>
        <time>2020-08-03T10:58:48.121Z</time>
      </trkpt>
      <trkpt lat="63.02" lon="7.49992">
        <ele>106.410507</ele>
        <time>2020-08-03T10:58:50.114Z</time>
      </trkpt>
      <trkpt lat="63.02004" lon="7.50012">
        <ele>106.429716</ele>
        <time>2020-08-03T10:58:52.134Z</time>
      </trkpt>
      <trkpt lat="63.02008" lon="7.50033">
        <ele>106.448925</ele>
        <time>2020-08-03T10:58:54.136Z</time>
      </trkpt>
      <trkpt lat="63.02011" lon="7.50053">
        <ele>106.467551</ele>
        <time>2020-08-03T10:58:56.115Z</time>
      </trkpt>
      <trkpt lat="63.02014" lon="7.50075">
        <ele>106.48697</ele>
        <time>2020-08-03T10:58:58.144Z</time>
      </trkpt>
      <trkpt lat="63.02018" lon="7.50096">
        <ele>106.50667</ele>
        <time>2020-08-03T10:59:00.137Z</time>
      </trkpt>
      <trkpt lat="63.0202" lon="7.50118">
        <ele>106.526025</ele>
        <time>2020-08-03T10:59:02.111Z</time>
      </trkpt>
      <trkpt lat="63.02023" lon="7.5014">
        <ele>106.545669</ele>
        <time>2020-08-03T10:59:04.110Z</time>
      </trkpt>
      <trkpt lat="63.02025" lon="7.50163">
        <ele>106.565648</ele>
        <time>2020-08-03T10:59:06.113Z</time>
      </trkpt>
      <trkpt lat="63.02028" lon="7.50187">
        <ele>106.587266</ele>
        <time>2020-08-03T10:59:08.116Z</time>
      </trkpt>
      <trkpt lat="63.0203" lon="7.50212">
        <ele>106.608915</ele>
        <time>2020-08-03T10:59:10.112Z</time>
      </trkpt>
      <trkpt lat="63.02031" lon="7.50238">
        <ele>106.347999</ele>
        <time>2020-08-03T10:59:12.135Z</time>
      </trkpt>
      <trkpt lat="63.02032" lon="7.50263">
        <ele>106.063866</ele>
        <time>2020-08-03T10:59:14.115Z</time>
      </trkpt>
      <trkpt lat="63.02032" lon="7.50286">
        <ele>105.790548</ele>
        <time>2020-08-03T10:59:16.118Z</time>
      </trkpt>
      <trkpt lat="63.02033" lon="7.50311">
        <ele>105.511292</ele>
        <time>2020-08-03T10:59:18.116Z</time>
      </trkpt>
      <trkpt lat="63.02033" lon="7.50335">
        <ele>105.229754</ele>
        <time>2020-08-03T10:59:20.127Z</time>
      </trkpt>
      <trkpt lat="63.02034" lon="7.5036">
        <ele>104.949584</ele>
        <time>2020-08-03T10:59:22.138Z</time>
      </trkpt>
      <trkpt lat="63.02034" lon="7.50385">
        <ele>104.665619</ele>
        <time>2020-08-03T10:59:24.115Z</time>
      </trkpt>
      <trkpt lat="63.02035" lon="7.5041">
        <ele>104.380346</ele>
        <time>2020-08-03T10:59:26.106Z</time>
      </trkpt>
      <trkpt lat="63.02035" lon="7.50435">
        <ele>104.088886</ele>
        <time>2020-08-03T10:59:28.117Z</time>
      </trkpt>
      <trkpt lat="63.02035" lon="7.5046">
        <ele>103.803005</ele>
        <time>2020-08-03T10:59:30.148Z</time>
      </trkpt>
      <trkpt lat="63.02034" lon="7.50485">
        <ele>103.522835</ele>
        <time>2020-08-03T10:59:32.142Z</time>
      </trkpt>
      <trkpt lat="63.02035" lon="7.50509">
        <ele>103.244949</ele>
        <time>2020-08-03T10:59:34.134Z</time>
      </trkpt>
      <trkpt lat="63.02036" lon="7.50532">
        <ele>102.975634</ele>
        <time>2020-08-03T10:59:36.159Z</time>
      </trkpt>
      <trkpt lat="63.02036" lon="7.50556">
        <ele>102.711452</ele>
        <time>2020-08-03T10:59:38.114Z</time>
      </trkpt>
      <trkpt lat="63.02037" lon="7.5058">
        <ele>102.432825</ele>
        <time>2020-08-03T10:59:40.126Z</time>
      </trkpt>
      <trkpt lat="63.02038" lon="7.50604">
        <ele>102.151706</ele>
        <time>2020-08-03T10:59:42.123Z</time>
      </trkpt>
      <trkpt lat="63.02039" lon="7.50629">
        <ele>101.932321</ele>
        <time>2020-08-03T10:59:44.163Z</time>
      </trkpt>
      <trkpt lat="63.02039" lon="7.50654">
        <ele>101.727775</ele>
        <time>2020-08-03T10:59:46.138Z</time>
      </trkpt>
      <trkpt lat="63.02041" lon="7.5068">
        <ele>101.516012</ele>
        <time>2020-08-03T10:59:48.137Z</time>
      </trkpt>
      <trkpt lat="63.02042" lon="7.50706">
        <ele>101.303855</ele>
        <time>2020-08-03T10:59:50.137Z</time>
      </trkpt>
      <trkpt lat="63.02043" lon="7.50731">
        <ele>101.095505</ele>
        <time>2020-08-03T10:59:52.110Z</time>
      </trkpt>
      <trkpt lat="63.02044" lon="7.50756">
        <ele>100.894207</ele>
        <time>2020-08-03T10:59:54.124Z</time>
      </trkpt>
      <trkpt lat="63.02044" lon="7.5078">
        <ele>100.693913</ele>
        <time>2020-08-03T10:59:56.128Z</time>
      </trkpt>
      <trkpt lat="63.02045" lon="7.50805">
        <ele>100.493427</ele>
        <time>2020-08-03T10:59:58.124Z</time>
      </trkpt>
      <trkpt lat="63.02046" lon="7.5083">
        <ele>100.291198</ele>
        <time>2020-08-03T11:00:00.131Z</time>
      </trkpt>
      <trkpt lat="63.02047" lon="7.50854">
        <ele>100.093026</ele>
        <time>2020-08-03T11:00:02.151Z</time>
      </trkpt>
      <trkpt lat="63.02047" lon="7.50879">
        <ele>99.889292</ele>
        <time>2020-08-03T11:00:04.138Z</time>
      </trkpt>
      <trkpt lat="63.02048" lon="7.50905">
        <ele>99.6815</ele>
        <time>2020-08-03T11:00:06.111Z</time>
      </trkpt>
      <trkpt lat="63.02049" lon="7.50931">
        <ele>99.46791</ele>
        <time>2020-08-03T11:00:08.110Z</time>
      </trkpt>
      <trkpt lat="63.0205" lon="7.50958">
        <ele>99.249452</ele>
        <time>2020-08-03T11:00:10.125Z</time>
      </trkpt>
      <trkpt lat="63.0205" lon="7.50985">
        <ele>99.026404</ele>
        <time>2020-08-03T11:00:12.125Z</time>
      </trkpt>
      <trkpt lat="63.02051" lon="7.51014">
        <ele>98.76056</ele>
        <time>2020-08-03T11:00:14.135Z</time>
      </trkpt>
      <trkpt lat="63.02051" lon="7.51044">
        <ele>98.388674</ele>
        <time>2020-08-03T11:00:16.134Z</time>
      </trkpt>
      <trkpt lat="63.02052" lon="7.51079">
        <ele>97.971789</ele>
        <time>2020-08-03T11:00:18.118Z</time>
      </trkpt>
      <trkpt lat="63.02053" lon="7.51116">
        <ele>97.520685</ele>
        <time>2020-08-03T11:00:20.108Z</time>
      </trkpt>
      <trkpt lat="63.02054" lon="7.51155">
        <ele>97.040338</ele>
        <time>2020-08-03T11:00:22.128Z</time>
      </trkpt>
      <trkpt lat="63.02054" lon="7.51176">
        <ele>96.793627</ele>
        <time>2020-08-03T11:00:23.149Z</time>
      </trkpt>
      <trkpt lat="63.02055" lon="7.51196">
        <ele>96.543277</ele>
        <time>2020-08-03T11:00:24.132Z</time>
      </trkpt>
      <trkpt lat="63.02055" lon="7.51217">
        <ele>96.292456</ele>
        <time>2020-08-03T11:00:25.110Z</time>
      </trkpt>
      <trkpt lat="63.02056" lon="7.51238">
        <ele>96.039553</ele>
        <time>2020-08-03T11:00:26.115Z</time>
      </trkpt>
      <trkpt lat="63.02057" lon="7.51258">
        <ele>95.785589</ele>
        <time>2020-08-03T11:00:27.168Z</time>
      </trkpt>
      <trkpt lat="63.02057" lon="7.51279">
        <ele>95.5384</ele>
        <time>2020-08-03T11:00:28.146Z</time>
      </trkpt>
      <trkpt lat="63.02058" lon="7.51299">
        <ele>95.294116</ele>
        <time>2020-08-03T11:00:29.115Z</time>
      </trkpt>
      <trkpt lat="63.02058" lon="7.51319">
        <ele>95.052361</ele>
        <time>2020-08-03T11:00:30.109Z</time>
      </trkpt>
      <trkpt lat="63.02059" lon="7.51357">
        <ele>94.59302</ele>
        <time>2020-08-03T11:00:32.110Z</time>
      </trkpt>
      <trkpt lat="63.02059" lon="7.51392">
        <ele>94.156835</ele>
        <time>2020-08-03T11:00:34.119Z</time>
      </trkpt>
      <trkpt lat="63.0206" lon="7.51427">
        <ele>93.591894</ele>
        <time>2020-08-03T11:00:36.136Z</time>
      </trkpt>
      <trkpt lat="63.0206" lon="7.51461">
        <ele>92.984365</ele>
        <time>2020-08-03T11:00:38.142Z</time>
      </trkpt>
      <trkpt lat="63.02061" lon="7.51496">
        <ele>92.369146</ele>
        <time>2020-08-03T11:00:40.129Z</time>
      </trkpt>
      <trkpt lat="63.02062" lon="7.51532">
        <ele>91.72459</ele>
        <time>2020-08-03T11:00:42.130Z</time>
      </trkpt>
      <trkpt lat="63.02063" lon="7.51568">
        <ele>91.072356</ele>
        <time>2020-08-03T11:00:44.117Z</time>
      </trkpt>
      <trkpt lat="63.02065" lon="7.51605">
        <ele>90.410229</ele>
        <time>2020-08-03T11:00:46.123Z</time>
      </trkpt>
      <trkpt lat="63.02066" lon="7.51644">
        <ele>89.718917</ele>
        <time>2020-08-03T11:00:48.125Z</time>
      </trkpt>
      <trkpt lat="63.02067" lon="7.51664">
        <ele>89.365119</ele>
        <time>2020-08-03T11:00:49.110Z</time>
      </trkpt>
      <trkpt lat="63.02069" lon="7.51703">
        <ele>88.658845</ele>
        <time>2020-08-03T11:00:51.134Z</time>
      </trkpt>
      <trkpt lat="63.0207" lon="7.51724">
        <ele>88.291101</ele>
        <time>2020-08-03T11:00:52.139Z</time>
      </trkpt>
      <trkpt lat="63.02071" lon="7.51744">
        <ele>87.921316</ele>
        <time>2020-08-03T11:00:53.146Z</time>
      </trkpt>
      <trkpt lat="63.02071" lon="7.51766">
        <ele>87.543138</ele>
        <time>2020-08-03T11:00:54.158Z</time>
      </trkpt>
      <trkpt lat="63.02072" lon="7.51787">
        <ele>87.157623</ele>
        <time>2020-08-03T11:00:55.130Z</time>
      </trkpt>
      <trkpt lat="63.02072" lon="7.51809">
        <ele>86.84729</ele>
        <time>2020-08-03T11:00:56.143Z</time>
      </trkpt>
      <trkpt lat="63.02073" lon="7.51831">
        <ele>86.604626</ele>
        <time>2020-08-03T11:00:57.117Z</time>
      </trkpt>
      <trkpt lat="63.02073" lon="7.51853">
        <ele>86.364263</ele>
        <time>2020-08-03T11:00:58.136Z</time>
      </trkpt>
      <trkpt lat="63.02073" lon="7.51875">
        <ele>86.124094</ele>
        <time>2020-08-03T11:00:59.118Z</time>
      </trkpt>
      <trkpt lat="63.02073" lon="7.51897">
        <ele>85.888262</ele>
        <time>2020-08-03T11:01:00.136Z</time>
      </trkpt>
      <trkpt lat="63.02073" lon="7.51918">
        <ele>85.650089</ele>
        <time>2020-08-03T11:01:01.107Z</time>
      </trkpt>
      <trkpt lat="63.02072" lon="7.5194">
        <ele>85.409143</ele>
        <time>2020-08-03T11:01:02.122Z</time>
      </trkpt>
      <trkpt lat="63.02071" lon="7.51962">
        <ele>85.16929</ele>
        <time>2020-08-03T11:01:03.120Z</time>
      </trkpt>
      <trkpt lat="63.0207" lon="7.51983">
        <ele>84.936634</ele>
        <time>2020-08-03T11:01:04.140Z</time>
      </trkpt>
      <trkpt lat="63.02069" lon="7.52003">
        <ele>84.717233</ele>
        <time>2020-08-03T11:01:05.135Z</time>
      </trkpt>
      <trkpt lat="63.02066" lon="7.52039">
        <ele>84.317754</ele>
        <time>2020-08-03T11:01:07.122Z</time>
      </trkpt>
      <trkpt lat="63.02063" lon="7.5207">
        <ele>83.965351</ele>
        <time>2020-08-03T11:01:09.132Z</time>
      </trkpt>
      <trkpt lat="63.0206" lon="7.52098">
        <ele>83.651971</ele>
        <time>2020-08-03T11:01:11.123Z</time>
      </trkpt>
      <trkpt lat="63.02057" lon="7.52122">
        <ele>83.381381</ele>
        <time>2020-08-03T11:01:13.117Z</time>
      </trkpt>
      <trkpt lat="63.02055" lon="7.52145">
        <ele>83.128444</ele>
        <time>2020-08-03T11:01:15.129Z</time>
      </trkpt>
      <trkpt lat="63.02052" lon="7.52166">
        <ele>82.888019</ele>
        <time>2020-08-03T11:01:17.138Z</time>
      </trkpt>
      <trkpt lat="63.0205" lon="7.52185">
        <ele>82.661281</ele>
        <time>2020-08-03T11:01:19.112Z</time>
      </trkpt>
      <trkpt lat="63.02047" lon="7.52205">
        <ele>83.165121</ele>
        <time>2020-08-03T11:01:21.115Z</time>
      </trkpt>
      <trkpt lat="63.02043" lon="7.52231">
        <ele>84.021496</ele>
        <time>2020-08-03T11:01:24.120Z</time>
      </trkpt>
      <trkpt lat="63.02039" lon="7.52252">
        <ele>84.723351</ele>
        <time>2020-08-03T11:01:27.137Z</time>
      </trkpt>
      <trkpt lat="63.02037" lon="7.52272">
        <ele>85.377083</ele>
        <time>2020-08-03T11:01:31.122Z</time>
      </trkpt>
      <trkpt lat="63.02034" lon="7.52292">
        <ele>86.002755</ele>
        <time>2020-08-03T11:01:37.147Z</time>
      </trkpt>
      <trkpt lat="63.02028" lon="7.52317">
        <ele>86.872532</ele>
        <time>2020-08-03T11:02:14.136Z</time>
      </trkpt>
      <trkpt lat="63.02025" lon="7.52336">
        <ele>87.490267</ele>
        <time>2020-08-03T11:02:20.126Z</time>
      </trkpt>
      <trkpt lat="63.02021" lon="7.52356">
        <ele>88.168351</ele>
        <time>2020-08-03T11:02:26.137Z</time>
      </trkpt>
      <trkpt lat="63.02017" lon="7.52375">
        <ele>88.817925</ele>
        <time>2020-08-03T11:02:32.148Z</time>
      </trkpt>
      <trkpt lat="63.02014" lon="7.52393">
        <ele>89.436564</ele>
        <time>2020-08-03T11:02:38.117Z</time>
      </trkpt>
      <trkpt lat="63.0201" lon="7.52413">
        <ele>90.087392</ele>
        <time>2020-08-03T11:02:44.115Z</time>
      </trkpt>
      <trkpt lat="63.02006" lon="7.52434">
        <ele>90.796161</ele>
        <time>2020-08-03T11:02:51.131Z</time>
      </trkpt>
      <trkpt lat="63.02002" lon="7.52453">
        <ele>91.432584</ele>
        <time>2020-08-03T11:02:57.131Z</time>
      </trkpt>
      <trkpt lat="63.01999" lon="7.52473">
        <ele>92.093584</ele>
        <time>2020-08-03T11:03:03.115Z</time>
      </trkpt>
      <trkpt lat="63.01995" lon="7.52491">
        <ele>92.706595</ele>
        <time>2020-08-03T11:03:09.124Z</time>
      </trkpt>
      <trkpt lat="63.01991" lon="7.52511">
        <ele>93.392733</ele>
        <time>2020-08-03T11:03:15.143Z</time>
      </trkpt>
      <trkpt lat="63.01987" lon="7.52529">
        <ele>94.022954</ele>
        <time>2020-08-03T11:03:21.118Z</time>
      </trkpt>
      <trkpt lat="63.01983" lon="7.5255">
        <ele>94.706759</ele>
        <time>2020-08-03T11:03:28.113Z</time>
      </trkpt>
      <trkpt lat="63.0198" lon="7.52569">
        <ele>95.570355</ele>
        <time>2020-08-03T11:03:34.129Z</time>
      </trkpt>
      <trkpt lat="63.01975" lon="7.5259">
        <ele>96.647513</ele>
        <time>2020-08-03T11:03:41.113Z</time>
      </trkpt>
      <trkpt lat="63.01971" lon="7.52611">
        <ele>97.74092</ele>
        <time>2020-08-03T11:03:48.148Z</time>
      </trkpt>
      <trkpt lat="63.01967" lon="7.52631">
        <ele>98.765684</ele>
        <time>2020-08-03T11:03:54.162Z</time>
      </trkpt>
      <trkpt lat="63.01963" lon="7.5265">
        <ele>99.756829</ele>
        <time>2020-08-03T11:04:00.127Z</time>
      </trkpt>
      <trkpt lat="63.0196" lon="7.52668">
        <ele>100.695938</ele>
        <time>2020-08-03T11:04:06.123Z</time>
      </trkpt>
      <trkpt lat="63.01955" lon="7.52686">
        <ele>101.652199</ele>
        <time>2020-08-03T11:04:12.128Z</time>
      </trkpt>
      <trkpt lat="63.0195" lon="7.52703">
        <ele>102.656396</ele>
        <time>2020-08-03T11:04:19.115Z</time>
      </trkpt>
      <trkpt lat="63.01944" lon="7.52721">
        <ele>103.704179</ele>
        <time>2020-08-03T11:04:26.136Z</time>
      </trkpt>
      <trkpt lat="63.01938" lon="7.52738">
        <ele>104.66555</ele>
        <time>2020-08-03T11:04:32.114Z</time>
      </trkpt>
      <trkpt lat="63.01932" lon="7.52753">
        <ele>105.631952</ele>
        <time>2020-08-03T11:04:38.151Z</time>
      </trkpt>
      <trkpt lat="63.01924" lon="7.52766">
        <ele>106.636783</ele>
        <time>2020-08-03T11:04:44.110Z</time>
      </trkpt>
      <trkpt lat="63.01918" lon="7.52783">
        <ele>107.658803</ele>
        <time>2020-08-03T11:04:51.139Z</time>
      </trkpt>
      <trkpt lat="63.01911" lon="7.52797">
        <ele>108.611643</ele>
        <time>2020-08-03T11:04:57.132Z</time>
      </trkpt>
      <trkpt lat="63.01903" lon="7.52811">
        <ele>109.65548</ele>
        <time>2020-08-03T11:05:03.119Z</time>
      </trkpt>
      <trkpt lat="63.01897" lon="7.52824">
        <ele>110.61787</ele>
        <time>2020-08-03T11:05:09.152Z</time>
      </trkpt>
      <trkpt lat="63.01887" lon="7.52837">
        <ele>111.749374</ele>
        <time>2020-08-03T11:05:15.110Z</time>
      </trkpt>
      <trkpt lat="63.0188" lon="7.52849">
        <ele>112.719884</ele>
        <time>2020-08-03T11:05:20.154Z</time>
      </trkpt>
      <trkpt lat="63.01871" lon="7.52863">
        <ele>113.45538</ele>
        <time>2020-08-03T11:05:25.170Z</time>
      </trkpt>
      <trkpt lat="63.01861" lon="7.52877">
        <ele>113.117871</ele>
        <time>2020-08-03T11:05:29.119Z</time>
      </trkpt>
      <trkpt lat="63.01852" lon="7.5289">
        <ele>112.82464</ele>
        <time>2020-08-03T11:05:32.106Z</time>
      </trkpt>
      <trkpt lat="63.01841" lon="7.52906">
        <ele>112.468781</ele>
        <time>2020-08-03T11:05:35.150Z</time>
      </trkpt>
      <trkpt lat="63.01833" lon="7.52917">
        <ele>112.196174</ele>
        <time>2020-08-03T11:05:37.113Z</time>
      </trkpt>
      <trkpt lat="63.01823" lon="7.52931">
        <ele>111.86953</ele>
        <time>2020-08-03T11:05:39.150Z</time>
      </trkpt>
      <trkpt lat="63.01811" lon="7.52948">
        <ele>111.477677</ele>
        <time>2020-08-03T11:05:41.114Z</time>
      </trkpt>
      <trkpt lat="63.01798" lon="7.52967">
        <ele>111.027056</ele>
        <time>2020-08-03T11:05:43.115Z</time>
      </trkpt>
      <trkpt lat="63.01783" lon="7.52988">
        <ele>110.521691</ele>
        <time>2020-08-03T11:05:45.130Z</time>
      </trkpt>
      <trkpt lat="63.01775" lon="7.52999">
        <ele>110.264293</ele>
        <time>2020-08-03T11:05:46.124Z</time>
      </trkpt>
      <trkpt lat="63.01767" lon="7.5301">
        <ele>110.001816</ele>
        <time>2020-08-03T11:05:47.155Z</time>
      </trkpt>
      <trkpt lat="63.01759" lon="7.53022">
        <ele>109.745788</ele>
        <time>2020-08-03T11:05:48.127Z</time>
      </trkpt>
      <trkpt lat="63.01752" lon="7.53033">
        <ele>109.491925</ele>
        <time>2020-08-03T11:05:49.154Z</time>
      </trkpt>
      <trkpt lat="63.01738" lon="7.53056">
        <ele>109.000961</ele>
        <time>2020-08-03T11:05:51.129Z</time>
      </trkpt>
      <trkpt lat="63.01725" lon="7.5308">
        <ele>108.523327</ele>
        <time>2020-08-03T11:05:53.149Z</time>
      </trkpt>
      <trkpt lat="63.01712" lon="7.53107">
        <ele>107.509887</ele>
        <time>2020-08-03T11:05:55.155Z</time>
      </trkpt>
      <trkpt lat="63.01705" lon="7.53121">
        <ele>106.968904</ele>
        <time>2020-08-03T11:05:56.128Z</time>
      </trkpt>
      <trkpt lat="63.01698" lon="7.53136">
        <ele>106.418686</ele>
        <time>2020-08-03T11:05:57.118Z</time>
      </trkpt>
      <trkpt lat="63.01691" lon="7.53152">
        <ele>105.843443</ele>
        <time>2020-08-03T11:05:58.160Z</time>
      </trkpt>
      <trkpt lat="63.01685" lon="7.53167">
        <ele>105.28797</ele>
        <time>2020-08-03T11:05:59.131Z</time>
      </trkpt>
      <trkpt lat="63.01679" lon="7.53183">
        <ele>104.732419</ele>
        <time>2020-08-03T11:06:00.115Z</time>
      </trkpt>
      <trkpt lat="63.01672" lon="7.53199">
        <ele>104.174653</ele>
        <time>2020-08-03T11:06:01.130Z</time>
      </trkpt>
      <trkpt lat="63.01666" lon="7.53215">
        <ele>103.63067</ele>
        <time>2020-08-03T11:06:02.130Z</time>
      </trkpt>
      <trkpt lat="63.0166" lon="7.53231">
        <ele>103.086855</ele>
        <time>2020-08-03T11:06:03.126Z</time>
      </trkpt>
      <trkpt lat="63.01654" lon="7.53246">
        <ele>102.552797</ele>
        <time>2020-08-03T11:06:04.112Z</time>
      </trkpt>
      <trkpt lat="63.01643" lon="7.53275">
        <ele>101.539161</ele>
        <time>2020-08-03T11:06:06.127Z</time>
      </trkpt>
      <trkpt lat="63.01631" lon="7.53303">
        <ele>100.525688</ele>
        <time>2020-08-03T11:06:08.118Z</time>
      </trkpt>
      <trkpt lat="63.01624" lon="7.53318">
        <ele>99.985812</ele>
        <time>2020-08-03T11:06:09.129Z</time>
      </trkpt>
      <trkpt lat="63.01618" lon="7.53334">
        <ele>99.443965</ele>
        <time>2020-08-03T11:06:10.110Z</time>
      </trkpt>
      <trkpt lat="63.01612" lon="7.53349">
        <ele>98.91571</ele>
        <time>2020-08-03T11:06:11.115Z</time>
      </trkpt>
      <trkpt lat="63.01606" lon="7.53364">
        <ele>98.379193</ele>
        <time>2020-08-03T11:06:12.115Z</time>
      </trkpt>
      <trkpt lat="63.016" lon="7.5338">
        <ele>97.952294</ele>
        <time>2020-08-03T11:06:13.118Z</time>
      </trkpt>
      <trkpt lat="63.01594" lon="7.53395">
        <ele>97.678739</ele>
        <time>2020-08-03T11:06:14.116Z</time>
      </trkpt>
      <trkpt lat="63.01583" lon="7.53424">
        <ele>97.164468</ele>
        <time>2020-08-03T11:06:16.134Z</time>
      </trkpt>
      <trkpt lat="63.01573" lon="7.53451">
        <ele>96.678653</ele>
        <time>2020-08-03T11:06:18.146Z</time>
      </trkpt>
      <trkpt lat="63.01563" lon="7.53476">
        <ele>96.23422</ele>
        <time>2020-08-03T11:06:20.114Z</time>
      </trkpt>
      <trkpt lat="63.01554" lon="7.53498">
        <ele>95.830758</ele>
        <time>2020-08-03T11:06:22.133Z</time>
      </trkpt>
      <trkpt lat="63.01546" lon="7.53518">
        <ele>95.461737</ele>
        <time>2020-08-03T11:06:24.108Z</time>
      </trkpt>
      <trkpt lat="63.01538" lon="7.53537">
        <ele>95.120813</ele>
        <time>2020-08-03T11:06:26.127Z</time>
      </trkpt>
      <trkpt lat="63.01531" lon="7.53555">
        <ele>94.802002</ele>
        <time>2020-08-03T11:06:28.118Z</time>
      </trkpt>
      <trkpt lat="63.01525" lon="7.53571">
        <ele>94.511365</ele>
        <time>2020-08-03T11:06:30.138Z</time>
      </trkpt>
      <trkpt lat="63.01516" lon="7.53593">
        <ele>94.116948</ele>
        <time>2020-08-03T11:06:33.138Z</time>
      </trkpt>
      <trkpt lat="63.01508" lon="7.53614">
        <ele>93.746822</ele>
        <time>2020-08-03T11:06:36.146Z</time>
      </trkpt>
      <trkpt lat="63.015" lon="7.53634">
        <ele>93.396748</ele>
        <time>2020-08-03T11:06:39.172Z</time>
      </trkpt>
      <trkpt lat="63.01493" lon="7.53652">
        <ele>93.05286</ele>
        <time>2020-08-03T11:06:42.127Z</time>
      </trkpt>
      <trkpt lat="63.01486" lon="7.53671">
        <ele>92.72578</ele>
        <time>2020-08-03T11:06:45.202Z</time>
      </trkpt>
      <trkpt lat="63.01479" lon="7.53689">
        <ele>92.687221</ele>
        <time>2020-08-03T11:06:48.130Z</time>
      </trkpt>
      <trkpt lat="63.01472" lon="7.53707">
        <ele>92.677187</ele>
        <time>2020-08-03T11:06:51.113Z</time>
      </trkpt>
      <trkpt lat="63.01466" lon="7.53724">
        <ele>92.668111</ele>
        <time>2020-08-03T11:06:54.146Z</time>
      </trkpt>
      <trkpt lat="63.0146" lon="7.53739">
        <ele>92.659394</ele>
        <time>2020-08-03T11:06:57.133Z</time>
      </trkpt>
      <trkpt lat="63.01453" lon="7.53759">
        <ele>92.648402</ele>
        <time>2020-08-03T11:07:01.113Z</time>
      </trkpt>
      <trkpt lat="63.01445" lon="7.53779">
        <ele>92.637076</ele>
        <time>2020-08-03T11:07:05.114Z</time>
      </trkpt>
      <trkpt lat="63.01437" lon="7.53797">
        <ele>92.626222</ele>
        <time>2020-08-03T11:07:09.134Z</time>
      </trkpt>
      <trkpt lat="63.01429" lon="7.53817">
        <ele>92.615255</ele>
        <time>2020-08-03T11:07:13.154Z</time>
      </trkpt>
      <trkpt lat="63.01424" lon="7.53833">
        <ele>92.606465</ele>
        <time>2020-08-03T11:07:16.134Z</time>
      </trkpt>
      <trkpt lat="63.01418" lon="7.53851">
        <ele>92.596876</ele>
        <time>2020-08-03T11:07:19.145Z</time>
      </trkpt>
      <trkpt lat="63.0141" lon="7.53872">
        <ele>92.58525</ele>
        <time>2020-08-03T11:07:22.131Z</time>
      </trkpt>
      <trkpt lat="63.01405" lon="7.5389">
        <ele>92.576088</ele>
        <time>2020-08-03T11:07:24.130Z</time>
      </trkpt>
      <trkpt lat="63.01399" lon="7.53909">
        <ele>92.566247</ele>
        <time>2020-08-03T11:07:26.117Z</time>
      </trkpt>
      <trkpt lat="63.01393" lon="7.53931">
        <ele>92.555144</ele>
        <time>2020-08-03T11:07:28.131Z</time>
      </trkpt>
      <trkpt lat="63.01386" lon="7.53955">
        <ele>92.543135</ele>
        <time>2020-08-03T11:07:30.147Z</time>
      </trkpt>
      <trkpt lat="63.0138" lon="7.5398">
        <ele>92.530773</ele>
        <time>2020-08-03T11:07:32.124Z</time>
      </trkpt>
      <trkpt lat="63.01373" lon="7.54004">
        <ele>92.500861</ele>
        <time>2020-08-03T11:07:34.132Z</time>
      </trkpt>
      <trkpt lat="63.01367" lon="7.54028">
        <ele>92.461122</ele>
        <time>2020-08-03T11:07:36.125Z</time>
      </trkpt>
      <trkpt lat="63.01362" lon="7.54052">
        <ele>92.423049</ele>
        <time>2020-08-03T11:07:38.164Z</time>
      </trkpt>
      <trkpt lat="63.01357" lon="7.54075">
        <ele>92.386962</ele>
        <time>2020-08-03T11:07:40.120Z</time>
      </trkpt>
      <trkpt lat="63.01353" lon="7.54098">
        <ele>92.352628</ele>
        <time>2020-08-03T11:07:42.132Z</time>
      </trkpt>
      <trkpt lat="63.01349" lon="7.54119">
        <ele>92.319767</ele>
        <time>2020-08-03T11:07:44.143Z</time>
      </trkpt>
      <trkpt lat="63.01345" lon="7.54139">
        <ele>92.28835</ele>
        <time>2020-08-03T11:07:46.126Z</time>
      </trkpt>
      <trkpt lat="63.01341" lon="7.54159">
        <ele>92.256936</ele>
        <time>2020-08-03T11:07:48.152Z</time>
      </trkpt>
      <trkpt lat="63.01337" lon="7.5418">
        <ele>92.224743</ele>
        <time>2020-08-03T11:07:50.118Z</time>
      </trkpt>
      <trkpt lat="63.01332" lon="7.54201">
        <ele>92.192029</ele>
        <time>2020-08-03T11:07:52.162Z</time>
      </trkpt>
      <trkpt lat="63.01328" lon="7.54223">
        <ele>92.158275</ele>
        <time>2020-08-03T11:07:54.126Z</time>
      </trkpt>
      <trkpt lat="63.01324" lon="7.54245">
        <ele>92.124358</ele>
        <time>2020-08-03T11:07:56.168Z</time>
      </trkpt>
      <trkpt lat="63.0132" lon="7.54267">
        <ele>92.089949</ele>
        <time>2020-08-03T11:07:58.188Z</time>
      </trkpt>
      <trkpt lat="63.01315" lon="7.54289">
        <ele>92.0549</ele>
        <time>2020-08-03T11:08:00.146Z</time>
      </trkpt>
      <trkpt lat="63.01311" lon="7.54312">
        <ele>92.019974</ele>
        <time>2020-08-03T11:08:02.116Z</time>
      </trkpt>
      <trkpt lat="63.01306" lon="7.54334">
        <ele>91.985441</ele>
        <time>2020-08-03T11:08:04.131Z</time>
      </trkpt>
      <trkpt lat="63.01302" lon="7.54357">
        <ele>91.993932</ele>
        <time>2020-08-03T11:08:06.125Z</time>
      </trkpt>
      <trkpt lat="63.01298" lon="7.54378">
        <ele>92.096105</ele>
        <time>2020-08-03T11:08:08.136Z</time>
      </trkpt>
      <trkpt lat="63.01293" lon="7.544">
        <ele>92.198291</ele>
        <time>2020-08-03T11:08:10.124Z</time>
      </trkpt>
      <trkpt lat="63.01289" lon="7.54421">
        <ele>92.295426</ele>
        <time>2020-08-03T11:08:12.142Z</time>
      </trkpt>
      <trkpt lat="63.01286" lon="7.54441">
        <ele>92.38904</ele>
        <time>2020-08-03T11:08:14.120Z</time>
      </trkpt>
      <trkpt lat="63.01282" lon="7.54461">
        <ele>92.478741</ele>
        <time>2020-08-03T11:08:16.140Z</time>
      </trkpt>
      <trkpt lat="63.01278" lon="7.5448">
        <ele>92.567705</ele>
        <time>2020-08-03T11:08:18.131Z</time>
      </trkpt>
      <trkpt lat="63.01275" lon="7.54499">
        <ele>92.654725</ele>
        <time>2020-08-03T11:08:20.148Z</time>
      </trkpt>
      <trkpt lat="63.01269" lon="7.54525">
        <ele>92.77915</ele>
        <time>2020-08-03T11:08:23.112Z</time>
      </trkpt>
      <trkpt lat="63.01264" lon="7.54552">
        <ele>92.902418</ele>
        <time>2020-08-03T11:08:26.127Z</time>
      </trkpt>
      <trkpt lat="63.0126" lon="7.54577">
        <ele>93.018738</ele>
        <time>2020-08-03T11:08:29.137Z</time>
      </trkpt>
      <trkpt lat="63.01255" lon="7.54601">
        <ele>93.128757</ele>
        <time>2020-08-03T11:08:32.125Z</time>
      </trkpt>
      <trkpt lat="63.01251" lon="7.54624">
        <ele>93.237198</ele>
        <time>2020-08-03T11:08:35.127Z</time>
      </trkpt>
      <trkpt lat="63.01246" lon="7.54647">
        <ele>93.343329</ele>
        <time>2020-08-03T11:08:38.132Z</time>
      </trkpt>
      <trkpt lat="63.01242" lon="7.5467">
        <ele>93.451091</ele>
        <time>2020-08-03T11:08:41.117Z</time>
      </trkpt>
      <trkpt lat="63.01238" lon="7.54694">
        <ele>93.563056</ele>
        <time>2020-08-03T11:08:44.128Z</time>
      </trkpt>
      <trkpt lat="63.01233" lon="7.54722">
        <ele>93.670658</ele>
        <time>2020-08-03T11:08:47.151Z</time>
      </trkpt>
      <trkpt lat="63.01229" lon="7.54742">
        <ele>93.703454</ele>
        <time>2020-08-03T11:08:49.112Z</time>
      </trkpt>
      <trkpt lat="63.01226" lon="7.54763">
        <ele>93.737826</ele>
        <time>2020-08-03T11:08:51.129Z</time>
      </trkpt>
      <trkpt lat="63.01222" lon="7.54784">
        <ele>93.773192</ele>
        <time>2020-08-03T11:08:53.131Z</time>
      </trkpt>
      <trkpt lat="63.01218" lon="7.54805">
        <ele>93.809409</ele>
        <time>2020-08-03T11:08:55.119Z</time>
      </trkpt>
      <trkpt lat="63.01215" lon="7.54827">
        <ele>93.845562</ele>
        <time>2020-08-03T11:08:57.115Z</time>
      </trkpt>
      <trkpt lat="63.01211" lon="7.54849">
        <ele>93.881862</ele>
        <time>2020-08-03T11:08:59.133Z</time>
      </trkpt>
      <trkpt lat="63.01207" lon="7.54871">
        <ele>93.918331</ele>
        <time>2020-08-03T11:09:01.116Z</time>
      </trkpt>
      <trkpt lat="63.01204" lon="7.54892">
        <ele>93.953868</ele>
        <time>2020-08-03T11:09:03.129Z</time>
      </trkpt>
      <trkpt lat="63.012" lon="7.54913">
        <ele>93.98781</ele>
        <time>2020-08-03T11:09:05.128Z</time>
      </trkpt>
      <trkpt lat="63.01197" lon="7.54933">
        <ele>94.021012</ele>
        <time>2020-08-03T11:09:07.163Z</time>
      </trkpt>
      <trkpt lat="63.01194" lon="7.54953">
        <ele>94.053418</ele>
        <time>2020-08-03T11:09:09.156Z</time>
      </trkpt>
      <trkpt lat="63.01191" lon="7.54972">
        <ele>94.08471</ele>
        <time>2020-08-03T11:09:11.114Z</time>
      </trkpt>
      <trkpt lat="63.01187" lon="7.55">
        <ele>94.130924</ele>
        <time>2020-08-03T11:09:14.140Z</time>
      </trkpt>
      <trkpt lat="63.01184" lon="7.55019">
        <ele>94.161778</ele>
        <time>2020-08-03T11:09:16.128Z</time>
      </trkpt>
      <trkpt lat="63.0118" lon="7.55045">
        <ele>94.205963</ele>
        <time>2020-08-03T11:09:19.127Z</time>
      </trkpt>
      <trkpt lat="63.01176" lon="7.55071">
        <ele>94.248121</ele>
        <time>2020-08-03T11:09:22.113Z</time>
      </trkpt>
      <trkpt lat="63.01172" lon="7.55097">
        <ele>94.207499</ele>
        <time>2020-08-03T11:09:25.134Z</time>
      </trkpt>
      <trkpt lat="63.01168" lon="7.55124">
        <ele>94.014805</ele>
        <time>2020-08-03T11:09:28.128Z</time>
      </trkpt>
      <trkpt lat="63.01164" lon="7.55151">
        <ele>93.822337</ele>
        <time>2020-08-03T11:09:31.171Z</time>
      </trkpt>
      <trkpt lat="63.0116" lon="7.55178">
        <ele>93.6218</ele>
        <time>2020-08-03T11:09:34.138Z</time>
      </trkpt>
      <trkpt lat="63.01157" lon="7.55198">
        <ele>93.479195</ele>
        <time>2020-08-03T11:09:36.130Z</time>
      </trkpt>
      <trkpt lat="63.01154" lon="7.55218">
        <ele>93.331522</ele>
        <time>2020-08-03T11:09:38.154Z</time>
      </trkpt>
      <trkpt lat="63.01151" lon="7.5524">
        <ele>93.17458</ele>
        <time>2020-08-03T11:09:40.135Z</time>
      </trkpt>
      <trkpt lat="63.01149" lon="7.55264">
        <ele>93.008032</ele>
        <time>2020-08-03T11:09:42.167Z</time>
      </trkpt>
      <trkpt lat="63.01146" lon="7.55288">
        <ele>92.837001</ele>
        <time>2020-08-03T11:09:44.146Z</time>
      </trkpt>
      <trkpt lat="63.01143" lon="7.55312">
        <ele>92.665827</ele>
        <time>2020-08-03T11:09:46.117Z</time>
      </trkpt>
      <trkpt lat="63.0114" lon="7.55336">
        <ele>92.494883</ele>
        <time>2020-08-03T11:09:48.114Z</time>
      </trkpt>
      <trkpt lat="63.01137" lon="7.55361">
        <ele>92.318803</ele>
        <time>2020-08-03T11:09:50.137Z</time>
      </trkpt>
      <trkpt lat="63.01134" lon="7.55385">
        <ele>92.143472</ele>
        <time>2020-08-03T11:09:52.123Z</time>
      </trkpt>
      <trkpt lat="63.01131" lon="7.5541">
        <ele>91.9655</ele>
        <time>2020-08-03T11:09:54.143Z</time>
      </trkpt>
      <trkpt lat="63.01127" lon="7.55436">
        <ele>91.780491</ele>
        <time>2020-08-03T11:09:56.130Z</time>
      </trkpt>
      <trkpt lat="63.01124" lon="7.55462">
        <ele>91.593297</ele>
        <time>2020-08-03T11:09:58.136Z</time>
      </trkpt>
      <trkpt lat="63.01119" lon="7.55488">
        <ele>91.109091</ele>
        <time>2020-08-03T11:10:00.116Z</time>
      </trkpt>
      <trkpt lat="63.01113" lon="7.55515">
        <ele>90.485601</ele>
        <time>2020-08-03T11:10:02.138Z</time>
      </trkpt>
      <trkpt lat="63.01107" lon="7.55542">
        <ele>89.850084</ele>
        <time>2020-08-03T11:10:04.116Z</time>
      </trkpt>
      <trkpt lat="63.011" lon="7.5557">
        <ele>89.18919</ele>
        <time>2020-08-03T11:10:06.120Z</time>
      </trkpt>
      <trkpt lat="63.01092" lon="7.55599">
        <ele>88.483403</ele>
        <time>2020-08-03T11:10:08.111Z</time>
      </trkpt>
      <trkpt lat="63.01083" lon="7.55629">
        <ele>87.732276</ele>
        <time>2020-08-03T11:10:10.127Z</time>
      </trkpt>
      <trkpt lat="63.01073" lon="7.55661">
        <ele>86.93143</ele>
        <time>2020-08-03T11:10:12.126Z</time>
      </trkpt>
      <trkpt lat="63.01063" lon="7.55693">
        <ele>86.119428</ele>
        <time>2020-08-03T11:10:14.142Z</time>
      </trkpt>
      <trkpt lat="63.01058" lon="7.55709">
        <ele>85.704464</ele>
        <time>2020-08-03T11:10:15.125Z</time>
      </trkpt>
      <trkpt lat="63.01053" lon="7.55727">
        <ele>85.269146</ele>
        <time>2020-08-03T11:10:16.129Z</time>
      </trkpt>
      <trkpt lat="63.01048" lon="7.55744">
        <ele>84.83034</ele>
        <time>2020-08-03T11:10:17.136Z</time>
      </trkpt>
      <trkpt lat="63.01042" lon="7.55762">
        <ele>84.383023</ele>
        <time>2020-08-03T11:10:18.126Z</time>
      </trkpt>
      <trkpt lat="63.01037" lon="7.55781">
        <ele>83.930492</ele>
        <time>2020-08-03T11:10:19.137Z</time>
      </trkpt>
      <trkpt lat="63.01031" lon="7.55799">
        <ele>83.482204</ele>
        <time>2020-08-03T11:10:20.137Z</time>
      </trkpt>
      <trkpt lat="63.01026" lon="7.55817">
        <ele>83.034183</ele>
        <time>2020-08-03T11:10:21.112Z</time>
      </trkpt>
      <trkpt lat="63.01021" lon="7.55836">
        <ele>82.575927</ele>
        <time>2020-08-03T11:10:22.144Z</time>
      </trkpt>
      <trkpt lat="63.01015" lon="7.55856">
        <ele>82.104274</ele>
        <time>2020-08-03T11:10:23.125Z</time>
      </trkpt>
      <trkpt lat="63.01009" lon="7.55875">
        <ele>81.629225</ele>
        <time>2020-08-03T11:10:24.124Z</time>
      </trkpt>
      <trkpt lat="63.01003" lon="7.55895">
        <ele>81.144169</ele>
        <time>2020-08-03T11:10:25.139Z</time>
      </trkpt>
      <trkpt lat="63.00997" lon="7.55915">
        <ele>80.663271</ele>
        <time>2020-08-03T11:10:26.123Z</time>
      </trkpt>
      <trkpt lat="63.00991" lon="7.55935">
        <ele>80.168994</ele>
        <time>2020-08-03T11:10:27.150Z</time>
      </trkpt>
      <trkpt lat="63.00985" lon="7.55955">
        <ele>79.684805</ele>
        <time>2020-08-03T11:10:28.124Z</time>
      </trkpt>
      <trkpt lat="63.00979" lon="7.55974">
        <ele>79.208985</ele>
        <time>2020-08-03T11:10:29.117Z</time>
      </trkpt>
      <trkpt lat="63.00973" lon="7.55993">
        <ele>78.73822</ele>
        <time>2020-08-03T11:10:30.130Z</time>
      </trkpt>
      <trkpt lat="63.00967" lon="7.56012">
        <ele>78.270811</ele>
        <time>2020-08-03T11:10:31.129Z</time>
      </trkpt>
      <trkpt lat="63.00961" lon="7.56031">
        <ele>77.803402</ele>
        <time>2020-08-03T11:10:32.130Z</time>
      </trkpt>
      <trkpt lat="63.00955" lon="7.5605">
        <ele>77.338503</ele>
        <time>2020-08-03T11:10:33.151Z</time>
      </trkpt>
      <trkpt lat="63.0095" lon="7.5607">
        <ele>76.868538</ele>
        <time>2020-08-03T11:10:34.130Z</time>
      </trkpt>
      <trkpt lat="63.00944" lon="7.56089">
        <ele>76.396589</ele>
        <time>2020-08-03T11:10:35.141Z</time>
      </trkpt>
      <trkpt lat="63.00939" lon="7.5611">
        <ele>75.925867</ele>
        <time>2020-08-03T11:10:36.168Z</time>
      </trkpt>
      <trkpt lat="63.00934" lon="7.56131">
        <ele>75.445167</ele>
        <time>2020-08-03T11:10:37.126Z</time>
      </trkpt>
      <trkpt lat="63.00931" lon="7.56154">
        <ele>74.881523</ele>
        <time>2020-08-03T11:10:38.132Z</time>
      </trkpt>
      <trkpt lat="63.00928" lon="7.56179">
        <ele>74.257672</ele>
        <time>2020-08-03T11:10:39.148Z</time>
      </trkpt>
      <trkpt lat="63.00926" lon="7.56205">
        <ele>73.620079</ele>
        <time>2020-08-03T11:10:40.137Z</time>
      </trkpt>
      <trkpt lat="63.00925" lon="7.56231">
        <ele>72.973743</ele>
        <time>2020-08-03T11:10:41.162Z</time>
      </trkpt>
      <trkpt lat="63.00924" lon="7.56258">
        <ele>72.320313</ele>
        <time>2020-08-03T11:10:42.134Z</time>
      </trkpt>
      <trkpt lat="63.00924" lon="7.56285">
        <ele>71.655191</ele>
        <time>2020-08-03T11:10:43.132Z</time>
      </trkpt>
      <trkpt lat="63.00924" lon="7.56313">
        <ele>70.980116</ele>
        <time>2020-08-03T11:10:44.137Z</time>
      </trkpt>
      <trkpt lat="63.00923" lon="7.5634">
        <ele>70.300002</ele>
        <time>2020-08-03T11:10:45.132Z</time>
      </trkpt>
      <trkpt lat="63.00923" lon="7.56368">
        <ele>69.61281</ele>
        <time>2020-08-03T11:10:46.150Z</time>
      </trkpt>
      <trkpt lat="63.00923" lon="7.56397">
        <ele>68.920476</ele>
        <time>2020-08-03T11:10:47.176Z</time>
      </trkpt>
      <trkpt lat="63.00924" lon="7.56425">
        <ele>68.228394</ele>
        <time>2020-08-03T11:10:48.116Z</time>
      </trkpt>
      <trkpt lat="63.00924" lon="7.56453">
        <ele>67.533867</ele>
        <time>2020-08-03T11:10:49.150Z</time>
      </trkpt>
      <trkpt lat="63.00924" lon="7.56482">
        <ele>66.829643</ele>
        <time>2020-08-03T11:10:50.127Z</time>
      </trkpt>
      <trkpt lat="63.00924" lon="7.56511">
        <ele>66.125398</ele>
        <time>2020-08-03T11:10:51.127Z</time>
      </trkpt>
      <trkpt lat="63.00924" lon="7.5654">
        <ele>65.432588</ele>
        <time>2020-08-03T11:10:52.127Z</time>
      </trkpt>
      <trkpt lat="63.00924" lon="7.56569">
        <ele>64.796572</ele>
        <time>2020-08-03T11:10:53.135Z</time>
      </trkpt>
      <trkpt lat="63.00925" lon="7.56597">
        <ele>64.164351</ele>
        <time>2020-08-03T11:10:54.115Z</time>
      </trkpt>
      <trkpt lat="63.00926" lon="7.56626">
        <ele>63.538137</ele>
        <time>2020-08-03T11:10:55.136Z</time>
      </trkpt>
      <trkpt lat="63.00926" lon="7.56654">
        <ele>62.921805</ele>
        <time>2020-08-03T11:10:56.127Z</time>
      </trkpt>
      <trkpt lat="63.00927" lon="7.56681">
        <ele>62.311625</ele>
        <time>2020-08-03T11:10:57.132Z</time>
      </trkpt>
      <trkpt lat="63.00927" lon="7.56708">
        <ele>61.708703</ele>
        <time>2020-08-03T11:10:58.124Z</time>
      </trkpt>
      <trkpt lat="63.00927" lon="7.56735">
        <ele>61.123755</ele>
        <time>2020-08-03T11:10:59.155Z</time>
      </trkpt>
      <trkpt lat="63.00927" lon="7.56761">
        <ele>60.547615</ele>
        <time>2020-08-03T11:11:00.145Z</time>
      </trkpt>
      <trkpt lat="63.00927" lon="7.56787">
        <ele>59.982511</ele>
        <time>2020-08-03T11:11:01.124Z</time>
      </trkpt>
      <trkpt lat="63.00927" lon="7.56812">
        <ele>59.421822</ele>
        <time>2020-08-03T11:11:02.147Z</time>
      </trkpt>
      <trkpt lat="63.00927" lon="7.56837">
        <ele>58.860964</ele>
        <time>2020-08-03T11:11:03.111Z</time>
      </trkpt>
      <trkpt lat="63.00926" lon="7.56863">
        <ele>58.304626</ele>
        <time>2020-08-03T11:11:04.149Z</time>
      </trkpt>
      <trkpt lat="63.00926" lon="7.56887">
        <ele>57.761595</ele>
        <time>2020-08-03T11:11:05.135Z</time>
      </trkpt>
      <trkpt lat="63.00926" lon="7.56911">
        <ele>57.237887</ele>
        <time>2020-08-03T11:11:06.115Z</time>
      </trkpt>
      <trkpt lat="63.00925" lon="7.56934">
        <ele>56.789999</ele>
        <time>2020-08-03T11:11:07.140Z</time>
      </trkpt>
      <trkpt lat="63.00925" lon="7.56955">
        <ele>56.64241</ele>
        <time>2020-08-03T11:11:08.123Z</time>
      </trkpt>
      <trkpt lat="63.00924" lon="7.56975">
        <ele>56.503008</ele>
        <time>2020-08-03T11:11:09.164Z</time>
      </trkpt>
      <trkpt lat="63.00922" lon="7.57013">
        <ele>56.239718</ele>
        <time>2020-08-03T11:11:11.116Z</time>
      </trkpt>
      <trkpt lat="63.00919" lon="7.57046">
        <ele>56.004801</ele>
        <time>2020-08-03T11:11:13.117Z</time>
      </trkpt>
      <trkpt lat="63.00915" lon="7.57076">
        <ele>55.791087</ele>
        <time>2020-08-03T11:11:15.130Z</time>
      </trkpt>
      <trkpt lat="63.00911" lon="7.57102">
        <ele>55.602454</ele>
        <time>2020-08-03T11:11:17.128Z</time>
      </trkpt>
      <trkpt lat="63.00906" lon="7.57124">
        <ele>55.436145</ele>
        <time>2020-08-03T11:11:19.120Z</time>
      </trkpt>
      <trkpt lat="63.00902" lon="7.57145">
        <ele>55.280999</ele>
        <time>2020-08-03T11:11:21.134Z</time>
      </trkpt>
      <trkpt lat="63.009" lon="7.57166">
        <ele>55.127528</ele>
        <time>2020-08-03T11:11:23.112Z</time>
      </trkpt>
      <trkpt lat="63.00896" lon="7.57186">
        <ele>54.979937</ele>
        <time>2020-08-03T11:11:25.124Z</time>
      </trkpt>
      <trkpt lat="63.00893" lon="7.57206">
        <ele>54.838346</ele>
        <time>2020-08-03T11:11:27.113Z</time>
      </trkpt>
      <trkpt lat="63.0089" lon="7.57225">
        <ele>54.697045</ele>
        <time>2020-08-03T11:11:29.113Z</time>
      </trkpt>
      <trkpt lat="63.00885" lon="7.57251">
        <ele>54.503625</ele>
        <time>2020-08-03T11:11:32.153Z</time>
      </trkpt>
      <trkpt lat="63.0088" lon="7.57275">
        <ele>54.322238</ele>
        <time>2020-08-03T11:11:35.131Z</time>
      </trkpt>
      <trkpt lat="63.00876" lon="7.57298">
        <ele>54.146425</ele>
        <time>2020-08-03T11:11:38.158Z</time>
      </trkpt>
      <trkpt lat="63.00872" lon="7.57319">
        <ele>54.397797</ele>
        <time>2020-08-03T11:11:41.134Z</time>
      </trkpt>
      <trkpt lat="63.00869" lon="7.57337">
        <ele>54.903047</ele>
        <time>2020-08-03T11:11:44.127Z</time>
      </trkpt>
      <trkpt lat="63.00865" lon="7.57361">
        <ele>55.553857</ele>
        <time>2020-08-03T11:11:48.114Z</time>
      </trkpt>
      <trkpt lat="63.00862" lon="7.57386">
        <ele>56.21218</ele>
        <time>2020-08-03T11:11:52.147Z</time>
      </trkpt>
      <trkpt lat="63.00859" lon="7.57412">
        <ele>56.882154</ele>
        <time>2020-08-03T11:11:56.172Z</time>
      </trkpt>
      <trkpt lat="63.00856" lon="7.57437">
        <ele>57.55411</ele>
        <time>2020-08-03T11:12:00.116Z</time>
      </trkpt>
      <trkpt lat="63.00855" lon="7.57463">
        <ele>58.202453</ele>
        <time>2020-08-03T11:12:04.126Z</time>
      </trkpt>
      <trkpt lat="63.00855" lon="7.57487">
        <ele>58.817029</ele>
        <time>2020-08-03T11:12:08.134Z</time>
      </trkpt>
      <trkpt lat="63.00854" lon="7.57511">
        <ele>59.425669</ele>
        <time>2020-08-03T11:12:12.129Z</time>
      </trkpt>
      <trkpt lat="63.00855" lon="7.57535">
        <ele>60.046149</ele>
        <time>2020-08-03T11:12:16.120Z</time>
      </trkpt>
      <trkpt lat="63.00855" lon="7.5756">
        <ele>60.671096</ele>
        <time>2020-08-03T11:12:20.162Z</time>
      </trkpt>
      <trkpt lat="63.00857" lon="7.57583">
        <ele>61.249976</ele>
        <time>2020-08-03T11:12:24.124Z</time>
      </trkpt>
      <trkpt lat="63.00858" lon="7.57605">
        <ele>61.83549</ele>
        <time>2020-08-03T11:12:28.121Z</time>
      </trkpt>
      <trkpt lat="63.00861" lon="7.57629">
        <ele>62.458445</ele>
        <time>2020-08-03T11:12:32.136Z</time>
      </trkpt>
      <trkpt lat="63.00864" lon="7.57654">
        <ele>63.095827</ele>
        <time>2020-08-03T11:12:36.144Z</time>
      </trkpt>
      <trkpt lat="63.00868" lon="7.57677">
        <ele>63.735169</ele>
        <time>2020-08-03T11:12:40.110Z</time>
      </trkpt>
      <trkpt lat="63.00871" lon="7.577">
        <ele>64.449984</ele>
        <time>2020-08-03T11:12:44.124Z</time>
      </trkpt>
      <trkpt lat="63.00873" lon="7.57719">
        <ele>65.23398</ele>
        <time>2020-08-03T11:12:48.114Z</time>
      </trkpt>
      <trkpt lat="63.00875" lon="7.57742">
        <ele>66.160481</ele>
        <time>2020-08-03T11:12:53.158Z</time>
      </trkpt>
      <trkpt lat="63.00878" lon="7.57761">
        <ele>66.951976</ele>
        <time>2020-08-03T11:12:58.144Z</time>
      </trkpt>
      <trkpt lat="63.0088" lon="7.57782">
        <ele>67.786318</ele>
        <time>2020-08-03T11:13:04.113Z</time>
      </trkpt>
      <trkpt lat="63.00883" lon="7.57801">
        <ele>68.577264</ele>
        <time>2020-08-03T11:13:11.148Z</time>
      </trkpt>
      <trkpt lat="63.00886" lon="7.57821">
        <ele>69.40666</ele>
        <time>2020-08-03T11:13:18.119Z</time>
      </trkpt>
      <trkpt lat="63.00889" lon="7.57841">
        <ele>70.261282</ele>
        <time>2020-08-03T11:13:26.145Z</time>
      </trkpt>
      <trkpt lat="63.00893" lon="7.57861">
        <ele>71.111201</ele>
        <time>2020-08-03T11:13:34.183Z</time>
      </trkpt>
      <trkpt lat="63.00895" lon="7.57882">
        <ele>71.96269</ele>
        <time>2020-08-03T11:13:41.157Z</time>
      </trkpt>
      <trkpt lat="63.00897" lon="7.57903">
        <ele>72.789202</ele>
        <time>2020-08-03T11:13:48.137Z</time>
      </trkpt>
      <trkpt lat="63.009" lon="7.57924">
        <ele>73.684177</ele>
        <time>2020-08-03T11:13:55.172Z</time>
      </trkpt>
      <trkpt lat="63.00904" lon="7.57944">
        <ele>74.501517</ele>
        <time>2020-08-03T11:14:01.129Z</time>
      </trkpt>
      <trkpt lat="63.00907" lon="7.57963">
        <ele>75.316225</ele>
        <time>2020-08-03T11:14:08.124Z</time>
      </trkpt>
      <trkpt lat="63.00911" lon="7.57981">
        <ele>76.111276</ele>
        <time>2020-08-03T11:14:14.124Z</time>
      </trkpt>
      <trkpt lat="63.00912" lon="7.58003">
        <ele>76.985585</ele>
        <time>2020-08-03T11:14:20.115Z</time>
      </trkpt>
      <trkpt lat="63.00917" lon="7.58022">
        <ele>77.829987</ele>
        <time>2020-08-03T11:14:27.126Z</time>
      </trkpt>
      <trkpt lat="63.00922" lon="7.58041">
        <ele>78.714716</ele>
        <time>2020-08-03T11:14:33.143Z</time>
      </trkpt>
      <trkpt lat="63.00924" lon="7.58062">
        <ele>79.567957</ele>
        <time>2020-08-03T11:14:39.151Z</time>
      </trkpt>
      <trkpt lat="63.00929" lon="7.5808">
        <ele>79.895718</ele>
        <time>2020-08-03T11:14:44.148Z</time>
      </trkpt>
      <trkpt lat="63.00935" lon="7.58098">
        <ele>80.040353</ele>
        <time>2020-08-03T11:14:49.125Z</time>
      </trkpt>
      <trkpt lat="63.00941" lon="7.58117">
        <ele>80.189514</ele>
        <time>2020-08-03T11:14:54.127Z</time>
      </trkpt>
      <trkpt lat="63.00946" lon="7.58135">
        <ele>80.331652</ele>
        <time>2020-08-03T11:14:59.114Z</time>
      </trkpt>
      <trkpt lat="63.00951" lon="7.58155">
        <ele>80.473359</ele>
        <time>2020-08-03T11:15:04.128Z</time>
      </trkpt>
      <trkpt lat="63.00956" lon="7.58172">
        <ele>80.610093</ele>
        <time>2020-08-03T11:15:08.146Z</time>
      </trkpt>
      <trkpt lat="63.00962" lon="7.58188">
        <ele>80.747427</ele>
        <time>2020-08-03T11:15:12.131Z</time>
      </trkpt>
      <trkpt lat="63.00968" lon="7.58204">
        <ele>80.885396</ele>
        <time>2020-08-03T11:15:16.132Z</time>
      </trkpt>
      <trkpt lat="63.00976" lon="7.58222">
        <ele>81.042251</ele>
        <time>2020-08-03T11:15:20.112Z</time>
      </trkpt>
      <trkpt lat="63.00982" lon="7.58239">
        <ele>81.188677</ele>
        <time>2020-08-03T11:15:24.151Z</time>
      </trkpt>
      <trkpt lat="63.00989" lon="7.58256">
        <ele>81.33827</ele>
        <time>2020-08-03T11:15:28.125Z</time>
      </trkpt>
      <trkpt lat="63.00996" lon="7.58274">
        <ele>81.495625</ele>
        <time>2020-08-03T11:15:32.157Z</time>
      </trkpt>
      <trkpt lat="63.01003" lon="7.58291">
        <ele>81.643814</ele>
        <time>2020-08-03T11:15:36.141Z</time>
      </trkpt>
      <trkpt lat="63.01009" lon="7.58307">
        <ele>81.781786</ele>
        <time>2020-08-03T11:15:40.142Z</time>
      </trkpt>
      <trkpt lat="63.01017" lon="7.58322">
        <ele>81.926335</ele>
        <time>2020-08-03T11:15:44.130Z</time>
      </trkpt>
      <trkpt lat="63.01024" lon="7.58337">
        <ele>82.0705</ele>
        <time>2020-08-03T11:15:48.114Z</time>
      </trkpt>
      <trkpt lat="63.01032" lon="7.58351">
        <ele>82.213802</ele>
        <time>2020-08-03T11:15:52.157Z</time>
      </trkpt>
      <trkpt lat="63.01039" lon="7.58363">
        <ele>82.350042</ele>
        <time>2020-08-03T11:15:56.124Z</time>
      </trkpt>
      <trkpt lat="63.01049" lon="7.58374">
        <ele>82.367796</ele>
        <time>2020-08-03T11:16:01.158Z</time>
      </trkpt>
      <trkpt lat="63.01057" lon="7.58384">
        <ele>82.347707</ele>
        <time>2020-08-03T11:16:05.154Z</time>
      </trkpt>
      <trkpt lat="63.01066" lon="7.58393">
        <ele>82.325824</ele>
        <time>2020-08-03T11:16:09.154Z</time>
      </trkpt>
      <trkpt lat="63.01076" lon="7.58403">
        <ele>82.302758</ele>
        <time>2020-08-03T11:16:13.125Z</time>
      </trkpt>
      <trkpt lat="63.01085" lon="7.58404">
        <ele>82.282149</ele>
        <time>2020-08-03T11:16:17.119Z</time>
      </trkpt>
      <trkpt lat="63.01094" lon="7.58413">
        <ele>82.261561</ele>
        <time>2020-08-03T11:16:21.160Z</time>
      </trkpt>
      <trkpt lat="63.01104" lon="7.58426">
        <ele>82.235997</ele>
        <time>2020-08-03T11:16:25.156Z</time>
      </trkpt>
      <trkpt lat="63.01112" lon="7.58439">
        <ele>82.214689</ele>
        <time>2020-08-03T11:16:28.129Z</time>
      </trkpt>
      <trkpt lat="63.0112" lon="7.58457">
        <ele>82.189911</ele>
        <time>2020-08-03T11:16:31.179Z</time>
      </trkpt>
      <trkpt lat="63.01128" lon="7.58478">
        <ele>82.162233</ele>
        <time>2020-08-03T11:16:34.123Z</time>
      </trkpt>
      <trkpt lat="63.01134" lon="7.58502">
        <ele>82.135105</ele>
        <time>2020-08-03T11:16:37.132Z</time>
      </trkpt>
      <trkpt lat="63.01139" lon="7.58526">
        <ele>82.109463</ele>
        <time>2020-08-03T11:16:40.129Z</time>
      </trkpt>
      <trkpt lat="63.01145" lon="7.58549">
        <ele>82.082909</ele>
        <time>2020-08-03T11:16:43.114Z</time>
      </trkpt>
      <trkpt lat="63.01152" lon="7.58571">
        <ele>82.056196</ele>
        <time>2020-08-03T11:16:46.140Z</time>
      </trkpt>
      <trkpt lat="63.01158" lon="7.58593">
        <ele>82.030874</ele>
        <time>2020-08-03T11:16:49.174Z</time>
      </trkpt>
      <trkpt lat="63.01166" lon="7.58613">
        <ele>82.004482</ele>
        <time>2020-08-03T11:16:52.115Z</time>
      </trkpt>
      <trkpt lat="63.01174" lon="7.58636">
        <ele>81.787336</ele>
        <time>2020-08-03T11:16:55.115Z</time>
      </trkpt>
      <trkpt lat="63.01182" lon="7.5866">
        <ele>81.433529</ele>
        <time>2020-08-03T11:16:58.111Z</time>
      </trkpt>
      <trkpt lat="63.01188" lon="7.58678">
        <ele>81.159903</ele>
        <time>2020-08-03T11:17:00.130Z</time>
      </trkpt>
      <trkpt lat="63.01195" lon="7.58698">
        <ele>80.865012</ele>
        <time>2020-08-03T11:17:02.159Z</time>
      </trkpt>
      <trkpt lat="63.01204" lon="7.58722">
        <ele>80.489462</ele>
        <time>2020-08-03T11:17:04.164Z</time>
      </trkpt>
      <trkpt lat="63.01214" lon="7.58748">
        <ele>80.070847</ele>
        <time>2020-08-03T11:17:06.123Z</time>
      </trkpt>
      <trkpt lat="63.01227" lon="7.58777">
        <ele>79.601906</ele>
        <time>2020-08-03T11:17:08.118Z</time>
      </trkpt>
      <trkpt lat="63.01233" lon="7.58792">
        <ele>79.358121</ele>
        <time>2020-08-03T11:17:09.142Z</time>
      </trkpt>
      <trkpt lat="63.0124" lon="7.58807">
        <ele>79.105529</ele>
        <time>2020-08-03T11:17:10.132Z</time>
      </trkpt>
      <trkpt lat="63.01246" lon="7.58822">
        <ele>78.853695</ele>
        <time>2020-08-03T11:17:11.118Z</time>
      </trkpt>
      <trkpt lat="63.01253" lon="7.58838">
        <ele>78.595627</ele>
        <time>2020-08-03T11:17:12.118Z</time>
      </trkpt>
      <trkpt lat="63.0126" lon="7.58853">
        <ele>78.327583</ele>
        <time>2020-08-03T11:17:13.138Z</time>
      </trkpt>
      <trkpt lat="63.01268" lon="7.58869">
        <ele>78.04973</ele>
        <time>2020-08-03T11:17:14.144Z</time>
      </trkpt>
      <trkpt lat="63.01276" lon="7.58886">
        <ele>77.769983</ele>
        <time>2020-08-03T11:17:15.117Z</time>
      </trkpt>
      <trkpt lat="63.01284" lon="7.58902">
        <ele>77.483141</ele>
        <time>2020-08-03T11:17:16.131Z</time>
      </trkpt>
      <trkpt lat="63.01291" lon="7.58919">
        <ele>77.135063</ele>
        <time>2020-08-03T11:17:17.134Z</time>
      </trkpt>
      <trkpt lat="63.013" lon="7.58936">
        <ele>76.572683</ele>
        <time>2020-08-03T11:17:18.131Z</time>
      </trkpt>
      <trkpt lat="63.01308" lon="7.58952">
        <ele>76.014936</ele>
        <time>2020-08-03T11:17:19.119Z</time>
      </trkpt>
      <trkpt lat="63.01316" lon="7.58968">
        <ele>75.452711</ele>
        <time>2020-08-03T11:17:20.148Z</time>
      </trkpt>
      <trkpt lat="63.01325" lon="7.58984">
        <ele>74.891988</ele>
        <time>2020-08-03T11:17:21.180Z</time>
      </trkpt>
      <trkpt lat="63.01333" lon="7.59001">
        <ele>74.328256</ele>
        <time>2020-08-03T11:17:22.135Z</time>
      </trkpt>
      <trkpt lat="63.01341" lon="7.59016">
        <ele>73.770525</ele>
        <time>2020-08-03T11:17:23.145Z</time>
      </trkpt>
      <trkpt lat="63.0135" lon="7.59031">
        <ele>73.214345</ele>
        <time>2020-08-03T11:17:24.117Z</time>
      </trkpt>
      <trkpt lat="63.01359" lon="7.59044">
        <ele>72.68327</ele>
        <time>2020-08-03T11:17:25.129Z</time>
      </trkpt>
      <trkpt lat="63.01368" lon="7.59055">
        <ele>72.156047</ele>
        <time>2020-08-03T11:17:26.128Z</time>
      </trkpt>
      <trkpt lat="63.01378" lon="7.59065">
        <ele>71.632471</ele>
        <time>2020-08-03T11:17:27.127Z</time>
      </trkpt>
      <trkpt lat="63.01388" lon="7.59072">
        <ele>71.098508</ele>
        <time>2020-08-03T11:17:28.120Z</time>
      </trkpt>
      <trkpt lat="63.01398" lon="7.59077">
        <ele>70.565771</ele>
        <time>2020-08-03T11:17:29.129Z</time>
      </trkpt>
      <trkpt lat="63.01408" lon="7.59081">
        <ele>70.050452</ele>
        <time>2020-08-03T11:17:30.126Z</time>
      </trkpt>
      <trkpt lat="63.01418" lon="7.59083">
        <ele>69.56455</ele>
        <time>2020-08-03T11:17:31.158Z</time>
      </trkpt>
      <trkpt lat="63.01427" lon="7.59082">
        <ele>69.096085</ele>
        <time>2020-08-03T11:17:32.123Z</time>
      </trkpt>
      <trkpt lat="63.01436" lon="7.5908">
        <ele>68.630228</ele>
        <time>2020-08-03T11:17:33.130Z</time>
      </trkpt>
      <trkpt lat="63.01445" lon="7.59076">
        <ele>68.174506</ele>
        <time>2020-08-03T11:17:34.153Z</time>
      </trkpt>
      <trkpt lat="63.01454" lon="7.59071">
        <ele>67.846905</ele>
        <time>2020-08-03T11:17:35.137Z</time>
      </trkpt>
      <trkpt lat="63.01471" lon="7.59058">
        <ele>67.209801</ele>
        <time>2020-08-03T11:17:37.125Z</time>
      </trkpt>
      <trkpt lat="63.01487" lon="7.59042">
        <ele>66.565838</ele>
        <time>2020-08-03T11:17:39.131Z</time>
      </trkpt>
      <trkpt lat="63.01502" lon="7.59027">
        <ele>65.967343</ele>
        <time>2020-08-03T11:17:41.115Z</time>
      </trkpt>
      <trkpt lat="63.01516" lon="7.59012">
        <ele>65.392236</ele>
        <time>2020-08-03T11:17:43.144Z</time>
      </trkpt>
      <trkpt lat="63.01531" lon="7.58999">
        <ele>64.825636</ele>
        <time>2020-08-03T11:17:45.126Z</time>
      </trkpt>
      <trkpt lat="63.01546" lon="7.58986">
        <ele>64.248963</ele>
        <time>2020-08-03T11:17:47.122Z</time>
      </trkpt>
      <trkpt lat="63.0156" lon="7.58972">
        <ele>63.667298</ele>
        <time>2020-08-03T11:17:49.124Z</time>
      </trkpt>
      <trkpt lat="63.01577" lon="7.5896">
        <ele>63.029451</ele>
        <time>2020-08-03T11:17:51.132Z</time>
      </trkpt>
      <trkpt lat="63.01594" lon="7.58949">
        <ele>62.402507</ele>
        <time>2020-08-03T11:17:53.159Z</time>
      </trkpt>
      <trkpt lat="63.01611" lon="7.58941">
        <ele>61.770779</ele>
        <time>2020-08-03T11:17:55.129Z</time>
      </trkpt>
      <trkpt lat="63.01628" lon="7.58935">
        <ele>61.297731</ele>
        <time>2020-08-03T11:17:57.140Z</time>
      </trkpt>
      <trkpt lat="63.01646" lon="7.58931">
        <ele>60.853507</ele>
        <time>2020-08-03T11:17:59.130Z</time>
      </trkpt>
      <trkpt lat="63.01655" lon="7.58928">
        <ele>60.620574</ele>
        <time>2020-08-03T11:18:00.110Z</time>
      </trkpt>
      <trkpt lat="63.01664" lon="7.58923">
        <ele>60.379466</ele>
        <time>2020-08-03T11:18:01.117Z</time>
      </trkpt>
      <trkpt lat="63.01673" lon="7.58918">
        <ele>60.137269</ele>
        <time>2020-08-03T11:18:02.128Z</time>
      </trkpt>
      <trkpt lat="63.01682" lon="7.58913">
        <ele>59.892313</ele>
        <time>2020-08-03T11:18:03.171Z</time>
      </trkpt>
      <trkpt lat="63.01691" lon="7.58908">
        <ele>59.657243</ele>
        <time>2020-08-03T11:18:04.158Z</time>
      </trkpt>
      <trkpt lat="63.017" lon="7.58903">
        <ele>59.425515</ele>
        <time>2020-08-03T11:18:05.127Z</time>
      </trkpt>
      <trkpt lat="63.01716" lon="7.58893">
        <ele>58.996624</ele>
        <time>2020-08-03T11:18:07.122Z</time>
      </trkpt>
      <trkpt lat="63.01731" lon="7.58885">
        <ele>58.61415</ele>
        <time>2020-08-03T11:18:09.135Z</time>
      </trkpt>
      <trkpt lat="63.01745" lon="7.58877">
        <ele>58.249069</ele>
        <time>2020-08-03T11:18:11.137Z</time>
      </trkpt>
      <trkpt lat="63.01756" lon="7.5887">
        <ele>57.945986</ele>
        <time>2020-08-03T11:18:13.108Z</time>
      </trkpt>
      <trkpt lat="63.01766" lon="7.58864">
        <ele>57.686313</ele>
        <time>2020-08-03T11:18:15.152Z</time>
      </trkpt>
      <trkpt lat="63.01776" lon="7.58859">
        <ele>57.429498</ele>
        <time>2020-08-03T11:18:17.114Z</time>
      </trkpt>
      <trkpt lat="63.01785" lon="7.58853">
        <ele>57.183883</ele>
        <time>2020-08-03T11:18:19.118Z</time>
      </trkpt>
      <trkpt lat="63.01794" lon="7.58847">
        <ele>57.273388</ele>
        <time>2020-08-03T11:18:21.113Z</time>
      </trkpt>
      <trkpt lat="63.01803" lon="7.58841">
        <ele>57.525943</ele>
        <time>2020-08-03T11:18:23.110Z</time>
      </trkpt>
      <trkpt lat="63.01815" lon="7.58834">
        <ele>57.865445</ele>
        <time>2020-08-03T11:18:26.130Z</time>
      </trkpt>
      <trkpt lat="63.01826" lon="7.58827">
        <ele>58.189191</ele>
        <time>2020-08-03T11:18:29.131Z</time>
      </trkpt>
      <trkpt lat="63.01838" lon="7.58819">
        <ele>58.528109</ele>
        <time>2020-08-03T11:18:32.145Z</time>
      </trkpt>
      <trkpt lat="63.01851" lon="7.5881">
        <ele>58.889289</ele>
        <time>2020-08-03T11:18:35.116Z</time>
      </trkpt>
      <trkpt lat="63.01859" lon="7.58803">
        <ele>59.143876</ele>
        <time>2020-08-03T11:18:37.147Z</time>
      </trkpt>
      <trkpt lat="63.01869" lon="7.58798">
        <ele>59.408826</ele>
        <time>2020-08-03T11:18:39.116Z</time>
      </trkpt>
      <trkpt lat="63.01881" lon="7.58791">
        <ele>59.745973</ele>
        <time>2020-08-03T11:18:42.135Z</time>
      </trkpt>
      <trkpt lat="63.01892" lon="7.58782">
        <ele>60.070887</ele>
        <time>2020-08-03T11:18:45.130Z</time>
      </trkpt>
      <trkpt lat="63.01905" lon="7.58777">
        <ele>60.420664</ele>
        <time>2020-08-03T11:18:48.120Z</time>
      </trkpt>
      <trkpt lat="63.01918" lon="7.58774">
        <ele>60.779065</ele>
        <time>2020-08-03T11:18:51.142Z</time>
      </trkpt>
      <trkpt lat="63.01928" lon="7.58775">
        <ele>61.054309</ele>
        <time>2020-08-03T11:18:53.119Z</time>
      </trkpt>
      <trkpt lat="63.01938" lon="7.58779">
        <ele>61.321136</ele>
        <time>2020-08-03T11:18:55.131Z</time>
      </trkpt>
      <trkpt lat="63.01948" lon="7.58785">
        <ele>61.608101</ele>
        <time>2020-08-03T11:18:57.125Z</time>
      </trkpt>
      <trkpt lat="63.01958" lon="7.58793">
        <ele>61.903553</ele>
        <time>2020-08-03T11:18:59.150Z</time>
      </trkpt>
      <trkpt lat="63.01966" lon="7.58805">
        <ele>62.090716</ele>
        <time>2020-08-03T11:19:01.151Z</time>
      </trkpt>
      <trkpt lat="63.01975" lon="7.58823">
        <ele>62.289993</ele>
        <time>2020-08-03T11:19:04.118Z</time>
      </trkpt>
      <trkpt lat="63.01982" lon="7.58838">
        <ele>62.433417</ele>
        <time>2020-08-03T11:19:06.132Z</time>
      </trkpt>
      <trkpt lat="63.01988" lon="7.58854">
        <ele>62.581062</ele>
        <time>2020-08-03T11:19:08.139Z</time>
      </trkpt>
      <trkpt lat="63.01993" lon="7.5887">
        <ele>62.722315</ele>
        <time>2020-08-03T11:19:10.118Z</time>
      </trkpt>
      <trkpt lat="63.01999" lon="7.58887">
        <ele>62.868454</ele>
        <time>2020-08-03T11:19:12.131Z</time>
      </trkpt>
      <trkpt lat="63.02004" lon="7.58904">
        <ele>63.012434</ele>
        <time>2020-08-03T11:19:14.127Z</time>
      </trkpt>
      <trkpt lat="63.02011" lon="7.58927">
        <ele>63.212564</ele>
        <time>2020-08-03T11:19:17.124Z</time>
      </trkpt>
      <trkpt lat="63.02017" lon="7.5895">
        <ele>63.400166</ele>
        <time>2020-08-03T11:19:20.130Z</time>
      </trkpt>
      <trkpt lat="63.02024" lon="7.58974">
        <ele>63.59648</ele>
        <time>2020-08-03T11:19:23.136Z</time>
      </trkpt>
      <trkpt lat="63.0203" lon="7.58997">
        <ele>63.784852</ele>
        <time>2020-08-03T11:19:26.110Z</time>
      </trkpt>
      <trkpt lat="63.02036" lon="7.5902">
        <ele>63.97354</ele>
        <time>2020-08-03T11:19:29.115Z</time>
      </trkpt>
      <trkpt lat="63.02042" lon="7.59042">
        <ele>64.158307</ele>
        <time>2020-08-03T11:19:32.117Z</time>
      </trkpt>
      <trkpt lat="63.02049" lon="7.59065">
        <ele>64.350727</ele>
        <time>2020-08-03T11:19:35.125Z</time>
      </trkpt>
      <trkpt lat="63.02055" lon="7.59088">
        <ele>64.538769</ele>
        <time>2020-08-03T11:19:38.144Z</time>
      </trkpt>
      <trkpt lat="63.0206" lon="7.59109">
        <ele>64.709768</ele>
        <time>2020-08-03T11:19:41.140Z</time>
      </trkpt>
      <trkpt lat="63.02065" lon="7.59131">
        <ele>64.789705</ele>
        <time>2020-08-03T11:19:44.149Z</time>
      </trkpt>
      <trkpt lat="63.0207" lon="7.59151">
        <ele>64.766494</ele>
        <time>2020-08-03T11:19:47.156Z</time>
      </trkpt>
      <trkpt lat="63.02075" lon="7.59173">
        <ele>64.742713</ele>
        <time>2020-08-03T11:19:50.146Z</time>
      </trkpt>
      <trkpt lat="63.0208" lon="7.59195">
        <ele>64.718475</ele>
        <time>2020-08-03T11:19:53.113Z</time>
      </trkpt>
      <trkpt lat="63.02084" lon="7.59217">
        <ele>64.695675</ele>
        <time>2020-08-03T11:19:56.116Z</time>
      </trkpt>
      <trkpt lat="63.02088" lon="7.59238">
        <ele>64.673397</ele>
        <time>2020-08-03T11:19:59.121Z</time>
      </trkpt>
      <trkpt lat="63.02091" lon="7.59258">
        <ele>64.652274</ele>
        <time>2020-08-03T11:20:02.143Z</time>
      </trkpt>
      <trkpt lat="63.02095" lon="7.59276">
        <ele>64.632341</ele>
        <time>2020-08-03T11:20:05.125Z</time>
      </trkpt>
      <trkpt lat="63.02099" lon="7.59296">
        <ele>64.611248</ele>
        <time>2020-08-03T11:20:08.135Z</time>
      </trkpt>
      <trkpt lat="63.02102" lon="7.59317">
        <ele>64.589141</ele>
        <time>2020-08-03T11:20:11.139Z</time>
      </trkpt>
      <trkpt lat="63.02106" lon="7.59337">
        <ele>64.567949</ele>
        <time>2020-08-03T11:20:14.119Z</time>
      </trkpt>
      <trkpt lat="63.0211" lon="7.59357">
        <ele>64.545785</ele>
        <time>2020-08-03T11:20:17.126Z</time>
      </trkpt>
      <trkpt lat="63.02114" lon="7.5938">
        <ele>64.521924</ele>
        <time>2020-08-03T11:20:20.126Z</time>
      </trkpt>
      <trkpt lat="63.02118" lon="7.59402">
        <ele>64.499017</ele>
        <time>2020-08-03T11:20:23.126Z</time>
      </trkpt>
      <trkpt lat="63.02122" lon="7.59424">
        <ele>64.475684</ele>
        <time>2020-08-03T11:20:26.116Z</time>
      </trkpt>
      <trkpt lat="63.02125" lon="7.59447">
        <ele>64.451224</ele>
        <time>2020-08-03T11:20:29.151Z</time>
      </trkpt>
      <trkpt lat="63.02129" lon="7.5947">
        <ele>64.428017</ele>
        <time>2020-08-03T11:20:32.125Z</time>
      </trkpt>
      <trkpt lat="63.02133" lon="7.59493">
        <ele>64.389561</ele>
        <time>2020-08-03T11:20:35.132Z</time>
      </trkpt>
      <trkpt lat="63.02138" lon="7.59519">
        <ele>64.315336</ele>
        <time>2020-08-03T11:20:38.130Z</time>
      </trkpt>
      <trkpt lat="63.02142" lon="7.59542">
        <ele>64.245579</ele>
        <time>2020-08-03T11:20:41.139Z</time>
      </trkpt>
      <trkpt lat="63.02146" lon="7.59566">
        <ele>64.175636</ele>
        <time>2020-08-03T11:20:44.124Z</time>
      </trkpt>
      <trkpt lat="63.02151" lon="7.59589">
        <ele>64.105009</ele>
        <time>2020-08-03T11:20:47.144Z</time>
      </trkpt>
      <trkpt lat="63.02156" lon="7.59613">
        <ele>64.032071</ele>
        <time>2020-08-03T11:20:50.139Z</time>
      </trkpt>
      <trkpt lat="63.02162" lon="7.59635">
        <ele>63.959672</ele>
        <time>2020-08-03T11:20:53.116Z</time>
      </trkpt>
      <trkpt lat="63.0217" lon="7.59657">
        <ele>63.88662</ele>
        <time>2020-08-03T11:20:56.115Z</time>
      </trkpt>
      <trkpt lat="63.02175" lon="7.59673">
        <ele>63.830128</ele>
        <time>2020-08-03T11:20:58.149Z</time>
      </trkpt>
      <trkpt lat="63.02182" lon="7.59689">
        <ele>63.771206</ele>
        <time>2020-08-03T11:21:00.124Z</time>
      </trkpt>
      <trkpt lat="63.02188" lon="7.59705">
        <ele>63.710508</ele>
        <time>2020-08-03T11:21:02.118Z</time>
      </trkpt>
      <trkpt lat="63.02196" lon="7.5972">
        <ele>63.649115</ele>
        <time>2020-08-03T11:21:04.135Z</time>
      </trkpt>
      <trkpt lat="63.02205" lon="7.59733">
        <ele>63.585271</ele>
        <time>2020-08-03T11:21:06.116Z</time>
      </trkpt>
      <trkpt lat="63.02214" lon="7.59746">
        <ele>63.51989</ele>
        <time>2020-08-03T11:21:08.128Z</time>
      </trkpt>
      <trkpt lat="63.02223" lon="7.59759">
        <ele>63.456869</ele>
        <time>2020-08-03T11:21:10.118Z</time>
      </trkpt>
      <trkpt lat="63.02231" lon="7.59769">
        <ele>63.39674</ele>
        <time>2020-08-03T11:21:12.131Z</time>
      </trkpt>
      <trkpt lat="63.02241" lon="7.59777">
        <ele>63.335916</ele>
        <time>2020-08-03T11:21:14.113Z</time>
      </trkpt>
      <trkpt lat="63.0225" lon="7.59784">
        <ele>63.325834</ele>
        <time>2020-08-03T11:21:16.122Z</time>
      </trkpt>
      <trkpt lat="63.0226" lon="7.5979">
        <ele>63.334486</ele>
        <time>2020-08-03T11:21:18.132Z</time>
      </trkpt>
      <trkpt lat="63.0227" lon="7.59795">
        <ele>63.342846</ele>
        <time>2020-08-03T11:21:20.139Z</time>
      </trkpt>
      <trkpt lat="63.0228" lon="7.59799">
        <ele>63.351147</ele>
        <time>2020-08-03T11:21:22.120Z</time>
      </trkpt>
      <trkpt lat="63.02291" lon="7.59802">
        <ele>63.3601</ele>
        <time>2020-08-03T11:21:24.128Z</time>
      </trkpt>
      <trkpt lat="63.02301" lon="7.59804">
        <ele>63.368878</ele>
        <time>2020-08-03T11:21:26.128Z</time>
      </trkpt>
      <trkpt lat="63.02312" lon="7.59806">
        <ele>63.377652</ele>
        <time>2020-08-03T11:21:28.138Z</time>
      </trkpt>
      <trkpt lat="63.02322" lon="7.59807">
        <ele>63.386321</ele>
        <time>2020-08-03T11:21:30.135Z</time>
      </trkpt>
      <trkpt lat="63.02332" lon="7.59806">
        <ele>63.394575</ele>
        <time>2020-08-03T11:21:32.128Z</time>
      </trkpt>
      <trkpt lat="63.02342" lon="7.59804">
        <ele>63.402765</ele>
        <time>2020-08-03T11:21:34.134Z</time>
      </trkpt>
      <trkpt lat="63.02352" lon="7.59802">
        <ele>63.41089</ele>
        <time>2020-08-03T11:21:36.159Z</time>
      </trkpt>
      <trkpt lat="63.02362" lon="7.59799">
        <ele>63.419051</ele>
        <time>2020-08-03T11:21:38.112Z</time>
      </trkpt>
      <trkpt lat="63.02372" lon="7.59796">
        <ele>63.427114</ele>
        <time>2020-08-03T11:21:40.126Z</time>
      </trkpt>
      <trkpt lat="63.02381" lon="7.59794">
        <ele>63.434846</ele>
        <time>2020-08-03T11:21:42.113Z</time>
      </trkpt>
      <trkpt lat="63.02391" lon="7.59791">
        <ele>63.442833</ele>
        <time>2020-08-03T11:21:44.128Z</time>
      </trkpt>
      <trkpt lat="63.024" lon="7.59788">
        <ele>63.450642</ele>
        <time>2020-08-03T11:21:46.127Z</time>
      </trkpt>
      <trkpt lat="63.02409" lon="7.59786">
        <ele>63.458206</ele>
        <time>2020-08-03T11:21:48.113Z</time>
      </trkpt>
      <trkpt lat="63.02422" lon="7.59782">
        <ele>63.484323</ele>
        <time>2020-08-03T11:21:51.126Z</time>
      </trkpt>
      <trkpt lat="63.02434" lon="7.59777">
        <ele>63.837904</ele>
        <time>2020-08-03T11:21:54.154Z</time>
      </trkpt>
      <trkpt lat="63.02446" lon="7.59773">
        <ele>64.182629</ele>
        <time>2020-08-03T11:21:57.130Z</time>
      </trkpt>
      <trkpt lat="63.02458" lon="7.59768">
        <ele>64.52686</ele>
        <time>2020-08-03T11:22:00.130Z</time>
      </trkpt>
      <trkpt lat="63.02469" lon="7.59764">
        <ele>64.860143</ele>
        <time>2020-08-03T11:22:03.146Z</time>
      </trkpt>
      <trkpt lat="63.0248" lon="7.59761">
        <ele>65.175641</ele>
        <time>2020-08-03T11:22:06.116Z</time>
      </trkpt>
      <trkpt lat="63.02491" lon="7.59756">
        <ele>65.489981</ele>
        <time>2020-08-03T11:22:09.115Z</time>
      </trkpt>
      <trkpt lat="63.02502" lon="7.5975">
        <ele>65.816543</ele>
        <time>2020-08-03T11:22:12.149Z</time>
      </trkpt>
      <trkpt lat="63.02513" lon="7.59747">
        <ele>66.129946</ele>
        <time>2020-08-03T11:22:15.113Z</time>
      </trkpt>
      <trkpt lat="63.02523" lon="7.59743">
        <ele>66.426486</ele>
        <time>2020-08-03T11:22:18.130Z</time>
      </trkpt>
      <trkpt lat="63.02533" lon="7.59741">
        <ele>66.70404</ele>
        <time>2020-08-03T11:22:21.115Z</time>
      </trkpt>
      <trkpt lat="63.02545" lon="7.59736">
        <ele>67.045717</ele>
        <time>2020-08-03T11:22:25.132Z</time>
      </trkpt>
      <trkpt lat="63.02554" lon="7.59733">
        <ele>67.315794</ele>
        <time>2020-08-03T11:22:28.130Z</time>
      </trkpt>
      <trkpt lat="63.02566" lon="7.59728">
        <ele>67.651166</ele>
        <time>2020-08-03T11:22:32.164Z</time>
      </trkpt>
      <trkpt lat="63.02577" lon="7.59724">
        <ele>67.970385</ele>
        <time>2020-08-03T11:22:36.164Z</time>
      </trkpt>
      <trkpt lat="63.02588" lon="7.59721">
        <ele>68.272744</ele>
        <time>2020-08-03T11:22:40.130Z</time>
      </trkpt>
      <trkpt lat="63.02598" lon="7.59717">
        <ele>68.569285</ele>
        <time>2020-08-03T11:22:44.115Z</time>
      </trkpt>
      <trkpt lat="63.02608" lon="7.59714">
        <ele>68.940127</ele>
        <time>2020-08-03T11:22:48.128Z</time>
      </trkpt>
      <trkpt lat="63.02617" lon="7.5971">
        <ele>69.298435</ele>
        <time>2020-08-03T11:22:52.153Z</time>
      </trkpt>
      <trkpt lat="63.02627" lon="7.59707">
        <ele>69.647833</ele>
        <time>2020-08-03T11:22:56.140Z</time>
      </trkpt>
      <trkpt lat="63.02636" lon="7.59705">
        <ele>70.002591</ele>
        <time>2020-08-03T11:23:00.139Z</time>
      </trkpt>
      <trkpt lat="63.02645" lon="7.59702">
        <ele>70.350293</ele>
        <time>2020-08-03T11:23:04.137Z</time>
      </trkpt>
      <trkpt lat="63.02654" lon="7.597">
        <ele>70.690088</ele>
        <time>2020-08-03T11:23:08.119Z</time>
      </trkpt>
      <trkpt lat="63.02664" lon="7.59696">
        <ele>71.057891</ele>
        <time>2020-08-03T11:23:12.135Z</time>
      </trkpt>
      <trkpt lat="63.02673" lon="7.59694">
        <ele>71.393986</ele>
        <time>2020-08-03T11:23:16.124Z</time>
      </trkpt>
      <trkpt lat="63.02684" lon="7.5969">
        <ele>71.793204</ele>
        <time>2020-08-03T11:23:20.120Z</time>
      </trkpt>
      <trkpt lat="63.02693" lon="7.59687">
        <ele>72.158588</ele>
        <time>2020-08-03T11:23:24.176Z</time>
      </trkpt>
      <trkpt lat="63.02703" lon="7.59685">
        <ele>72.517744</ele>
        <time>2020-08-03T11:23:28.134Z</time>
      </trkpt>
      <trkpt lat="63.02713" lon="7.59681">
        <ele>72.895551</ele>
        <time>2020-08-03T11:23:32.119Z</time>
      </trkpt>
      <trkpt lat="63.02722" lon="7.59677">
        <ele>73.249126</ele>
        <time>2020-08-03T11:23:36.139Z</time>
      </trkpt>
      <trkpt lat="63.02733" lon="7.59673">
        <ele>73.634855</ele>
        <time>2020-08-03T11:23:41.152Z</time>
      </trkpt>
      <trkpt lat="63.02743" lon="7.59668">
        <ele>74.041451</ele>
        <time>2020-08-03T11:23:46.146Z</time>
      </trkpt>
      <trkpt lat="63.02754" lon="7.59665">
        <ele>74.451167</ele>
        <time>2020-08-03T11:23:51.141Z</time>
      </trkpt>
      <trkpt lat="63.02764" lon="7.59662">
        <ele>74.832151</ele>
        <time>2020-08-03T11:23:56.149Z</time>
      </trkpt>
      <trkpt lat="63.02775" lon="7.59659">
        <ele>75.214683</ele>
        <time>2020-08-03T11:24:01.120Z</time>
      </trkpt>
      <trkpt lat="63.02786" lon="7.5966">
        <ele>75.97832</ele>
        <time>2020-08-03T11:24:06.116Z</time>
      </trkpt>
      <trkpt lat="63.02796" lon="7.59663">
        <ele>76.795371</ele>
        <time>2020-08-03T11:24:11.124Z</time>
      </trkpt>
      <trkpt lat="63.02807" lon="7.59666">
        <ele>77.576523</ele>
        <time>2020-08-03T11:24:16.144Z</time>
      </trkpt>
      <trkpt lat="63.02816" lon="7.59673">
        <ele>78.324534</ele>
        <time>2020-08-03T11:24:21.114Z</time>
      </trkpt>
      <trkpt lat="63.02825" lon="7.5968">
        <ele>79.028561</ele>
        <time>2020-08-03T11:24:26.148Z</time>
      </trkpt>
      <trkpt lat="63.02834" lon="7.59692">
        <ele>79.842623</ele>
        <time>2020-08-03T11:24:32.135Z</time>
      </trkpt>
      <trkpt lat="63.02843" lon="7.59705">
        <ele>80.60918</ele>
        <time>2020-08-03T11:24:38.156Z</time>
      </trkpt>
      <trkpt lat="63.02849" lon="7.59721">
        <ele>81.343341</ele>
        <time>2020-08-03T11:24:44.139Z</time>
      </trkpt>
      <trkpt lat="63.02855" lon="7.59737">
        <ele>82.032589</ele>
        <time>2020-08-03T11:24:49.127Z</time>
      </trkpt>
      <trkpt lat="63.02861" lon="7.59753">
        <ele>82.737087</ele>
        <time>2020-08-03T11:24:55.129Z</time>
      </trkpt>
      <trkpt lat="63.02867" lon="7.59771">
        <ele>83.526877</ele>
        <time>2020-08-03T11:25:01.123Z</time>
      </trkpt>
      <trkpt lat="63.02872" lon="7.59788">
        <ele>84.210065</ele>
        <time>2020-08-03T11:25:06.153Z</time>
      </trkpt>
      <trkpt lat="63.02879" lon="7.59807">
        <ele>85.023778</ele>
        <time>2020-08-03T11:25:12.133Z</time>
      </trkpt>
      <trkpt lat="63.02885" lon="7.59822">
        <ele>85.702958</ele>
        <time>2020-08-03T11:25:17.116Z</time>
      </trkpt>
      <trkpt lat="63.02891" lon="7.59841">
        <ele>86.511977</ele>
        <time>2020-08-03T11:25:23.157Z</time>
      </trkpt>
      <trkpt lat="63.02898" lon="7.59857">
        <ele>87.246106</ele>
        <time>2020-08-03T11:25:28.115Z</time>
      </trkpt>
      <trkpt lat="63.02903" lon="7.59873">
        <ele>87.925396</ele>
        <time>2020-08-03T11:25:32.115Z</time>
      </trkpt>
      <trkpt lat="63.02909" lon="7.59893">
        <ele>88.742132</ele>
        <time>2020-08-03T11:25:37.113Z</time>
      </trkpt>
      <trkpt lat="63.02916" lon="7.5991">
        <ele>88.659777</ele>
        <time>2020-08-03T11:25:41.160Z</time>
      </trkpt>
      <trkpt lat="63.02923" lon="7.59926">
        <ele>88.548851</ele>
        <time>2020-08-03T11:25:44.128Z</time>
      </trkpt>
      <trkpt lat="63.02929" lon="7.59945">
        <ele>88.425916</ele>
        <time>2020-08-03T11:25:47.126Z</time>
      </trkpt>
      <trkpt lat="63.02937" lon="7.59965">
        <ele>88.292445</ele>
        <time>2020-08-03T11:25:50.173Z</time>
      </trkpt>
      <trkpt lat="63.02942" lon="7.59981">
        <ele>88.188033</ele>
        <time>2020-08-03T11:25:52.119Z</time>
      </trkpt>
      <trkpt lat="63.02948" lon="7.59997">
        <ele>88.079216</ele>
        <time>2020-08-03T11:25:54.148Z</time>
      </trkpt>
      <trkpt lat="63.02953" lon="7.60015">
        <ele>87.967041</ele>
        <time>2020-08-03T11:25:56.117Z</time>
      </trkpt>
      <trkpt lat="63.02958" lon="7.60032">
        <ele>87.857889</ele>
        <time>2020-08-03T11:25:58.127Z</time>
      </trkpt>
      <trkpt lat="63.02964" lon="7.60049">
        <ele>87.747306</ele>
        <time>2020-08-03T11:26:00.132Z</time>
      </trkpt>
      <trkpt lat="63.0297" lon="7.60065">
        <ele>87.641012</ele>
        <time>2020-08-03T11:26:02.136Z</time>
      </trkpt>
      <trkpt lat="63.0298" lon="7.60085">
        <ele>87.49</ele>
        <time>2020-08-03T11:26:05.123Z</time>
      </trkpt>
      <trkpt lat="63.02986" lon="7.60099">
        <ele>87.387012</ele>
        <time>2020-08-03T11:26:07.137Z</time>
      </trkpt>
      <trkpt lat="63.02996" lon="7.60118">
        <ele>87.232377</ele>
        <time>2020-08-03T11:26:10.116Z</time>
      </trkpt>
      <trkpt lat="63.03004" lon="7.6013">
        <ele>87.126946</ele>
        <time>2020-08-03T11:26:12.130Z</time>
      </trkpt>
      <trkpt lat="63.03011" lon="7.60143">
        <ele>87.020929</ele>
        <time>2020-08-03T11:26:14.123Z</time>
      </trkpt>
      <trkpt lat="63.03018" lon="7.60155">
        <ele>86.913688</ele>
        <time>2020-08-03T11:26:16.131Z</time>
      </trkpt>
      <trkpt lat="63.03026" lon="7.60165">
        <ele>86.808819</ele>
        <time>2020-08-03T11:26:18.133Z</time>
      </trkpt>
      <trkpt lat="63.03038" lon="7.60177">
        <ele>86.708585</ele>
        <time>2020-08-03T11:26:21.119Z</time>
      </trkpt>
      <trkpt lat="63.03049" lon="7.60188">
        <ele>86.713395</ele>
        <time>2020-08-03T11:26:24.144Z</time>
      </trkpt>
      <trkpt lat="63.03059" lon="7.60196">
        <ele>86.717418</ele>
        <time>2020-08-03T11:26:27.124Z</time>
      </trkpt>
      <trkpt lat="63.03068" lon="7.60204">
        <ele>86.720987</ele>
        <time>2020-08-03T11:26:30.119Z</time>
      </trkpt>
      <trkpt lat="63.03076" lon="7.60212">
        <ele>86.724501</ele>
        <time>2020-08-03T11:26:33.148Z</time>
      </trkpt>
      <trkpt lat="63.03086" lon="7.60221">
        <ele>86.72853</ele>
        <time>2020-08-03T11:26:37.153Z</time>
      </trkpt>
      <trkpt lat="63.03095" lon="7.6023">
        <ele>86.732377</ele>
        <time>2020-08-03T11:26:41.115Z</time>
      </trkpt>
      <trkpt lat="63.03103" lon="7.60238">
        <ele>86.736067</ele>
        <time>2020-08-03T11:26:45.127Z</time>
      </trkpt>
      <trkpt lat="63.03112" lon="7.60246">
        <ele>86.739551</ele>
        <time>2020-08-03T11:26:48.144Z</time>
      </trkpt>
      <trkpt lat="63.03121" lon="7.6026">
        <ele>86.743856</ele>
        <time>2020-08-03T11:26:51.121Z</time>
      </trkpt>
      <trkpt lat="63.03131" lon="7.6028">
        <ele>86.749104</ele>
        <time>2020-08-03T11:26:54.131Z</time>
      </trkpt>
      <trkpt lat="63.03137" lon="7.60296">
        <ele>86.752748</ele>
        <time>2020-08-03T11:26:56.132Z</time>
      </trkpt>
      <trkpt lat="63.03143" lon="7.60314">
        <ele>86.756734</ele>
        <time>2020-08-03T11:26:58.128Z</time>
      </trkpt>
      <trkpt lat="63.03149" lon="7.60332">
        <ele>86.760638</ele>
        <time>2020-08-03T11:27:00.136Z</time>
      </trkpt>
      <trkpt lat="63.03154" lon="7.60353">
        <ele>86.764818</ele>
        <time>2020-08-03T11:27:02.137Z</time>
      </trkpt>
      <trkpt lat="63.0316" lon="7.60373">
        <ele>86.768924</ele>
        <time>2020-08-03T11:27:04.112Z</time>
      </trkpt>
      <trkpt lat="63.03165" lon="7.60393">
        <ele>86.772932</ele>
        <time>2020-08-03T11:27:06.130Z</time>
      </trkpt>
      <trkpt lat="63.0317" lon="7.60414">
        <ele>86.760789</ele>
        <time>2020-08-03T11:27:08.192Z</time>
      </trkpt>
      <trkpt lat="63.03176" lon="7.60435">
        <ele>86.633392</ele>
        <time>2020-08-03T11:27:10.132Z</time>
      </trkpt>
      <trkpt lat="63.03181" lon="7.60455">
        <ele>86.507377</ele>
        <time>2020-08-03T11:27:12.165Z</time>
      </trkpt>
      <trkpt lat="63.03186" lon="7.60475">
        <ele>86.385439</ele>
        <time>2020-08-03T11:27:14.118Z</time>
      </trkpt>
      <trkpt lat="63.03191" lon="7.60494">
        <ele>86.267104</ele>
        <time>2020-08-03T11:27:16.114Z</time>
      </trkpt>
      <trkpt lat="63.03197" lon="7.60512">
        <ele>86.149854</ele>
        <time>2020-08-03T11:27:18.126Z</time>
      </trkpt>
      <trkpt lat="63.03202" lon="7.6053">
        <ele>86.03658</ele>
        <time>2020-08-03T11:27:20.124Z</time>
      </trkpt>
      <trkpt lat="63.03209" lon="7.60547">
        <ele>85.918752</ele>
        <time>2020-08-03T11:27:22.133Z</time>
      </trkpt>
      <trkpt lat="63.03215" lon="7.60563">
        <ele>85.803447</ele>
        <time>2020-08-03T11:27:24.131Z</time>
      </trkpt>
      <trkpt lat="63.03223" lon="7.60578">
        <ele>85.682521</ele>
        <time>2020-08-03T11:27:26.124Z</time>
      </trkpt>
      <trkpt lat="63.03231" lon="7.60593">
        <ele>85.557083</ele>
        <time>2020-08-03T11:27:28.118Z</time>
      </trkpt>
      <trkpt lat="63.0324" lon="7.60606">
        <ele>85.432717</ele>
        <time>2020-08-03T11:27:30.142Z</time>
      </trkpt>
      <trkpt lat="63.03248" lon="7.60618">
        <ele>85.31794</ele>
        <time>2020-08-03T11:27:32.117Z</time>
      </trkpt>
      <trkpt lat="63.03256" lon="7.6063">
        <ele>85.206478</ele>
        <time>2020-08-03T11:27:34.136Z</time>
      </trkpt>
      <trkpt lat="63.03264" lon="7.60642">
        <ele>85.087872</ele>
        <time>2020-08-03T11:27:36.135Z</time>
      </trkpt>
      <trkpt lat="63.03273" lon="7.60654">
        <ele>84.972678</ele>
        <time>2020-08-03T11:27:38.162Z</time>
      </trkpt>
      <trkpt lat="63.03281" lon="7.60665">
        <ele>84.860325</ele>
        <time>2020-08-03T11:27:40.129Z</time>
      </trkpt>
      <trkpt lat="63.03289" lon="7.60676">
        <ele>84.743568</ele>
        <time>2020-08-03T11:27:42.163Z</time>
      </trkpt>
      <trkpt lat="63.033" lon="7.60693">
        <ele>84.605376</ele>
        <time>2020-08-03T11:27:45.135Z</time>
      </trkpt>
      <trkpt lat="63.03309" lon="7.60709">
        <ele>84.49614</ele>
        <time>2020-08-03T11:27:48.138Z</time>
      </trkpt>
      <trkpt lat="63.03318" lon="7.60723">
        <ele>84.390731</ele>
        <time>2020-08-03T11:27:51.154Z</time>
      </trkpt>
      <trkpt lat="63.03325" lon="7.60735">
        <ele>84.301861</ele>
        <time>2020-08-03T11:27:54.124Z</time>
      </trkpt>
      <trkpt lat="63.03333" lon="7.60749">
        <ele>84.209341</ele>
        <time>2020-08-03T11:27:57.152Z</time>
      </trkpt>
      <trkpt lat="63.03342" lon="7.60762">
        <ele>84.102767</ele>
        <time>2020-08-03T11:28:00.139Z</time>
      </trkpt>
      <trkpt lat="63.03353" lon="7.60775">
        <ele>83.988164</ele>
        <time>2020-08-03T11:28:03.115Z</time>
      </trkpt>
      <trkpt lat="63.03363" lon="7.60788">
        <ele>83.878922</ele>
        <time>2020-08-03T11:28:06.124Z</time>
      </trkpt>
      <trkpt lat="63.03373" lon="7.60802">
        <ele>83.765056</ele>
        <time>2020-08-03T11:28:09.135Z</time>
      </trkpt>
      <trkpt lat="63.03383" lon="7.60818">
        <ele>83.643109</ele>
        <time>2020-08-03T11:28:12.127Z</time>
      </trkpt>
      <trkpt lat="63.03392" lon="7.60828">
        <ele>83.548891</ele>
        <time>2020-08-03T11:28:14.129Z</time>
      </trkpt>
      <trkpt lat="63.03402" lon="7.6084">
        <ele>83.440708</ele>
        <time>2020-08-03T11:28:16.157Z</time>
      </trkpt>
      <trkpt lat="63.03413" lon="7.60851">
        <ele>83.329095</ele>
        <time>2020-08-03T11:28:18.132Z</time>
      </trkpt>
      <trkpt lat="63.03424" lon="7.6086">
        <ele>83.216227</ele>
        <time>2020-08-03T11:28:20.149Z</time>
      </trkpt>
      <trkpt lat="63.03436" lon="7.60869">
        <ele>83.095064</ele>
        <time>2020-08-03T11:28:22.153Z</time>
      </trkpt>
      <trkpt lat="63.03449" lon="7.60874">
        <ele>82.971418</ele>
        <time>2020-08-03T11:28:24.162Z</time>
      </trkpt>
      <trkpt lat="63.03462" lon="7.60876">
        <ele>82.802634</ele>
        <time>2020-08-03T11:28:26.116Z</time>
      </trkpt>
      <trkpt lat="63.03475" lon="7.60875">
        <ele>82.621198</ele>
        <time>2020-08-03T11:28:28.179Z</time>
      </trkpt>
      <trkpt lat="63.03488" lon="7.60869">
        <ele>82.433252</ele>
        <time>2020-08-03T11:28:30.109Z</time>
      </trkpt>
      <trkpt lat="63.03503" lon="7.60861">
        <ele>82.227924</ele>
        <time>2020-08-03T11:28:32.157Z</time>
      </trkpt>
      <trkpt lat="63.03518" lon="7.60851">
        <ele>82.014205</ele>
        <time>2020-08-03T11:28:34.124Z</time>
      </trkpt>
      <trkpt lat="63.03533" lon="7.60842">
        <ele>81.793866</ele>
        <time>2020-08-03T11:28:36.123Z</time>
      </trkpt>
      <trkpt lat="63.03549" lon="7.60834">
        <ele>81.57429</ele>
        <time>2020-08-03T11:28:38.167Z</time>
      </trkpt>
      <trkpt lat="63.03565" lon="7.6083">
        <ele>81.3568</ele>
        <time>2020-08-03T11:28:40.123Z</time>
      </trkpt>
      <trkpt lat="63.03581" lon="7.60831">
        <ele>81.134201</ele>
        <time>2020-08-03T11:28:42.136Z</time>
      </trkpt>
      <trkpt lat="63.03597" lon="7.60838">
        <ele>80.906367</ele>
        <time>2020-08-03T11:28:44.128Z</time>
      </trkpt>
      <trkpt lat="63.03613" lon="7.60845">
        <ele>80.679762</ele>
        <time>2020-08-03T11:28:46.123Z</time>
      </trkpt>
      <trkpt lat="63.03628" lon="7.60855">
        <ele>80.474816</ele>
        <time>2020-08-03T11:28:48.119Z</time>
      </trkpt>
      <trkpt lat="63.03642" lon="7.60868">
        <ele>80.355205</ele>
        <time>2020-08-03T11:28:50.128Z</time>
      </trkpt>
      <trkpt lat="63.03653" lon="7.60883">
        <ele>80.246741</ele>
        <time>2020-08-03T11:28:52.131Z</time>
      </trkpt>
      <trkpt lat="63.03663" lon="7.609">
        <ele>80.143563</ele>
        <time>2020-08-03T11:28:54.116Z</time>
      </trkpt>
      <trkpt lat="63.03672" lon="7.60918">
        <ele>80.047224</ele>
        <time>2020-08-03T11:28:56.159Z</time>
      </trkpt>
      <trkpt lat="63.03679" lon="7.60935">
        <ele>79.959959</ele>
        <time>2020-08-03T11:28:58.144Z</time>
      </trkpt>
      <trkpt lat="63.03685" lon="7.60952">
        <ele>79.881644</ele>
        <time>2020-08-03T11:29:00.125Z</time>
      </trkpt>
      <trkpt lat="63.0369" lon="7.60969">
        <ele>79.808549</ele>
        <time>2020-08-03T11:29:02.137Z</time>
      </trkpt>
      <trkpt lat="63.03694" lon="7.60991">
        <ele>79.71835</ele>
        <time>2020-08-03T11:29:05.124Z</time>
      </trkpt>
      <trkpt lat="63.03699" lon="7.61012">
        <ele>79.633199</ele>
        <time>2020-08-03T11:29:08.146Z</time>
      </trkpt>
      <trkpt lat="63.03704" lon="7.61031">
        <ele>79.551699</ele>
        <time>2020-08-03T11:29:11.143Z</time>
      </trkpt>
      <trkpt lat="63.03709" lon="7.6105">
        <ele>79.470712</ele>
        <time>2020-08-03T11:29:14.150Z</time>
      </trkpt>
      <trkpt lat="63.03715" lon="7.61067">
        <ele>79.392493</ele>
        <time>2020-08-03T11:29:17.144Z</time>
      </trkpt>
      <trkpt lat="63.03722" lon="7.61083">
        <ele>79.310388</ele>
        <time>2020-08-03T11:29:20.163Z</time>
      </trkpt>
      <trkpt lat="63.03731" lon="7.61097">
        <ele>79.219186</ele>
        <time>2020-08-03T11:29:23.118Z</time>
      </trkpt>
      <trkpt lat="63.03742" lon="7.61109">
        <ele>79.121791</ele>
        <time>2020-08-03T11:29:26.128Z</time>
      </trkpt>
      <trkpt lat="63.03754" lon="7.6112">
        <ele>79.031412</ele>
        <time>2020-08-03T11:29:29.149Z</time>
      </trkpt>
      <trkpt lat="63.03766" lon="7.61126">
        <ele>79.146295</ele>
        <time>2020-08-03T11:29:32.136Z</time>
      </trkpt>
      <trkpt lat="63.03778" lon="7.61129">
        <ele>79.258714</ele>
        <time>2020-08-03T11:29:35.131Z</time>
      </trkpt>
      <trkpt lat="63.03787" lon="7.61131">
        <ele>79.342694</ele>
        <time>2020-08-03T11:29:37.130Z</time>
      </trkpt>
      <trkpt lat="63.03797" lon="7.61133">
        <ele>79.433883</ele>
        <time>2020-08-03T11:29:39.146Z</time>
      </trkpt>
      <trkpt lat="63.03808" lon="7.61135">
        <ele>79.538673</ele>
        <time>2020-08-03T11:29:41.114Z</time>
      </trkpt>
      <trkpt lat="63.03821" lon="7.61139">
        <ele>79.652855</ele>
        <time>2020-08-03T11:29:43.151Z</time>
      </trkpt>
      <trkpt lat="63.03834" lon="7.61147">
        <ele>79.775494</ele>
        <time>2020-08-03T11:29:45.127Z</time>
      </trkpt>
      <trkpt lat="63.03845" lon="7.61158">
        <ele>79.893442</ele>
        <time>2020-08-03T11:29:47.131Z</time>
      </trkpt>
      <trkpt lat="63.03856" lon="7.61172">
        <ele>80.006463</ele>
        <time>2020-08-03T11:29:49.118Z</time>
      </trkpt>
      <trkpt lat="63.03866" lon="7.61185">
        <ele>80.111184</ele>
        <time>2020-08-03T11:29:51.146Z</time>
      </trkpt>
      <trkpt lat="63.03875" lon="7.61198">
        <ele>80.206928</ele>
        <time>2020-08-03T11:29:53.157Z</time>
      </trkpt>
      <trkpt lat="63.03883" lon="7.61209">
        <ele>80.297019</ele>
        <time>2020-08-03T11:29:55.222Z</time>
      </trkpt>
      <trkpt lat="63.03891" lon="7.61219">
        <ele>80.379323</ele>
        <time>2020-08-03T11:29:57.137Z</time>
      </trkpt>
      <trkpt lat="63.03901" lon="7.61234">
        <ele>80.490731</ele>
        <time>2020-08-03T11:30:00.116Z</time>
      </trkpt>
      <trkpt lat="63.0391" lon="7.61249">
        <ele>80.598094</ele>
        <time>2020-08-03T11:30:03.155Z</time>
      </trkpt>
      <trkpt lat="63.0392" lon="7.61266">
        <ele>80.752588</ele>
        <time>2020-08-03T11:30:06.175Z</time>
      </trkpt>
      <trkpt lat="63.03929" lon="7.61287">
        <ele>81.0064</ele>
        <time>2020-08-03T11:30:09.141Z</time>
      </trkpt>
      <trkpt lat="63.03936" lon="7.61301">
        <ele>81.184343</ele>
        <time>2020-08-03T11:30:11.154Z</time>
      </trkpt>
      <trkpt lat="63.03942" lon="7.61316">
        <ele>81.366768</ele>
        <time>2020-08-03T11:30:13.129Z</time>
      </trkpt>
      <trkpt lat="63.03949" lon="7.61331">
        <ele>81.547238</ele>
        <time>2020-08-03T11:30:15.126Z</time>
      </trkpt>
      <trkpt lat="63.03955" lon="7.61347">
        <ele>81.73244</ele>
        <time>2020-08-03T11:30:17.131Z</time>
      </trkpt>
      <trkpt lat="63.03961" lon="7.61365">
        <ele>81.918027</ele>
        <time>2020-08-03T11:30:19.127Z</time>
      </trkpt>
      <trkpt lat="63.03965" lon="7.61383">
        <ele>82.100347</ele>
        <time>2020-08-03T11:30:21.160Z</time>
      </trkpt>
      <trkpt lat="63.03969" lon="7.61402">
        <ele>82.276487</ele>
        <time>2020-08-03T11:30:23.132Z</time>
      </trkpt>
      <trkpt lat="63.03973" lon="7.61429">
        <ele>82.530457</ele>
        <time>2020-08-03T11:30:26.138Z</time>
      </trkpt>
      <trkpt lat="63.03976" lon="7.61455">
        <ele>82.770597</ele>
        <time>2020-08-03T11:30:29.138Z</time>
      </trkpt>
      <trkpt lat="63.03979" lon="7.61481">
        <ele>83.001446</ele>
        <time>2020-08-03T11:30:32.117Z</time>
      </trkpt>
      <trkpt lat="63.03982" lon="7.61505">
        <ele>83.219878</ele>
        <time>2020-08-03T11:30:35.120Z</time>
      </trkpt>
      <trkpt lat="63.03986" lon="7.6153">
        <ele>83.448648</ele>
        <time>2020-08-03T11:30:38.171Z</time>
      </trkpt>
      <trkpt lat="63.0399" lon="7.61554">
        <ele>83.676092</ele>
        <time>2020-08-03T11:30:41.149Z</time>
      </trkpt>
      <trkpt lat="63.03995" lon="7.61579">
        <ele>83.912455</ele>
        <time>2020-08-03T11:30:44.139Z</time>
      </trkpt>
      <trkpt lat="63.04001" lon="7.61603">
        <ele>84.147343</ele>
        <time>2020-08-03T11:30:47.153Z</time>
      </trkpt>
      <trkpt lat="63.04007" lon="7.61626">
        <ele>84.443074</ele>
        <time>2020-08-03T11:30:50.128Z</time>
      </trkpt>
      <trkpt lat="63.04013" lon="7.61649">
        <ele>84.738239</ele>
        <time>2020-08-03T11:30:53.120Z</time>
      </trkpt>
      <trkpt lat="63.04019" lon="7.61669">
        <ele>85.016994</ele>
        <time>2020-08-03T11:30:56.124Z</time>
      </trkpt>
      <trkpt lat="63.04027" lon="7.6169">
        <ele>85.318692</ele>
        <time>2020-08-03T11:30:59.146Z</time>
      </trkpt>
      <trkpt lat="63.04036" lon="7.61709">
        <ele>85.612156</ele>
        <time>2020-08-03T11:31:02.115Z</time>
      </trkpt>
      <trkpt lat="63.04043" lon="7.61729">
        <ele>85.892652</ele>
        <time>2020-08-03T11:31:05.117Z</time>
      </trkpt>
      <trkpt lat="63.04049" lon="7.61748">
        <ele>86.157823</ele>
        <time>2020-08-03T11:31:08.126Z</time>
      </trkpt>
      <trkpt lat="63.04057" lon="7.61767">
        <ele>86.436498</ele>
        <time>2020-08-03T11:31:12.133Z</time>
      </trkpt>
      <trkpt lat="63.04064" lon="7.61782">
        <ele>86.67699</ele>
        <time>2020-08-03T11:31:16.121Z</time>
      </trkpt>
      <trkpt lat="63.04073" lon="7.61794">
        <ele>86.943666</ele>
        <time>2020-08-03T11:31:21.137Z</time>
      </trkpt>
      <trkpt lat="63.04081" lon="7.61804">
        <ele>87.172532</ele>
        <time>2020-08-03T11:31:25.133Z</time>
      </trkpt>
      <trkpt lat="63.04091" lon="7.61809">
        <ele>87.427561</ele>
        <time>2020-08-03T11:31:29.123Z</time>
      </trkpt>
      <trkpt lat="63.04101" lon="7.61815">
        <ele>87.681877</ele>
        <time>2020-08-03T11:31:33.134Z</time>
      </trkpt>
      <trkpt lat="63.04112" lon="7.61821">
        <ele>87.939292</ele>
        <time>2020-08-03T11:31:37.149Z</time>
      </trkpt>
      <trkpt lat="63.0412" lon="7.61828">
        <ele>88.160849</ele>
        <time>2020-08-03T11:31:40.171Z</time>
      </trkpt>
      <trkpt lat="63.04132" lon="7.61834">
        <ele>88.452981</ele>
        <time>2020-08-03T11:31:44.124Z</time>
      </trkpt>
      <trkpt lat="63.04141" lon="7.61837">
        <ele>88.738243</ele>
        <time>2020-08-03T11:31:47.155Z</time>
      </trkpt>
      <trkpt lat="63.0415" lon="7.61842">
        <ele>89.084082</ele>
        <time>2020-08-03T11:31:50.132Z</time>
      </trkpt>
      <trkpt lat="63.04159" lon="7.61848">
        <ele>89.419401</ele>
        <time>2020-08-03T11:31:53.159Z</time>
      </trkpt>
      <trkpt lat="63.04168" lon="7.61856">
        <ele>89.777158</ele>
        <time>2020-08-03T11:31:56.138Z</time>
      </trkpt>
      <trkpt lat="63.04178" lon="7.61863">
        <ele>90.156685</ele>
        <time>2020-08-03T11:31:59.165Z</time>
      </trkpt>
      <trkpt lat="63.04187" lon="7.61869">
        <ele>90.498989</ele>
        <time>2020-08-03T11:32:02.134Z</time>
      </trkpt>
      <trkpt lat="63.04195" lon="7.61877">
        <ele>90.845223</ele>
        <time>2020-08-03T11:32:05.117Z</time>
      </trkpt>
      <trkpt lat="63.04205" lon="7.61882">
        <ele>91.204463</ele>
        <time>2020-08-03T11:32:08.142Z</time>
      </trkpt>
      <trkpt lat="63.04214" lon="7.61885">
        <ele>91.532956</ele>
        <time>2020-08-03T11:32:11.128Z</time>
      </trkpt>
      <trkpt lat="63.04226" lon="7.61882">
        <ele>91.961506</ele>
        <time>2020-08-03T11:32:15.116Z</time>
      </trkpt>
      <trkpt lat="63.04234" lon="7.61876">
        <ele>92.2978</ele>
        <time>2020-08-03T11:32:18.130Z</time>
      </trkpt>
      <trkpt lat="63.04243" lon="7.61867">
        <ele>92.640242</ele>
        <time>2020-08-03T11:32:21.133Z</time>
      </trkpt>
      <trkpt lat="63.04251" lon="7.61853">
        <ele>93.031025</ele>
        <time>2020-08-03T11:32:25.151Z</time>
      </trkpt>
      <trkpt lat="63.04259" lon="7.61837">
        <ele>93.412898</ele>
        <time>2020-08-03T11:32:29.137Z</time>
      </trkpt>
      <trkpt lat="63.04265" lon="7.61817">
        <ele>93.81368</ele>
        <time>2020-08-03T11:32:34.128Z</time>
      </trkpt>
      <trkpt lat="63.0427" lon="7.61799">
        <ele>94.162577</ele>
        <time>2020-08-03T11:32:38.145Z</time>
      </trkpt>
      <trkpt lat="63.04277" lon="7.61782">
        <ele>94.541084</ele>
        <time>2020-08-03T11:32:42.118Z</time>
      </trkpt>
      <trkpt lat="63.04284" lon="7.61769">
        <ele>94.870226</ele>
        <time>2020-08-03T11:32:45.179Z</time>
      </trkpt>
      <trkpt lat="63.04292" lon="7.61755">
        <ele>95.108809</ele>
        <time>2020-08-03T11:32:49.171Z</time>
      </trkpt>
      <trkpt lat="63.04299" lon="7.61743">
        <ele>95.108225</ele>
        <time>2020-08-03T11:32:53.134Z</time>
      </trkpt>
      <trkpt lat="63.04309" lon="7.6173">
        <ele>95.107526</ele>
        <time>2020-08-03T11:32:58.136Z</time>
      </trkpt>
      <trkpt lat="63.04317" lon="7.61721">
        <ele>95.106915</ele>
        <time>2020-08-03T11:33:03.148Z</time>
      </trkpt>
      <trkpt lat="63.04327" lon="7.61709">
        <ele>95.106231</ele>
        <time>2020-08-03T11:33:09.116Z</time>
      </trkpt>
      <trkpt lat="63.04335" lon="7.61697">
        <ele>95.105586</ele>
        <time>2020-08-03T11:33:14.117Z</time>
      </trkpt>
      <trkpt lat="63.04341" lon="7.61681">
        <ele>95.105008</ele>
        <time>2020-08-03T11:33:19.152Z</time>
      </trkpt>
      <trkpt lat="63.04346" lon="7.61664">
        <ele>95.104421</ele>
        <time>2020-08-03T11:33:24.132Z</time>
      </trkpt>
      <trkpt lat="63.04352" lon="7.61645">
        <ele>95.103723</ele>
        <time>2020-08-03T11:33:29.148Z</time>
      </trkpt>
      <trkpt lat="63.04359" lon="7.6163">
        <ele>95.103121</ele>
        <time>2020-08-03T11:33:33.137Z</time>
      </trkpt>
      <trkpt lat="63.04367" lon="7.61616">
        <ele>95.102483</ele>
        <time>2020-08-03T11:33:37.132Z</time>
      </trkpt>
      <trkpt lat="63.04375" lon="7.61604">
        <ele>95.101873</ele>
        <time>2020-08-03T11:33:41.146Z</time>
      </trkpt>
      <trkpt lat="63.04383" lon="7.61595">
        <ele>95.101282</ele>
        <time>2020-08-03T11:33:45.126Z</time>
      </trkpt>
      <trkpt lat="63.04393" lon="7.61595">
        <ele>95.100631</ele>
        <time>2020-08-03T11:33:50.131Z</time>
      </trkpt>
      <trkpt lat="63.04404" lon="7.61599">
        <ele>95.0999</ele>
        <time>2020-08-03T11:33:55.143Z</time>
      </trkpt>
      <trkpt lat="63.04414" lon="7.61605">
        <ele>95.099285</ele>
        <time>2020-08-03T11:33:59.134Z</time>
      </trkpt>
      <trkpt lat="63.04423" lon="7.61615">
        <ele>95.098614</ele>
        <time>2020-08-03T11:34:03.149Z</time>
      </trkpt>
      <trkpt lat="63.04431" lon="7.61626">
        <ele>95.098036</ele>
        <time>2020-08-03T11:34:06.133Z</time>
      </trkpt>
      <trkpt lat="63.04438" lon="7.61643">
        <ele>95.034209</ele>
        <time>2020-08-03T11:34:09.134Z</time>
      </trkpt>
      <trkpt lat="63.04446" lon="7.61661">
        <ele>94.843713</ele>
        <time>2020-08-03T11:34:12.154Z</time>
      </trkpt>
      <trkpt lat="63.04454" lon="7.61681">
        <ele>94.637055</ele>
        <time>2020-08-03T11:34:15.198Z</time>
      </trkpt>
      <trkpt lat="63.0446" lon="7.61697">
        <ele>94.475891</ele>
        <time>2020-08-03T11:34:17.122Z</time>
      </trkpt>
      <trkpt lat="63.04465" lon="7.61715">
        <ele>94.307264</ele>
        <time>2020-08-03T11:34:19.139Z</time>
      </trkpt>
      <trkpt lat="63.04472" lon="7.61734">
        <ele>94.116467</ele>
        <time>2020-08-03T11:34:21.123Z</time>
      </trkpt>
      <trkpt lat="63.04479" lon="7.61754">
        <ele>93.922023</ele>
        <time>2020-08-03T11:34:23.149Z</time>
      </trkpt>
      <trkpt lat="63.04487" lon="7.61774">
        <ele>93.711305</ele>
        <time>2020-08-03T11:34:25.168Z</time>
      </trkpt>
      <trkpt lat="63.04496" lon="7.61796">
        <ele>93.489161</ele>
        <time>2020-08-03T11:34:27.154Z</time>
      </trkpt>
      <trkpt lat="63.04505" lon="7.61816">
        <ele>93.263864</ele>
        <time>2020-08-03T11:34:29.152Z</time>
      </trkpt>
      <trkpt lat="63.04516" lon="7.61835">
        <ele>93.031632</ele>
        <time>2020-08-03T11:34:31.125Z</time>
      </trkpt>
      <trkpt lat="63.04527" lon="7.61853">
        <ele>92.786299</ele>
        <time>2020-08-03T11:34:33.156Z</time>
      </trkpt>
      <trkpt lat="63.04539" lon="7.6187">
        <ele>92.544784</ele>
        <time>2020-08-03T11:34:35.163Z</time>
      </trkpt>
      <trkpt lat="63.04551" lon="7.61887">
        <ele>92.298328</ele>
        <time>2020-08-03T11:34:37.119Z</time>
      </trkpt>
      <trkpt lat="63.04563" lon="7.61905">
        <ele>92.049654</ele>
        <time>2020-08-03T11:34:39.125Z</time>
      </trkpt>
      <trkpt lat="63.04576" lon="7.61924">
        <ele>91.838194</ele>
        <time>2020-08-03T11:34:41.118Z</time>
      </trkpt>
      <trkpt lat="63.04589" lon="7.61944">
        <ele>91.622823</ele>
        <time>2020-08-03T11:34:43.122Z</time>
      </trkpt>
      <trkpt lat="63.04602" lon="7.61964">
        <ele>91.401917</ele>
        <time>2020-08-03T11:34:45.146Z</time>
      </trkpt>
      <trkpt lat="63.04616" lon="7.61983">
        <ele>91.178959</ele>
        <time>2020-08-03T11:34:47.156Z</time>
      </trkpt>
      <trkpt lat="63.04631" lon="7.61997">
        <ele>90.958315</ele>
        <time>2020-08-03T11:34:49.132Z</time>
      </trkpt>
      <trkpt lat="63.04647" lon="7.62001">
        <ele>90.738876</ele>
        <time>2020-08-03T11:34:51.128Z</time>
      </trkpt>
      <trkpt lat="63.04663" lon="7.61996">
        <ele>90.522627</ele>
        <time>2020-08-03T11:34:53.120Z</time>
      </trkpt>
      <trkpt lat="63.04675" lon="7.61981">
        <ele>90.329911</ele>
        <time>2020-08-03T11:34:55.132Z</time>
      </trkpt>
      <trkpt lat="63.04685" lon="7.61961">
        <ele>90.146139</ele>
        <time>2020-08-03T11:34:57.143Z</time>
      </trkpt>
      <trkpt lat="63.04694" lon="7.61941">
        <ele>89.976178</ele>
        <time>2020-08-03T11:34:59.140Z</time>
      </trkpt>
      <trkpt lat="63.04703" lon="7.61924">
        <ele>89.815627</ele>
        <time>2020-08-03T11:35:01.118Z</time>
      </trkpt>
      <trkpt lat="63.04712" lon="7.61912">
        <ele>89.670164</ele>
        <time>2020-08-03T11:35:03.150Z</time>
      </trkpt>
      <trkpt lat="63.04722" lon="7.61904">
        <ele>89.57604</ele>
        <time>2020-08-03T11:35:05.151Z</time>
      </trkpt>
      <trkpt lat="63.04733" lon="7.61901">
        <ele>89.589572</ele>
        <time>2020-08-03T11:35:07.150Z</time>
      </trkpt>
      <trkpt lat="63.04744" lon="7.61899">
        <ele>89.603245</ele>
        <time>2020-08-03T11:35:09.115Z</time>
      </trkpt>
      <trkpt lat="63.04756" lon="7.61902">
        <ele>89.618053</ele>
        <time>2020-08-03T11:35:11.119Z</time>
      </trkpt>
      <trkpt lat="63.04767" lon="7.61903">
        <ele>89.63134</ele>
        <time>2020-08-03T11:35:13.135Z</time>
      </trkpt>
      <trkpt lat="63.04779" lon="7.61902">
        <ele>89.645348</ele>
        <time>2020-08-03T11:35:15.188Z</time>
      </trkpt>
      <trkpt lat="63.04789" lon="7.61903">
        <ele>89.658376</ele>
        <time>2020-08-03T11:35:17.135Z</time>
      </trkpt>
      <trkpt lat="63.04799" lon="7.61904">
        <ele>89.670686</ele>
        <time>2020-08-03T11:35:19.142Z</time>
      </trkpt>
      <trkpt lat="63.04809" lon="7.61905">
        <ele>89.682363</ele>
        <time>2020-08-03T11:35:21.116Z</time>
      </trkpt>
      <trkpt lat="63.04818" lon="7.61907">
        <ele>89.693945</ele>
        <time>2020-08-03T11:35:23.128Z</time>
      </trkpt>
      <trkpt lat="63.04831" lon="7.6191">
        <ele>89.709625</ele>
        <time>2020-08-03T11:35:26.136Z</time>
      </trkpt>
      <trkpt lat="63.04842" lon="7.61916">
        <ele>89.724195</ele>
        <time>2020-08-03T11:35:29.126Z</time>
      </trkpt>
      <trkpt lat="63.04853" lon="7.61926">
        <ele>89.738559</ele>
        <time>2020-08-03T11:35:32.151Z</time>
      </trkpt>
      <trkpt lat="63.04862" lon="7.61936">
        <ele>89.750502</ele>
        <time>2020-08-03T11:35:34.123Z</time>
      </trkpt>
      <trkpt lat="63.0487" lon="7.61954">
        <ele>89.765026</ele>
        <time>2020-08-03T11:35:36.151Z</time>
      </trkpt>
      <trkpt lat="63.04877" lon="7.61979">
        <ele>89.780959</ele>
        <time>2020-08-03T11:35:38.131Z</time>
      </trkpt>
      <trkpt lat="63.04883" lon="7.62006">
        <ele>89.489632</ele>
        <time>2020-08-03T11:35:40.176Z</time>
      </trkpt>
      <trkpt lat="63.04892" lon="7.62034">
        <ele>88.399486</ele>
        <time>2020-08-03T11:35:42.143Z</time>
      </trkpt>
      <trkpt lat="63.04902" lon="7.6206">
        <ele>87.253597</ele>
        <time>2020-08-03T11:35:44.134Z</time>
      </trkpt>
      <trkpt lat="63.04917" lon="7.62082">
        <ele>85.994116</ele>
        <time>2020-08-03T11:35:46.119Z</time>
      </trkpt>
      <trkpt lat="63.04925" lon="7.62091">
        <ele>85.333341</ele>
        <time>2020-08-03T11:35:47.130Z</time>
      </trkpt>
      <trkpt lat="63.04934" lon="7.62099">
        <ele>84.651837</ele>
        <time>2020-08-03T11:35:48.174Z</time>
      </trkpt>
      <trkpt lat="63.04943" lon="7.62103">
        <ele>83.936194</ele>
        <time>2020-08-03T11:35:49.135Z</time>
      </trkpt>
      <trkpt lat="63.04954" lon="7.62108">
        <ele>83.183285</ele>
        <time>2020-08-03T11:35:50.140Z</time>
      </trkpt>
      <trkpt lat="63.04964" lon="7.62114">
        <ele>82.443669</ele>
        <time>2020-08-03T11:35:51.157Z</time>
      </trkpt>
      <trkpt lat="63.04973" lon="7.62119">
        <ele>81.721032</ele>
        <time>2020-08-03T11:35:52.118Z</time>
      </trkpt>
      <trkpt lat="63.04982" lon="7.62127">
        <ele>81.037098</ele>
        <time>2020-08-03T11:35:53.148Z</time>
      </trkpt>
      <trkpt lat="63.04991" lon="7.62139">
        <ele>80.308047</ele>
        <time>2020-08-03T11:35:54.139Z</time>
      </trkpt>
      <trkpt lat="63.04999" lon="7.62153">
        <ele>79.555942</ele>
        <time>2020-08-03T11:35:55.122Z</time>
      </trkpt>
      <trkpt lat="63.05007" lon="7.62168">
        <ele>78.812163</ele>
        <time>2020-08-03T11:35:56.175Z</time>
      </trkpt>
      <trkpt lat="63.05014" lon="7.62185">
        <ele>78.067206</ele>
        <time>2020-08-03T11:35:57.109Z</time>
      </trkpt>
      <trkpt lat="63.05021" lon="7.62203">
        <ele>77.278405</ele>
        <time>2020-08-03T11:35:58.143Z</time>
      </trkpt>
      <trkpt lat="63.05028" lon="7.62222">
        <ele>76.457555</ele>
        <time>2020-08-03T11:35:59.134Z</time>
      </trkpt>
      <trkpt lat="63.05034" lon="7.62242">
        <ele>75.613159</ele>
        <time>2020-08-03T11:36:00.132Z</time>
      </trkpt>
      <trkpt lat="63.0504" lon="7.6226">
        <ele>74.818074</ele>
        <time>2020-08-03T11:36:01.135Z</time>
      </trkpt>
      <trkpt lat="63.05047" lon="7.62276">
        <ele>74.060994</ele>
        <time>2020-08-03T11:36:02.146Z</time>
      </trkpt>
      <trkpt lat="63.05054" lon="7.62289">
        <ele>73.357455</ele>
        <time>2020-08-03T11:36:03.130Z</time>
      </trkpt>
      <trkpt lat="63.0507" lon="7.62303">
        <ele>72.058765</ele>
        <time>2020-08-03T11:36:05.125Z</time>
      </trkpt>
      <trkpt lat="63.05087" lon="7.62309">
        <ele>70.732853</ele>
        <time>2020-08-03T11:36:07.125Z</time>
      </trkpt>
      <trkpt lat="63.05103" lon="7.6232">
        <ele>69.388589</ele>
        <time>2020-08-03T11:36:09.163Z</time>
      </trkpt>
      <trkpt lat="63.05111" lon="7.62332">
        <ele>68.661034</ele>
        <time>2020-08-03T11:36:10.152Z</time>
      </trkpt>
      <trkpt lat="63.05118" lon="7.62347">
        <ele>67.926696</ele>
        <time>2020-08-03T11:36:11.138Z</time>
      </trkpt>
      <trkpt lat="63.05124" lon="7.62363">
        <ele>67.210421</ele>
        <time>2020-08-03T11:36:12.137Z</time>
      </trkpt>
      <trkpt lat="63.0513" lon="7.62398">
        <ele>65.866048</ele>
        <time>2020-08-03T11:36:14.132Z</time>
      </trkpt>
      <trkpt lat="63.05136" lon="7.62434">
        <ele>64.524462</ele>
        <time>2020-08-03T11:36:16.120Z</time>
      </trkpt>
      <trkpt lat="63.0514" lon="7.62453">
        <ele>63.807997</ele>
        <time>2020-08-03T11:36:17.131Z</time>
      </trkpt>
      <trkpt lat="63.05144" lon="7.62472">
        <ele>63.075633</ele>
        <time>2020-08-03T11:36:18.153Z</time>
      </trkpt>
      <trkpt lat="63.05148" lon="7.62492">
        <ele>62.498024</ele>
        <time>2020-08-03T11:36:19.127Z</time>
      </trkpt>
      <trkpt lat="63.0515" lon="7.62512">
        <ele>61.954728</ele>
        <time>2020-08-03T11:36:20.146Z</time>
      </trkpt>
      <trkpt lat="63.05152" lon="7.62532">
        <ele>61.424059</ele>
        <time>2020-08-03T11:36:21.128Z</time>
      </trkpt>
      <trkpt lat="63.05154" lon="7.62552">
        <ele>60.892892</ele>
        <time>2020-08-03T11:36:22.124Z</time>
      </trkpt>
      <trkpt lat="63.05154" lon="7.62572">
        <ele>60.354101</ele>
        <time>2020-08-03T11:36:23.130Z</time>
      </trkpt>
      <trkpt lat="63.05155" lon="7.62593">
        <ele>59.828178</ele>
        <time>2020-08-03T11:36:24.149Z</time>
      </trkpt>
      <trkpt lat="63.05153" lon="7.62613">
        <ele>59.299588</ele>
        <time>2020-08-03T11:36:25.169Z</time>
      </trkpt>
      <trkpt lat="63.05151" lon="7.62633">
        <ele>58.748593</ele>
        <time>2020-08-03T11:36:26.150Z</time>
      </trkpt>
      <trkpt lat="63.05149" lon="7.62655">
        <ele>58.181072</ele>
        <time>2020-08-03T11:36:27.123Z</time>
      </trkpt>
      <trkpt lat="63.05146" lon="7.62677">
        <ele>57.593275</ele>
        <time>2020-08-03T11:36:28.122Z</time>
      </trkpt>
      <trkpt lat="63.05144" lon="7.62698">
        <ele>57.016907</ele>
        <time>2020-08-03T11:36:29.154Z</time>
      </trkpt>
      <trkpt lat="63.05142" lon="7.62719">
        <ele>56.455377</ele>
        <time>2020-08-03T11:36:30.133Z</time>
      </trkpt>
      <trkpt lat="63.05141" lon="7.62741">
        <ele>55.89762</ele>
        <time>2020-08-03T11:36:31.120Z</time>
      </trkpt>
      <trkpt lat="63.0514" lon="7.62762">
        <ele>55.328649</ele>
        <time>2020-08-03T11:36:32.139Z</time>
      </trkpt>
      <trkpt lat="63.05141" lon="7.62784">
        <ele>54.77385</ele>
        <time>2020-08-03T11:36:33.133Z</time>
      </trkpt>
      <trkpt lat="63.05142" lon="7.62821">
        <ele>53.786471</ele>
        <time>2020-08-03T11:36:35.124Z</time>
      </trkpt>
      <trkpt lat="63.05144" lon="7.62857">
        <ele>52.863969</ele>
        <time>2020-08-03T11:36:37.144Z</time>
      </trkpt>
      <trkpt lat="63.05147" lon="7.62887">
        <ele>52.153481</ele>
        <time>2020-08-03T11:36:39.143Z</time>
      </trkpt>
      <trkpt lat="63.05151" lon="7.62915">
        <ele>51.521626</ele>
        <time>2020-08-03T11:36:41.123Z</time>
      </trkpt>
      <trkpt lat="63.05156" lon="7.62941">
        <ele>50.924381</ele>
        <time>2020-08-03T11:36:43.137Z</time>
      </trkpt>
      <trkpt lat="63.05159" lon="7.62965">
        <ele>50.38345</ele>
        <time>2020-08-03T11:36:45.169Z</time>
      </trkpt>
      <trkpt lat="63.05162" lon="7.62988">
        <ele>49.860437</ele>
        <time>2020-08-03T11:36:47.152Z</time>
      </trkpt>
      <trkpt lat="63.05165" lon="7.63008">
        <ele>49.399785</ele>
        <time>2020-08-03T11:36:49.128Z</time>
      </trkpt>
      <trkpt lat="63.05176" lon="7.63008">
        <ele>48.894739</ele>
        <time>2020-08-03T11:36:55.127Z</time>
      </trkpt>
      <trkpt lat="63.05186" lon="7.63007">
        <ele>48.40382</ele>
        <time>2020-08-03T11:37:04.134Z</time>
      </trkpt>
      <trkpt lat="63.05205" lon="7.6298">
        <ele>47.351348</ele>
        <time>2020-08-03T11:41:52.136Z</time>
      </trkpt>
      <trkpt lat="63.05193" lon="7.63016">
        <ele>46.399009</ele>
        <time>2020-08-03T11:44:51.134Z</time>
      </trkpt>
      <trkpt lat="63.05178" lon="7.63042">
        <ele>45.503703</ele>
        <time>2020-08-03T11:44:59.122Z</time>
      </trkpt>
      <trkpt lat="63.05175" lon="7.6308">
        <ele>44.672969</ele>
        <time>2020-08-03T11:45:00.137Z</time>
      </trkpt>
      <trkpt lat="63.05179" lon="7.63111">
        <ele>44.10064</ele>
        <time>2020-08-03T11:45:02.107Z</time>
      </trkpt>
      <trkpt lat="63.05182" lon="7.63141">
        <ele>44.417167</ele>
        <time>2020-08-03T11:45:04.109Z</time>
      </trkpt>
      <trkpt lat="63.05186" lon="7.63171">
        <ele>44.735091</ele>
        <time>2020-08-03T11:45:06.121Z</time>
      </trkpt>
      <trkpt lat="63.0519" lon="7.63204">
        <ele>45.093905</ele>
        <time>2020-08-03T11:45:08.114Z</time>
      </trkpt>
      <trkpt lat="63.05195" lon="7.63242">
        <ele>45.494028</ele>
        <time>2020-08-03T11:45:10.127Z</time>
      </trkpt>
      <trkpt lat="63.05197" lon="7.63261">
        <ele>45.696581</ele>
        <time>2020-08-03T11:45:11.110Z</time>
      </trkpt>
      <trkpt lat="63.052" lon="7.6328">
        <ele>45.898209</ele>
        <time>2020-08-03T11:45:12.112Z</time>
      </trkpt>
      <trkpt lat="63.05203" lon="7.63299">
        <ele>46.109571</ele>
        <time>2020-08-03T11:45:13.137Z</time>
      </trkpt>
      <trkpt lat="63.05207" lon="7.63318">
        <ele>46.316803</ele>
        <time>2020-08-03T11:45:14.171Z</time>
      </trkpt>
      <trkpt lat="63.0521" lon="7.63336">
        <ele>46.522913</ele>
        <time>2020-08-03T11:45:15.119Z</time>
      </trkpt>
      <trkpt lat="63.05219" lon="7.63368">
        <ele>46.904681</ele>
        <time>2020-08-03T11:45:17.129Z</time>
      </trkpt>
      <trkpt lat="63.0523" lon="7.63393">
        <ele>47.249984</ele>
        <time>2020-08-03T11:45:19.116Z</time>
      </trkpt>
      <trkpt lat="63.05243" lon="7.63411">
        <ele>47.607202</ele>
        <time>2020-08-03T11:45:21.109Z</time>
      </trkpt>
      <trkpt lat="63.05261" lon="7.63418">
        <ele>48.004545</ele>
        <time>2020-08-03T11:45:23.108Z</time>
      </trkpt>
      <trkpt lat="63.0527" lon="7.63415">
        <ele>48.161431</ele>
        <time>2020-08-03T11:45:24.157Z</time>
      </trkpt>
      <trkpt lat="63.05279" lon="7.63409">
        <ele>48.245865</ele>
        <time>2020-08-03T11:45:25.155Z</time>
      </trkpt>
      <trkpt lat="63.05288" lon="7.63401">
        <ele>48.329853</ele>
        <time>2020-08-03T11:45:26.139Z</time>
      </trkpt>
      <trkpt lat="63.05296" lon="7.63392">
        <ele>48.41587</ele>
        <time>2020-08-03T11:45:27.167Z</time>
      </trkpt>
      <trkpt lat="63.05305" lon="7.63382">
        <ele>48.501707</ele>
        <time>2020-08-03T11:45:28.113Z</time>
      </trkpt>
      <trkpt lat="63.05313" lon="7.63374">
        <ele>48.583571</ele>
        <time>2020-08-03T11:45:29.114Z</time>
      </trkpt>
      <trkpt lat="63.0533" lon="7.63362">
        <ele>48.735332</ele>
        <time>2020-08-03T11:45:31.132Z</time>
      </trkpt>
      <trkpt lat="63.05342" lon="7.63351">
        <ele>48.854615</ele>
        <time>2020-08-03T11:45:33.155Z</time>
      </trkpt>
      <trkpt lat="63.05352" lon="7.6334">
        <ele>48.95279</ele>
        <time>2020-08-03T11:45:36.120Z</time>
      </trkpt>
      <trkpt lat="63.05363" lon="7.63293">
        <ele>49.162961</ele>
        <time>2020-08-03T11:45:56.152Z</time>
      </trkpt>
      <trkpt lat="63.05368" lon="7.63277">
        <ele>49.242519</ele>
        <time>2020-08-03T11:45:58.164Z</time>
      </trkpt>
      <trkpt lat="63.05373" lon="7.63256">
        <ele>49.335504</ele>
        <time>2020-08-03T11:46:00.130Z</time>
      </trkpt>
      <trkpt lat="63.05379" lon="7.63224">
        <ele>49.473962</ele>
        <time>2020-08-03T11:46:02.132Z</time>
      </trkpt>
      <trkpt lat="63.05382" lon="7.63191">
        <ele>49.609731</ele>
        <time>2020-08-03T11:46:04.148Z</time>
      </trkpt>
      <trkpt lat="63.05385" lon="7.63165">
        <ele>49.716016</ele>
        <time>2020-08-03T11:46:06.132Z</time>
      </trkpt>
      <trkpt lat="63.05391" lon="7.63151">
        <ele>50.182505</ele>
        <time>2020-08-03T11:46:08.142Z</time>
      </trkpt>
      <trkpt lat="63.05402" lon="7.63154">
        <ele>50.708704</ele>
        <time>2020-08-03T11:46:10.131Z</time>
      </trkpt>
      <trkpt lat="63.0541" lon="7.63173">
        <ele>51.335642</ele>
        <time>2020-08-03T11:46:12.129Z</time>
      </trkpt>
      <trkpt lat="63.05414" lon="7.63208">
        <ele>52.175489</ele>
        <time>2020-08-03T11:46:14.123Z</time>
      </trkpt>
      <trkpt lat="63.05417" lon="7.63228">
        <ele>52.65437</ele>
        <time>2020-08-03T11:46:15.139Z</time>
      </trkpt>
      <trkpt lat="63.05419" lon="7.63249">
        <ele>53.163252</ele>
        <time>2020-08-03T11:46:16.147Z</time>
      </trkpt>
      <trkpt lat="63.05422" lon="7.63271">
        <ele>53.705462</ele>
        <time>2020-08-03T11:46:17.125Z</time>
      </trkpt>
      <trkpt lat="63.05426" lon="7.63292">
        <ele>54.241713</ele>
        <time>2020-08-03T11:46:18.137Z</time>
      </trkpt>
      <trkpt lat="63.05431" lon="7.63311">
        <ele>54.761813</ele>
        <time>2020-08-03T11:46:19.109Z</time>
      </trkpt>
      <trkpt lat="63.05436" lon="7.63329">
        <ele>55.265836</ele>
        <time>2020-08-03T11:46:20.115Z</time>
      </trkpt>
      <trkpt lat="63.05443" lon="7.63345">
        <ele>55.765983</ele>
        <time>2020-08-03T11:46:21.113Z</time>
      </trkpt>
      <trkpt lat="63.0545" lon="7.6336">
        <ele>56.269516</ele>
        <time>2020-08-03T11:46:22.132Z</time>
      </trkpt>
      <trkpt lat="63.05458" lon="7.63373">
        <ele>56.796138</ele>
        <time>2020-08-03T11:46:23.122Z</time>
      </trkpt>
      <trkpt lat="63.05467" lon="7.63385">
        <ele>57.330536</ele>
        <time>2020-08-03T11:46:24.107Z</time>
      </trkpt>
      <trkpt lat="63.05477" lon="7.63393">
        <ele>57.863415</ele>
        <time>2020-08-03T11:46:25.127Z</time>
      </trkpt>
      <trkpt lat="63.05486" lon="7.63399">
        <ele>58.386413</ele>
        <time>2020-08-03T11:46:26.103Z</time>
      </trkpt>
      <trkpt lat="63.05496" lon="7.63403">
        <ele>58.875172</ele>
        <time>2020-08-03T11:46:27.174Z</time>
      </trkpt>
      <trkpt lat="63.05509" lon="7.63406">
        <ele>59.675457</ele>
        <time>2020-08-03T11:46:29.120Z</time>
      </trkpt>
      <trkpt lat="63.05518" lon="7.63407">
        <ele>60.218466</ele>
        <time>2020-08-03T11:46:32.121Z</time>
      </trkpt>
      <trkpt lat="63.05539" lon="7.63402">
        <ele>61.423209</ele>
        <time>2020-08-03T11:46:52.131Z</time>
      </trkpt>
      <trkpt lat="63.05549" lon="7.63408">
        <ele>62.076698</ele>
        <time>2020-08-03T11:46:54.119Z</time>
      </trkpt>
      <trkpt lat="63.0556" lon="7.63418">
        <ele>62.778479</ele>
        <time>2020-08-03T11:46:56.126Z</time>
      </trkpt>
      <trkpt lat="63.05571" lon="7.63431">
        <ele>63.528794</ele>
        <time>2020-08-03T11:46:58.131Z</time>
      </trkpt>
      <trkpt lat="63.05585" lon="7.63448">
        <ele>64.457491</ele>
        <time>2020-08-03T11:47:00.132Z</time>
      </trkpt>
      <trkpt lat="63.05592" lon="7.6346">
        <ele>65.002027</ele>
        <time>2020-08-03T11:47:01.111Z</time>
      </trkpt>
      <trkpt lat="63.056" lon="7.63475">
        <ele>65.608361</ele>
        <time>2020-08-03T11:47:02.151Z</time>
      </trkpt>
      <trkpt lat="63.05607" lon="7.63491">
        <ele>66.234299</ele>
        <time>2020-08-03T11:47:03.134Z</time>
      </trkpt>
      <trkpt lat="63.05614" lon="7.63508">
        <ele>66.833089</ele>
        <time>2020-08-03T11:47:04.138Z</time>
      </trkpt>
      <trkpt lat="63.0562" lon="7.63526">
        <ele>67.439861</ele>
        <time>2020-08-03T11:47:05.122Z</time>
      </trkpt>
      <trkpt lat="63.05626" lon="7.63545">
        <ele>68.075819</ele>
        <time>2020-08-03T11:47:06.126Z</time>
      </trkpt>
      <trkpt lat="63.05632" lon="7.63567">
        <ele>68.761371</ele>
        <time>2020-08-03T11:47:07.123Z</time>
      </trkpt>
      <trkpt lat="63.05638" lon="7.6359">
        <ele>69.476988</ele>
        <time>2020-08-03T11:47:08.128Z</time>
      </trkpt>
      <trkpt lat="63.05644" lon="7.63614">
        <ele>70.066177</ele>
        <time>2020-08-03T11:47:09.130Z</time>
      </trkpt>
      <trkpt lat="63.05651" lon="7.63638">
        <ele>70.586798</ele>
        <time>2020-08-03T11:47:10.126Z</time>
      </trkpt>
      <trkpt lat="63.05658" lon="7.63662">
        <ele>71.110223</ele>
        <time>2020-08-03T11:47:11.138Z</time>
      </trkpt>
      <trkpt lat="63.05666" lon="7.63684">
        <ele>71.599793</ele>
        <time>2020-08-03T11:47:12.134Z</time>
      </trkpt>
      <trkpt lat="63.05674" lon="7.63704">
        <ele>72.080061</ele>
        <time>2020-08-03T11:47:13.131Z</time>
      </trkpt>
      <trkpt lat="63.05683" lon="7.63721">
        <ele>72.557711</ele>
        <time>2020-08-03T11:47:14.143Z</time>
      </trkpt>
      <trkpt lat="63.05693" lon="7.63738">
        <ele>73.047201</ele>
        <time>2020-08-03T11:47:15.125Z</time>
      </trkpt>
      <trkpt lat="63.05704" lon="7.63754">
        <ele>73.554021</ele>
        <time>2020-08-03T11:47:16.130Z</time>
      </trkpt>
      <trkpt lat="63.05715" lon="7.63769">
        <ele>74.088357</ele>
        <time>2020-08-03T11:47:17.125Z</time>
      </trkpt>
      <trkpt lat="63.05728" lon="7.63782">
        <ele>74.6457</ele>
        <time>2020-08-03T11:47:18.114Z</time>
      </trkpt>
      <trkpt lat="63.0574" lon="7.63795">
        <ele>75.18735</ele>
        <time>2020-08-03T11:47:19.139Z</time>
      </trkpt>
      <trkpt lat="63.05753" lon="7.63808">
        <ele>75.736947</ele>
        <time>2020-08-03T11:47:20.131Z</time>
      </trkpt>
      <trkpt lat="63.05765" lon="7.63821">
        <ele>76.278597</ele>
        <time>2020-08-03T11:47:21.130Z</time>
      </trkpt>
      <trkpt lat="63.05778" lon="7.63833">
        <ele>76.821613</ele>
        <time>2020-08-03T11:47:22.137Z</time>
      </trkpt>
      <trkpt lat="63.0579" lon="7.63845">
        <ele>77.19791</ele>
        <time>2020-08-03T11:47:23.127Z</time>
      </trkpt>
      <trkpt lat="63.05803" lon="7.63856">
        <ele>77.566167</ele>
        <time>2020-08-03T11:47:24.139Z</time>
      </trkpt>
      <trkpt lat="63.05817" lon="7.63866">
        <ele>77.945248</ele>
        <time>2020-08-03T11:47:25.148Z</time>
      </trkpt>
      <trkpt lat="63.0583" lon="7.63876">
        <ele>78.327428</ele>
        <time>2020-08-03T11:47:26.140Z</time>
      </trkpt>
      <trkpt lat="63.05845" lon="7.63885">
        <ele>78.725202</ele>
        <time>2020-08-03T11:47:27.118Z</time>
      </trkpt>
      <trkpt lat="63.0586" lon="7.63894">
        <ele>79.132193</ele>
        <time>2020-08-03T11:47:28.122Z</time>
      </trkpt>
      <trkpt lat="63.05875" lon="7.63904">
        <ele>79.558034</ele>
        <time>2020-08-03T11:47:29.134Z</time>
      </trkpt>
      <trkpt lat="63.05891" lon="7.63913">
        <ele>79.994739</ele>
        <time>2020-08-03T11:47:30.156Z</time>
      </trkpt>
      <trkpt lat="63.05907" lon="7.63923">
        <ele>80.437191</ele>
        <time>2020-08-03T11:47:31.128Z</time>
      </trkpt>
      <trkpt lat="63.05923" lon="7.63932">
        <ele>80.884449</ele>
        <time>2020-08-03T11:47:32.130Z</time>
      </trkpt>
      <trkpt lat="63.0594" lon="7.63942">
        <ele>81.329145</ele>
        <time>2020-08-03T11:47:33.141Z</time>
      </trkpt>
      <trkpt lat="63.05956" lon="7.63951">
        <ele>81.764123</ele>
        <time>2020-08-03T11:47:34.138Z</time>
      </trkpt>
      <trkpt lat="63.05972" lon="7.63961">
        <ele>82.171785</ele>
        <time>2020-08-03T11:47:35.127Z</time>
      </trkpt>
      <trkpt lat="63.05988" lon="7.63971">
        <ele>82.574704</ele>
        <time>2020-08-03T11:47:36.138Z</time>
      </trkpt>
      <trkpt lat="63.06003" lon="7.63981">
        <ele>82.973795</ele>
        <time>2020-08-03T11:47:37.156Z</time>
      </trkpt>
      <trkpt lat="63.06019" lon="7.63991">
        <ele>83.368475</ele>
        <time>2020-08-03T11:47:38.144Z</time>
      </trkpt>
      <trkpt lat="63.06034" lon="7.64001">
        <ele>83.759083</ele>
        <time>2020-08-03T11:47:39.178Z</time>
      </trkpt>
      <trkpt lat="63.06048" lon="7.64014">
        <ele>84.147206</ele>
        <time>2020-08-03T11:47:40.139Z</time>
      </trkpt>
      <trkpt lat="63.06063" lon="7.6403">
        <ele>84.53499</ele>
        <time>2020-08-03T11:47:41.141Z</time>
      </trkpt>
      <trkpt lat="63.06077" lon="7.64048">
        <ele>84.934356</ele>
        <time>2020-08-03T11:47:42.143Z</time>
      </trkpt>
      <trkpt lat="63.0609" lon="7.64067">
        <ele>85.336025</ele>
        <time>2020-08-03T11:47:43.149Z</time>
      </trkpt>
      <trkpt lat="63.06104" lon="7.64087">
        <ele>85.732492</ele>
        <time>2020-08-03T11:47:44.132Z</time>
      </trkpt>
      <trkpt lat="63.06117" lon="7.64107">
        <ele>86.052778</ele>
        <time>2020-08-03T11:47:45.139Z</time>
      </trkpt>
      <trkpt lat="63.06131" lon="7.64126">
        <ele>85.973451</ele>
        <time>2020-08-03T11:47:46.141Z</time>
      </trkpt>
      <trkpt lat="63.06144" lon="7.64146">
        <ele>85.894621</ele>
        <time>2020-08-03T11:47:47.146Z</time>
      </trkpt>
      <trkpt lat="63.06157" lon="7.64165">
        <ele>85.816036</ele>
        <time>2020-08-03T11:47:48.140Z</time>
      </trkpt>
      <trkpt lat="63.0617" lon="7.64183">
        <ele>85.738955</ele>
        <time>2020-08-03T11:47:49.126Z</time>
      </trkpt>
      <trkpt lat="63.06184" lon="7.64201">
        <ele>85.662462</ele>
        <time>2020-08-03T11:47:50.173Z</time>
      </trkpt>
      <trkpt lat="63.06197" lon="7.64218">
        <ele>85.586345</ele>
        <time>2020-08-03T11:47:51.149Z</time>
      </trkpt>
      <trkpt lat="63.06211" lon="7.64233">
        <ele>85.509997</ele>
        <time>2020-08-03T11:47:52.170Z</time>
      </trkpt>
      <trkpt lat="63.06225" lon="7.64247">
        <ele>85.433608</ele>
        <time>2020-08-03T11:47:53.127Z</time>
      </trkpt>
      <trkpt lat="63.06239" lon="7.64258">
        <ele>85.358139</ele>
        <time>2020-08-03T11:47:54.144Z</time>
      </trkpt>
      <trkpt lat="63.06254" lon="7.64266">
        <ele>85.284541</ele>
        <time>2020-08-03T11:47:55.135Z</time>
      </trkpt>
      <trkpt lat="63.06269" lon="7.64271">
        <ele>85.208952</ele>
        <time>2020-08-03T11:47:56.142Z</time>
      </trkpt>
      <trkpt lat="63.06285" lon="7.64274">
        <ele>85.011097</ele>
        <time>2020-08-03T11:47:57.139Z</time>
      </trkpt>
      <trkpt lat="63.06302" lon="7.64277">
        <ele>84.730135</ele>
        <time>2020-08-03T11:47:58.135Z</time>
      </trkpt>
      <trkpt lat="63.06318" lon="7.64279">
        <ele>84.451023</ele>
        <time>2020-08-03T11:47:59.137Z</time>
      </trkpt>
      <trkpt lat="63.06334" lon="7.6428">
        <ele>84.17393</ele>
        <time>2020-08-03T11:48:00.133Z</time>
      </trkpt>
      <trkpt lat="63.0635" lon="7.64282">
        <ele>83.90199</ele>
        <time>2020-08-03T11:48:01.156Z</time>
      </trkpt>
      <trkpt lat="63.06366" lon="7.64283">
        <ele>83.640202</ele>
        <time>2020-08-03T11:48:02.146Z</time>
      </trkpt>
      <trkpt lat="63.06381" lon="7.64284">
        <ele>83.385356</ele>
        <time>2020-08-03T11:48:03.136Z</time>
      </trkpt>
      <trkpt lat="63.06396" lon="7.64284">
        <ele>83.132241</ele>
        <time>2020-08-03T11:48:04.150Z</time>
      </trkpt>
      <trkpt lat="63.06411" lon="7.64286">
        <ele>82.873878</ele>
        <time>2020-08-03T11:48:05.135Z</time>
      </trkpt>
      <trkpt lat="63.06427" lon="7.64288">
        <ele>82.604716</ele>
        <time>2020-08-03T11:48:06.156Z</time>
      </trkpt>
      <trkpt lat="63.06443" lon="7.64292">
        <ele>82.328093</ele>
        <time>2020-08-03T11:48:07.135Z</time>
      </trkpt>
      <trkpt lat="63.06459" lon="7.64297">
        <ele>81.911791</ele>
        <time>2020-08-03T11:48:08.148Z</time>
      </trkpt>
      <trkpt lat="63.06477" lon="7.64303">
        <ele>81.105514</ele>
        <time>2020-08-03T11:48:09.138Z</time>
      </trkpt>
      <trkpt lat="63.06494" lon="7.64311">
        <ele>80.275677</ele>
        <time>2020-08-03T11:48:10.150Z</time>
      </trkpt>
      <trkpt lat="63.06512" lon="7.64322">
        <ele>79.429924</ele>
        <time>2020-08-03T11:48:11.149Z</time>
      </trkpt>
      <trkpt lat="63.06529" lon="7.64333">
        <ele>78.602129</ele>
        <time>2020-08-03T11:48:12.166Z</time>
      </trkpt>
      <trkpt lat="63.06546" lon="7.64346">
        <ele>77.786017</ele>
        <time>2020-08-03T11:48:13.135Z</time>
      </trkpt>
      <trkpt lat="63.06561" lon="7.6436">
        <ele>77.00246</ele>
        <time>2020-08-03T11:48:14.138Z</time>
      </trkpt>
      <trkpt lat="63.06577" lon="7.64372">
        <ele>76.222619</ele>
        <time>2020-08-03T11:48:15.141Z</time>
      </trkpt>
      <trkpt lat="63.06593" lon="7.64383">
        <ele>75.473455</ele>
        <time>2020-08-03T11:48:16.148Z</time>
      </trkpt>
      <trkpt lat="63.06608" lon="7.64394">
        <ele>74.755187</ele>
        <time>2020-08-03T11:48:17.144Z</time>
      </trkpt>
      <trkpt lat="63.06622" lon="7.64403">
        <ele>74.070225</ele>
        <time>2020-08-03T11:48:18.142Z</time>
      </trkpt>
      <trkpt lat="63.06635" lon="7.64413">
        <ele>73.720836</ele>
        <time>2020-08-03T11:48:19.111Z</time>
      </trkpt>
      <trkpt lat="63.06647" lon="7.64422">
        <ele>73.579423</ele>
        <time>2020-08-03T11:48:20.146Z</time>
      </trkpt>
      <trkpt lat="63.06659" lon="7.6443">
        <ele>73.44788</ele>
        <time>2020-08-03T11:48:21.139Z</time>
      </trkpt>
      <trkpt lat="63.0667" lon="7.64438">
        <ele>73.323591</ele>
        <time>2020-08-03T11:48:22.131Z</time>
      </trkpt>
      <trkpt lat="63.06679" lon="7.64446">
        <ele>73.215984</ele>
        <time>2020-08-03T11:48:23.150Z</time>
      </trkpt>
      <trkpt lat="63.06687" lon="7.64454">
        <ele>73.118062</ele>
        <time>2020-08-03T11:48:24.134Z</time>
      </trkpt>
      <trkpt lat="63.067" lon="7.64467">
        <ele>72.961021</ele>
        <time>2020-08-03T11:48:26.130Z</time>
      </trkpt>
      <trkpt lat="63.0671" lon="7.64475">
        <ele>72.853228</ele>
        <time>2020-08-03T11:48:29.128Z</time>
      </trkpt>
      <trkpt lat="63.06733" lon="7.64484">
        <ele>72.600882</ele>
        <time>2020-08-03T11:48:48.135Z</time>
      </trkpt>
      <trkpt lat="63.06742" lon="7.64489">
        <ele>72.496677</ele>
        <time>2020-08-03T11:48:50.142Z</time>
      </trkpt>
      <trkpt lat="63.06755" lon="7.64498">
        <ele>72.345234</ele>
        <time>2020-08-03T11:48:52.135Z</time>
      </trkpt>
      <trkpt lat="63.06771" lon="7.64511">
        <ele>72.169335</ele>
        <time>2020-08-03T11:48:54.136Z</time>
      </trkpt>
      <trkpt lat="63.06786" lon="7.64524">
        <ele>71.985965</ele>
        <time>2020-08-03T11:48:56.168Z</time>
      </trkpt>
      <trkpt lat="63.06796" lon="7.64532">
        <ele>71.880208</ele>
        <time>2020-08-03T11:48:57.152Z</time>
      </trkpt>
      <trkpt lat="63.06805" lon="7.64538">
        <ele>71.859555</ele>
        <time>2020-08-03T11:48:58.141Z</time>
      </trkpt>
      <trkpt lat="63.06814" lon="7.64544">
        <ele>71.857426</ele>
        <time>2020-08-03T11:48:59.121Z</time>
      </trkpt>
      <trkpt lat="63.06824" lon="7.6455">
        <ele>71.855201</ele>
        <time>2020-08-03T11:49:00.144Z</time>
      </trkpt>
      <trkpt lat="63.06834" lon="7.64557">
        <ele>71.852976</ele>
        <time>2020-08-03T11:49:01.141Z</time>
      </trkpt>
      <trkpt lat="63.06845" lon="7.64564">
        <ele>71.850648</ele>
        <time>2020-08-03T11:49:02.134Z</time>
      </trkpt>
      <trkpt lat="63.06856" lon="7.64571">
        <ele>71.848203</ele>
        <time>2020-08-03T11:49:03.140Z</time>
      </trkpt>
      <trkpt lat="63.06867" lon="7.64578">
        <ele>71.845613</ele>
        <time>2020-08-03T11:49:04.144Z</time>
      </trkpt>
      <trkpt lat="63.06879" lon="7.64586">
        <ele>71.842874</ele>
        <time>2020-08-03T11:49:05.134Z</time>
      </trkpt>
      <trkpt lat="63.06892" lon="7.64595">
        <ele>71.839995</ele>
        <time>2020-08-03T11:49:06.142Z</time>
      </trkpt>
      <trkpt lat="63.06906" lon="7.64603">
        <ele>71.836977</ele>
        <time>2020-08-03T11:49:07.157Z</time>
      </trkpt>
      <trkpt lat="63.0692" lon="7.6461">
        <ele>71.83391</ele>
        <time>2020-08-03T11:49:08.131Z</time>
      </trkpt>
      <trkpt lat="63.06934" lon="7.64616">
        <ele>71.830716</ele>
        <time>2020-08-03T11:49:09.138Z</time>
      </trkpt>
      <trkpt lat="63.06949" lon="7.64621">
        <ele>71.827413</ele>
        <time>2020-08-03T11:49:10.157Z</time>
      </trkpt>
      <trkpt lat="63.06966" lon="7.64623">
        <ele>71.823922</ele>
        <time>2020-08-03T11:49:11.135Z</time>
      </trkpt>
      <trkpt lat="63.06982" lon="7.64622">
        <ele>71.534335</ele>
        <time>2020-08-03T11:49:12.127Z</time>
      </trkpt>
      <trkpt lat="63.06998" lon="7.64619">
        <ele>71.070322</ele>
        <time>2020-08-03T11:49:13.138Z</time>
      </trkpt>
      <trkpt lat="63.07015" lon="7.64613">
        <ele>70.592928</ele>
        <time>2020-08-03T11:49:14.140Z</time>
      </trkpt>
      <trkpt lat="63.07031" lon="7.64604">
        <ele>70.11624</ele>
        <time>2020-08-03T11:49:15.142Z</time>
      </trkpt>
      <trkpt lat="63.07046" lon="7.64593">
        <ele>69.663307</ele>
        <time>2020-08-03T11:49:16.132Z</time>
      </trkpt>
      <trkpt lat="63.07061" lon="7.64579">
        <ele>69.20127</ele>
        <time>2020-08-03T11:49:17.145Z</time>
      </trkpt>
      <trkpt lat="63.07075" lon="7.64563">
        <ele>68.748892</ele>
        <time>2020-08-03T11:49:18.182Z</time>
      </trkpt>
      <trkpt lat="63.07088" lon="7.64545">
        <ele>68.312177</ele>
        <time>2020-08-03T11:49:19.122Z</time>
      </trkpt>
      <trkpt lat="63.07101" lon="7.64529">
        <ele>67.879336</ele>
        <time>2020-08-03T11:49:20.148Z</time>
      </trkpt>
      <trkpt lat="63.07115" lon="7.64512">
        <ele>67.438335</ele>
        <time>2020-08-03T11:49:21.140Z</time>
      </trkpt>
      <trkpt lat="63.07127" lon="7.64494">
        <ele>67.019633</ele>
        <time>2020-08-03T11:49:22.138Z</time>
      </trkpt>
      <trkpt lat="63.07139" lon="7.64477">
        <ele>66.623452</ele>
        <time>2020-08-03T11:49:23.150Z</time>
      </trkpt>
      <trkpt lat="63.07151" lon="7.64461">
        <ele>66.269215</ele>
        <time>2020-08-03T11:49:24.137Z</time>
      </trkpt>
      <trkpt lat="63.07163" lon="7.64446">
        <ele>65.924326</ele>
        <time>2020-08-03T11:49:25.142Z</time>
      </trkpt>
      <trkpt lat="63.07175" lon="7.64432">
        <ele>65.583339</ele>
        <time>2020-08-03T11:49:26.138Z</time>
      </trkpt>
      <trkpt lat="63.07186" lon="7.64419">
        <ele>65.260553</ele>
        <time>2020-08-03T11:49:27.151Z</time>
      </trkpt>
      <trkpt lat="63.07198" lon="7.6441">
        <ele>64.960862</ele>
        <time>2020-08-03T11:49:28.133Z</time>
      </trkpt>
      <trkpt lat="63.07209" lon="7.64404">
        <ele>64.670553</ele>
        <time>2020-08-03T11:49:29.170Z</time>
      </trkpt>
      <trkpt lat="63.07221" lon="7.64403">
        <ele>64.379754</ele>
        <time>2020-08-03T11:49:30.155Z</time>
      </trkpt>
      <trkpt lat="63.07232" lon="7.64406">
        <ele>64.087729</ele>
        <time>2020-08-03T11:49:31.133Z</time>
      </trkpt>
      <trkpt lat="63.07244" lon="7.64412">
        <ele>63.789073</ele>
        <time>2020-08-03T11:49:32.146Z</time>
      </trkpt>
      <trkpt lat="63.07255" lon="7.64423">
        <ele>63.478828</ele>
        <time>2020-08-03T11:49:33.142Z</time>
      </trkpt>
      <trkpt lat="63.07266" lon="7.64438">
        <ele>63.161656</ele>
        <time>2020-08-03T11:49:34.140Z</time>
      </trkpt>
      <trkpt lat="63.07276" lon="7.64458">
        <ele>62.824891</ele>
        <time>2020-08-03T11:49:35.137Z</time>
      </trkpt>
      <trkpt lat="63.07285" lon="7.64481">
        <ele>62.478152</ele>
        <time>2020-08-03T11:49:36.133Z</time>
      </trkpt>
      <trkpt lat="63.07292" lon="7.64508">
        <ele>62.098775</ele>
        <time>2020-08-03T11:49:37.139Z</time>
      </trkpt>
      <trkpt lat="63.073" lon="7.64535">
        <ele>61.598788</ele>
        <time>2020-08-03T11:49:38.149Z</time>
      </trkpt>
      <trkpt lat="63.07308" lon="7.64562">
        <ele>61.104876</ele>
        <time>2020-08-03T11:49:39.131Z</time>
      </trkpt>
      <trkpt lat="63.07316" lon="7.64587">
        <ele>60.630084</ele>
        <time>2020-08-03T11:49:40.148Z</time>
      </trkpt>
      <trkpt lat="63.07325" lon="7.64612">
        <ele>60.155357</ele>
        <time>2020-08-03T11:49:41.131Z</time>
      </trkpt>
      <trkpt lat="63.07333" lon="7.64636">
        <ele>59.684313</ele>
        <time>2020-08-03T11:49:42.140Z</time>
      </trkpt>
      <trkpt lat="63.07342" lon="7.6466">
        <ele>59.219687</ele>
        <time>2020-08-03T11:49:43.132Z</time>
      </trkpt>
      <trkpt lat="63.07351" lon="7.64683">
        <ele>58.743106</ele>
        <time>2020-08-03T11:49:44.148Z</time>
      </trkpt>
      <trkpt lat="63.0736" lon="7.64707">
        <ele>58.256594</ele>
        <time>2020-08-03T11:49:45.140Z</time>
      </trkpt>
      <trkpt lat="63.0737" lon="7.6473">
        <ele>57.751568</ele>
        <time>2020-08-03T11:49:46.142Z</time>
      </trkpt>
      <trkpt lat="63.07382" lon="7.64755">
        <ele>57.2132</ele>
        <time>2020-08-03T11:49:47.141Z</time>
      </trkpt>
      <trkpt lat="63.07393" lon="7.64781">
        <ele>56.646851</ele>
        <time>2020-08-03T11:49:48.143Z</time>
      </trkpt>
      <trkpt lat="63.07406" lon="7.64807">
        <ele>56.05913</ele>
        <time>2020-08-03T11:49:49.152Z</time>
      </trkpt>
      <trkpt lat="63.07419" lon="7.64835">
        <ele>55.494605</ele>
        <time>2020-08-03T11:49:50.142Z</time>
      </trkpt>
      <trkpt lat="63.07431" lon="7.64863">
        <ele>54.93578</ele>
        <time>2020-08-03T11:49:51.167Z</time>
      </trkpt>
      <trkpt lat="63.07444" lon="7.6489">
        <ele>54.38423</ele>
        <time>2020-08-03T11:49:52.134Z</time>
      </trkpt>
      <trkpt lat="63.07456" lon="7.64918">
        <ele>53.832882</ele>
        <time>2020-08-03T11:49:53.153Z</time>
      </trkpt>
      <trkpt lat="63.07468" lon="7.64946">
        <ele>53.274239</ele>
        <time>2020-08-03T11:49:54.133Z</time>
      </trkpt>
      <trkpt lat="63.07481" lon="7.64974">
        <ele>52.706095</ele>
        <time>2020-08-03T11:49:55.138Z</time>
      </trkpt>
      <trkpt lat="63.07494" lon="7.65003">
        <ele>52.132688</ele>
        <time>2020-08-03T11:49:56.130Z</time>
      </trkpt>
      <trkpt lat="63.07506" lon="7.65032">
        <ele>51.554019</ele>
        <time>2020-08-03T11:49:57.151Z</time>
      </trkpt>
      <trkpt lat="63.07519" lon="7.65061">
        <ele>50.974171</ele>
        <time>2020-08-03T11:49:58.147Z</time>
      </trkpt>
      <trkpt lat="63.07532" lon="7.6509">
        <ele>50.399583</ele>
        <time>2020-08-03T11:49:59.128Z</time>
      </trkpt>
      <trkpt lat="63.07545" lon="7.65119">
        <ele>50.394361</ele>
        <time>2020-08-03T11:50:00.139Z</time>
      </trkpt>
      <trkpt lat="63.07557" lon="7.65148">
        <ele>50.389241</ele>
        <time>2020-08-03T11:50:01.148Z</time>
      </trkpt>
      <trkpt lat="63.07569" lon="7.65177">
        <ele>50.384139</ele>
        <time>2020-08-03T11:50:02.162Z</time>
      </trkpt>
      <trkpt lat="63.07581" lon="7.65205">
        <ele>50.379105</ele>
        <time>2020-08-03T11:50:03.134Z</time>
      </trkpt>
      <trkpt lat="63.07593" lon="7.65233">
        <ele>50.374242</ele>
        <time>2020-08-03T11:50:04.130Z</time>
      </trkpt>
      <trkpt lat="63.07604" lon="7.65259">
        <ele>50.369647</ele>
        <time>2020-08-03T11:50:05.132Z</time>
      </trkpt>
      <trkpt lat="63.07615" lon="7.65283">
        <ele>50.365268</ele>
        <time>2020-08-03T11:50:06.153Z</time>
      </trkpt>
      <trkpt lat="63.07626" lon="7.65305">
        <ele>50.36109</ele>
        <time>2020-08-03T11:50:07.144Z</time>
      </trkpt>
      <trkpt lat="63.07636" lon="7.65326">
        <ele>50.35708</ele>
        <time>2020-08-03T11:50:08.139Z</time>
      </trkpt>
      <trkpt lat="63.07647" lon="7.65344">
        <ele>50.353282</ele>
        <time>2020-08-03T11:50:09.142Z</time>
      </trkpt>
      <trkpt lat="63.07658" lon="7.65359">
        <ele>50.349609</ele>
        <time>2020-08-03T11:50:10.143Z</time>
      </trkpt>
      <trkpt lat="63.07668" lon="7.65373">
        <ele>50.624919</ele>
        <time>2020-08-03T11:50:11.141Z</time>
      </trkpt>
      <trkpt lat="63.07677" lon="7.65385">
        <ele>51.009372</ele>
        <time>2020-08-03T11:50:12.143Z</time>
      </trkpt>
      <trkpt lat="63.07686" lon="7.65396">
        <ele>51.37123</ele>
        <time>2020-08-03T11:50:13.156Z</time>
      </trkpt>
      <trkpt lat="63.07694" lon="7.65406">
        <ele>51.705187</ele>
        <time>2020-08-03T11:50:14.177Z</time>
      </trkpt>
      <trkpt lat="63.07708" lon="7.65427">
        <ele>52.283725</ele>
        <time>2020-08-03T11:50:16.144Z</time>
      </trkpt>
      <trkpt lat="63.07717" lon="7.65443">
        <ele>52.703102</ele>
        <time>2020-08-03T11:50:18.141Z</time>
      </trkpt>
      <trkpt lat="63.07739" lon="7.65467">
        <ele>53.57345</ele>
        <time>2020-08-03T11:50:37.146Z</time>
      </trkpt>
      <trkpt lat="63.07751" lon="7.65485">
        <ele>54.07953</ele>
        <time>2020-08-03T11:50:40.139Z</time>
      </trkpt>
      <trkpt lat="63.0776" lon="7.65504">
        <ele>54.533699</ele>
        <time>2020-08-03T11:50:42.139Z</time>
      </trkpt>
      <trkpt lat="63.07768" lon="7.65525">
        <ele>54.973076</ele>
        <time>2020-08-03T11:50:44.136Z</time>
      </trkpt>
      <trkpt lat="63.07777" lon="7.65551">
        <ele>55.493293</ele>
        <time>2020-08-03T11:50:46.178Z</time>
      </trkpt>
      <trkpt lat="63.07785" lon="7.65583">
        <ele>56.099327</ele>
        <time>2020-08-03T11:50:48.140Z</time>
      </trkpt>
      <trkpt lat="63.07793" lon="7.65619">
        <ele>56.728551</ele>
        <time>2020-08-03T11:50:50.151Z</time>
      </trkpt>
      <trkpt lat="63.07796" lon="7.65638">
        <ele>57.148649</ele>
        <time>2020-08-03T11:50:51.141Z</time>
      </trkpt>
      <trkpt lat="63.07801" lon="7.6566">
        <ele>57.612369</ele>
        <time>2020-08-03T11:50:52.148Z</time>
      </trkpt>
      <trkpt lat="63.07805" lon="7.65681">
        <ele>58.094313</ele>
        <time>2020-08-03T11:50:53.130Z</time>
      </trkpt>
      <trkpt lat="63.0781" lon="7.65703">
        <ele>58.582088</ele>
        <time>2020-08-03T11:50:54.144Z</time>
      </trkpt>
      <trkpt lat="63.07816" lon="7.65724">
        <ele>59.063968</ele>
        <time>2020-08-03T11:50:55.140Z</time>
      </trkpt>
      <trkpt lat="63.07823" lon="7.65743">
        <ele>59.540886</ele>
        <time>2020-08-03T11:50:56.125Z</time>
      </trkpt>
      <trkpt lat="63.0783" lon="7.65761">
        <ele>60.033605</ele>
        <time>2020-08-03T11:50:57.121Z</time>
      </trkpt>
      <trkpt lat="63.07839" lon="7.65777">
        <ele>60.539913</ele>
        <time>2020-08-03T11:50:58.141Z</time>
      </trkpt>
      <trkpt lat="63.07849" lon="7.65792">
        <ele>61.083721</ele>
        <time>2020-08-03T11:50:59.137Z</time>
      </trkpt>
      <trkpt lat="63.07861" lon="7.65804">
        <ele>61.661517</ele>
        <time>2020-08-03T11:51:00.163Z</time>
      </trkpt>
      <trkpt lat="63.07874" lon="7.65815">
        <ele>62.268282</ele>
        <time>2020-08-03T11:51:01.140Z</time>
      </trkpt>
      <trkpt lat="63.07888" lon="7.65824">
        <ele>62.888694</ele>
        <time>2020-08-03T11:51:02.132Z</time>
      </trkpt>
      <trkpt lat="63.07901" lon="7.65833">
        <ele>63.498291</ele>
        <time>2020-08-03T11:51:03.142Z</time>
      </trkpt>
      <trkpt lat="63.07914" lon="7.65842">
        <ele>64.099476</ele>
        <time>2020-08-03T11:51:04.132Z</time>
      </trkpt>
      <trkpt lat="63.07927" lon="7.65852">
        <ele>64.689499</ele>
        <time>2020-08-03T11:51:05.139Z</time>
      </trkpt>
      <trkpt lat="63.0794" lon="7.65863">
        <ele>64.986302</ele>
        <time>2020-08-03T11:51:06.149Z</time>
      </trkpt>
      <trkpt lat="63.07953" lon="7.65875">
        <ele>65.294643</ele>
        <time>2020-08-03T11:51:07.148Z</time>
      </trkpt>
      <trkpt lat="63.07967" lon="7.65888">
        <ele>65.616146</ele>
        <time>2020-08-03T11:51:08.159Z</time>
      </trkpt>
      <trkpt lat="63.07981" lon="7.65901">
        <ele>65.940745</ele>
        <time>2020-08-03T11:51:09.141Z</time>
      </trkpt>
      <trkpt lat="63.07995" lon="7.65915">
        <ele>66.267296</ele>
        <time>2020-08-03T11:51:10.139Z</time>
      </trkpt>
      <trkpt lat="63.08009" lon="7.65928">
        <ele>66.588799</ele>
        <time>2020-08-03T11:51:11.135Z</time>
      </trkpt>
      <trkpt lat="63.08023" lon="7.65941">
        <ele>66.909924</ele>
        <time>2020-08-03T11:51:12.144Z</time>
      </trkpt>
      <trkpt lat="63.08037" lon="7.65953">
        <ele>67.221711</ele>
        <time>2020-08-03T11:51:13.139Z</time>
      </trkpt>
      <trkpt lat="63.0805" lon="7.65966">
        <ele>67.525678</ele>
        <time>2020-08-03T11:51:14.140Z</time>
      </trkpt>
      <trkpt lat="63.08063" lon="7.65978">
        <ele>67.82536</ele>
        <time>2020-08-03T11:51:15.137Z</time>
      </trkpt>
      <trkpt lat="63.08075" lon="7.65991">
        <ele>68.114144</ele>
        <time>2020-08-03T11:51:16.146Z</time>
      </trkpt>
      <trkpt lat="63.08087" lon="7.66002">
        <ele>68.396713</ele>
        <time>2020-08-03T11:51:17.142Z</time>
      </trkpt>
      <trkpt lat="63.08099" lon="7.66014">
        <ele>68.47729</ele>
        <time>2020-08-03T11:51:18.150Z</time>
      </trkpt>
      <trkpt lat="63.08111" lon="7.66025">
        <ele>68.442882</ele>
        <time>2020-08-03T11:51:19.154Z</time>
      </trkpt>
      <trkpt lat="63.08122" lon="7.66036">
        <ele>68.410456</ele>
        <time>2020-08-03T11:51:20.153Z</time>
      </trkpt>
      <trkpt lat="63.08131" lon="7.66045">
        <ele>68.381997</ele>
        <time>2020-08-03T11:51:21.138Z</time>
      </trkpt>
      <trkpt lat="63.08146" lon="7.66059">
        <ele>68.339061</ele>
        <time>2020-08-03T11:51:23.135Z</time>
      </trkpt>
      <trkpt lat="63.08155" lon="7.66068">
        <ele>68.312832</ele>
        <time>2020-08-03T11:51:25.144Z</time>
      </trkpt>
      <trkpt lat="63.08164" lon="7.66076">
        <ele>68.285509</ele>
        <time>2020-08-03T11:51:28.140Z</time>
      </trkpt>
      <trkpt lat="63.08177" lon="7.66077">
        <ele>68.249447</ele>
        <time>2020-08-03T11:51:31.150Z</time>
      </trkpt>
      <trkpt lat="63.08187" lon="7.66074">
        <ele>68.22213</ele>
        <time>2020-08-03T11:51:33.136Z</time>
      </trkpt>
      <trkpt lat="63.08197" lon="7.66076">
        <ele>68.196597</ele>
        <time>2020-08-03T11:51:35.153Z</time>
      </trkpt>
      <trkpt lat="63.08223" lon="7.66107">
        <ele>68.116467</ele>
        <time>2020-08-03T11:52:01.153Z</time>
      </trkpt>
      <trkpt lat="63.0823" lon="7.66124">
        <ele>68.087154</ele>
        <time>2020-08-03T11:52:09.119Z</time>
      </trkpt>
      <trkpt lat="63.0824" lon="7.66143">
        <ele>68.050756</ele>
        <time>2020-08-03T11:52:12.151Z</time>
      </trkpt>
      <trkpt lat="63.08251" lon="7.66156">
        <ele>68.017175</ele>
        <time>2020-08-03T11:52:14.138Z</time>
      </trkpt>
      <trkpt lat="63.08266" lon="7.6617">
        <ele>67.944882</ele>
        <time>2020-08-03T11:52:16.139Z</time>
      </trkpt>
      <trkpt lat="63.08282" lon="7.66186">
        <ele>67.860976</ele>
        <time>2020-08-03T11:52:18.146Z</time>
      </trkpt>
      <trkpt lat="63.08291" lon="7.66193">
        <ele>67.814721</ele>
        <time>2020-08-03T11:52:19.148Z</time>
      </trkpt>
      <trkpt lat="63.08301" lon="7.66201">
        <ele>67.766133</ele>
        <time>2020-08-03T11:52:20.147Z</time>
      </trkpt>
      <trkpt lat="63.08311" lon="7.66207">
        <ele>67.715194</ele>
        <time>2020-08-03T11:52:21.137Z</time>
      </trkpt>
      <trkpt lat="63.08321" lon="7.66212">
        <ele>67.663202</ele>
        <time>2020-08-03T11:52:22.142Z</time>
      </trkpt>
      <trkpt lat="63.08332" lon="7.66214">
        <ele>67.612197</ele>
        <time>2020-08-03T11:52:23.127Z</time>
      </trkpt>
      <trkpt lat="63.08344" lon="7.66214">
        <ele>67.556123</ele>
        <time>2020-08-03T11:52:24.199Z</time>
      </trkpt>
      <trkpt lat="63.08356" lon="7.66211">
        <ele>67.496339</ele>
        <time>2020-08-03T11:52:25.140Z</time>
      </trkpt>
      <trkpt lat="63.08369" lon="7.66207">
        <ele>67.434223</ele>
        <time>2020-08-03T11:52:26.167Z</time>
      </trkpt>
      <trkpt lat="63.08381" lon="7.66202">
        <ele>67.375777</ele>
        <time>2020-08-03T11:52:27.137Z</time>
      </trkpt>
      <trkpt lat="63.08391" lon="7.66198">
        <ele>67.326306</ele>
        <time>2020-08-03T11:52:28.143Z</time>
      </trkpt>
      <trkpt lat="63.08405" lon="7.66198">
        <ele>67.258731</ele>
        <time>2020-08-03T11:52:30.146Z</time>
      </trkpt>
      <trkpt lat="63.08414" lon="7.66199">
        <ele>67.21511</ele>
        <time>2020-08-03T11:52:34.123Z</time>
      </trkpt>
      <trkpt lat="63.08441" lon="7.66189">
        <ele>67.24087</ele>
        <time>2020-08-03T11:52:52.126Z</time>
      </trkpt>
      <trkpt lat="63.08453" lon="7.66189">
        <ele>67.325852</ele>
        <time>2020-08-03T11:52:54.170Z</time>
      </trkpt>
      <trkpt lat="63.08467" lon="7.66186">
        <ele>67.423137</ele>
        <time>2020-08-03T11:52:56.125Z</time>
      </trkpt>
      <trkpt lat="63.08479" lon="7.66169">
        <ele>67.525979</ele>
        <time>2020-08-03T11:52:58.109Z</time>
      </trkpt>
      <trkpt lat="63.0849" lon="7.66147">
        <ele>67.625844</ele>
        <time>2020-08-03T11:53:00.124Z</time>
      </trkpt>
      <trkpt lat="63.08503" lon="7.66126">
        <ele>67.738399</ele>
        <time>2020-08-03T11:53:02.111Z</time>
      </trkpt>
      <trkpt lat="63.08517" lon="7.66105">
        <ele>67.858009</ele>
        <time>2020-08-03T11:53:04.142Z</time>
      </trkpt>
      <trkpt lat="63.08531" lon="7.66081">
        <ele>67.984423</ele>
        <time>2020-08-03T11:53:06.117Z</time>
      </trkpt>
      <trkpt lat="63.08539" lon="7.66066">
        <ele>68.055203</ele>
        <time>2020-08-03T11:53:07.130Z</time>
      </trkpt>
      <trkpt lat="63.08547" lon="7.66049">
        <ele>68.129207</ele>
        <time>2020-08-03T11:53:08.175Z</time>
      </trkpt>
      <trkpt lat="63.08554" lon="7.66033">
        <ele>68.202635</ele>
        <time>2020-08-03T11:53:09.126Z</time>
      </trkpt>
      <trkpt lat="63.08561" lon="7.66015">
        <ele>68.273946</ele>
        <time>2020-08-03T11:53:10.141Z</time>
      </trkpt>
      <trkpt lat="63.08567" lon="7.65998">
        <ele>68.346252</ele>
        <time>2020-08-03T11:53:11.128Z</time>
      </trkpt>
      <trkpt lat="63.08574" lon="7.6598">
        <ele>68.453271</ele>
        <time>2020-08-03T11:53:12.156Z</time>
      </trkpt>
      <trkpt lat="63.0858" lon="7.6596">
        <ele>68.697265</ele>
        <time>2020-08-03T11:53:13.137Z</time>
      </trkpt>
      <trkpt lat="63.08587" lon="7.65939">
        <ele>68.944575</ele>
        <time>2020-08-03T11:53:14.133Z</time>
      </trkpt>
      <trkpt lat="63.08593" lon="7.65917">
        <ele>69.204141</ele>
        <time>2020-08-03T11:53:15.152Z</time>
      </trkpt>
      <trkpt lat="63.086" lon="7.65893">
        <ele>69.48071</ele>
        <time>2020-08-03T11:53:16.129Z</time>
      </trkpt>
      <trkpt lat="63.08607" lon="7.65867">
        <ele>69.77365</ele>
        <time>2020-08-03T11:53:17.140Z</time>
      </trkpt>
      <trkpt lat="63.08613" lon="7.6584">
        <ele>70.081071</ele>
        <time>2020-08-03T11:53:18.137Z</time>
      </trkpt>
      <trkpt lat="63.08619" lon="7.65811">
        <ele>70.393396</ele>
        <time>2020-08-03T11:53:19.118Z</time>
      </trkpt>
      <trkpt lat="63.08625" lon="7.65782">
        <ele>70.703001</ele>
        <time>2020-08-03T11:53:20.128Z</time>
      </trkpt>
      <trkpt lat="63.0863" lon="7.65752">
        <ele>71.014155</ele>
        <time>2020-08-03T11:53:21.137Z</time>
      </trkpt>
      <trkpt lat="63.08633" lon="7.65721">
        <ele>71.329894</ele>
        <time>2020-08-03T11:53:22.137Z</time>
      </trkpt>
      <trkpt lat="63.08636" lon="7.65689">
        <ele>71.655592</ele>
        <time>2020-08-03T11:53:23.132Z</time>
      </trkpt>
      <trkpt lat="63.08639" lon="7.65655">
        <ele>71.987678</ele>
        <time>2020-08-03T11:53:24.146Z</time>
      </trkpt>
      <trkpt lat="63.08641" lon="7.65621">
        <ele>72.322526</ele>
        <time>2020-08-03T11:53:25.140Z</time>
      </trkpt>
      <trkpt lat="63.08643" lon="7.65586">
        <ele>72.549335</ele>
        <time>2020-08-03T11:53:26.116Z</time>
      </trkpt>
      <trkpt lat="63.08644" lon="7.6555">
        <ele>72.78223</ele>
        <time>2020-08-03T11:53:27.142Z</time>
      </trkpt>
      <trkpt lat="63.08646" lon="7.65513">
        <ele>73.020378</ele>
        <time>2020-08-03T11:53:28.168Z</time>
      </trkpt>
      <trkpt lat="63.08648" lon="7.65476">
        <ele>73.261381</ele>
        <time>2020-08-03T11:53:29.127Z</time>
      </trkpt>
      <trkpt lat="63.0865" lon="7.65439">
        <ele>73.500309</ele>
        <time>2020-08-03T11:53:30.140Z</time>
      </trkpt>
      <trkpt lat="63.08653" lon="7.65402">
        <ele>73.740936</ele>
        <time>2020-08-03T11:53:31.135Z</time>
      </trkpt>
      <trkpt lat="63.08655" lon="7.65364">
        <ele>73.986007</ele>
        <time>2020-08-03T11:53:32.126Z</time>
      </trkpt>
      <trkpt lat="63.08659" lon="7.65326">
        <ele>74.237335</ele>
        <time>2020-08-03T11:53:33.132Z</time>
      </trkpt>
      <trkpt lat="63.08663" lon="7.65286">
        <ele>74.50068</ele>
        <time>2020-08-03T11:53:34.139Z</time>
      </trkpt>
      <trkpt lat="63.08667" lon="7.65244">
        <ele>74.773724</ele>
        <time>2020-08-03T11:53:35.144Z</time>
      </trkpt>
      <trkpt lat="63.08672" lon="7.65203">
        <ele>74.604943</ele>
        <time>2020-08-03T11:53:36.137Z</time>
      </trkpt>
      <trkpt lat="63.08678" lon="7.6516">
        <ele>74.195936</ele>
        <time>2020-08-03T11:53:37.128Z</time>
      </trkpt>
      <trkpt lat="63.08685" lon="7.65115">
        <ele>73.765286</ele>
        <time>2020-08-03T11:53:38.116Z</time>
      </trkpt>
      <trkpt lat="63.08693" lon="7.65069">
        <ele>73.323134</ele>
        <time>2020-08-03T11:53:39.133Z</time>
      </trkpt>
      <trkpt lat="63.08701" lon="7.65023">
        <ele>72.874189</ele>
        <time>2020-08-03T11:53:40.118Z</time>
      </trkpt>
      <trkpt lat="63.08709" lon="7.64978">
        <ele>72.428996</ele>
        <time>2020-08-03T11:53:41.132Z</time>
      </trkpt>
      <trkpt lat="63.08718" lon="7.64933">
        <ele>71.980686</ele>
        <time>2020-08-03T11:53:42.137Z</time>
      </trkpt>
      <trkpt lat="63.08728" lon="7.64888">
        <ele>71.529685</ele>
        <time>2020-08-03T11:53:43.181Z</time>
      </trkpt>
      <trkpt lat="63.08738" lon="7.64843">
        <ele>71.19605</ele>
        <time>2020-08-03T11:53:44.126Z</time>
      </trkpt>
      <trkpt lat="63.08749" lon="7.64799">
        <ele>71.049721</ele>
        <time>2020-08-03T11:53:45.142Z</time>
      </trkpt>
      <trkpt lat="63.08761" lon="7.64756">
        <ele>70.904048</ele>
        <time>2020-08-03T11:53:46.118Z</time>
      </trkpt>
      <trkpt lat="63.08773" lon="7.64713">
        <ele>70.759277</ele>
        <time>2020-08-03T11:53:47.152Z</time>
      </trkpt>
      <trkpt lat="63.08785" lon="7.64672">
        <ele>70.617002</ele>
        <time>2020-08-03T11:53:48.127Z</time>
      </trkpt>
      <trkpt lat="63.08798" lon="7.64632">
        <ele>70.47499</ele>
        <time>2020-08-03T11:53:49.122Z</time>
      </trkpt>
      <trkpt lat="63.08811" lon="7.64592">
        <ele>70.334128</ele>
        <time>2020-08-03T11:53:50.123Z</time>
      </trkpt>
      <trkpt lat="63.08823" lon="7.64553">
        <ele>70.195186</ele>
        <time>2020-08-03T11:53:51.127Z</time>
      </trkpt>
      <trkpt lat="63.08836" lon="7.64515">
        <ele>70.172487</ele>
        <time>2020-08-03T11:53:52.146Z</time>
      </trkpt>
      <trkpt lat="63.08848" lon="7.64476">
        <ele>70.376739</ele>
        <time>2020-08-03T11:53:53.122Z</time>
      </trkpt>
      <trkpt lat="63.0886" lon="7.64437">
        <ele>70.581005</ele>
        <time>2020-08-03T11:53:54.120Z</time>
      </trkpt>
      <trkpt lat="63.08871" lon="7.64397">
        <ele>70.783271</ele>
        <time>2020-08-03T11:53:55.126Z</time>
      </trkpt>
      <trkpt lat="63.08882" lon="7.64357">
        <ele>70.986764</ele>
        <time>2020-08-03T11:53:56.110Z</time>
      </trkpt>
      <trkpt lat="63.08892" lon="7.64317">
        <ele>71.187455</ele>
        <time>2020-08-03T11:53:57.107Z</time>
      </trkpt>
      <trkpt lat="63.08902" lon="7.64277">
        <ele>71.385507</ele>
        <time>2020-08-03T11:53:58.155Z</time>
      </trkpt>
      <trkpt lat="63.08911" lon="7.64237">
        <ele>71.581165</ele>
        <time>2020-08-03T11:53:59.138Z</time>
      </trkpt>
      <trkpt lat="63.0892" lon="7.64196">
        <ele>71.777898</ele>
        <time>2020-08-03T11:54:00.114Z</time>
      </trkpt>
      <trkpt lat="63.08929" lon="7.64156">
        <ele>71.88674</ele>
        <time>2020-08-03T11:54:01.138Z</time>
      </trkpt>
      <trkpt lat="63.08937" lon="7.64115">
        <ele>71.964284</ele>
        <time>2020-08-03T11:54:02.129Z</time>
      </trkpt>
      <trkpt lat="63.08946" lon="7.64075">
        <ele>72.041357</ele>
        <time>2020-08-03T11:54:03.140Z</time>
      </trkpt>
      <trkpt lat="63.08954" lon="7.64035">
        <ele>72.118742</ele>
        <time>2020-08-03T11:54:04.147Z</time>
      </trkpt>
      <trkpt lat="63.08963" lon="7.63995">
        <ele>72.196045</ele>
        <time>2020-08-03T11:54:05.138Z</time>
      </trkpt>
      <trkpt lat="63.08973" lon="7.63956">
        <ele>72.273045</ele>
        <time>2020-08-03T11:54:06.131Z</time>
      </trkpt>
      <trkpt lat="63.08984" lon="7.63919">
        <ele>72.350667</ele>
        <time>2020-08-03T11:54:07.132Z</time>
      </trkpt>
      <trkpt lat="63.08997" lon="7.63884">
        <ele>72.42868</ele>
        <time>2020-08-03T11:54:08.127Z</time>
      </trkpt>
      <trkpt lat="63.09011" lon="7.63851">
        <ele>72.507292</ele>
        <time>2020-08-03T11:54:09.141Z</time>
      </trkpt>
      <trkpt lat="63.09027" lon="7.63821">
        <ele>72.372244</ele>
        <time>2020-08-03T11:54:10.141Z</time>
      </trkpt>
      <trkpt lat="63.09043" lon="7.63793">
        <ele>72.189717</ele>
        <time>2020-08-03T11:54:11.131Z</time>
      </trkpt>
      <trkpt lat="63.09062" lon="7.63769">
        <ele>72.007012</ele>
        <time>2020-08-03T11:54:12.143Z</time>
      </trkpt>
      <trkpt lat="63.09081" lon="7.63748">
        <ele>71.823254</ele>
        <time>2020-08-03T11:54:13.138Z</time>
      </trkpt>
      <trkpt lat="63.091" lon="7.6373">
        <ele>71.636778</ele>
        <time>2020-08-03T11:54:14.125Z</time>
      </trkpt>
      <trkpt lat="63.0912" lon="7.63714">
        <ele>71.452929</ele>
        <time>2020-08-03T11:54:15.108Z</time>
      </trkpt>
      <trkpt lat="63.09141" lon="7.63702">
        <ele>71.265949</ele>
        <time>2020-08-03T11:54:16.106Z</time>
      </trkpt>
      <trkpt lat="63.09162" lon="7.63692">
        <ele>71.083672</ele>
        <time>2020-08-03T11:54:17.111Z</time>
      </trkpt>
      <trkpt lat="63.09182" lon="7.63682">
        <ele>70.851164</ele>
        <time>2020-08-03T11:54:18.111Z</time>
      </trkpt>
      <trkpt lat="63.09202" lon="7.63673">
        <ele>70.511924</ele>
        <time>2020-08-03T11:54:19.126Z</time>
      </trkpt>
      <trkpt lat="63.09222" lon="7.63662">
        <ele>70.175481</ele>
        <time>2020-08-03T11:54:20.137Z</time>
      </trkpt>
      <trkpt lat="63.09242" lon="7.63649">
        <ele>69.843894</ele>
        <time>2020-08-03T11:54:21.104Z</time>
      </trkpt>
      <trkpt lat="63.09261" lon="7.63635">
        <ele>69.507445</ele>
        <time>2020-08-03T11:54:22.124Z</time>
      </trkpt>
      <trkpt lat="63.09281" lon="7.63619">
        <ele>69.171598</ele>
        <time>2020-08-03T11:54:23.120Z</time>
      </trkpt>
      <trkpt lat="63.09299" lon="7.636">
        <ele>68.835896</ele>
        <time>2020-08-03T11:54:24.111Z</time>
      </trkpt>
      <trkpt lat="63.09318" lon="7.63582">
        <ele>68.508218</ele>
        <time>2020-08-03T11:54:25.122Z</time>
      </trkpt>
      <trkpt lat="63.09335" lon="7.63562">
        <ele>68.181108</ele>
        <time>2020-08-03T11:54:26.140Z</time>
      </trkpt>
      <trkpt lat="63.09353" lon="7.63541">
        <ele>67.618359</ele>
        <time>2020-08-03T11:54:27.129Z</time>
      </trkpt>
      <trkpt lat="63.0937" lon="7.63519">
        <ele>66.832543</ele>
        <time>2020-08-03T11:54:28.122Z</time>
      </trkpt>
      <trkpt lat="63.09386" lon="7.63496">
        <ele>66.067358</ele>
        <time>2020-08-03T11:54:29.154Z</time>
      </trkpt>
      <trkpt lat="63.09402" lon="7.63472">
        <ele>65.301781</ele>
        <time>2020-08-03T11:54:30.135Z</time>
      </trkpt>
      <trkpt lat="63.09418" lon="7.63447">
        <ele>64.529152</ele>
        <time>2020-08-03T11:54:31.150Z</time>
      </trkpt>
      <trkpt lat="63.09434" lon="7.6342">
        <ele>63.735164</ele>
        <time>2020-08-03T11:54:32.131Z</time>
      </trkpt>
      <trkpt lat="63.09449" lon="7.63392">
        <ele>62.937516</ele>
        <time>2020-08-03T11:54:33.136Z</time>
      </trkpt>
      <trkpt lat="63.09465" lon="7.63364">
        <ele>62.132757</ele>
        <time>2020-08-03T11:54:34.150Z</time>
      </trkpt>
      <trkpt lat="63.0948" lon="7.63336">
        <ele>61.353432</ele>
        <time>2020-08-03T11:54:35.147Z</time>
      </trkpt>
      <trkpt lat="63.09495" lon="7.63306">
        <ele>60.614334</ele>
        <time>2020-08-03T11:54:36.132Z</time>
      </trkpt>
      <trkpt lat="63.09509" lon="7.63276">
        <ele>59.957553</ele>
        <time>2020-08-03T11:54:37.135Z</time>
      </trkpt>
      <trkpt lat="63.09522" lon="7.63244">
        <ele>59.299762</ele>
        <time>2020-08-03T11:54:38.120Z</time>
      </trkpt>
      <trkpt lat="63.09536" lon="7.63211">
        <ele>58.639875</ele>
        <time>2020-08-03T11:54:39.146Z</time>
      </trkpt>
      <trkpt lat="63.09549" lon="7.63178">
        <ele>57.983108</ele>
        <time>2020-08-03T11:54:40.135Z</time>
      </trkpt>
      <trkpt lat="63.09561" lon="7.63144">
        <ele>57.316791</ele>
        <time>2020-08-03T11:54:41.133Z</time>
      </trkpt>
      <trkpt lat="63.09574" lon="7.63109">
        <ele>56.64878</ele>
        <time>2020-08-03T11:54:42.143Z</time>
      </trkpt>
      <trkpt lat="63.09586" lon="7.63074">
        <ele>55.988924</ele>
        <time>2020-08-03T11:54:43.137Z</time>
      </trkpt>
      <trkpt lat="63.09599" lon="7.63039">
        <ele>55.322611</ele>
        <time>2020-08-03T11:54:44.142Z</time>
      </trkpt>
      <trkpt lat="63.09612" lon="7.63006">
        <ele>54.892263</ele>
        <time>2020-08-03T11:54:45.153Z</time>
      </trkpt>
      <trkpt lat="63.09626" lon="7.62976">
        <ele>54.858247</ele>
        <time>2020-08-03T11:54:46.143Z</time>
      </trkpt>
      <trkpt lat="63.09641" lon="7.62947">
        <ele>54.823466</ele>
        <time>2020-08-03T11:54:47.139Z</time>
      </trkpt>
      <trkpt lat="63.09657" lon="7.62921">
        <ele>54.788499</ele>
        <time>2020-08-03T11:54:48.122Z</time>
      </trkpt>
      <trkpt lat="63.09674" lon="7.62899">
        <ele>54.754915</ele>
        <time>2020-08-03T11:54:49.135Z</time>
      </trkpt>
      <trkpt lat="63.09691" lon="7.6288">
        <ele>54.722117</ele>
        <time>2020-08-03T11:54:50.138Z</time>
      </trkpt>
      <trkpt lat="63.09707" lon="7.62864">
        <ele>54.690338</ele>
        <time>2020-08-03T11:54:51.145Z</time>
      </trkpt>
      <trkpt lat="63.09724" lon="7.6285">
        <ele>54.65885</ele>
        <time>2020-08-03T11:54:52.125Z</time>
      </trkpt>
      <trkpt lat="63.09742" lon="7.62839">
        <ele>54.626945</ele>
        <time>2020-08-03T11:54:53.139Z</time>
      </trkpt>
      <trkpt lat="63.09759" lon="7.6283">
        <ele>54.595989</ele>
        <time>2020-08-03T11:54:54.152Z</time>
      </trkpt>
      <trkpt lat="63.09777" lon="7.62823">
        <ele>54.994442</ele>
        <time>2020-08-03T11:54:55.138Z</time>
      </trkpt>
      <trkpt lat="63.09795" lon="7.62816">
        <ele>55.448594</ele>
        <time>2020-08-03T11:54:56.126Z</time>
      </trkpt>
      <trkpt lat="63.09814" lon="7.62811">
        <ele>55.906457</ele>
        <time>2020-08-03T11:54:57.132Z</time>
      </trkpt>
      <trkpt lat="63.09832" lon="7.62805">
        <ele>56.367258</ele>
        <time>2020-08-03T11:54:58.130Z</time>
      </trkpt>
      <trkpt lat="63.09851" lon="7.62798">
        <ele>56.829288</ele>
        <time>2020-08-03T11:54:59.170Z</time>
      </trkpt>
      <trkpt lat="63.09869" lon="7.6279">
        <ele>57.289837</ele>
        <time>2020-08-03T11:55:00.171Z</time>
      </trkpt>
      <trkpt lat="63.09887" lon="7.62783">
        <ele>57.749197</ele>
        <time>2020-08-03T11:55:01.160Z</time>
      </trkpt>
      <trkpt lat="63.09905" lon="7.62775">
        <ele>58.208774</ele>
        <time>2020-08-03T11:55:02.148Z</time>
      </trkpt>
      <trkpt lat="63.09923" lon="7.62767">
        <ele>58.660628</ele>
        <time>2020-08-03T11:55:03.175Z</time>
      </trkpt>
      <trkpt lat="63.09941" lon="7.62759">
        <ele>59.081343</ele>
        <time>2020-08-03T11:55:04.142Z</time>
      </trkpt>
      <trkpt lat="63.09959" lon="7.62751">
        <ele>59.312441</ele>
        <time>2020-08-03T11:55:05.136Z</time>
      </trkpt>
      <trkpt lat="63.09976" lon="7.62743">
        <ele>59.539522</ele>
        <time>2020-08-03T11:55:06.140Z</time>
      </trkpt>
      <trkpt lat="63.09993" lon="7.62737">
        <ele>59.76057</ele>
        <time>2020-08-03T11:55:07.137Z</time>
      </trkpt>
      <trkpt lat="63.10009" lon="7.62731">
        <ele>59.975758</ele>
        <time>2020-08-03T11:55:08.151Z</time>
      </trkpt>
      <trkpt lat="63.10026" lon="7.62726">
        <ele>60.189057</ele>
        <time>2020-08-03T11:55:09.136Z</time>
      </trkpt>
      <trkpt lat="63.10042" lon="7.62721">
        <ele>60.399409</ele>
        <time>2020-08-03T11:55:10.127Z</time>
      </trkpt>
      <trkpt lat="63.10057" lon="7.62717">
        <ele>60.600121</ele>
        <time>2020-08-03T11:55:11.124Z</time>
      </trkpt>
      <trkpt lat="63.10073" lon="7.62714">
        <ele>60.796696</ele>
        <time>2020-08-03T11:55:12.121Z</time>
      </trkpt>
      <trkpt lat="63.10087" lon="7.62712">
        <ele>60.987705</ele>
        <time>2020-08-03T11:55:13.127Z</time>
      </trkpt>
      <trkpt lat="63.10102" lon="7.6271">
        <ele>61.174676</ele>
        <time>2020-08-03T11:55:14.122Z</time>
      </trkpt>
      <trkpt lat="63.10116" lon="7.62708">
        <ele>61.359147</ele>
        <time>2020-08-03T11:55:15.126Z</time>
      </trkpt>
      <trkpt lat="63.1013" lon="7.62706">
        <ele>61.67529</ele>
        <time>2020-08-03T11:55:16.136Z</time>
      </trkpt>
      <trkpt lat="63.10143" lon="7.62705">
        <ele>61.977899</ele>
        <time>2020-08-03T11:55:17.141Z</time>
      </trkpt>
      <trkpt lat="63.10155" lon="7.62705">
        <ele>62.257241</ele>
        <time>2020-08-03T11:55:18.123Z</time>
      </trkpt>
      <trkpt lat="63.10167" lon="7.62706">
        <ele>62.518167</ele>
        <time>2020-08-03T11:55:19.184Z</time>
      </trkpt>
      <trkpt lat="63.10177" lon="7.62707">
        <ele>62.765409</ele>
        <time>2020-08-03T11:55:20.127Z</time>
      </trkpt>
      <trkpt lat="63.10187" lon="7.62708">
        <ele>62.999105</ele>
        <time>2020-08-03T11:55:21.133Z</time>
      </trkpt>
      <trkpt lat="63.10196" lon="7.62709">
        <ele>63.209562</ele>
        <time>2020-08-03T11:55:22.140Z</time>
      </trkpt>
      <trkpt lat="63.10211" lon="7.62712">
        <ele>63.55267</ele>
        <time>2020-08-03T11:55:24.133Z</time>
      </trkpt>
      <trkpt lat="63.10222" lon="7.62723">
        <ele>63.822567</ele>
        <time>2020-08-03T11:55:26.117Z</time>
      </trkpt>
      <trkpt lat="63.10226" lon="7.62746">
        <ele>64.076707</ele>
        <time>2020-08-03T11:55:28.130Z</time>
      </trkpt>
      <trkpt lat="63.1023" lon="7.62768">
        <ele>64.322517</ele>
        <time>2020-08-03T11:55:30.130Z</time>
      </trkpt>
      <trkpt lat="63.10239" lon="7.62783">
        <ele>64.584582</ele>
        <time>2020-08-03T11:55:33.126Z</time>
      </trkpt>
      <trkpt lat="63.10262" lon="7.62757">
        <ele>65.166261</ele>
        <time>2020-08-03T11:55:52.138Z</time>
      </trkpt>
      <trkpt lat="63.10268" lon="7.62737">
        <ele>65.418225</ele>
        <time>2020-08-03T11:55:55.136Z</time>
      </trkpt>
      <trkpt lat="63.10282" lon="7.62727">
        <ele>65.575032</ele>
        <time>2020-08-03T11:55:58.114Z</time>
      </trkpt>
      <trkpt lat="63.10294" lon="7.62731">
        <ele>65.645093</ele>
        <time>2020-08-03T11:56:00.133Z</time>
      </trkpt>
      <trkpt lat="63.10308" lon="7.62738">
        <ele>65.724121</ele>
        <time>2020-08-03T11:56:02.171Z</time>
      </trkpt>
      <trkpt lat="63.10325" lon="7.62745">
        <ele>65.824375</ele>
        <time>2020-08-03T11:56:04.166Z</time>
      </trkpt>
      <trkpt lat="63.10335" lon="7.6275">
        <ele>65.884678</ele>
        <time>2020-08-03T11:56:05.127Z</time>
      </trkpt>
      <trkpt lat="63.10346" lon="7.62755">
        <ele>65.947518</ele>
        <time>2020-08-03T11:56:06.123Z</time>
      </trkpt>
      <trkpt lat="63.10357" lon="7.6276">
        <ele>66.009526</ele>
        <time>2020-08-03T11:56:07.128Z</time>
      </trkpt>
      <trkpt lat="63.10367" lon="7.62766">
        <ele>66.069994</ele>
        <time>2020-08-03T11:56:08.140Z</time>
      </trkpt>
      <trkpt lat="63.10377" lon="7.62772">
        <ele>66.129974</ele>
        <time>2020-08-03T11:56:09.134Z</time>
      </trkpt>
      <trkpt lat="63.10388" lon="7.62778">
        <ele>66.191867</ele>
        <time>2020-08-03T11:56:10.133Z</time>
      </trkpt>
      <trkpt lat="63.10398" lon="7.62785">
        <ele>66.256035</ele>
        <time>2020-08-03T11:56:11.124Z</time>
      </trkpt>
      <trkpt lat="63.1041" lon="7.62793">
        <ele>66.322289</ele>
        <time>2020-08-03T11:56:12.129Z</time>
      </trkpt>
      <trkpt lat="63.1042" lon="7.62801">
        <ele>66.388199</ele>
        <time>2020-08-03T11:56:13.122Z</time>
      </trkpt>
      <trkpt lat="63.10431" lon="7.62811">
        <ele>66.453108</ele>
        <time>2020-08-03T11:56:14.141Z</time>
      </trkpt>
      <trkpt lat="63.10441" lon="7.62821">
        <ele>66.517278</ele>
        <time>2020-08-03T11:56:15.125Z</time>
      </trkpt>
      <trkpt lat="63.10451" lon="7.62832">
        <ele>66.608072</ele>
        <time>2020-08-03T11:56:16.129Z</time>
      </trkpt>
      <trkpt lat="63.10461" lon="7.62842">
        <ele>66.711904</ele>
        <time>2020-08-03T11:56:17.174Z</time>
      </trkpt>
      <trkpt lat="63.10471" lon="7.6285">
        <ele>66.812519</ele>
        <time>2020-08-03T11:56:18.142Z</time>
      </trkpt>
      <trkpt lat="63.10481" lon="7.62858">
        <ele>66.914311</ele>
        <time>2020-08-03T11:56:19.113Z</time>
      </trkpt>
      <trkpt lat="63.10492" lon="7.62865">
        <ele>67.016463</ele>
        <time>2020-08-03T11:56:20.142Z</time>
      </trkpt>
      <trkpt lat="63.10503" lon="7.62872">
        <ele>67.1224</ele>
        <time>2020-08-03T11:56:21.119Z</time>
      </trkpt>
      <trkpt lat="63.10514" lon="7.62878">
        <ele>67.231441</ele>
        <time>2020-08-03T11:56:22.136Z</time>
      </trkpt>
      <trkpt lat="63.10525" lon="7.62885">
        <ele>67.343757</ele>
        <time>2020-08-03T11:56:23.163Z</time>
      </trkpt>
      <trkpt lat="63.10537" lon="7.62893">
        <ele>67.463033</ele>
        <time>2020-08-03T11:56:24.149Z</time>
      </trkpt>
      <trkpt lat="63.1055" lon="7.62903">
        <ele>67.585333</ele>
        <time>2020-08-03T11:56:25.113Z</time>
      </trkpt>
      <trkpt lat="63.10561" lon="7.62914">
        <ele>67.706781</ele>
        <time>2020-08-03T11:56:26.131Z</time>
      </trkpt>
      <trkpt lat="63.10573" lon="7.62926">
        <ele>67.832736</ele>
        <time>2020-08-03T11:56:27.135Z</time>
      </trkpt>
      <trkpt lat="63.10586" lon="7.62939">
        <ele>67.967664</ele>
        <time>2020-08-03T11:56:28.130Z</time>
      </trkpt>
      <trkpt lat="63.106" lon="7.62955">
        <ele>68.111393</ele>
        <time>2020-08-03T11:56:29.120Z</time>
      </trkpt>
      <trkpt lat="63.10614" lon="7.62971">
        <ele>68.201153</ele>
        <time>2020-08-03T11:56:30.111Z</time>
      </trkpt>
      <trkpt lat="63.1063" lon="7.62988">
        <ele>67.975685</ele>
        <time>2020-08-03T11:56:31.100Z</time>
      </trkpt>
      <trkpt lat="63.10645" lon="7.63007">
        <ele>67.739599</ele>
        <time>2020-08-03T11:56:32.103Z</time>
      </trkpt>
      <trkpt lat="63.10662" lon="7.63026">
        <ele>67.495993</ele>
        <time>2020-08-03T11:56:33.123Z</time>
      </trkpt>
      <trkpt lat="63.10679" lon="7.63044">
        <ele>67.246151</ele>
        <time>2020-08-03T11:56:34.135Z</time>
      </trkpt>
      <trkpt lat="63.10696" lon="7.63063">
        <ele>66.990902</ele>
        <time>2020-08-03T11:56:35.138Z</time>
      </trkpt>
      <trkpt lat="63.10713" lon="7.63083">
        <ele>66.732535</ele>
        <time>2020-08-03T11:56:36.133Z</time>
      </trkpt>
      <trkpt lat="63.10731" lon="7.63103">
        <ele>66.470099</ele>
        <time>2020-08-03T11:56:37.120Z</time>
      </trkpt>
      <trkpt lat="63.10749" lon="7.63123">
        <ele>66.20704</ele>
        <time>2020-08-03T11:56:38.135Z</time>
      </trkpt>
      <trkpt lat="63.10766" lon="7.63144">
        <ele>65.943805</ele>
        <time>2020-08-03T11:56:39.150Z</time>
      </trkpt>
      <trkpt lat="63.10784" lon="7.63166">
        <ele>65.675245</ele>
        <time>2020-08-03T11:56:40.130Z</time>
      </trkpt>
      <trkpt lat="63.10801" lon="7.63188">
        <ele>65.408559</ele>
        <time>2020-08-03T11:56:41.127Z</time>
      </trkpt>
      <trkpt lat="63.10817" lon="7.63209">
        <ele>65.15012</ele>
        <time>2020-08-03T11:56:42.141Z</time>
      </trkpt>
      <trkpt lat="63.10834" lon="7.63231">
        <ele>64.895622</ele>
        <time>2020-08-03T11:56:43.123Z</time>
      </trkpt>
      <trkpt lat="63.1085" lon="7.63253">
        <ele>64.640287</ele>
        <time>2020-08-03T11:56:44.134Z</time>
      </trkpt>
      <trkpt lat="63.10866" lon="7.63274">
        <ele>64.384953</ele>
        <time>2020-08-03T11:56:45.129Z</time>
      </trkpt>
      <trkpt lat="63.10882" lon="7.63296">
        <ele>64.132861</ele>
        <time>2020-08-03T11:56:46.155Z</time>
      </trkpt>
      <trkpt lat="63.10898" lon="7.63316">
        <ele>63.883783</ele>
        <time>2020-08-03T11:56:47.116Z</time>
      </trkpt>
      <trkpt lat="63.10914" lon="7.63337">
        <ele>63.635555</ele>
        <time>2020-08-03T11:56:48.119Z</time>
      </trkpt>
      <trkpt lat="63.12531" lon="7.72779">
        <ele>65.313897</ele>
        <time>2020-08-03T12:01:42.124Z</time>
      </trkpt>
      <trkpt lat="63.12514" lon="7.7277">
        <ele>65.313897</ele>
        <time>2020-08-03T12:01:44.138Z</time>
      </trkpt>
      <trkpt lat="63.12472" lon="7.72737">
        <ele>65.313897</ele>
        <time>2020-08-03T12:01:56.230Z</time>
      </trkpt>
      <trkpt lat="63.12483" lon="7.72734">
        <ele>65.313897</ele>
        <time>2020-08-03T12:01:59.131Z</time>
      </trkpt>
      <trkpt lat="63.12489" lon="7.72751">
        <ele>65.313897</ele>
        <time>2020-08-03T12:02:01.156Z</time>
      </trkpt>
      <trkpt lat="63.12491" lon="7.72774">
        <ele>65.313897</ele>
        <time>2020-08-03T12:02:03.154Z</time>
      </trkpt>
      <trkpt lat="63.12491" lon="7.72795">
        <ele>65.313897</ele>
        <time>2020-08-03T12:02:06.133Z</time>
      </trkpt>
      <trkpt lat="63.12487" lon="7.72774">
        <ele>65.313897</ele>
        <time>2020-08-03T12:03:03.129Z</time>
      </trkpt>
      <trkpt lat="63.12487" lon="7.72772">
        <ele>65.313897</ele>
        <time>2020-08-03T12:16:20.693Z</time>
      </trkpt>
    </trkseg>
  </trk>
</gpx>